# Wetter Temperatur Luftdruck Luftfeuchtigkeit Sichtweite Windgeschwindigkeit Windrichtung Zeit
1 Clouds 30 1011 67 10000 6.17 120 17:32 01.02.2023
2 Clear 28 1012 75 10000 3.09 140 14:26 01.02.2023
3 Rain 28 1012 74 10000 2.57 310 13:20 01.02.2023
4 Clear 28 1012 78 10000 2.57 20 12:49 01.02.2023
5 Rain 27 1011 79 10000 2.06 360 11:56 01.02.2023
6 Clear 26 1010 83 10000 2.06 350 08:51 01.02.2023
7 Clear 28 1011 77 10000 2.57 360 02:34 01.02.2023
8 Clouds 31 1008 62 10000 5.14 140 21:38 31.01.2023
9 Clouds 33 1009 55 10000 5.66 250 19:48 31.01.2023
10 Clouds 32 1010 58 10000 4.12 140 18:50 31.01.2023
11 Clouds 30 1011 62 10000 3.09 60 15:36 31.01.2023
12 Clouds 30 1011 62 10000 3.09 60 15:18 31.01.2023
13 Clouds 29 1011 64 10000 3.09 40 14:19 31.01.2023
14 Clouds 26 1011 78 10000 2.57 330 12:19 31.01.2023
15 Clear 26 1011 81 10000 1.54 10 11:19 31.01.2023
16 Clouds 25 1010 85 10000 2.06 20 09:52 31.01.2023
17 Clouds 25 1010 88 10000 1.03 310 08:59 31.01.2023
18 Clouds 25 1010 88 10000 1.03 310 08:35 31.01.2023
19 Clouds 24 1011 90 10000 3.6 170 05:39 31.01.2023
20 Thunderstorm 26 1010 75 6000 5.14 210 23:56 30.01.2023
21 Thunderstorm 28 1009 68 1500 6.69 310 22:51 30.01.2023
22 Rain 30 1008 64 10000 6.17 270 22:30 30.01.2023
23 Clouds 30 1008 69 10000 5.66 160 20:59 30.01.2023
24 Clouds 30 1008 69 10000 5.66 160 20:27 30.01.2023
25 Clouds 32 1010 58 10000 2.06 350 17:50 30.01.2023
26 Clouds 31 1010 57 10000 3.09 320 16:32 30.01.2023
27 Clouds 27 1011 78 10000 2.06 360 14:27 30.01.2023
28 Clouds 25 1010 89 10000 2.57 340 12:26 30.01.2023
29 Clouds 25 1009 91 10000 2.06 340 11:27 30.01.2023
30 Clouds 25 1009 90 10000 5.14 70 09:54 30.01.2023
31 Clouds 25 1009 90 10000 3.09 60 08:54 30.01.2023
32 Clouds 25 1009 88 10000 3.09 350 06:46 30.01.2023
33 Clouds 25 1010 89 8000 3.6 340 01:39 30.01.2023
34 Clouds 25 1009 88 8000 4.12 330 23:35 29.01.2023
35 Clouds 25 1009 82 6000 4.12 280 22:37 29.01.2023
36 Clouds 26 1009 82 7000 5.14 300 21:40 29.01.2023
37 Clouds 26 1009 82 8000 9.77 90 20:36 29.01.2023
38 Clouds 27 1009 84 9000 10.29 30 19:48 29.01.2023
39 Clouds 27 1009 81 9000 8.75 120 19:27 29.01.2023
40 Clouds 29 1010 68 10000 5.66 150 17:48 29.01.2023
41 Clouds 30 1011 68 10000 4.63 150 16:21 29.01.2023
42 Clouds 29 1012 71 9000 2.06 130 14:48 29.01.2023
43 Clouds 27 1012 82 10000 3.09 10 13:30 29.01.2023
44 Clouds 26 1012 86 10000 2.06 320 12:42 29.01.2023
45 Clouds 26 1012 86 10000 2.06 320 12:22 29.01.2023
46 Clouds 25 1012 89 10000 3.09 330 11:51 29.01.2023
47 Clouds 25 1012 89 10000 3.09 330 11:26 29.01.2023
48 Clouds 24 1011 94 10000 3.09 360 09:57 29.01.2023
49 Clouds 25 1011 90 9000 1.54 10 07:19 29.01.2023
50 Clouds 25 1013 88 10000 3.09 20 03:39 29.01.2023
51 Thunderstorm 25 1013 89 10000 4.63 320 23:27 28.01.2023
52 Thunderstorm 28 1011 77 10000 12.35 70 20:38 28.01.2023
53 Clouds 30 1011 69 10000 6.69 170 19:52 28.01.2023
54 Clouds 29 1011 68 10000 5.66 170 18:33 28.01.2023
55 Clouds 29 1012 72 10000 3.09 160 17:20 28.01.2023
56 Clouds 28 1013 73 10000 2.57 360 16:25 28.01.2023
57 Clouds 28 1013 79 10000 3.6 60 15:49 28.01.2023
58 Clouds 27 1014 81 10000 3.09 130 14:53 28.01.2023
59 Clouds 26 1014 81 10000 3.09 160 13:30 28.01.2023
60 Clouds 26 1013 86 10000 1.54 50 11:55 28.01.2023
61 Clouds 25 1013 90 10000 1.54 350 10:34 28.01.2023
62 Clouds 24 1012 88 10000 1.54 80 08:39 28.01.2023
63 Clouds 26 1013 82 10000 3.09 140 01:45 28.01.2023
64 Clouds 26 1013 79 10000 5.14 160 00:26 28.01.2023
65 Clouds 28 1011 69 10000 7.72 140 21:54 27.01.2023
66 Clouds 28 1011 71 10000 8.75 140 18:54 27.01.2023
67 Clouds 29 1012 71 10000 6.17 170 17:58 27.01.2023
68 Clouds 29 1012 71 10000 6.17 170 17:19 27.01.2023
69 Clouds 29 1013 68 10000 5.66 160 16:35 27.01.2023
70 Clouds 28 1013 69 10000 3.09 340 15:24 27.01.2023
71 Clouds 27 1013 75 10000 4.12 10 14:25 27.01.2023
72 Clouds 26 1014 78 10000 3.09 90 13:31 27.01.2023
73 Clouds 24 1012 88 10000 2.57 180 08:48 27.01.2023
74 Clouds 24 1012 88 10000 2.57 100 06:29 27.01.2023
75 Clouds 25 1013 79 10000 4.12 140 00:27 27.01.2023
76 Clouds 26 1011 75 10000 8.23 130 21:57 26.01.2023
77 Clouds 26 1011 73 10000 7.72 160 20:55 26.01.2023
78 Clouds 27 1012 71 10000 8.23 130 19:57 26.01.2023
79 Clouds 27 1012 70 10000 6.17 160 17:56 26.01.2023
80 Clouds 27 1013 69 10000 5.14 160 16:42 26.01.2023
81 Clouds 27 1013 69 10000 5.14 160 16:20 26.01.2023
82 Clouds 27 1013 71 10000 4.12 150 15:42 26.01.2023
83 Clouds 27 1013 70 10000 4.12 150 15:24 26.01.2023
84 Clouds 24 1013 87 10000 3.09 160 13:53 26.01.2023
85 Clouds 24 1013 87 10000 2.57 10 12:31 26.01.2023
86 Clouds 23 1012 86 10000 2.06 10 10:56 26.01.2023
87 Clouds 23 1012 88 10000 2.06 10 10:25 26.01.2023
88 Clouds 23 1011 88 10000 2.06 30 09:40 26.01.2023
89 Clear 24 1012 83 10000 2.06 110 06:57 26.01.2023
90 Clouds 25 1010 85 10000 4.63 160 23:42 25.01.2023
91 Clouds 26 1010 81 10000 5.66 150 22:56 25.01.2023
92 Clouds 26 1010 82 10000 6.17 160 21:53 25.01.2023
93 Clouds 26 1010 82 10000 6.17 160 21:20 25.01.2023
94 Clouds 28 1010 68 10000 7.72 120 18:31 25.01.2023
95 Clouds 28 1010 68 10000 6.69 240 17:22 25.01.2023
96 Clouds 28 1011 74 10000 4.63 150 15:37 25.01.2023
97 Clouds 24 1011 90 6000 2.06 350 12:48 25.01.2023
98 Clouds 24 1009 88 10000 2.57 350 09:55 25.01.2023
99 Clouds 24 1009 88 10000 2.57 350 09:30 25.01.2023
100 Clouds 25 1009 88 10000 3.09 260 06:54 25.01.2023
101 Clouds 25 1010 88 10000 2.06 160 01:24 25.01.2023
102 Clouds 25 1007 89 10000 4.12 160 22:49 24.01.2023
103 Clouds 27 1007 80 10000 5.66 180 21:30 24.01.2023
104 Clouds 27 1007 78 10000 4.63 150 19:58 24.01.2023
105 Clouds 28 1007 79 10000 2.57 150 18:32 24.01.2023
106 Clouds 27 1007 82 10000 3.09 130 17:20 24.01.2023
107 Clouds 27 1008 79 10000 3.09 320 16:52 24.01.2023
108 Clouds 27 1009 78 10000 3.09 140 15:21 24.01.2023
109 Rain 25 1008 88 10000 4.63 300 13:19 24.01.2023
110 Clouds 26 1007 83 10000 3.09 200 11:20 24.01.2023
111 Clouds 25 1006 83 10000 2.06 280 08:22 24.01.2023
112 Clouds 25 1005 88 10000 3.6 340 07:51 24.01.2023
113 Clouds 25 1007 88 10000 5.14 340 05:32 24.01.2023
114 Clouds 25 1009 88 8000 5.14 10 01:37 24.01.2023
115 Clouds 26 1008 85 8000 5.66 70 23:58 23.01.2023
116 Clouds 25 1007 89 8000 4.63 330 22:27 23.01.2023
117 Thunderstorm 28 1006 75 10000 14.4 280 19:55 23.01.2023
118 Thunderstorm 30 1006 69 10000 4.12 120 18:37 23.01.2023
119 Clouds 32 1007 58 10000 3.6 20 16:39 23.01.2023
120 Clear 28 1008 78 10000 3.6 50 14:59 23.01.2023
121 Clear 27 1008 78 10000 2.57 10 13:45 23.01.2023
122 Clear 26 1008 82 10000 2.57 360 12:55 23.01.2023
123 Clear 25 1007 87 10000 3.6 350 11:45 23.01.2023
124 Clear 25 1007 90 10000 3.09 360 10:40 23.01.2023
125 Clear 24 1007 94 10000 3.09 350 08:23 23.01.2023
126 Clear 26 1006 75 10000 6.17 180 23:53 22.01.2023
127 Clouds 27 1005 68 10000 6.69 120 21:50 22.01.2023
128 Clouds 27 1005 71 10000 7.72 170 20:58 22.01.2023
129 Clouds 28 1005 74 10000 8.23 120 19:54 22.01.2023
130 Clouds 29 1006 66 10000 8.23 120 19:21 22.01.2023
131 Clouds 28 1006 70 10000 6.69 150 18:36 22.01.2023
132 Clouds 28 1006 70 10000 6.17 150 17:55 22.01.2023
133 Clouds 28 1006 70 10000 6.17 150 17:24 22.01.2023
134 Clear 28 1007 71 10000 3.09 180 15:25 22.01.2023
135 Clear 27 1007 71 10000 2.57 40 14:34 22.01.2023
136 Clouds 25 1007 82 10000 2.06 20 13:27 22.01.2023
137 Clouds 24 1007 87 7000 2.57 20 12:29 22.01.2023
138 Mist 23 1007 94 4500 2.57 360 11:26 22.01.2023
139 Mist 23 1006 92 4000 3.6 50 09:34 22.01.2023
140 Clouds 24 1008 88 10000 2.06 310 04:22 22.01.2023
141 Clouds 25 1007 82 10000 4.12 130 23:44 21.01.2023
142 Clouds 25 1007 76 10000 5.14 170 22:55 21.01.2023
143 Clouds 26 1006 76 10000 6.17 150 21:29 21.01.2023
144 Clouds 28 1007 78 10000 5.14 170 18:53 21.01.2023
145 Clouds 28 1007 78 10000 5.14 170 18:53 21.01.2023
146 Clouds 28 1008 74 10000 5.14 140 16:40 21.01.2023
147 Clouds 25 1008 82 10000 4.63 160 13:57 21.01.2023
148 Clouds 25 1007 84 10000 2.06 100 12:57 21.01.2023
149 Clouds 24 1007 89 10000 4.12 360 11:40 21.01.2023
150 Clouds 24 1007 88 10000 3.6 350 10:48 21.01.2023
151 Clouds 23 1007 94 10000 2.57 130 08:47 21.01.2023
152 Clouds 23 1009 94 10000 3.09 10 04:30 21.01.2023
153 Clouds 24 1009 90 8000 2.57 170 22:28 20.01.2023
154 Clouds 25 1009 88 7000 4.12 190 21:37 20.01.2023
155 Rain 25 1009 83 10000 4.63 180 20:55 20.01.2023
156 Clouds 26 1009 75 10000 4.63 170 19:20 20.01.2023
157 Clouds 28 1013 100 10000 2.56 30 16:37 20.01.2023
158 Clouds 28 1012 74 10000 3.6 140 14:46 20.01.2023
159 Clear 28 1012 71 10000 2.06 180 13:37 20.01.2023
160 Clear 25 1011 83 10000 3.09 90 10:24 20.01.2023
161 Clouds 24 1011 88 10000 2.57 50 08:51 20.01.2023
162 Clear 25 1013 83 10000 2.06 40 04:22 20.01.2023
163 Clouds 26 1014 73 10000 6.69 100 02:29 20.01.2023
164 Clouds 28 1012 68 10000 4.63 210 22:33 19.01.2023
165 Clouds 29 1011 67 10000 6.69 150 20:32 19.01.2023
166 Clouds 29 1012 67 10000 6.69 140 19:28 19.01.2023
167 Clouds 29 1014 71 10000 5.66 170 16:29 19.01.2023
168 Clouds 27 1014 77 10000 1.54 100 12:50 19.01.2023
169 Clouds 22 1014 95 10000 1.51 17 09:00 19.01.2023
170 Clouds 27 1014 78 10000 4.12 180 00:45 19.01.2023
171 Clear 29 1014 100 10000 3.06 109 21:22 18.01.2023
172 Clouds 28 1013 71 10000 8.23 130 20:20 18.01.2023
173 Clouds 28 1013 73 10000 8.23 140 19:37 18.01.2023
174 Clouds 29 1014 71 10000 7.72 140 17:51 18.01.2023
175 Clouds 29 1015 69 10000 4.63 140 15:48 18.01.2023
176 Clouds 27 1015 75 10000 3.09 50 13:30 18.01.2023
177 Clouds 25 1014 84 10000 3.6 80 11:25 18.01.2023
178 Clouds 25 1014 83 10000 3.09 40 09:22 18.01.2023
179 Clear 26 1014 75 10000 1.54 110 02:29 18.01.2023
180 Clouds 27 1013 70 10000 2.57 330 00:19 18.01.2023
181 Clouds 29 1012 67 10000 6.69 180 20:40 17.01.2023
182 Clouds 29 1013 68 10000 6.17 130 19:35 17.01.2023
183 Clouds 29 1013 69 10000 7.2 160 18:36 17.01.2023
184 Clouds 29 1013 71 10000 6.69 160 17:31 17.01.2023
185 Clouds 28 1014 75 10000 6.17 150 15:20 17.01.2023
186 Clouds 28 1014 76 10000 4.63 140 14:24 17.01.2023
187 Clouds 27 1014 100 10000 1.41 59 13:27 17.01.2023
188 Clear 26 1013 81 10000 2.06 20 11:44 17.01.2023
189 Clear 25 1012 83 10000 3.09 90 09:35 17.01.2023
190 Clouds 26 1012 78 10000 3.09 80 08:20 17.01.2023
191 Clouds 26 1012 78 10000 2.06 60 05:52 17.01.2023
192 Clouds 29 1011 65 10000 2.06 180 00:58 17.01.2023
193 Clouds 29 1010 64 10000 3.6 180 23:50 16.01.2023
194 Clouds 29 1010 63 10000 5.14 170 22:19 16.01.2023
195 Clouds 30 1010 65 10000 6.69 140 20:49 16.01.2023
196 Clouds 30 1010 65 10000 7.2 230 19:42 16.01.2023
197 Clouds 29 1011 69 10000 7.2 160 18:55 16.01.2023
198 Clouds 29 1011 69 10000 7.2 160 18:26 16.01.2023
199 Clouds 29 1011 71 10000 6.69 160 17:55 16.01.2023
200 Clouds 29 1011 71 10000 6.69 160 17:19 16.01.2023
201 Clear 28 1012 76 10000 2.06 360 13:40 16.01.2023
202 Clear 26 1012 84 10000 2.57 70 11:58 16.01.2023
203 Clear 25 1011 83 10000 1.03 0 10:21 16.01.2023
204 Clouds 26 1011 83 10000 2.57 360 05:22 16.01.2023
205 Clouds 30 1009 67 10000 6.17 160 22:28 15.01.2023
206 Clouds 31 1009 67 10000 7.2 160 20:48 15.01.2023
207 Clouds 31 1009 67 10000 7.2 160 20:23 15.01.2023
208 Clouds 32 1011 66 10000 6.17 170 18:27 15.01.2023
209 Clouds 31 1012 68 10000 5.66 160 16:42 15.01.2023
210 Clear 28 1013 79 10000 2.57 30 13:25 15.01.2023
211 Clear 27 1012 82 10000 3.09 60 11:40 15.01.2023
212 Clouds 26 1012 89 10000 3.6 80 10:52 15.01.2023
213 Clouds 26 1012 89 10000 3.6 80 10:21 15.01.2023
214 Clear 27 1011 83 10000 2.57 60 06:59 15.01.2023
215 Clouds 30 1009 71 10000 5.14 20 23:28 14.01.2023
216 Clouds 31 1009 68 10000 5.66 190 22:42 14.01.2023
217 Clouds 32 1008 57 10000 5.66 180 21:36 14.01.2023
218 Clouds 32 1008 57 10000 5.66 180 21:18 14.01.2023
219 Clouds 33 1008 57 10000 5.66 130 20:40 14.01.2023
220 Clouds 33 1008 55 10000 5.14 210 19:57 14.01.2023
221 Clouds 34 1009 54 10000 3.6 30 17:43 14.01.2023
222 Clouds 32 1010 63 10000 3.6 70 15:31 14.01.2023
223 Clear 30 1011 64 10000 2.57 40 14:56 14.01.2023
224 Clear 28 1011 75 10000 3.09 330 13:44 14.01.2023
225 Clouds 27 1011 79 10000 2.57 350 12:49 14.01.2023
226 Clear 25 1010 90 10000 2.06 340 10:48 14.01.2023
227 Clear 25 1009 88 10000 2.57 330 08:20 14.01.2023
228 Clouds 27 1010 81 10000 5.14 260 00:56 14.01.2023
229 Rain 29 1008 67 10000 4.12 30 22:59 13.01.2023
230 Rain 29 1008 67 10000 4.12 30 22:41 13.01.2023
231 Rain 29 1007 67 10000 8.75 320 21:56 13.01.2023
232 Clouds 31 1007 61 10000 7.72 140 20:33 13.01.2023
233 Clouds 30 1007 69 10000 7.2 120 19:27 13.01.2023
234 Clouds 33 1009 55 10000 5.14 320 16:58 13.01.2023
235 Clouds 29 1010 70 10000 3.6 50 14:53 13.01.2023
236 Clouds 26 1009 85 10000 2.57 150 12:24 13.01.2023
237 Clouds 26 1009 85 10000 2.57 150 12:24 13.01.2023
238 Clouds 25 1009 88 10000 1.03 300 10:41 13.01.2023
239 Clouds 25 1009 88 10000 1.03 300 10:22 13.01.2023
240 Clouds 25 1008 88 10000 1.54 20 09:41 13.01.2023
241 Clouds 25 1007 88 10000 3.09 20 08:51 13.01.2023
242 Clouds 25 1008 86 10000 3.09 340 06:56 13.01.2023
243 Rain 25 1008 86 10000 3.09 340 06:18 13.01.2023
244 Clouds 26 1008 78 10000 4.63 270 01:42 13.01.2023
245 Clouds 29 1006 62 10000 6.17 190 22:48 12.01.2023
246 Clouds 29 1007 63 10000 5.66 190 21:56 12.01.2023
247 Clouds 29 1007 60 10000 5.14 170 20:52 12.01.2023
248 Clouds 29 1008 67 10000 5.66 150 18:26 12.01.2023
249 Rain 29 1009 71 10000 3.6 170 16:59 12.01.2023
250 Clouds 28 1010 76 9000 5.14 310 14:58 12.01.2023
251 Clouds 28 1010 76 9000 5.14 310 14:38 12.01.2023
252 Clouds 28 1010 75 9000 5.14 310 14:18 12.01.2023
253 Rain 25 1010 93 8000 4.63 360 12:19 12.01.2023
254 Clouds 24 1009 98 10000 2.06 20 10:26 12.01.2023
255 Clouds 24 1009 94 10000 1.54 360 07:27 12.01.2023
256 Clouds 24 1011 94 7000 3.09 350 00:32 12.01.2023
257 Clouds 24 1011 92 7000 3.09 320 23:57 11.01.2023
258 Clouds 24 1011 92 7000 3.09 320 23:37 11.01.2023
259 Clouds 24 1011 92 7000 3.09 320 23:19 11.01.2023
260 Thunderstorm 24 1012 92 5000 7.2 320 21:32 11.01.2023
261 Clouds 28 1010 74 10000 6.17 170 19:19 11.01.2023
262 Clouds 27 1011 80 10000 6.17 150 17:49 11.01.2023
263 Clouds 28 1012 74 10000 4.63 150 15:52 11.01.2023
264 Clouds 26 1012 81 9000 2.06 190 13:59 11.01.2023
265 Mist 25 1012 87 7000 1.54 90 12:34 11.01.2023
266 Mist 24 1012 92 7000 1.54 130 11:40 11.01.2023
267 Clouds 23 1011 96 7000 4.12 170 09:32 11.01.2023
268 Clouds 23 1011 98 9000 3.09 160 07:31 11.01.2023
269 Clouds 23 1012 94 10000 2.06 140 06:47 11.01.2023
270 Clouds 24 1012 89 10000 5.14 180 23:55 10.01.2023
271 Clouds 24 1012 87 10000 4.63 150 22:36 10.01.2023
272 Thunderstorm 24 1011 89 8000 6.17 160 21:29 10.01.2023
273 Clouds 25 1012 93 10000 7.2 120 19:56 10.01.2023
274 Clouds 25 1012 93 10000 7.2 120 19:34 10.01.2023
275 Clouds 26 1012 79 10000 5.66 210 18:47 10.01.2023
276 Clouds 26 1013 83 10000 4.63 140 17:54 10.01.2023
277 Clouds 25 1013 82 8000 4.12 20 15:48 10.01.2023
278 Clouds 25 1013 82 8000 4.12 20 15:23 10.01.2023
279 Mist 24 1014 87 5000 3.09 150 14:21 10.01.2023
280 Fog 22 1013 98 4000 3.6 80 11:49 10.01.2023
281 Clouds 22 1012 98 6000 1.03 150 08:58 10.01.2023
282 Clouds 22 1012 98 6000 1.03 150 08:25 10.01.2023
283 Clouds 22 1012 98 6000 1.54 180 07:26 10.01.2023
284 Rain 22 1014 98 6000 1.03 110 04:51 10.01.2023
285 Clouds 22 1013 94 8000 4.12 160 22:51 09.01.2023
286 Rain 23 1013 91 6000 3.09 160 21:21 09.01.2023
287 Mist 23 1013 89 7000 5.14 150 20:41 09.01.2023
288 Clouds 24 1013 84 10000 4.63 160 18:42 09.01.2023
289 Clouds 23 1014 89 10000 4.63 160 17:53 09.01.2023
290 Clouds 23 1015 85 9000 3.6 210 16:58 09.01.2023
291 Clouds 23 1015 85 9000 3.6 210 16:31 09.01.2023
292 Mist 23 1015 92 7000 2.57 170 15:23 09.01.2023
293 Mist 22 1015 92 5000 4.12 140 14:43 09.01.2023
294 Mist 22 1015 92 5000 4.12 140 14:43 09.01.2023
295 Mist 22 1015 92 5000 1.54 140 12:55 09.01.2023
296 Mist 22 1015 92 5000 1.54 140 12:25 09.01.2023
297 Clouds 21 1014 98 10000 1.54 310 11:20 09.01.2023
298 Mist 21 1013 98 3000 1.54 140 08:42 09.01.2023
299 Mist 21 1014 98 4000 2.57 270 06:37 09.01.2023
300 Mist 22 1016 94 5000 1.54 70 02:53 09.01.2023
301 Clouds 22 1015 87 10000 2.57 150 22:53 08.01.2023
302 Clouds 23 1015 86 10000 3.6 160 21:23 08.01.2023
303 Clouds 23 1015 84 10000 4.12 130 20:57 08.01.2023
304 Clouds 23 1015 82 10000 5.14 120 19:43 08.01.2023
305 Clouds 23 1016 82 9000 3.6 220 17:41 08.01.2023
306 Clouds 23 1016 81 9000 3.09 140 17:19 08.01.2023
307 Drizzle 24 1017 82 9000 3.09 10 15:39 08.01.2023
308 Drizzle 22 1018 82 8000 1.54 30 14:20 08.01.2023
309 Clouds 22 1017 87 9000 2.06 310 13:32 08.01.2023
310 Clouds 21 1017 91 8000 2.06 270 12:59 08.01.2023
311 Clouds 21 1016 91 8000 2.06 350 11:49 08.01.2023
312 Clouds 21 1015 90 10000 2.57 320 09:38 08.01.2023
313 Clouds 21 1015 90 9000 2.06 290 08:33 08.01.2023
314 Drizzle 20 1017 94 4000 2.06 300 04:26 08.01.2023
315 Clouds 21 1017 89 6000 2.57 260 23:24 07.01.2023
316 Mist 21 1017 92 8000 3.09 220 22:39 07.01.2023
317 Mist 21 1016 89 7000 3.6 190 21:59 07.01.2023
318 Mist 21 1016 85 7000 3.6 190 21:29 07.01.2023
319 Clouds 21 1017 92 4500 4.12 230 20:25 07.01.2023
320 Mist 21 1017 92 4500 2.57 200 19:25 07.01.2023
321 Mist 21 1017 92 5000 4.12 220 18:21 07.01.2023
322 Mist 20 1018 94 3000 2.57 270 17:41 07.01.2023
323 Mist 21 1018 89 2000 2.06 290 16:49 07.01.2023
324 Rain 21 1018 89 5000 2.06 290 16:23 07.01.2023
325 Mist 21 1018 89 5000 2.06 360 15:39 07.01.2023
326 Mist 21 1018 88 5000 2.06 360 15:21 07.01.2023
327 Mist 20 1018 94 5000 2.57 320 13:59 07.01.2023
328 Mist 20 1018 94 5000 2.57 320 13:41 07.01.2023
329 Mist 19 1018 94 5000 3.09 320 12:58 07.01.2023
330 Rain 19 1018 94 5000 3.09 320 12:21 07.01.2023
331 Mist 19 1017 94 5000 2.57 310 10:28 07.01.2023
332 Mist 19 1016 94 4000 2.57 300 09:22 07.01.2023
333 Mist 20 1016 94 4000 2.57 270 08:18 07.01.2023
334 Mist 20 1016 94 4000 3.09 310 07:41 07.01.2023
335 Mist 19 1016 98 4000 2.57 270 06:21 07.01.2023
336 Mist 22 1016 88 7000 3.09 210 23:24 06.01.2023
337 Mist 21 1016 94 2900 4.63 180 22:21 06.01.2023
338 Mist 21 1015 92 2900 5.66 190 21:47 06.01.2023
339 Mist 21 1015 94 4000 6.17 200 20:34 06.01.2023
340 Rain 22 1015 89 5000 4.63 210 19:55 06.01.2023
341 Rain 22 1015 89 5000 4.63 210 19:37 06.01.2023
342 Rain 22 1015 89 5000 4.63 210 19:19 06.01.2023
343 Rain 23 1015 91 4500 4.12 190 17:55 06.01.2023
344 Rain 23 1015 89 4500 5.14 200 16:52 06.01.2023
345 Rain 23 1015 89 7000 5.14 210 16:22 06.01.2023
346 Mist 23 1015 91 4500 5.66 200 15:51 06.01.2023
347 Rain 23 1015 91 4500 5.66 200 15:29 06.01.2023
348 Mist 23 1015 94 5000 3.6 190 13:42 06.01.2023
349 Mist 22 1014 94 4000 3.09 270 11:50 06.01.2023
350 Mist 22 1013 94 4000 3.6 290 10:34 06.01.2023
351 Mist 22 1012 94 3000 5.14 250 08:49 06.01.2023
352 Mist 22 1012 92 3000 4.63 260 05:22 06.01.2023
353 Clouds 23 1010 89 7000 5.14 270 22:56 05.01.2023
354 Clouds 23 1010 89 7000 5.14 270 22:30 05.01.2023
355 Clouds 23 1010 89 7000 6.17 250 20:34 05.01.2023
356 Rain 25 1010 85 10000 5.14 260 17:30 05.01.2023
357 Mist 25 1010 82 10000 3.09 200 16:48 05.01.2023
358 Rain 24 1010 87 8000 3.09 220 15:56 05.01.2023
359 Clouds 24 1010 87 8000 3.09 220 15:34 05.01.2023
360 Mist 24 1010 84 10000 4.12 260 13:36 05.01.2023
361 Clouds 24 1010 84 10000 4.12 160 12:41 05.01.2023
362 Clouds 24 1008 83 10000 3.09 270 10:48 05.01.2023
363 Rain 23 1008 92 10000 2.57 280 09:43 05.01.2023
364 Clouds 23 1008 92 7000 2.57 100 07:44 05.01.2023
365 Clouds 24 1008 86 10000 2.57 230 06:42 05.01.2023
366 Clouds 25 1009 85 10000 3.09 190 02:23 05.01.2023
367 Rain 26 1006 78 9000 5.14 220 22:27 04.01.2023
368 Clouds 26 1006 83 6000 8.75 200 21:31 04.01.2023
369 Clouds 29 1005 70 10000 9.26 190 20:21 04.01.2023
370 Clouds 33 1005 49 10000 3.6 330 19:45 04.01.2023
371 Clouds 33 1005 52 10000 3.6 330 19:27 04.01.2023
372 Clouds 33 1005 48 10000 4.12 310 18:18 04.01.2023
373 Clouds 31 1007 60 10000 6.69 320 16:31 04.01.2023
374 Rain 31 1007 60 10000 4.63 360 14:50 04.01.2023
375 -273 0 0 0 0 0 13:30 04.01.2023
376 Clouds 28 1006 71 10000 3.6 350 11:24 04.01.2023
377 Clouds 26 1006 83 10000 2.06 310 10:44 04.01.2023
378 Clouds 26 1006 83 10000 2.06 310 10:25 04.01.2023
379 Clouds 27 1006 74 10000 2.57 320 09:52 04.01.2023
380 Clouds 26 1006 83 10000 2.06 330 05:39 04.01.2023
381 Clouds 27 1007 77 10000 2.57 360 01:41 04.01.2023
382 Clouds 26 1006 77 10000 5.66 160 23:43 03.01.2023
383 Clouds 26 1006 77 10000 5.66 160 23:21 03.01.2023
384 Haze 28 1005 67 4000 10.29 320 21:42 03.01.2023
385 Clouds 30 1005 55 10000 4.63 150 20:50 03.01.2023
386 Clouds 33 1006 47 10000 8.23 340 18:40 03.01.2023
387 Clouds 32 1008 52 10000 5.14 20 16:42 03.01.2023
388 Clear 31 1008 57 10000 6.69 340 15:40 03.01.2023
389 Clear 29 1009 65 10000 5.14 50 13:43 03.01.2023
390 Clear 29 1009 66 10000 5.14 50 13:24 03.01.2023
391 Clouds 28 1008 64 10000 4.12 20 12:57 03.01.2023
392 Clouds 28 1008 64 10000 4.12 20 12:21 03.01.2023
393 Clouds 25 1007 78 10000 2.06 10 09:51 03.01.2023
394 Clear 27 1008 65 10000 3.6 300 04:29 03.01.2023
395 Clear 27 1009 65 10000 3.6 310 03:52 03.01.2023
396 Clear 27 1009 65 10000 3.6 310 03:32 03.01.2023
397 Clouds 29 1008 60 10000 5.66 330 23:20 02.01.2023
398 Clouds 30 1007 58 10000 4.63 190 22:40 02.01.2023
399 Clouds 30 1007 57 10000 3.6 190 21:26 02.01.2023
400 Clouds 31 1007 59 10000 4.63 190 20:31 02.01.2023
401 Clouds 30 1009 59 10000 4.12 160 18:52 02.01.2023
402 Clouds 29 1011 58 10000 4.12 150 16:54 02.01.2023
403 Clear 27 1012 66 10000 3.09 120 14:27 02.01.2023
404 Clear 25 1013 81 10000 3.09 330 12:57 02.01.2023
405 Clear 24 1013 84 10000 2.57 80 11:39 02.01.2023
406 Clear 23 1011 94 10000 1.54 120 08:55 02.01.2023
407 Clear 23 1012 92 10000 2.06 50 06:59 02.01.2023
408 Clouds 25 1013 75 10000 3.09 80 00:22 02.01.2023
409 Clouds 27 1012 67 10000 4.63 120 21:55 01.01.2023
410 Clouds 28 1012 68 10000 7.72 80 20:50 01.01.2023
411 Clouds 28 1012 68 10000 7.72 80 20:31 01.01.2023
412 Clouds 28 1013 70 10000 7.2 160 18:54 01.01.2023
413 Clouds 28 1013 71 10000 6.69 150 17:39 01.01.2023
414 Clouds 28 1014 71 10000 6.69 150 17:19 01.01.2023
415 Clouds 27 1014 79 10000 5.66 160 15:53 01.01.2023
416 Clouds 27 1014 78 10000 2.06 20 14:18 01.01.2023
417 Clouds 25 1015 87 10000 2.06 350 13:18 01.01.2023
418 Mist 25 1014 86 10000 1.54 130 12:24 01.01.2023
419 Mist 24 1014 92 6000 1.54 100 11:35 01.01.2023
420 Mist 23 1013 92 10000 3.09 30 09:39 01.01.2023
421 Clear 23 1012 94 10000 1.03 30 08:44 01.01.2023
422 Clear 23 1012 94 10000 1.03 30 08:18 01.01.2023
423 Clear 23 1012 94 10000 0.51 340 06:51 01.01.2023
424 Clouds 25 1014 89 10000 5.14 30 00:19 01.01.2023
425 Thunderstorm 25 1013 84 10000 5.14 50 23:39 31.12.2022
426 Clouds 26 1013 75 10000 5.66 190 22:30 31.12.2022
427 Clouds 26 1013 77 10000 6.17 190 21:25 31.12.2022
428 Clouds 27 1012 73 10000 6.17 180 20:33 31.12.2022
429 Clouds 26 1014 72 10000 6.17 180 18:59 31.12.2022
430 Clouds 26 1014 72 10000 6.17 180 18:38 31.12.2022
431 Clouds 27 1014 72 10000 5.66 160 17:58 31.12.2022
432 Clouds 27 1014 72 10000 5.66 160 17:34 31.12.2022
433 Clouds 25 1015 81 10000 5.66 150 16:32 31.12.2022
434 Clouds 25 1015 81 10000 5.14 150 15:43 31.12.2022
435 Clouds 26 1016 79 10000 2.06 10 14:35 31.12.2022
436 Clouds 24 1016 81 10000 2.57 350 13:28 31.12.2022
437 Clouds 24 1015 85 10000 2.06 360 12:25 31.12.2022
438 Clouds 23 1015 89 10000 2.06 320 11:57 31.12.2022
439 Clouds 23 1015 89 10000 2.06 320 11:38 31.12.2022
440 Clouds 22 1015 94 10000 2.06 170 10:20 31.12.2022
441 Clouds 21 1014 96 10000 4.63 170 09:50 31.12.2022
442 Clouds 21 1013 92 10000 2.57 180 08:39 31.12.2022
443 Clouds 22 1013 94 10000 1.54 90 06:51 31.12.2022
444 Clouds 22 1015 92 10000 4.63 110 00:34 31.12.2022
445 Clouds 21 1015 98 7000 11.83 50 23:27 30.12.2022
446 Rain 21 1015 94 6000 2.57 340 22:22 30.12.2022
447 Rain 21 1015 92 5000 1.54 340 21:41 30.12.2022
448 Mist 21 1015 92 4500 2.57 200 21:21 30.12.2022
449 Rain 23 1015 86 6000 3.09 10 18:51 30.12.2022
450 Mist 22 1016 89 4500 4.12 90 17:35 30.12.2022
451 Rain 22 1016 91 4500 6.69 120 16:50 30.12.2022
452 Clouds 22 1016 96 7000 5.66 170 15:19 30.12.2022
453 Mist 24 1016 91 8000 3.09 120 13:32 30.12.2022
454 Clouds 24 1013 92 10000 2.06 70 08:39 30.12.2022
455 Clouds 23 1014 100 10000 2.57 190 04:54 30.12.2022
456 Clouds 23 1014 96 10000 3.09 160 02:28 30.12.2022
457 Rain 23 1013 96 10000 3.09 80 23:48 29.12.2022
458 Rain 23 1013 96 10000 3.6 140 22:37 29.12.2022
459 Clouds 24 1013 87 10000 4.12 150 21:29 29.12.2022
460 Clouds 25 1013 89 10000 4.63 160 20:53 29.12.2022
461 Clouds 25 1012 86 10000 4.63 170 19:31 29.12.2022
462 Rain 29 1012 62 10000 6.69 200 17:53 29.12.2022
463 Rain 29 1012 62 10000 6.69 200 17:27 29.12.2022
464 Rain 29 1012 62 10000 8.75 190 16:55 29.12.2022
465 Rain 30 1012 62 10000 7.72 240 15:58 29.12.2022
466 Rain 31 1011 57 10000 7.72 240 13:55 29.12.2022
467 Clouds 29 1011 62 10000 3.09 240 12:34 29.12.2022
468 Clouds 28 1009 65 10000 2.57 320 10:27 29.12.2022
469 Clear 28 1008 65 10000 2.57 300 06:32 29.12.2022
470 Clouds 26 1008 77 10000 4.63 240 23:29 28.12.2022
471 Clouds 26 1007 81 10000 2.06 230 22:21 28.12.2022
472 Clouds 26 1007 83 10000 2.57 20 21:20 28.12.2022
473 Clouds 26 1008 83 10000 2.06 160 20:20 28.12.2022
474 Clouds 28 1009 71 10000 4.12 160 18:52 28.12.2022
475 Clouds 30 1010 62 10000 3.09 40 16:23 28.12.2022
476 Clouds 29 1010 70 10000 4.12 50 14:28 28.12.2022
477 Clouds 26 1011 85 10000 2.06 20 12:49 28.12.2022
478 Clouds 24 1011 91 10000 3.09 10 11:35 28.12.2022
479 Rain 24 1011 92 10000 2.06 330 10:31 28.12.2022
480 Clouds 24 1010 92 10000 2.06 50 07:48 28.12.2022
481 Clouds 24 1010 88 10000 2.57 360 06:47 28.12.2022
482 Clouds 25 1012 85 10000 2.06 350 03:42 28.12.2022
483 Clouds 26 1011 80 10000 5.14 260 22:47 27.12.2022
484 Clouds 30 1010 58 10000 5.66 50 19:52 27.12.2022
485 Clouds 31 1010 64 10000 3.6 20 18:59 27.12.2022
486 Clouds 29 1011 71 10000 3.6 10 17:20 27.12.2022
487 Clouds 29 1011 69 10000 4.12 20 16:33 27.12.2022
488 Clouds 28 1012 70 10000 3.6 20 14:53 27.12.2022
489 Clouds 25 1012 81 10000 2.06 60 12:28 27.12.2022
490 Clouds 23 1011 90 10000 2.06 170 10:31 27.12.2022
491 Clouds 23 1011 92 10000 1.54 200 09:45 27.12.2022
492 Clouds 23 1011 92 10000 1.54 200 09:22 27.12.2022
493 Clouds 24 1012 94 8000 4.63 350 04:59 27.12.2022
494 Clouds 26 1011 85 10000 3.09 130 00:23 27.12.2022
495 Clouds 27 1010 77 10000 6.17 60 21:53 26.12.2022
496 Clouds 27 1011 71 10000 3.09 70 20:45 26.12.2022
497 Clouds 27 1011 71 10000 4.63 50 19:56 26.12.2022
498 Rain 28 1012 71 10000 2.57 350 18:42 26.12.2022
499 Clouds 28 1012 65 10000 3.09 20 17:26 26.12.2022
500 Clouds 27 1013 71 10000 3.09 350 15:42 26.12.2022
501 Clouds 25 1012 73 10000 1.03 100 12:59 26.12.2022
502 Clouds 25 1012 75 10000 2.57 190 11:45 26.12.2022
503 Clouds 24 1012 83 10000 2.06 70 05:49 26.12.2022
504 Rain 26 1011 79 10000 4.12 80 23:44 25.12.2022
505 Clouds 27 1011 74 10000 6.17 100 22:57 25.12.2022
506 Clouds 27 1011 74 10000 6.17 100 22:26 25.12.2022
507 Clouds 28 1011 65 10000 6.17 140 20:20 25.12.2022
508 Clouds 27 1013 70 10000 5.14 160 17:59 25.12.2022
509 Clouds 27 1013 70 10000 5.14 160 17:41 25.12.2022
510 Clouds 27 1013 70 10000 5.14 160 17:23 25.12.2022
511 Clouds 26 1014 77 10000 3.09 310 14:38 25.12.2022
512 Clouds 24 1014 86 10000 2.57 100 11:49 25.12.2022
513 Clear 22 1015 94 10000 1.03 0 06:20 25.12.2022
514 Clouds 25 1014 73 10000 7.72 80 22:57 24.12.2022
515 Clouds 25 1015 72 10000 6.69 120 19:54 24.12.2022
516 Clouds 27 1015 68 10000 8.23 120 17:55 24.12.2022
517 Clouds 26 1015 67 10000 5.66 150 16:21 24.12.2022
518 Clouds 25 1016 66 10000 3.6 100 14:35 24.12.2022
519 Clouds 24 1016 73 10000 2.57 100 12:34 24.12.2022
520 Clouds 22 1015 83 10000 2.06 100 10:27 24.12.2022
521 Clouds 22 1014 85 10000 2.06 120 09:47 24.12.2022
522 Clouds 22 1014 83 10000 2.06 120 09:19 24.12.2022
523 Clouds 23 1015 78 10000 4.63 80 03:52 24.12.2022
524 Clouds 24 1015 74 10000 5.14 110 00:43 24.12.2022
525 Clouds 24 1014 73 10000 5.66 120 23:22 23.12.2022
526 Clouds 23 1014 79 10000 6.69 150 21:53 23.12.2022
527 Clouds 23 1014 76 10000 5.14 170 20:20 23.12.2022
528 Clouds 23 1015 74 10000 7.2 150 19:39 23.12.2022
529 Clouds 23 1015 74 10000 7.2 150 19:21 23.12.2022
530 Clouds 24 1015 70 10000 7.2 170 18:38 23.12.2022
531 Clouds 24 1015 70 10000 7.2 170 18:18 23.12.2022
532 Clouds 24 1016 72 10000 5.14 160 15:55 23.12.2022
533 Clouds 24 1016 76 10000 3.6 100 14:42 23.12.2022
534 Clouds 22 1014 88 10000 2.57 360 10:56 23.12.2022
535 Clouds 21 1014 85 10000 2.06 330 09:36 23.12.2022
536 Clouds 21 1013 85 10000 2.06 130 07:45 23.12.2022
537 Clouds 20 1014 88 10000 4.12 200 06:50 23.12.2022
538 Clouds 22 1014 86 10000 2.06 320 05:20 23.12.2022
539 Clouds 23 1014 77 10000 3.6 160 23:21 22.12.2022
540 Clouds 24 1013 73 10000 5.66 240 21:57 22.12.2022
541 Clouds 24 1013 70 10000 6.69 130 20:25 22.12.2022
542 Clouds 24 1013 70 10000 7.2 120 19:22 22.12.2022
543 Clouds 24 1013 70 10000 6.69 130 18:25 22.12.2022
544 Clouds 25 1014 72 10000 6.17 150 16:58 22.12.2022
545 Clouds 25 1014 72 10000 6.17 150 16:37 22.12.2022
546 Clouds 24 1014 73 10000 5.66 140 15:32 22.12.2022
547 Clouds 24 1014 76 10000 5.66 140 14:45 22.12.2022
548 Clouds 23 1013 81 10000 4.63 160 13:32 22.12.2022
549 Clouds 23 1013 84 10000 4.63 160 12:40 22.12.2022
550 Mist 21 1011 94 4500 5.14 140 10:32 22.12.2022
551 Clouds 21 1011 98 6000 3.09 170 09:59 22.12.2022
552 Clouds 21 1011 98 6000 3.09 170 09:19 22.12.2022
553 Mist 21 1010 94 4000 4.12 160 08:22 22.12.2022
554 Clouds 22 1011 94 8000 2.06 270 05:18 22.12.2022
555 Clouds 22 1011 94 7000 2.06 170 04:18 22.12.2022
556 Mist 23 1009 91 5000 3.09 260 22:56 21.12.2022
557 Clouds 23 1009 91 7000 3.6 250 21:53 21.12.2022
558 Clouds 23 1009 90 7000 3.6 250 21:21 21.12.2022
559 Clouds 23 1009 87 6000 3.09 250 20:45 21.12.2022
560 Clouds 23 1009 87 6000 4.12 250 19:58 21.12.2022
561 Clouds 23 1009 87 6000 4.12 250 19:40 21.12.2022
562 Clouds 23 1009 87 6000 3.09 210 19:21 21.12.2022
563 Clouds 23 1009 89 6000 5.14 130 18:43 21.12.2022
564 Mist 22 1009 94 4500 4.63 180 17:35 21.12.2022
565 Clouds 24 1010 84 6000 5.14 180 14:24 21.12.2022
566 Mist 22 1009 92 4500 7.2 200 12:33 21.12.2022
567 Mist 22 1009 94 1600 6.17 210 11:41 21.12.2022
568 Mist 22 1009 94 1600 6.17 210 11:19 21.12.2022
569 Mist 22 1006 94 3000 6.17 200 08:52 21.12.2022
570 Drizzle 22 1006 94 4000 6.69 280 06:59 21.12.2022
571 Clouds 22 1008 94 7000 6.17 290 00:48 21.12.2022
572 Mist 22 1007 92 5000 5.14 270 22:41 20.12.2022
573 Mist 22 1007 92 4000 5.14 270 21:19 20.12.2022
574 Rain 22 1008 92 3500 5.14 290 20:19 20.12.2022
575 Mist 21 1009 92 3500 4.12 210 18:49 20.12.2022
576 Mist 21 1009 92 3500 4.12 210 18:28 20.12.2022
577 Mist 21 1010 94 4500 3.09 210 17:51 20.12.2022
578 Mist 21 1010 94 4500 3.09 210 17:28 20.12.2022
579 Mist 21 1011 92 4500 4.63 190 16:32 20.12.2022
580 Rain 21 1012 89 5000 6.17 140 15:27 20.12.2022
581 Mist 21 1012 89 6000 7.2 140 14:36 20.12.2022
582 Mist 21 1012 94 5000 7.2 120 13:56 20.12.2022
583 Mist 21 1012 98 4500 4.12 120 12:40 20.12.2022
584 Mist 21 1012 98 4500 3.09 170 11:56 20.12.2022
585 Rain 21 1012 98 4500 2.57 140 11:28 20.12.2022
586 Mist 21 1011 94 4000 3.09 120 08:23 20.12.2022
587 Clouds 24 1014 74 10000 4.63 110 00:27 20.12.2022
588 Clouds 24 1013 74 10000 5.14 110 22:36 19.12.2022
589 Rain 24 1013 76 10000 6.69 110 21:39 19.12.2022
590 Clouds 25 1013 77 10000 5.66 110 19:55 19.12.2022
591 Clouds 25 1013 77 10000 5.66 110 19:37 19.12.2022
592 Clouds 24 1014 86 10000 5.66 100 18:24 19.12.2022
593 Mist 24 1015 85 10000 4.63 100 16:35 19.12.2022
594 Mist 24 1015 85 10000 4.63 100 16:35 19.12.2022
595 Clouds 25 1015 77 10000 5.14 110 13:24 19.12.2022
596 Clouds 24 1014 81 10000 4.63 120 11:55 19.12.2022
597 Clouds 23 1014 86 10000 3.6 120 09:19 19.12.2022
598 Clouds 23 1013 83 10000 2.57 150 07:32 19.12.2022
599 Clouds 23 1015 86 9000 4.12 110 02:48 19.12.2022
600 Clouds 24 1013 84 9000 6.69 120 22:20 18.12.2022
601 Clouds 24 1012 82 10000 7.2 130 21:41 18.12.2022
602 Clouds 24 1012 82 10000 7.2 130 21:20 18.12.2022
603 Clouds 24 1013 82 10000 7.2 140 19:50 18.12.2022
604 Clouds 24 1013 82 10000 7.2 140 19:31 18.12.2022
605 Clouds 24 1013 82 10000 6.69 120 17:53 18.12.2022
606 Clouds 24 1014 85 9000 6.17 140 16:28 18.12.2022
607 Clouds 24 1014 85 10000 4.63 140 15:39 18.12.2022
608 Clouds 24 1014 85 10000 4.63 140 15:19 18.12.2022
609 Clouds 23 1014 92 10000 2.06 210 13:37 18.12.2022
610 Clouds 23 1014 94 7000 1.54 230 12:52 18.12.2022
611 Mist 23 1014 94 7000 2.57 210 12:19 18.12.2022
612 Mist 22 1012 98 10000 1.54 270 10:20 18.12.2022
613 Mist 23 1011 98 4000 1.03 270 08:47 18.12.2022
614 Clouds 23 1010 98 9000 2.57 330 07:21 18.12.2022
615 Clouds 23 1011 90 8000 3.09 350 06:20 18.12.2022
616 Rain 24 1012 83 10000 1.03 30 03:38 18.12.2022
617 Clouds 25 1011 81 10000 2.57 330 00:34 18.12.2022
618 Clouds 25 1009 69 10000 3.6 220 21:54 17.12.2022
619 Clouds 25 1008 73 10000 6.17 170 19:27 17.12.2022
620 Clouds 26 1009 69 10000 4.63 230 16:49 17.12.2022
621 Clouds 25 1009 79 10000 3.09 240 14:31 17.12.2022
622 Clouds 24 1007 87 10000 2.06 320 11:39 17.12.2022
623 Clouds 24 1007 86 10000 2.06 270 10:47 17.12.2022
624 Clouds 24 1006 83 10000 2.57 290 09:46 17.12.2022
625 Clouds 24 1006 83 10000 2.57 260 07:48 17.12.2022
626 Clouds 24 1006 88 10000 3.6 320 06:46 17.12.2022
627 Thunderstorm 25 1006 81 10000 4.12 260 23:57 16.12.2022
628 Clouds 27 1004 74 8000 6.69 190 21:34 16.12.2022
629 Clouds 28 1004 63 10000 6.69 180 20:23 16.12.2022
630 Clouds 29 1006 60 10000 4.63 160 17:19 16.12.2022
631 Clear 26 1008 70 10000 3.09 20 14:49 16.12.2022
632 Clear 24 1008 73 10000 1.54 340 13:50 16.12.2022
633 Clear 23 1008 77 10000 2.06 330 12:18 16.12.2022
634 Clear 22 1008 81 10000 2.57 110 10:42 16.12.2022
635 Clear 22 1007 78 10000 2.57 20 09:29 16.12.2022
636 Clear 22 1007 78 10000 2.57 30 08:25 16.12.2022
637 Clear 22 1008 83 10000 2.06 40 07:54 16.12.2022
638 Clouds 24 1010 76 10000 4.63 120 23:39 15.12.2022
639 Clouds 25 1010 72 10000 6.17 150 22:30 15.12.2022
640 Clouds 26 1010 60 10000 6.69 150 20:40 15.12.2022
641 Clouds 26 1011 63 10000 7.2 150 19:37 15.12.2022
642 Clouds 26 1012 63 10000 7.2 160 18:29 15.12.2022
643 Clouds 26 1013 65 10000 6.69 160 17:27 15.12.2022
644 Clouds 26 1014 60 10000 4.12 160 15:39 15.12.2022
645 Clouds 23 1014 68 10000 4.12 70 13:59 15.12.2022
646 Clear 22 1014 77 10000 3.09 350 12:41 15.12.2022
647 Clear 22 1013 73 10000 2.06 20 10:29 15.12.2022
648 Clear 21 1013 78 10000 1.54 50 08:54 15.12.2022
649 Clear 22 1013 73 10000 2.57 60 06:27 15.12.2022
650 Clear 22 1013 78 10000 3.09 100 05:19 15.12.2022
651 Clear 22 1013 78 10000 3.09 100 05:19 15.12.2022
652 Clouds 25 1012 59 10000 7.2 150 21:25 14.12.2022
653 Clouds 25 1012 62 10000 7.2 140 20:59 14.12.2022
654 Clouds 25 1012 61 10000 7.2 140 20:31 14.12.2022
655 Clouds 25 1012 61 10000 7.2 140 20:31 14.12.2022
656 Clouds 26 1012 56 10000 7.2 140 18:38 14.12.2022
657 Clouds 26 1013 52 10000 7.2 120 16:58 14.12.2022
658 Clouds 25 1013 55 10000 7.72 150 15:49 14.12.2022
659 Clouds 26 1013 53 10000 5.14 150 14:49 14.12.2022
660 Clouds 24 1013 71 10000 4.63 170 12:49 14.12.2022
661 Clouds 22 1012 80 10000 2.57 330 10:44 14.12.2022
662 Clouds 22 1011 83 7000 3.09 70 09:26 14.12.2022
663 Clouds 22 1010 86 10000 5.66 310 05:52 14.12.2022
664 Mist 24 1005 92 4500 7.72 200 21:52 13.12.2022
665 Mist 24 1005 92 4500 7.72 200 21:32 13.12.2022
666 Clouds 25 1004 78 10000 6.69 240 20:47 13.12.2022
667 Clouds 25 1003 94 6000 8.23 260 18:49 13.12.2022
668 Rain 30 1001 66 10000 9.77 200 16:22 13.12.2022
669 Rain 30 1001 66 10000 9.77 200 16:22 13.12.2022
670 Clouds 33 1001 54 10000 5.66 290 14:54 13.12.2022
671 Clouds 29 1001 65 10000 4.12 280 12:53 13.12.2022
672 Clear 26 1001 94 10000 3.6 360 10:41 13.12.2022
673 Clear 26 1001 100 10000 3.09 330 09:47 13.12.2022
674 Clouds 26 1001 94 10000 2.06 330 07:52 13.12.2022
675 Thunderstorm 29 1002 69 10000 3.6 350 22:36 12.12.2022
676 Thunderstorm 31 1002 62 10000 4.63 130 21:57 12.12.2022
677 Clouds 31 1003 64 10000 7.2 170 19:33 12.12.2022
678 Clouds 31 1004 65 9000 6.69 160 17:52 12.12.2022
679 Clouds 30 1004 66 9000 3.09 320 15:29 12.12.2022
680 Clouds 27 1005 81 7000 4.12 340 13:37 12.12.2022
681 Clouds 25 1005 90 6000 2.06 320 09:20 12.12.2022
682 Clouds 24 1005 96 6000 2.06 20 08:56 12.12.2022
683 Clouds 24 1007 92 10000 1.54 340 04:34 12.12.2022
684 Clouds 25 1008 89 10000 3.6 150 01:50 12.12.2022
685 Clouds 26 1007 85 10000 6.17 120 22:18 11.12.2022
686 Clouds 26 1007 85 10000 7.2 120 20:34 11.12.2022
687 Clouds 29 1008 73 10000 8.23 130 19:38 11.12.2022
688 Clouds 29 1008 72 10000 7.72 160 18:31 11.12.2022
689 Clouds 29 1009 71 10000 7.72 130 17:33 11.12.2022
690 Clouds 29 1009 69 10000 7.2 160 16:53 11.12.2022
691 Clouds 29 1009 69 10000 7.2 160 16:20 11.12.2022
692 Clouds 29 1009 67 10000 7.2 160 15:43 11.12.2022
693 Clouds 27 1009 80 8000 5.66 170 13:35 11.12.2022
694 Clouds 26 1009 88 6000 4.12 150 12:41 11.12.2022
695 Clouds 24 1009 92 6000 3.09 160 10:25 11.12.2022
696 Mist 25 1010 92 5000 5.14 180 00:57 11.12.2022
697 Mist 25 1010 92 5000 5.14 180 00:22 11.12.2022
698 Mist 24 1009 90 5000 7.2 170 22:35 10.12.2022
699 Mist 25 1009 87 2500 8.23 160 21:52 10.12.2022
700 Clouds 25 1008 86 6000 8.23 170 20:57 10.12.2022
701 Clouds 27 1009 73 10000 6.69 170 20:19 10.12.2022
702 Clouds 28 1010 69 10000 7.72 200 17:50 10.12.2022
703 Clouds 29 1011 65 10000 6.69 160 16:38 10.12.2022
704 Clouds 27 1010 77 10000 6.69 160 15:41 10.12.2022
705 Clouds 27 1010 77 10000 6.69 160 15:21 10.12.2022
706 Clouds 26 1011 79 8000 2.06 320 13:44 10.12.2022
707 Clouds 24 1011 84 8000 2.06 10 12:21 10.12.2022
708 Clouds 23 1010 88 6000 1.54 360 10:55 10.12.2022
709 Clouds 22 1009 92 9000 2.57 310 09:44 10.12.2022
710 Clouds 22 1009 92 10000 1.54 330 07:22 10.12.2022
711 Clouds 22 1010 92 10000 1.03 0 06:52 10.12.2022
712 Clouds 23 1009 89 10000 7.72 150 23:43 09.12.2022
713 Clouds 24 1008 83 10000 7.2 170 22:42 09.12.2022
714 Clouds 25 1008 75 10000 7.72 170 21:34 09.12.2022
715 Clouds 25 1008 77 10000 7.2 110 20:59 09.12.2022
716 Clouds 27 1009 66 10000 8.23 170 19:46 09.12.2022
717 Clouds 27 1009 66 10000 8.75 120 17:56 09.12.2022
718 Clouds 27 1010 66 10000 8.75 120 17:18 09.12.2022
719 Clouds 28 1010 60 10000 7.2 120 16:26 09.12.2022
720 Clouds 27 1009 66 10000 6.17 140 15:29 09.12.2022
721 Clear 24 1009 76 10000 1.54 360 12:50 09.12.2022
722 Clear 22 1008 88 10000 1.54 330 10:50 09.12.2022
723 Clear 22 1008 88 10000 1.54 330 10:22 09.12.2022
724 Clear 21 1008 88 10000 1.54 120 05:38 09.12.2022
725 Clouds 22 1009 83 10000 3.09 110 03:18 09.12.2022
726 Clouds 23 1008 79 10000 5.66 150 23:20 08.12.2022
727 Clouds 25 1007 73 10000 6.69 230 20:56 08.12.2022
728 Clouds 27 1008 66 10000 7.72 160 18:57 08.12.2022
729 Clouds 26 1009 72 10000 5.66 150 16:46 08.12.2022
730 Clouds 24 1010 79 10000 4.63 170 14:31 08.12.2022
731 Clouds 24 1010 79 10000 4.12 140 13:29 08.12.2022
732 Clouds 22 1009 89 10000 3.09 160 10:37 08.12.2022
733 Clouds 22 1008 92 10000 2.57 180 09:31 08.12.2022
734 Clear 24 1009 100 10000 1.92 285 07:18 08.12.2022
735 Clouds 25 1009 89 10000 3.09 310 22:44 07.12.2022
736 Clouds 25 1009 89 10000 3.09 310 22:18 07.12.2022
737 Clouds 25 1009 89 10000 4.12 230 21:47 07.12.2022
738 Clouds 26 1009 82 7000 4.63 240 20:32 07.12.2022
739 Clouds 27 1009 74 10000 7.2 200 18:23 07.12.2022
740 Clouds 26 1011 76 10000 4.12 260 15:43 07.12.2022
741 Clouds 26 1011 81 10000 4.12 250 13:36 07.12.2022
742 Clouds 24 1010 94 10000 3.6 330 10:54 07.12.2022
743 Clouds 23 1009 94 10000 2.57 320 09:59 07.12.2022
744 Clouds 23 1009 94 10000 2.57 320 09:30 07.12.2022
745 Rain 23 1009 94 10000 2.57 20 07:22 07.12.2022
746 Rain 25 1010 94 10000 2.57 320 05:25 07.12.2022
747 Rain 25 1013 83 7000 2.06 150 01:22 07.12.2022
748 Rain 25 1012 81 8000 2.57 180 21:50 06.12.2022
749 Rain 23 1012 88 8000 3.09 160 19:33 06.12.2022
750 Rain 27 1013 69 9000 5.14 330 17:19 06.12.2022
751 Rain 28 1014 65 10000 5.14 330 16:29 06.12.2022
752 Rain 28 1014 64 10000 6.17 340 15:37 06.12.2022
753 Rain 28 1014 65 10000 1.54 310 14:39 06.12.2022
754 Rain 28 1014 65 10000 1.54 310 14:19 06.12.2022
755 Rain 27 1013 64 10000 5.14 50 12:41 06.12.2022
756 Rain 27 1012 64 10000 5.14 360 11:58 06.12.2022
757 Rain 25 1010 83 10000 1.54 20 07:50 06.12.2022
758 Clouds 25 1012 83 10000 2.57 170 03:25 06.12.2022
759 Clear 26 1010 74 10000 4.12 150 23:45 05.12.2022
760 Clouds 29 1009 59 10000 5.66 20 21:56 05.12.2022
761 Rain 30 1009 64 10000 5.66 20 20:54 05.12.2022
762 Rain 30 1009 63 10000 5.66 20 20:23 05.12.2022
763 Clouds 30 1010 65 10000 4.63 70 19:37 05.12.2022
764 Clouds 29 1011 60 10000 5.14 50 16:55 05.12.2022
765 Clouds 28 1012 64 10000 5.66 60 15:31 05.12.2022
766 Clouds 30 1012 59 10000 4.12 40 14:56 05.12.2022
767 Clouds 29 1012 60 10000 4.12 70 12:58 05.12.2022
768 Clouds 29 1012 59 10000 4.12 70 12:38 05.12.2022
769 Clouds 27 1011 73 10000 3.09 110 11:45 05.12.2022
770 Clear 25 1009 80 10000 3.09 120 09:32 05.12.2022
771 Clouds 28 1009 66 10000 5.14 80 00:19 05.12.2022
772 Clouds 29 1007 67 10000 7.2 90 22:44 04.12.2022
773 Clouds 29 1007 67 10000 7.2 90 22:20 04.12.2022
774 Clouds 30 1007 59 10000 5.66 60 21:39 04.12.2022
775 Clouds 30 1007 60 10000 5.14 70 20:26 04.12.2022
776 Clouds 30 1008 56 10000 4.12 70 19:25 04.12.2022
777 Clouds 30 1009 59 10000 3.6 150 18:37 04.12.2022
778 Clouds 29 1010 63 10000 6.69 30 17:23 04.12.2022
779 Clouds 29 1010 64 10000 3.6 30 16:37 04.12.2022
780 Clouds 29 1010 64 10000 3.6 30 16:19 04.12.2022
781 Clouds 28 1011 64 10000 4.63 50 15:54 04.12.2022
782 Clear 28 1011 65 10000 4.63 90 14:43 04.12.2022
783 Clear 27 1011 71 10000 4.12 120 13:18 04.12.2022
784 Clear 27 1011 70 10000 4.12 120 12:42 04.12.2022
785 Clear 25 1011 76 10000 3.09 100 11:46 04.12.2022
786 Clear 25 1011 76 10000 3.09 100 11:46 04.12.2022
787 Clouds 24 1009 83 10000 2.06 90 09:20 04.12.2022
788 Clear 24 1009 83 10000 1.03 240 07:21 04.12.2022
789 Clouds 25 1011 76 10000 5.66 70 00:44 04.12.2022
790 Clouds 25 1010 81 10000 7.72 60 23:30 03.12.2022
791 Clouds 27 1010 71 10000 8.75 90 21:55 03.12.2022
792 Clouds 27 1010 71 10000 8.75 90 21:21 03.12.2022
793 Clouds 29 1010 70 10000 6.17 60 19:34 03.12.2022
794 Clouds 27 1011 72 10000 5.66 100 18:39 03.12.2022
795 Clouds 27 1013 73 10000 4.12 150 15:53 03.12.2022
796 Clouds 26 1014 78 10000 7.72 150 14:23 03.12.2022
797 Clouds 26 1013 74 10000 3.09 110 12:54 03.12.2022
798 Clouds 26 1013 74 10000 3.09 110 12:22 03.12.2022
799 Clouds 25 1012 78 10000 3.09 90 10:21 03.12.2022
800 Clear 25 1010 78 10000 3.09 70 06:56 03.12.2022
801 Clouds 26 1011 78 10000 6.17 90 01:29 03.12.2022
802 Rain 28 1009 69 10000 8.23 70 22:41 02.12.2022
803 Clouds 31 1008 65 10000 8.75 100 20:54 02.12.2022
804 Clouds 31 1008 65 10000 8.75 100 20:53 02.12.2022
805 Clouds 31 1008 65 10000 8.75 100 20:53 02.12.2022
806 Clouds 31 1008 65 10000 8.75 100 20:53 02.12.2022
807 Clouds 31 1008 59 10000 8.23 100 19:26 02.12.2022
808 Clouds 28 1011 72 10000 3.6 20 15:59 02.12.2022
809 Clouds 28 1012 75 10000 2.57 320 14:43 02.12.2022
810 Clouds 28 1012 77 10000 2.57 320 14:25 02.12.2022
811 Clouds 26 1012 82 10000 3.09 90 12:56 02.12.2022
812 Clouds 25 1012 87 10000 3.09 90 11:41 02.12.2022
813 Clouds 25 1010 85 10000 2.57 50 08:48 02.12.2022
814 Clouds 25 1010 85 10000 3.09 80 07:24 02.12.2022
815 Rain 26 1009 82 10000 4.12 80 23:54 01.12.2022
816 Rain 27 1008 76 10000 8.75 140 21:59 01.12.2022
817 Rain 27 1008 76 10000 8.75 140 21:37 01.12.2022
818 Clouds 30 1008 65 10000 9.26 80 20:18 01.12.2022
819 Clouds 30 1007 68 10000 6.69 140 18:55 01.12.2022
820 Clouds 28 1008 72 10000 5.14 150 16:20 01.12.2022
821 Clouds 26 1008 79 10000 2.06 130 12:35 01.12.2022
822 Clouds 23 1007 88 10000 2.06 40 10:41 01.12.2022
823 Clouds 23 1006 88 10000 2.57 60 09:54 01.12.2022
824 Clouds 23 1006 88 10000 2.57 60 09:36 01.12.2022
825 Clouds 25 1008 83 10000 5.66 110 03:33 01.12.2022
826 Rain 26 1005 79 10000 9.26 140 22:39 30.11.2022
827 Rain 26 1004 77 10000 9.77 120 21:19 30.11.2022
828 Rain 26 1004 77 10000 8.75 80 20:48 30.11.2022
829 Rain 26 1004 77 10000 8.75 80 20:23 30.11.2022
830 Clouds 28 1004 73 10000 5.66 140 18:34 30.11.2022
831 Clouds 28 1005 75 10000 5.14 160 17:36 30.11.2022
832 Clouds 28 1005 72 10000 5.66 140 16:20 30.11.2022
833 Clouds 27 1006 74 10000 2.57 120 14:41 30.11.2022
834 Clouds 27 1006 74 10000 2.57 120 14:22 30.11.2022
835 Clouds 25 1005 78 10000 3.6 70 11:35 30.11.2022
836 Clouds 24 1003 83 8000 5.14 100 08:40 30.11.2022
837 Clouds 24 1003 83 9000 4.63 100 07:58 30.11.2022
838 Clouds 24 1003 83 9000 4.63 100 07:58 30.11.2022
839 Clouds 24 1005 85 10000 4.63 70 04:24 30.11.2022
840 Thunderstorm 25 1004 78 10000 5.14 90 23:22 29.11.2022
841 Rain 27 1002 74 10000 6.17 80 21:47 29.11.2022
842 Clouds 28 1002 68 10000 7.2 80 20:38 29.11.2022
843 Clouds 28 1002 70 10000 6.69 140 19:20 29.11.2022
844 Clouds 28 1004 74 10000 5.14 190 17:36 29.11.2022
845 Rain 26 1004 79 10000 5.66 120 16:28 29.11.2022
846 Rain 25 1005 81 10000 4.12 150 14:51 29.11.2022
847 Clouds 26 1005 75 10000 4.63 70 13:38 29.11.2022
848 Clouds 25 1005 84 10000 2.57 230 12:35 29.11.2022
849 Clouds 24 1005 85 10000 2.06 10 11:30 29.11.2022
850 Clouds 24 1005 83 10000 2.57 40 10:23 29.11.2022
851 Clouds 24 1004 88 10000 2.57 320 08:43 29.11.2022
852 Rain 24 1004 86 10000 2.57 260 06:34 29.11.2022
853 Clouds 25 1005 84 10000 4.63 180 23:46 28.11.2022
854 Clouds 25 1005 84 10000 4.63 180 23:21 28.11.2022
855 Clouds 25 1004 85 10000 4.63 150 21:55 28.11.2022
856 Clouds 25 1004 85 10000 4.63 150 21:36 28.11.2022
857 Clouds 25 1004 83 10000 5.14 190 20:20 28.11.2022
858 Clouds 26 1005 86 10000 6.69 150 18:41 28.11.2022
859 Mist 26 1006 78 1000 12.86 100 17:54 28.11.2022
860 Clouds 28 1006 71 10000 7.2 140 17:21 28.11.2022
861 Clouds 26 1008 75 10000 3.6 150 14:43 28.11.2022
862 Clouds 25 1008 79 10000 3.09 60 13:52 28.11.2022
863 Clouds 25 1008 80 10000 2.57 60 12:52 28.11.2022
864 Clouds 25 1008 79 10000 2.06 120 11:31 28.11.2022
865 Clouds 23 1008 88 10000 2.57 160 07:54 28.11.2022
866 Clouds 24 1009 88 10000 1.54 160 04:54 28.11.2022
867 Clouds 24 1009 88 10000 1.54 160 04:36 28.11.2022
868 Clouds 24 1010 86 10000 2.57 120 03:20 28.11.2022
869 Clouds 24 1010 87 10000 5.66 130 23:44 27.11.2022
870 Rain 25 1009 82 10000 6.69 190 21:54 27.11.2022
871 Clouds 25 1009 82 10000 7.2 140 20:38 27.11.2022
872 Clouds 25 1010 81 10000 7.72 130 18:25 27.11.2022
873 Clouds 28 1011 70 10000 6.17 320 15:40 27.11.2022
874 Clouds 26 1011 73 10000 5.14 330 13:37 27.11.2022
875 Drizzle 22 1010 87 10000 5.14 280 11:31 27.11.2022
876 Clouds 21 1011 92 9000 1.03 0 08:59 27.11.2022
877 Clouds 21 1012 94 7000 4.63 150 05:20 27.11.2022
878 Clouds 24 1013 79 10000 5.14 170 23:18 26.11.2022
879 Clouds 25 1012 75 10000 6.69 160 20:57 26.11.2022
880 Clouds 25 1012 73 10000 6.17 170 19:37 26.11.2022
881 Clouds 26 1012 67 10000 6.69 180 18:26 26.11.2022
882 Clouds 27 1013 67 10000 6.17 170 16:27 26.11.2022
883 Clouds 25 1013 72 10000 2.06 50 13:55 26.11.2022
884 Clouds 24 1013 77 10000 2.06 20 12:40 26.11.2022
885 Clouds 22 1011 88 10000 2.57 310 10:52 26.11.2022
886 Clouds 22 1011 88 10000 2.57 330 09:32 26.11.2022
887 Clouds 22 1011 88 10000 3.6 310 07:29 26.11.2022
888 Clouds 24 1012 77 10000 6.17 230 22:18 25.11.2022
889 Clouds 25 1011 69 10000 7.72 210 21:30 25.11.2022
890 Clouds 27 1011 61 10000 9.26 220 19:58 25.11.2022
891 Clouds 28 1012 65 10000 7.72 210 16:50 25.11.2022
892 Clouds 27 1012 62 10000 5.14 190 14:48 25.11.2022
893 Clouds 22 1010 92 10000 2.57 310 09:44 25.11.2022
894 Clouds 22 1010 88 10000 3.09 290 08:42 25.11.2022
895 Clouds 23 1010 85 10000 2.57 280 06:55 25.11.2022
896 Clouds 23 1010 83 10000 2.57 280 06:31 25.11.2022
897 Clouds 23 1011 88 10000 2.06 170 00:29 25.11.2022
898 Clouds 24 1009 78 10000 4.12 230 22:59 24.11.2022
899 Rain 23 1009 80 10000 4.12 140 21:59 24.11.2022
900 Rain 23 1009 82 10000 3.6 140 20:58 24.11.2022
901 Rain 23 1010 84 10000 2.57 130 19:21 24.11.2022
902 Rain 24 1011 81 10000 1.54 10 17:43 24.11.2022
903 Rain 24 1011 80 10000 1.54 10 17:21 24.11.2022
904 Rain 23 1011 87 10000 4.63 70 16:19 24.11.2022
905 Rain 23 1011 86 10000 1.54 300 14:22 24.11.2022
906 Rain 22 1010 94 6000 8.75 300 12:20 24.11.2022
907 Rain 22 1010 88 6000 5.66 250 10:37 24.11.2022
908 Thunderstorm 25 1008 83 10000 6.69 230 07:54 24.11.2022
909 Rain 26 1009 83 10000 2.57 330 03:38 24.11.2022
910 Clouds 27 1008 74 10000 3.6 120 23:47 23.11.2022
911 Clouds 27 1007 72 10000 4.12 180 22:41 23.11.2022
912 Rain 27 1007 66 10000 5.14 180 21:40 23.11.2022
913 Rain 28 1007 66 10000 6.17 190 20:48 23.11.2022
914 Rain 28 1008 71 10000 6.17 180 19:31 23.11.2022
915 Rain 29 1008 64 10000 6.17 190 18:41 23.11.2022
916 Clouds 30 1010 58 10000 4.63 150 16:59 23.11.2022
917 Clear 27 1011 67 10000 2.57 70 13:41 23.11.2022
918 Clear 27 1011 67 10000 2.57 70 13:21 23.11.2022
919 Clear 26 1011 74 10000 2.57 50 12:21 23.11.2022
920 Clear 25 1011 77 10000 2.06 30 11:42 23.11.2022
921 Clear 24 1011 80 10000 1.03 360 10:45 23.11.2022
922 Clear 24 1010 80 10000 1.54 360 09:44 23.11.2022
923 Clear 24 1010 80 10000 1.54 360 09:26 23.11.2022
924 Clear 24 1010 78 10000 1.54 100 08:37 23.11.2022
925 Rain 24 1009 78 10000 1.03 100 07:19 23.11.2022
926 Clear 24 1010 78 10000 2.06 100 05:19 23.11.2022
927 Clear 28 1010 67 10000 7.2 110 23:47 22.11.2022
928 Clear 28 1009 69 10000 6.69 100 22:36 22.11.2022
929 Clouds 29 1009 66 10000 7.2 150 21:34 22.11.2022
930 Clouds 29 1009 63 10000 6.69 140 20:50 22.11.2022
931 Clouds 29 1009 62 10000 6.69 140 20:20 22.11.2022
932 Clouds 29 1010 62 10000 5.14 120 19:34 22.11.2022
933 Clouds 29 1011 63 10000 6.17 110 17:48 22.11.2022
934 Clouds 29 1012 61 10000 4.63 110 16:24 22.11.2022
935 Clear 28 1013 63 10000 3.6 110 14:20 22.11.2022
936 Clear 25 1014 73 10000 2.06 300 12:27 22.11.2022
937 Clear 23 1013 83 10000 2.06 120 09:27 22.11.2022
938 Clear 23 1013 83 10000 2.06 80 07:59 22.11.2022
939 Clear 23 1013 80 10000 2.57 100 06:37 22.11.2022
940 Clouds 27 1012 71 10000 6.17 30 23:42 21.11.2022
941 Clouds 28 1011 65 10000 6.17 100 22:51 21.11.2022
942 Clouds 28 1011 65 10000 6.17 100 22:20 21.11.2022
943 Clouds 27 1011 72 10000 6.69 100 21:23 21.11.2022
944 Clouds 29 1011 69 10000 7.2 70 19:49 21.11.2022
945 Clouds 29 1011 69 10000 7.2 70 19:31 21.11.2022
946 Clouds 29 1011 69 10000 7.2 70 19:31 21.11.2022
947 Clouds 29 1011 69 10000 7.2 70 19:31 21.11.2022
948 Clouds 29 1011 69 10000 7.2 70 19:31 21.11.2022
949 Clouds 30 1012 64 10000 6.69 100 18:50 21.11.2022
950 Clouds 28 1012 69 10000 7.2 110 17:26 21.11.2022
951 Clouds 28 1013 67 10000 5.66 100 16:41 21.11.2022
952 Clouds 27 1014 66 10000 4.63 160 15:58 21.11.2022
953 Clouds 27 1014 66 10000 4.63 160 15:23 21.11.2022
954 Clouds 25 1015 77 10000 3.09 290 13:53 21.11.2022
955 Clouds 25 1015 77 10000 3.09 70 12:47 21.11.2022
956 Clear 22 1013 87 10000 1.54 350 09:31 21.11.2022
957 Clear 23 1012 78 10000 2.06 350 07:52 21.11.2022
958 Clouds 24 1015 77 10000 4.12 140 23:47 20.11.2022
959 Clouds 25 1014 76 10000 7.72 110 21:36 20.11.2022
960 Clouds 25 1013 68 10000 8.23 120 20:47 20.11.2022
961 Clouds 26 1014 64 10000 7.2 130 18:58 20.11.2022
962 Clear 27 1014 61 10000 7.2 120 17:18 20.11.2022
963 Clear 27 1015 54 10000 3.09 50 15:43 20.11.2022
964 Clouds 25 1016 64 10000 3.09 160 14:55 20.11.2022
965 Clear 24 1016 70 10000 3.09 310 13:58 20.11.2022
966 Clear 24 1016 70 10000 3.09 310 13:25 20.11.2022
967 Clear 23 1016 76 10000 2.06 300 11:41 20.11.2022
968 Clear 22 1015 78 10000 1.54 270 10:57 20.11.2022
969 Clouds 21 1015 73 10000 1.54 310 09:43 20.11.2022
970 Clouds 21 1014 73 10000 0.51 190 08:52 20.11.2022
971 Clouds 21 1014 73 10000 0.51 190 08:52 20.11.2022
972 Clouds 21 1015 76 10000 2.57 310 07:58 20.11.2022
973 Clouds 21 1015 73 10000 2.57 310 07:22 20.11.2022
974 Clouds 23 1017 68 10000 6.17 80 01:26 20.11.2022
975 Clouds 23 1016 71 10000 6.69 80 00:45 20.11.2022
976 Clouds 23 1016 71 10000 6.69 80 00:27 20.11.2022
977 Rain 24 1016 66 10000 6.69 120 23:57 19.11.2022
978 Rain 24 1016 66 10000 6.69 120 23:26 19.11.2022
979 Rain 24 1015 70 10000 7.72 130 22:44 19.11.2022
980 Rain 24 1015 70 10000 7.72 130 22:44 19.11.2022
981 Clouds 24 1015 65 10000 7.2 150 21:51 19.11.2022
982 Clouds 24 1015 65 10000 7.2 150 21:25 19.11.2022
983 Clouds 24 1015 64 10000 7.2 150 20:41 19.11.2022
984 Clouds 24 1016 64 10000 8.75 150 19:48 19.11.2022
985 Clouds 24 1017 60 10000 7.2 120 18:19 19.11.2022
986 Clouds 25 1017 58 10000 9.26 150 17:38 19.11.2022
987 Clouds 25 1017 58 10000 9.26 150 17:18 19.11.2022
988 Clouds 24 1018 56 10000 3.09 50 14:47 19.11.2022
989 Clouds 23 1019 65 10000 3.6 300 13:21 19.11.2022
990 Clouds 21 1018 75 10000 2.57 330 11:52 19.11.2022
991 Clouds 21 1016 73 10000 2.06 360 09:45 19.11.2022
992 Clear 21 1016 68 10000 2.57 50 07:52 19.11.2022
993 Clouds 22 1017 68 10000 2.57 100 04:44 19.11.2022
994 Clouds 22 1017 64 10000 3.6 120 00:46 19.11.2022
995 Clouds 22 1016 65 10000 5.14 130 23:34 18.11.2022
996 Clouds 23 1016 65 10000 5.66 140 22:23 18.11.2022
997 Clouds 24 1016 61 10000 7.2 130 21:35 18.11.2022
998 Clouds 24 1016 58 10000 7.2 130 20:57 18.11.2022
999 Clouds 24 1016 58 10000 7.2 130 20:25 18.11.2022
1000 Clouds 25 1016 57 10000 7.72 150 19:36 18.11.2022
1001 Clouds 25 1017 58 10000 9.26 110 17:45 18.11.2022
1002 Clouds 26 1017 64 10000 7.72 130 16:27 18.11.2022
1003 Clouds 21 1016 84 10000 3.09 20 11:57 18.11.2022
1004 Clouds 21 1016 88 10000 3.09 10 10:25 18.11.2022
1005 Clouds 21 1015 78 10000 2.06 50 07:52 18.11.2022
1006 Clouds 23 1016 68 10000 2.57 40 05:37 18.11.2022
1007 Clouds 23 1017 68 10000 4.12 150 02:49 18.11.2022
1008 Clouds 24 1016 70 10000 5.66 150 23:38 17.11.2022
1009 Clouds 25 1015 62 10000 6.69 160 20:48 17.11.2022
1010 Clouds 26 1015 59 10000 7.2 160 19:57 17.11.2022
1011 Clouds 26 1015 59 10000 7.2 160 19:27 17.11.2022
1012 Clouds 26 1015 56 10000 6.17 140 18:29 17.11.2022
1013 Clouds 26 1016 56 10000 5.66 150 17:32 17.11.2022
1014 Clouds 26 1017 57 10000 5.14 140 16:31 17.11.2022
1015 Clouds 22 1017 80 10000 2.57 350 12:20 17.11.2022
1016 Clouds 21 1016 90 10000 3.09 310 10:47 17.11.2022
1017 Clear 21 1016 88 10000 3.09 300 07:35 17.11.2022
1018 Clouds 24 1018 67 10000 2.06 160 01:30 17.11.2022
1019 Clouds 25 1016 65 10000 3.6 220 23:31 16.11.2022
1020 Clouds 25 1016 62 10000 4.63 190 22:24 16.11.2022
1021 Clouds 25 1015 68 10000 5.14 220 20:33 16.11.2022
1022 Clouds 26 1014 67 10000 5.66 200 18:49 16.11.2022
1023 Clouds 26 1014 67 10000 5.66 200 18:30 16.11.2022
1024 Clouds 24 1015 89 7000 3.6 190 15:58 16.11.2022
1025 Rain 24 1014 84 10000 3.6 290 11:54 16.11.2022
1026 Clouds 24 1013 88 10000 2.57 80 07:55 16.11.2022
1027 Rain 24 1014 85 10000 3.6 320 01:46 16.11.2022
1028 Rain 24 1013 88 10000 4.12 310 23:47 15.11.2022
1029 Clouds 25 1013 78 8000 4.12 280 21:44 15.11.2022
1030 Rain 27 1012 79 10000 4.63 290 20:19 15.11.2022
1031 Thunderstorm 28 1010 68 9000 10.29 190 18:56 15.11.2022
1032 Rain 30 1010 64 10000 6.69 240 17:37 15.11.2022
1033 Clouds 32 1011 56 10000 4.63 140 16:20 15.11.2022
1034 Rain 32 1011 59 10000 4.63 310 15:39 15.11.2022
1035 Clear 31 1011 62 10000 4.12 10 14:41 15.11.2022
1036 Clear 31 1011 55 10000 4.12 300 12:54 15.11.2022
1037 Clear 27 1010 72 10000 4.63 340 11:22 15.11.2022
1038 Clear 29 1008 51 10000 5.14 270 09:43 15.11.2022
1039 Clouds 25 1009 84 8000 3.6 60 00:54 15.11.2022
1040 Clouds 25 1009 83 8000 3.6 60 00:24 15.11.2022
1041 Thunderstorm 25 1008 84 7000 9.26 300 22:33 14.11.2022
1042 Clouds 30 1007 68 10000 4.63 160 20:44 14.11.2022
1043 Clouds 29 1006 72 10000 6.17 170 19:47 14.11.2022
1044 Clouds 29 1007 68 10000 5.66 160 18:27 14.11.2022
1045 Clouds 26 1010 79 10000 2.57 10 13:20 14.11.2022
1046 Clouds 25 1009 87 10000 2.06 340 11:49 14.11.2022
1047 Clouds 25 1009 87 10000 2.06 340 11:25 14.11.2022
1048 Clouds 24 1009 88 10000 2.06 360 08:34 14.11.2022
1049 Clouds 24 1009 88 10000 2.06 360 08:34 14.11.2022
1050 Clouds 24 1009 88 10000 2.06 30 07:52 14.11.2022
1051 Clouds 25 1010 83 10000 1.54 110 04:31 14.11.2022
1052 Clouds 25 1010 80 10000 5.66 130 23:23 13.11.2022
1053 Clouds 26 1009 73 10000 6.17 130 21:42 13.11.2022
1054 Clouds 26 1009 72 10000 6.69 130 20:50 13.11.2022
1055 Clouds 27 1009 68 10000 7.2 150 18:55 13.11.2022
1056 Clouds 27 1010 72 10000 7.72 120 17:50 13.11.2022
1057 Clouds 28 1011 69 10000 8.23 130 16:25 13.11.2022
1058 Clouds 27 1011 72 10000 4.12 130 14:44 13.11.2022
1059 Clouds 26 1012 72 10000 5.14 250 12:58 13.11.2022
1060 Clouds 26 1012 71 10000 5.14 250 12:24 13.11.2022
1061 Clear 24 1011 85 10000 2.06 310 10:42 13.11.2022
1062 Clouds 23 1010 88 10000 3.09 280 06:29 13.11.2022
1063 Clouds 26 1011 74 10000 5.14 230 23:58 12.11.2022
1064 Clouds 26 1009 73 10000 7.2 180 21:42 12.11.2022
1065 Clouds 26 1009 73 10000 7.2 180 21:23 12.11.2022
1066 Clouds 27 1009 76 10000 8.75 240 19:52 12.11.2022
1067 Clouds 27 1010 70 10000 5.14 140 17:33 12.11.2022
1068 Clouds 27 1010 70 10000 5.66 150 16:19 12.11.2022
1069 Clouds 25 1011 80 10000 2.57 10 14:50 12.11.2022
1070 Clouds 23 1012 88 10000 3.09 310 11:23 12.11.2022
1071 Rain 23 1011 85 10000 3.09 180 08:25 12.11.2022
1072 Thunderstorm 25 1013 87 8000 5.66 80 00:41 12.11.2022
1073 Clouds 25 1010 80 10000 7.2 150 21:35 11.11.2022
1074 Clouds 25 1011 81 10000 7.72 160 20:45 11.11.2022
1075 Clouds 26 1011 76 10000 7.72 150 19:29 11.11.2022
1076 Clouds 26 1012 75 10000 7.72 160 18:42 11.11.2022
1077 Clouds 26 1013 75 10000 6.69 150 17:41 11.11.2022
1078 Clouds 26 1014 72 8000 4.12 130 15:36 11.11.2022
1079 Clouds 26 1014 72 8000 3.09 360 14:20 11.11.2022
1080 Clouds 26 1015 75 8000 2.57 350 13:24 11.11.2022
1081 Clouds 22 1013 90 10000 2.57 350 09:37 11.11.2022
1082 Clouds 22 1013 90 10000 2.57 330 08:27 11.11.2022
1083 Clouds 24 1014 83 10000 3.09 150 04:39 11.11.2022
1084 Clouds 24 1014 81 10000 5.14 150 23:21 10.11.2022
1085 Clouds 24 1013 82 10000 6.17 150 22:27 10.11.2022
1086 Clouds 24 1013 82 10000 6.69 150 21:32 10.11.2022
1087 Clouds 24 1013 80 10000 7.72 150 20:50 10.11.2022
1088 Clouds 24 1013 80 10000 7.72 150 20:21 10.11.2022
1089 Clouds 25 1013 76 10000 8.23 150 19:42 10.11.2022
1090 Clouds 25 1013 76 10000 8.23 150 18:32 10.11.2022
1091 Clouds 27 1015 69 10000 7.2 150 16:26 10.11.2022
1092 Clouds 25 1015 76 10000 3.6 130 13:57 10.11.2022
1093 Clouds 23 1014 84 10000 1.54 350 11:40 10.11.2022
1094 Clouds 22 1013 90 10000 2.06 280 08:44 10.11.2022
1095 Clouds 23 1014 81 10000 4.12 180 01:35 10.11.2022
1096 Clouds 23 1013 81 10000 5.14 170 23:45 09.11.2022
1097 Clouds 23 1013 76 10000 5.66 170 22:38 09.11.2022
1098 Clouds 23 1012 84 8000 5.14 160 20:48 09.11.2022
1099 Clouds 23 1012 84 8000 5.14 160 20:29 09.11.2022
1100 Thunderstorm 23 1011 79 10000 7.2 150 19:43 09.11.2022
1101 Rain 25 1012 76 10000 7.2 160 19:18 09.11.2022
1102 Clouds 25 1014 73 10000 3.6 360 16:50 09.11.2022
1103 Clouds 23 1015 81 9000 4.12 90 14:48 09.11.2022
1104 Clouds 23 1015 80 9000 4.12 90 14:26 09.11.2022
1105 Clouds 22 1016 84 7000 3.6 30 13:31 09.11.2022
1106 Rain 22 1015 82 7000 2.06 70 12:34 09.11.2022
1107 Clouds 20 1015 94 8000 2.57 300 08:44 09.11.2022
1108 Clouds 20 1015 94 9000 2.57 270 07:46 09.11.2022
1109 Rain 20 1017 91 6000 2.57 190 01:44 09.11.2022
1110 Rain 20 1016 91 6000 5.14 130 21:56 08.11.2022
1111 Thunderstorm 20 1015 91 4000 6.17 140 21:35 08.11.2022
1112 Mist 21 1015 82 10000 5.14 170 20:41 08.11.2022
1113 Mist 21 1015 81 10000 4.63 150 19:47 08.11.2022
1114 Clouds 22 1015 77 10000 4.63 150 18:59 08.11.2022
1115 Clouds 22 1017 74 10000 3.6 120 17:34 08.11.2022
1116 Clouds 21 1018 77 10000 1.54 230 14:57 08.11.2022
1117 Clouds 21 1018 77 10000 1.54 230 14:31 08.11.2022
1118 Clouds 21 1018 81 9000 2.06 100 13:27 08.11.2022
1119 Clouds 19 1017 86 8000 2.57 300 10:28 08.11.2022
1120 Clouds 19 1016 90 7000 2.57 330 07:38 08.11.2022
1121 Clouds 20 1018 88 8000 3.09 270 01:50 08.11.2022
1122 Clouds 20 1017 80 9000 6.17 180 22:56 07.11.2022
1123 Clouds 20 1017 80 10000 6.17 170 21:40 07.11.2022
1124 Drizzle 20 1016 80 9000 5.14 150 20:46 07.11.2022
1125 Clouds 21 1017 77 10000 5.14 160 19:37 07.11.2022
1126 Mist 21 1017 77 10000 6.17 190 17:41 07.11.2022
1127 Clouds 22 1018 77 10000 4.63 180 15:38 07.11.2022
1128 Clouds 22 1018 76 10000 2.06 340 14:55 07.11.2022
1129 Clouds 21 1018 77 10000 2.06 350 13:21 07.11.2022
1130 Clouds 22 1018 80 10000 2.06 280 12:24 07.11.2022
1131 Clouds 19 1017 90 10000 2.06 280 10:45 07.11.2022
1132 Clouds 19 1016 84 10000 2.57 210 08:30 07.11.2022
1133 Clouds 20 1017 88 10000 3.6 300 06:31 07.11.2022
1134 Clouds 22 1019 66 10000 4.63 170 01:48 07.11.2022
1135 Clouds 22 1018 66 10000 4.63 170 23:33 06.11.2022
1136 Clouds 22 1017 65 10000 6.17 160 21:22 06.11.2022
1137 Clouds 23 1017 64 10000 6.69 160 20:48 06.11.2022
1138 Clouds 23 1018 64 10000 6.69 170 19:57 06.11.2022
1139 Clouds 23 1018 64 10000 6.69 170 19:27 06.11.2022
1140 Clouds 24 1018 61 10000 6.69 160 18:20 06.11.2022
1141 Clouds 23 1019 61 10000 6.69 160 17:42 06.11.2022
1142 Clouds 23 1019 61 10000 6.69 160 17:18 06.11.2022
1143 Clouds 24 1019 59 10000 6.17 160 16:19 06.11.2022
1144 Clouds 23 1020 64 10000 3.09 180 14:53 06.11.2022
1145 Clouds 22 1020 68 10000 3.09 320 12:46 06.11.2022
1146 Clouds 20 1018 76 10000 3.09 280 10:58 06.11.2022
1147 Clouds 20 1018 71 10000 2.06 270 09:52 06.11.2022
1148 Clouds 20 1018 71 10000 2.06 270 09:52 06.11.2022
1149 Clouds 20 1017 68 10000 2.57 310 07:44 06.11.2022
1150 Clear 21 1018 68 10000 6.17 170 23:25 05.11.2022
1151 Clouds 23 1017 60 10000 6.69 170 20:46 05.11.2022
1152 Clouds 23 1018 64 10000 6.69 260 18:38 05.11.2022
1153 Clouds 23 1019 66 10000 6.17 160 16:40 05.11.2022
1154 Clouds 22 1020 66 10000 4.12 230 14:43 05.11.2022
1155 Clouds 21 1020 71 10000 2.57 20 13:40 05.11.2022
1156 Clouds 19 1019 81 10000 2.06 320 11:51 05.11.2022
1157 Clouds 18 1017 90 10000 3.09 310 08:59 05.11.2022
1158 Clouds 18 1017 88 10000 2.57 270 07:23 05.11.2022
1159 Clouds 18 1018 84 8000 2.06 260 06:54 05.11.2022
1160 Clouds 20 1020 77 10000 2.57 230 00:37 05.11.2022
1161 Clouds 20 1019 80 10000 3.6 170 23:27 04.11.2022
1162 Clouds 21 1018 72 10000 6.17 180 20:44 04.11.2022
1163 Clouds 23 1018 62 10000 4.63 170 19:31 04.11.2022
1164 Clouds 23 1018 62 10000 4.63 170 19:31 04.11.2022
1165 Clouds 22 1019 64 10000 2.06 150 17:39 04.11.2022
1166 Clouds 19 1020 78 10000 2.57 240 14:25 04.11.2022
1167 Clouds 21 1021 100 10000 0.53 267 12:28 04.11.2022
1168 Clouds 18 1020 81 10000 4.12 310 11:57 04.11.2022
1169 Clouds 19 1020 100 10000 0.98 290 09:25 04.11.2022
1170 Clouds 20 1020 100 10000 0.89 311 08:19 04.11.2022
1171 Clouds 19 1020 100 10000 1.07 164 06:34 04.11.2022
1172 Clouds 19 1022 73 10000 2.57 230 00:42 04.11.2022
1173 Clouds 19 1021 78 8000 8.23 190 21:18 03.11.2022
1174 Mist 20 1020 73 10000 7.72 180 20:45 03.11.2022
1175 Clouds 21 1020 71 10000 7.2 180 19:41 03.11.2022
1176 Clouds 22 1021 66 10000 6.69 150 18:18 03.11.2022
1177 Clouds 22 1021 67 10000 5.66 160 17:36 03.11.2022
1178 Clouds 20 1022 81 10000 4.63 150 15:20 03.11.2022
1179 Clouds 19 1022 87 9000 3.09 310 13:33 03.11.2022
1180 Clouds 18 1022 89 8000 3.6 290 12:34 03.11.2022
1181 Clouds 18 1022 91 6000 4.63 160 11:31 03.11.2022
1182 Clouds 18 1022 91 6000 4.63 160 11:31 03.11.2022
1183 Mist 20 1020 77 10000 2.57 0 07:48 03.11.2022
1184 Mist 19 1022 85 4500 7.2 140 22:20 02.11.2022
1185 Mist 18 1021 89 4500 9.77 150 20:55 02.11.2022
1186 Clouds 20 1021 88 7000 8.23 140 20:23 02.11.2022
1187 Rain 19 1021 86 6000 4.12 150 18:28 02.11.2022
1188 Clouds 20 1022 78 7000 5.66 150 16:28 02.11.2022
1189 Mist 20 1022 82 7000 4.63 140 15:30 02.11.2022
1190 Clouds 20 1021 85 6000 8.23 160 12:52 02.11.2022
1191 Clouds 20 1021 85 6000 8.23 160 12:22 02.11.2022
1192 Mist 19 1019 92 4000 8.23 180 09:51 02.11.2022
1193 Mist 19 1018 90 4000 7.2 190 08:33 02.11.2022
1194 Clouds 21 1020 81 8000 2.57 210 02:28 02.11.2022
1195 Mist 20 1018 92 3000 6.69 180 22:21 01.11.2022
1196 Mist 21 1017 92 3000 7.2 190 21:54 01.11.2022
1197 Mist 21 1016 92 3000 8.23 190 20:28 01.11.2022
1198 Mist 21 1015 92 3000 7.2 170 19:59 01.11.2022
1199 Mist 21 1015 92 3000 7.2 170 19:41 01.11.2022
1200 Mist 22 1015 92 3000 9.26 170 18:26 01.11.2022
1201 Mist 22 1015 92 3000 9.77 170 16:28 01.11.2022
1202 Mist 24 1014 89 4500 6.17 200 14:39 01.11.2022
1203 Clouds 25 1013 85 10000 4.12 330 12:57 01.11.2022
1204 Clouds 25 1013 86 10000 4.12 330 12:25 01.11.2022
1205 Clouds 24 1013 88 10000 3.6 330 11:20 01.11.2022
1206 Clouds 24 1011 88 10000 3.6 300 09:22 01.11.2022
1207 Drizzle 24 1010 83 10000 4.63 310 07:53 01.11.2022
1208 Drizzle 24 1010 83 10000 4.63 310 07:28 01.11.2022
1209 Clouds 25 1010 73 10000 5.14 290 06:46 01.11.2022
1210 Clouds 25 1010 83 10000 5.66 280 05:23 01.11.2022
1211 Thunderstorm 23 1008 91 4500 3.6 340 22:44 31.10.2022
1212 Thunderstorm 26 1009 85 2000 7.72 320 21:34 31.10.2022
1213 Clouds 26 1006 78 10000 8.75 150 19:57 31.10.2022
1214 Clouds 28 1006 73 10000 8.23 150 18:42 31.10.2022
1215 Clouds 31 1007 64 10000 7.72 170 16:44 31.10.2022
1216 Rain 30 1008 62 10000 10.29 190 15:35 31.10.2022
1217 Clouds 32 1006 49 10000 4.63 290 12:39 31.10.2022
1218 Clear 27 1004 78 10000 2.57 320 09:44 31.10.2022
1219 Clear 29 1004 61 10000 1.54 350 07:41 31.10.2022
1220 Clear 29 1007 70 10000 1.54 360 02:49 31.10.2022
1221 Clear 28 1006 78 10000 3.6 40 01:48 31.10.2022
1222 Clear 31 1004 58 10000 4.63 190 22:22 30.10.2022
1223 Clouds 32 1003 55 10000 4.12 170 20:44 30.10.2022
1224 Clouds 33 1003 52 10000 3.6 40 19:53 30.10.2022
1225 Clouds 31 1005 54 10000 3.09 30 16:42 30.10.2022
1226 Clear 28 1007 67 10000 3.09 60 14:57 30.10.2022
1227 Clear 26 1007 79 10000 5.66 70 13:51 30.10.2022
1228 Clear 26 1007 75 10000 6.17 30 12:27 30.10.2022
1229 Rain 27 1008 65 10000 3.09 310 10:32 30.10.2022
1230 Clear 26 1008 78 10000 3.6 290 09:36 30.10.2022
1231 Clear 26 1008 78 10000 6.69 250 08:18 30.10.2022
1232 Clouds 27 1007 65 10000 4.63 150 00:30 30.10.2022
1233 Clouds 28 1007 64 10000 6.17 120 23:48 29.10.2022
1234 Clouds 28 1007 67 10000 7.2 190 22:52 29.10.2022
1235 Clouds 31 1007 53 10000 7.2 170 19:57 29.10.2022
1236 Clear 29 1009 66 10000 5.14 160 17:24 29.10.2022
1237 Clear 27 1011 68 10000 2.57 330 15:51 29.10.2022
1238 Clear 27 1011 69 10000 2.57 330 15:23 29.10.2022
1239 Clear 26 1011 76 10000 3.09 360 14:41 29.10.2022
1240 Clouds 24 1011 85 10000 3.09 10 12:34 29.10.2022
1241 Clouds 23 1011 92 6000 4.63 350 10:36 29.10.2022
1242 Clear 24 1011 85 10000 3.09 130 07:33 29.10.2022
1243 Clear 24 1012 85 10000 1.03 60 05:55 29.10.2022
1244 Clouds 24 1012 88 10000 3.09 140 02:45 29.10.2022
1245 Thunderstorm 25 1012 89 6000 9.77 190 22:33 28.10.2022
1246 Clouds 27 1009 73 10000 7.72 160 20:46 28.10.2022
1247 Clouds 30 1011 61 10000 5.14 150 18:58 28.10.2022
1248 Clouds 30 1011 61 10000 5.14 150 18:31 28.10.2022
1249 Clouds 27 1012 73 10000 4.12 250 15:31 28.10.2022
1250 Clouds 26 1013 79 10000 4.12 290 14:43 28.10.2022
1251 Clouds 26 1012 84 10000 1.54 210 12:53 28.10.2022
1252 Clouds 25 1011 85 10000 2.57 350 11:34 28.10.2022
1253 Clouds 25 1010 87 10000 1.54 50 10:47 28.10.2022
1254 Clouds 25 1010 78 10000 2.06 300 09:47 28.10.2022
1255 Rain 28 1009 64 10000 8.23 200 08:28 28.10.2022
1256 Clear 30 1008 62 10000 3.6 310 03:43 28.10.2022
1257 Clear 30 1007 60 10000 4.12 130 23:49 27.10.2022
1258 Clouds 31 1006 54 10000 5.14 190 22:40 27.10.2022
1259 Clouds 31 1007 57 10000 5.14 170 21:55 27.10.2022
1260 Clouds 32 1007 52 10000 3.6 100 20:30 27.10.2022
1261 Clear 31 1009 54 10000 3.6 160 18:23 27.10.2022
1262 Clear 25 1013 74 10000 4.63 30 14:30 27.10.2022
1263 Clear 22 1013 90 10000 3.09 30 11:29 27.10.2022
1264 Clear 22 1012 83 10000 2.57 120 07:29 27.10.2022
1265 Clear 25 1012 74 10000 8.23 110 00:22 27.10.2022
1266 Clouds 25 1012 75 10000 8.23 100 23:46 26.10.2022
1267 Clouds 26 1011 73 10000 6.17 150 22:38 26.10.2022
1268 Clouds 26 1012 69 10000 7.2 160 20:36 26.10.2022
1269 Clouds 26 1015 70 10000 6.17 160 17:27 26.10.2022
1270 Clouds 24 1016 75 10000 3.09 330 14:53 26.10.2022
1271 Clouds 22 1016 87 10000 2.06 30 12:39 26.10.2022
1272 Clouds 22 1015 85 10000 2.06 360 11:35 26.10.2022
1273 Clouds 22 1014 87 10000 2.06 320 09:18 26.10.2022
1274 Clouds 22 1014 83 10000 1.54 300 08:44 26.10.2022
1275 Clouds 23 1016 77 10000 5.14 150 00:50 26.10.2022
1276 Clouds 23 1016 77 10000 5.14 150 00:29 26.10.2022
1277 Clouds 23 1015 77 10000 6.69 130 22:23 25.10.2022
1278 Clouds 23 1015 79 10000 7.2 130 21:44 25.10.2022
1279 Clouds 23 1015 79 10000 6.69 160 20:27 25.10.2022
1280 Clouds 24 1016 77 10000 7.72 140 18:52 25.10.2022
1281 Clouds 24 1017 76 10000 5.14 160 15:48 25.10.2022
1282 Clouds 23 1015 83 10000 3.09 120 11:41 25.10.2022
1283 Clouds 23 1015 85 10000 2.57 150 10:47 25.10.2022
1284 Clouds 23 1015 85 10000 2.57 150 10:29 25.10.2022
1285 Clouds 23 1014 87 10000 2.57 170 08:38 25.10.2022
1286 Clouds 23 1014 87 10000 2.57 170 08:18 25.10.2022
1287 Clouds 23 1014 87 10000 3.09 80 07:53 25.10.2022
1288 Clouds 23 1015 85 10000 4.12 110 06:43 25.10.2022
1289 Clouds 24 1016 78 10000 5.14 140 03:28 25.10.2022
1290 Clouds 24 1015 77 10000 5.14 160 00:32 25.10.2022
1291 Rain 24 1014 77 10000 6.17 140 22:26 24.10.2022
1292 Rain 25 1013 74 10000 6.69 130 21:46 24.10.2022
1293 Clouds 25 1013 73 10000 8.23 150 20:50 24.10.2022
1294 Clouds 25 1013 73 10000 8.23 150 20:19 24.10.2022
1295 Clouds 24 1015 77 10000 7.2 160 18:33 24.10.2022
1296 Clouds 25 1016 74 10000 6.17 160 16:55 24.10.2022
1297 Clouds 24 1017 100 10000 2.98 129 15:24 24.10.2022
1298 Clouds 24 1017 100 10000 2.39 107 14:19 24.10.2022
1299 Clouds 24 1017 100 10000 2.01 87 12:27 24.10.2022
1300 Clouds 24 1015 100 10000 1.52 73 09:22 24.10.2022
1301 Clouds 24 1015 100 10000 1.5 75 07:31 24.10.2022
1302 Clouds 23 1016 82 10000 6.69 120 22:39 23.10.2022
1303 Clouds 24 1016 100 10000 3.79 161 20:38 23.10.2022
1304 Clouds 25 1016 72 10000 7.72 240 18:53 23.10.2022
1305 Clouds 25 1017 100 10000 3.25 186 17:29 23.10.2022
1306 Clouds 25 1017 100 10000 3.25 186 17:29 23.10.2022
1307 Clouds 25 1017 71 10000 4.12 140 15:41 23.10.2022
1308 Clouds 25 1017 73 10000 2.57 180 14:56 23.10.2022
1309 Clouds 22 1015 88 10000 2.06 210 11:56 23.10.2022
1310 Clouds 22 1015 88 10000 2.57 290 10:40 23.10.2022
1311 Clouds 21 1016 92 10000 2.57 290 05:53 23.10.2022
1312 Clouds 24 1012 76 10000 8.23 190 22:51 22.10.2022
1313 Clouds 25 1013 100 10000 3.4 218 22:30 22.10.2022
1314 Clouds 26 1011 68 10000 9.77 190 21:39 22.10.2022
1315 Clouds 26 1011 100 10000 4.78 223 20:18 22.10.2022
1316 Clouds 26 1011 100 10000 4.81 223 19:31 22.10.2022
1317 Clouds 30 1011 54 10000 8.75 210 17:41 22.10.2022
1318 Clouds 30 1011 54 10000 8.75 210 17:41 22.10.2022
1319 Clouds 31 1011 53 10000 8.75 190 16:49 22.10.2022
1320 Clouds 29 1010 62 10000 6.69 310 14:57 22.10.2022
1321 Clear 27 1011 100 10000 1.99 231 14:18 22.10.2022
1322 Clear 23 1009 80 10000 2.08 358 11:25 22.10.2022
1323 Clear 24 1007 94 10000 4.12 350 09:45 22.10.2022
1324 Clear 24 1007 94 10000 4.12 350 09:45 22.10.2022
1325 Clear 25 1007 83 10000 4.12 320 08:37 22.10.2022
1326 Clear 25 1008 85 10000 3.09 350 05:50 22.10.2022
1327 Clouds 23 1010 88 10000 2.24 96 00:31 22.10.2022
1328 Rain 25 1008 78 10000 6.17 180 22:50 21.10.2022
1329 Rain 24 1009 85 10000 2.38 106 21:32 21.10.2022
1330 Clouds 32 1009 49 10000 4.21 110 20:26 21.10.2022
1331 Clouds 34 1010 44 10000 1.77 19 18:27 21.10.2022
1332 Rain 27 1008 58 10000 3.09 360 14:40 21.10.2022
1333 Clouds 26 1008 72 10000 3.6 50 13:39 21.10.2022
1334 Clear 24 1008 83 10000 2.57 320 11:46 21.10.2022
1335 Clouds 22 1009 87 10000 2.51 37 10:24 21.10.2022
1336 Clear 24 1007 83 10000 2.06 310 08:45 21.10.2022
1337 Clear 23 1009 84 10000 1.76 17 08:20 21.10.2022
1338 Clouds 24 1010 79 10000 1.35 84 04:30 21.10.2022
1339 Clouds 26 1009 72 10000 2.11 106 23:23 20.10.2022
1340 Clouds 28 1008 63 10000 4.11 115 21:21 20.10.2022
1341 Clouds 29 1009 59 10000 5.66 150 19:44 20.10.2022
1342 Clear 29 1010 58 10000 6.17 160 18:49 20.10.2022
1343 Clear 29 1011 58 10000 5.14 160 17:43 20.10.2022
1344 Clear 25 1013 75 10000 2.57 20 14:38 20.10.2022
1345 Clear 23 1013 85 10000 3.6 10 12:32 20.10.2022
1346 Mist 22 1012 88 10000 2.57 10 11:34 20.10.2022
1347 Mist 22 1012 88 10000 2.06 70 10:52 20.10.2022
1348 Clear 22 1011 88 10000 1.54 40 09:30 20.10.2022
1349 Clear 23 1013 83 10000 0 0 07:23 20.10.2022
1350 Clear 24 1015 73 10000 1.54 90 02:22 20.10.2022
1351 Clouds 25 1014 85 10000 4.63 100 23:41 19.10.2022
1352 Rain 25 1015 85 10000 3.6 80 22:25 19.10.2022
1353 Rain 24 1014 86 10000 3.09 120 21:27 19.10.2022
1354 Rain 25 1015 83 9000 2.57 150 20:19 19.10.2022
1355 Rain 24 1017 86 10000 3.09 140 17:52 19.10.2022
1356 Clouds 25 1017 80 10000 2.57 150 16:24 19.10.2022
1357 Rain 25 1018 78 10000 2.06 30 14:34 19.10.2022
1358 Clouds 24 1017 83 10000 3.09 100 12:21 19.10.2022
1359 Clouds 23 1016 94 7000 4.12 170 08:52 19.10.2022
1360 Clouds 23 1017 94 6000 3.09 180 07:24 19.10.2022
1361 Clouds 24 1018 88 10000 4.12 100 02:30 19.10.2022
1362 Thunderstorm 24 1018 90 4000 4.63 200 23:45 18.10.2022
1363 Clouds 25 1016 79 10000 6.69 170 21:49 18.10.2022
1364 Clouds 25 1016 79 10000 6.69 170 21:31 18.10.2022
1365 Clouds 25 1016 79 10000 7.72 250 20:31 18.10.2022
1366 Clouds 27 1017 69 10000 6.69 170 19:19 18.10.2022
1367 Clouds 25 1018 75 10000 4.12 150 16:58 18.10.2022
1368 Clouds 26 1019 66 10000 3.09 340 15:36 18.10.2022
1369 Clouds 25 1019 76 10000 3.09 10 13:43 18.10.2022
1370 Rain 24 1017 78 10000 2.57 340 11:48 18.10.2022
1371 Clouds 24 1017 78 10000 2.57 340 11:18 18.10.2022
1372 Rain 24 1016 78 10000 2.06 280 09:26 18.10.2022
1373 Clouds 24 1016 73 10000 3.09 180 07:20 18.10.2022
1374 Rain 24 1015 76 10000 5.66 190 00:34 18.10.2022
1375 Clouds 25 1013 72 10000 8.23 180 21:45 17.10.2022
1376 Clouds 26 1013 67 10000 8.75 180 20:50 17.10.2022
1377 Clouds 26 1013 67 10000 8.75 180 20:30 17.10.2022
1378 Clouds 27 1013 68 10000 8.23 180 19:46 17.10.2022
1379 Clouds 28 1014 58 10000 6.69 150 17:58 17.10.2022
1380 Clear 28 1015 59 10000 5.66 140 16:34 17.10.2022
1381 Clouds 26 1015 73 10000 2.57 180 15:28 17.10.2022
1382 Clear 23 1015 84 10000 2.06 10 13:36 17.10.2022
1383 Clear 22 1012 85 10000 2.06 50 09:46 17.10.2022
1384 Clear 23 1015 78 10000 3.6 90 03:21 17.10.2022
1385 Clear 25 1014 77 10000 4.12 150 23:24 16.10.2022
1386 Clouds 25 1014 69 10000 5.66 170 21:46 16.10.2022
1387 Clouds 26 1014 68 10000 4.12 150 20:28 16.10.2022
1388 Clouds 25 1015 69 10000 4.12 150 19:45 16.10.2022
1389 Rain 25 1017 66 10000 3.6 160 17:47 16.10.2022
1390 Clouds 24 1017 66 10000 3.6 170 16:32 16.10.2022
1391 Clouds 24 1018 68 10000 3.6 10 15:56 16.10.2022
1392 Clouds 23 1019 76 10000 4.63 40 13:27 16.10.2022
1393 Rain 22 1018 81 10000 4.12 50 12:20 16.10.2022
1394 Clear 22 1017 80 10000 3.09 60 10:27 16.10.2022
1395 Clear 22 1018 78 10000 4.63 80 08:26 16.10.2022
1396 Clouds 24 1020 72 10000 6.17 140 23:50 15.10.2022
1397 Clouds 24 1020 73 10000 8.23 160 22:38 15.10.2022
1398 Clouds 25 1020 69 10000 8.75 180 21:23 15.10.2022
1399 Clouds 26 1020 66 10000 9.26 160 20:23 15.10.2022
1400 Clouds 27 1020 70 10000 7.72 170 18:26 15.10.2022
1401 Clouds 27 1021 68 10000 5.14 80 15:46 15.10.2022
1402 Clouds 26 1023 100 10000 3.12 88 14:21 15.10.2022
1403 Clouds 23 1021 90 10000 4.12 90 11:52 15.10.2022
1404 Mist 23 1020 90 10000 4.63 80 10:31 15.10.2022
1405 Clouds 23 1020 92 8000 3.09 140 08:31 15.10.2022
1406 Clouds 24 1020 82 10000 5.14 260 01:55 15.10.2022
1407 Mist 23 1019 85 8000 7.72 210 23:31 14.10.2022
1408 Mist 24 1018 82 8000 7.2 210 22:23 14.10.2022
1409 Clouds 25 1018 75 9000 7.72 180 21:27 14.10.2022
1410 Clouds 26 1017 72 10000 7.72 240 19:44 14.10.2022
1411 Mist 25 1019 80 8000 3.09 170 16:26 14.10.2022
1412 Haze 23 1019 85 8000 2.57 160 13:26 14.10.2022
1413 Mist 24 1018 84 8000 1.54 160 12:18 14.10.2022
1414 Clouds 23 1016 92 10000 3.09 140 09:29 14.10.2022
1415 Clouds 24 1016 86 10000 4.12 270 06:55 14.10.2022
1416 Clouds 24 1016 86 10000 4.12 270 06:18 14.10.2022
1417 Clear 24 1016 87 10000 4.63 250 05:42 14.10.2022
1418 Clear 24 1016 85 10000 3.09 290 03:44 14.10.2022
1419 Clear 26 1013 73 10000 4.63 160 23:58 13.10.2022
1420 Clear 27 1013 70 10000 5.66 190 22:22 13.10.2022
1421 Clear 28 1013 66 10000 6.17 180 21:25 13.10.2022
1422 Clear 28 1014 68 10000 5.66 150 19:49 13.10.2022
1423 Clear 29 1015 63 10000 5.66 150 19:25 13.10.2022
1424 Clear 27 1015 70 9000 6.17 160 18:42 13.10.2022
1425 Clouds 26 1016 74 8000 3.6 10 16:50 13.10.2022
1426 Clouds 25 1017 77 8000 2.57 60 15:45 13.10.2022
1427 Clouds 25 1017 81 8000 2.57 80 14:23 13.10.2022
1428 Mist 23 1017 88 8000 2.06 90 12:50 13.10.2022
1429 Clouds 22 1016 90 8000 1.54 350 11:36 13.10.2022
1430 Mist 22 1015 94 8000 2.57 10 09:40 13.10.2022
1431 Mist 22 1015 92 10000 2.57 30 08:19 13.10.2022
1432 Clouds 23 1015 88 10000 1.54 30 07:33 13.10.2022
1433 Clear 23 1017 79 10000 3.09 260 01:51 13.10.2022
1434 Clouds 24 1017 77 10000 3.6 280 00:55 13.10.2022
1435 Clouds 24 1015 78 10000 6.69 200 22:46 12.10.2022
1436 Clouds 24 1015 78 10000 6.69 200 22:28 12.10.2022
1437 Clouds 25 1015 73 10000 6.17 200 21:21 12.10.2022
1438 Clouds 25 1015 73 10000 7.72 190 20:52 12.10.2022
1439 Clouds 25 1015 81 10000 7.72 220 19:30 12.10.2022
1440 Clouds 25 1015 80 10000 5.66 170 18:25 12.10.2022
1441 Clouds 27 1017 70 8000 5.14 180 17:47 12.10.2022
1442 Clouds 24 1016 79 7000 3.6 170 15:40 12.10.2022
1443 Mist 23 1016 90 5000 2.57 130 13:56 12.10.2022
1444 Mist 23 1016 90 5000 2.57 130 13:22 12.10.2022
1445 Clouds 22 1013 98 7000 3.09 170 09:41 12.10.2022
1446 Clouds 22 1013 96 9000 2.06 320 07:58 12.10.2022
1447 Clouds 22 1013 96 9000 2.06 320 07:38 12.10.2022
1448 Clear 23 1014 92 10000 3.09 140 06:43 12.10.2022
1449 Clear 26 1014 79 10000 4.12 190 00:58 12.10.2022
1450 Clear 26 1014 76 10000 6.69 170 22:19 11.10.2022
1451 Clear 27 1014 75 10000 6.17 160 20:40 11.10.2022
1452 Clear 29 1016 68 10000 5.66 160 19:21 11.10.2022
1453 Clouds 27 1018 76 10000 3.6 140 16:49 11.10.2022
1454 Clouds 27 1018 76 10000 3.6 140 16:49 11.10.2022
1455 Haze 24 1019 87 8000 2.57 140 14:48 11.10.2022
1456 Mist 23 1019 90 7000 2.06 140 12:57 11.10.2022
1457 Rain 23 1018 92 9000 1.54 160 10:29 11.10.2022
1458 Clouds 22 1018 98 9000 2.06 150 09:36 11.10.2022
1459 Clouds 23 1019 92 8000 1.54 130 06:57 11.10.2022
1460 Clouds 23 1021 92 10000 3.09 170 02:31 11.10.2022
1461 Clouds 23 1019 90 9000 6.69 180 00:31 11.10.2022
1462 Clouds 25 1018 81 10000 5.14 160 21:37 10.10.2022
1463 Clouds 26 1018 75 10000 5.66 110 19:59 10.10.2022
1464 Clouds 25 1019 78 10000 5.14 140 18:38 10.10.2022
1465 Clouds 26 1020 72 10000 4.63 100 17:23 10.10.2022
1466 Clouds 24 1021 76 10000 3.09 230 15:58 10.10.2022
1467 Clouds 23 1020 82 10000 2.06 340 13:31 10.10.2022
1468 Clouds 23 1019 81 10000 1.03 0 12:21 10.10.2022
1469 Clear 22 1017 83 10000 1.54 180 09:22 10.10.2022
1470 Clouds 23 1018 78 10000 4.12 270 05:52 10.10.2022
1471 Clouds 23 1018 78 10000 4.12 270 05:27 10.10.2022
1472 Rain 24 1014 87 10000 6.17 240 00:34 10.10.2022
1473 Rain 24 1013 83 10000 4.12 160 23:36 09.10.2022
1474 Clouds 25 1011 81 10000 4.63 160 22:24 09.10.2022
1475 Clouds 25 1011 80 10000 5.66 160 21:26 09.10.2022
1476 Clouds 28 1012 67 10000 3.6 170 20:35 09.10.2022
1477 Rain 26 1012 71 10000 5.66 160 19:47 09.10.2022
1478 Rain 27 1013 68 10000 5.14 150 18:48 09.10.2022
1479 Clear 27 1014 68 10000 5.66 150 17:35 09.10.2022
1480 Clear 26 1014 69 10000 5.14 160 16:44 09.10.2022
1481 Clear 26 1014 68 10000 5.14 160 16:19 09.10.2022
1482 Clear 23 1013 78 10000 2.57 340 14:49 09.10.2022
1483 Clear 23 1013 79 10000 2.57 340 14:26 09.10.2022
1484 Clear 23 1013 81 10000 2.06 70 12:48 09.10.2022
1485 Clouds 21 1012 85 10000 2.06 100 11:22 09.10.2022
1486 Clouds 22 1011 83 10000 1.54 150 08:32 09.10.2022
1487 Clouds 22 1014 85 10000 2.57 80 05:44 09.10.2022
1488 Clouds 23 1014 76 10000 2.06 100 03:22 09.10.2022
1489 Clouds 23 1014 77 10000 4.12 140 00:42 09.10.2022
1490 Clouds 22 1013 81 10000 5.14 170 23:33 08.10.2022
1491 Clouds 23 1012 77 10000 6.17 160 22:38 08.10.2022
1492 Clouds 23 1012 74 10000 6.69 160 20:37 08.10.2022
1493 Clouds 23 1012 75 10000 6.69 140 19:37 08.10.2022
1494 Clouds 23 1014 80 10000 5.14 160 17:44 08.10.2022
1495 Clouds 23 1015 81 10000 5.14 120 15:36 08.10.2022
1496 Clouds 24 1014 78 10000 3.09 150 13:53 08.10.2022
1497 Clouds 23 1013 84 10000 3.09 170 12:20 08.10.2022
1498 Clear 23 1011 80 10000 3.09 170 10:35 08.10.2022
1499 Clouds 23 1011 81 10000 4.63 190 09:42 08.10.2022
1500 Clear 24 1010 72 10000 5.14 190 07:29 08.10.2022
1501 Clouds 25 1009 75 10000 6.17 180 02:45 08.10.2022
1502 Clouds 27 1007 71 10000 4.12 330 00:24 08.10.2022
1503 Clouds 28 1006 67 10000 1.54 360 23:20 07.10.2022
1504 Clouds 27 1005 66 10000 2.57 280 22:24 07.10.2022
1505 Clouds 29 1005 61 10000 4.63 360 20:42 07.10.2022
1506 Rain 25 1006 84 10000 3.6 20 19:18 07.10.2022
1507 Rain 24 1008 92 10000 5.14 70 16:59 07.10.2022
1508 Rain 24 1008 92 10000 5.14 70 16:30 07.10.2022
1509 Rain 24 1011 88 6000 2.57 340 14:44 07.10.2022
1510 Rain 25 1010 83 7000 3.09 250 12:25 07.10.2022
1511 Clouds 23 1006 88 10000 2.06 10 09:28 07.10.2022
1512 Rain 23 1006 92 10000 2.06 360 08:56 07.10.2022
1513 Clouds 24 1007 83 10000 2.06 120 06:23 07.10.2022
1514 Clear 25 1008 76 10000 3.6 170 00:52 07.10.2022
1515 Clear 26 1008 75 10000 4.12 120 22:50 06.10.2022
1516 Clear 28 1009 68 10000 4.63 100 21:44 06.10.2022
1517 Clear 28 1009 68 10000 4.63 100 21:25 06.10.2022
1518 Clouds 27 1010 66 10000 4.63 190 19:55 06.10.2022
1519 Clouds 26 1011 70 10000 6.17 180 18:37 06.10.2022
1520 Clouds 26 1011 70 10000 6.17 180 18:18 06.10.2022
1521 Clouds 23 1015 79 10000 4.12 10 14:51 06.10.2022
1522 Clouds 21 1016 83 10000 3.09 80 11:38 06.10.2022
1523 Clouds 21 1015 81 10000 2.57 110 07:24 06.10.2022
1524 Clouds 21 1017 85 10000 2.57 140 03:35 06.10.2022
1525 Clouds 22 1015 81 10000 5.14 110 00:27 06.10.2022
1526 Clouds 22 1014 82 10000 5.66 130 21:22 05.10.2022
1527 Clouds 23 1014 81 10000 6.17 160 19:29 05.10.2022
1528 Clouds 23 1016 81 10000 5.14 160 17:36 05.10.2022
1529 Clouds 23 1016 85 10000 5.14 120 15:57 05.10.2022
1530 Clouds 22 1017 88 10000 2.57 170 14:47 05.10.2022
1531 Clouds 22 1017 88 10000 2.57 170 14:19 05.10.2022
1532 Clouds 21 1015 94 10000 4.12 130 12:23 05.10.2022
1533 Clouds 21 1013 92 10000 2.06 170 09:28 05.10.2022
1534 Clouds 21 1013 88 10000 2.06 170 07:43 05.10.2022
1535 Clouds 21 1014 86 10000 2.57 140 06:19 05.10.2022
1536 Clouds 21 1014 88 9000 3.09 120 04:21 05.10.2022
1537 Clouds 21 1013 88 6000 3.6 140 00:50 05.10.2022
1538 Clouds 21 1013 88 6000 3.6 140 00:27 05.10.2022
1539 Rain 21 1013 88 8000 4.12 130 22:39 04.10.2022
1540 Clouds 21 1011 85 6000 5.14 140 20:39 04.10.2022
1541 Clouds 22 1013 81 10000 5.14 130 18:59 04.10.2022
1542 Clouds 22 1013 81 10000 5.14 130 18:39 04.10.2022
1543 Clouds 22 1014 78 10000 5.14 160 17:50 04.10.2022
1544 Clouds 23 1014 75 10000 5.14 160 16:36 04.10.2022
1545 Clouds 22 1014 77 10000 2.57 120 13:19 04.10.2022
1546 Clouds 21 1011 85 10000 1.54 350 09:52 04.10.2022
1547 Clouds 21 1013 88 10000 2.06 80 07:34 04.10.2022
1548 Clouds 21 1015 88 10000 3.09 160 02:32 04.10.2022
1549 Mist 21 1013 87 10000 4.63 150 23:42 03.10.2022
1550 Rain 21 1013 81 10000 4.63 170 22:19 03.10.2022
1551 Clouds 22 1013 77 10000 4.63 160 21:23 03.10.2022
1552 Clouds 22 1013 79 10000 3.09 170 20:32 03.10.2022
1553 Clouds 22 1015 80 10000 3.09 160 18:46 03.10.2022
1554 Clouds 22 1016 79 9000 3.09 20 17:28 03.10.2022
1555 Drizzle 21 1017 90 7000 1.54 30 15:49 03.10.2022
1556 Mist 21 1017 88 8000 1.54 160 14:22 03.10.2022
1557 Mist 21 1017 88 4500 2.57 220 12:34 03.10.2022
1558 Clouds 20 1016 92 7000 1.54 310 10:40 03.10.2022
1559 Mist 20 1015 94 4000 2.57 330 09:44 03.10.2022
1560 Mist 21 1016 92 5000 2.57 310 07:32 03.10.2022
1561 Clouds 21 1018 90 6000 2.57 340 03:52 03.10.2022
1562 Clouds 22 1016 81 10000 5.14 180 22:55 02.10.2022
1563 Clouds 22 1016 79 10000 5.66 190 21:33 02.10.2022
1564 Clouds 24 1016 78 10000 4.63 170 19:39 02.10.2022
1565 Clouds 23 1017 76 10000 4.12 330 17:55 02.10.2022
1566 Clouds 23 1017 76 10000 4.12 330 17:55 02.10.2022
1567 Clouds 23 1018 76 10000 2.57 200 16:50 02.10.2022
1568 Clouds 23 1018 76 10000 2.57 200 16:27 02.10.2022
1569 Clouds 22 1018 81 10000 2.57 330 14:57 02.10.2022
1570 Clouds 22 1018 82 10000 2.06 240 13:46 02.10.2022
1571 Clouds 21 1017 87 10000 3.09 230 12:39 02.10.2022
1572 Clouds 21 1016 88 10000 1.54 220 11:43 02.10.2022
1573 Clouds 21 1016 88 10000 1.54 220 11:23 02.10.2022
1574 Clouds 21 1016 88 10000 1.03 30 10:19 02.10.2022
1575 Clouds 21 1015 88 10000 2.06 200 08:27 02.10.2022
1576 Clouds 21 1016 86 10000 2.06 180 05:19 02.10.2022
1577 Rain 22 1016 75 10000 3.6 180 00:57 02.10.2022
1578 Clouds 22 1016 75 10000 3.6 180 00:37 02.10.2022
1579 Clouds 23 1016 73 10000 3.6 160 23:28 01.10.2022
1580 Clouds 23 1015 71 10000 5.14 170 21:39 01.10.2022
1581 Clouds 22 1016 73 10000 5.14 160 18:54 01.10.2022
1582 Clouds 23 1017 67 10000 3.09 110 17:28 01.10.2022
1583 Clouds 21 1018 75 10000 2.57 70 14:50 01.10.2022
1584 Clouds 20 1018 80 10000 2.57 70 13:52 01.10.2022
1585 Clouds 20 1017 85 10000 2.57 50 12:34 01.10.2022
1586 Rain 20 1017 81 10000 1.54 180 11:22 01.10.2022
1587 Rain 20 1016 85 10000 2.57 140 10:51 01.10.2022
1588 Clouds 20 1016 85 10000 2.57 140 10:29 01.10.2022
1589 Clouds 20 1017 79 10000 5.14 200 09:21 01.10.2022
1590 Clouds 20 1017 79 10000 5.66 190 08:26 01.10.2022
1591 Clouds 20 1021 79 10000 3.6 90 03:47 01.10.2022
1592 Clouds 20 1021 79 10000 3.6 90 03:18 01.10.2022
1593 Clouds 21 1020 78 10000 4.12 100 23:21 30.09.2022
1594 Clouds 21 1020 78 10000 5.66 100 22:18 30.09.2022
1595 Clouds 21 1020 78 10000 5.14 110 20:57 30.09.2022
1596 Clouds 21 1020 77 10000 5.14 110 20:20 30.09.2022
1597 Clouds 21 1021 78 8000 6.17 120 18:32 30.09.2022
1598 Clouds 20 1022 82 6000 7.72 110 16:55 30.09.2022
1599 Clouds 20 1022 84 8000 4.12 90 14:49 30.09.2022
1600 Clouds 19 1021 90 7000 3.09 70 12:51 30.09.2022
1601 Mist 19 1021 90 9000 2.06 60 11:56 30.09.2022
1602 Clouds 18 1020 94 6000 2.06 110 09:25 30.09.2022
1603 Clouds 18 1020 94 6000 2.06 150 08:19 30.09.2022
1604 Mist 18 1021 98 5000 5.66 170 04:21 30.09.2022
1605 Mist 18 1021 98 4000 6.17 170 02:21 30.09.2022
1606 Mist 18 1020 98 2000 9.26 180 22:23 29.09.2022
1607 Mist 19 1019 92 2500 7.2 190 21:25 29.09.2022
1608 Mist 19 1019 92 2500 5.66 180 19:58 29.09.2022
1609 Clouds 19 1019 92 6000 4.63 190 18:30 29.09.2022
1610 Clouds 19 1019 92 6000 4.63 190 18:30 29.09.2022
1611 Mist 19 1020 94 4000 6.69 160 16:29 29.09.2022
1612 Mist 20 1020 88 4000 6.17 170 15:37 29.09.2022
1613 Mist 19 1020 92 4000 7.72 180 14:59 29.09.2022
1614 Mist 19 1020 97 4000 7.72 170 12:54 29.09.2022
1615 Clouds 21 1017 88 8000 7.2 160 08:51 29.09.2022
1616 Rain 21 1019 88 7000 7.72 160 05:35 29.09.2022
1617 Mist 21 1018 94 5000 6.69 160 02:41 29.09.2022
1618 Rain 21 1016 92 5000 2.57 290 23:29 28.09.2022
1619 Rain 21 1016 94 6000 2.57 280 22:24 28.09.2022
1620 Clouds 21 1015 92 6000 3.09 270 21:28 28.09.2022
1621 Clouds 21 1015 92 6000 3.09 270 19:58 28.09.2022
1622 Mist 22 1017 88 6000 2.57 310 17:19 28.09.2022
1623 Clouds 21 1018 92 8000 2.57 280 14:45 28.09.2022
1624 Clouds 21 1018 92 8000 2.57 280 14:45 28.09.2022
1625 Clouds 21 1017 94 7000 2.06 340 12:40 28.09.2022
1626 Clouds 21 1015 92 7000 2.57 270 10:24 28.09.2022
1627 Clouds 22 1014 86 10000 3.6 290 08:25 28.09.2022
1628 Rain 23 1015 83 10000 4.12 270 06:42 28.09.2022
1629 Clouds 23 1015 78 10000 3.09 260 01:51 28.09.2022
1630 Rain 23 1015 78 10000 3.09 260 01:27 28.09.2022
1631 Rain 24 1013 74 10000 5.66 130 22:50 27.09.2022
1632 Rain 24 1013 69 10000 6.17 160 21:24 27.09.2022
1633 Clouds 25 1013 71 10000 7.2 160 20:37 27.09.2022
1634 Clouds 26 1013 64 10000 6.17 160 19:47 27.09.2022
1635 Clouds 26 1014 73 10000 5.66 160 18:25 27.09.2022
1636 Clouds 25 1015 69 10000 5.14 90 17:42 27.09.2022
1637 Clouds 24 1016 74 10000 7.72 180 15:27 27.09.2022
1638 Clouds 24 1015 78 10000 8.23 180 14:41 27.09.2022
1639 Clouds 22 1013 89 10000 4.63 330 12:40 27.09.2022
1640 Clouds 22 1013 89 10000 4.63 330 12:40 27.09.2022
1641 Mist 21 1012 94 5000 4.12 320 10:53 27.09.2022
1642 Mist 20 1015 98 4000 4.63 360 08:46 27.09.2022
1643 Mist 21 1017 94 4000 4.12 340 06:27 27.09.2022
1644 Mist 22 1018 88 9000 4.63 320 01:56 27.09.2022
1645 Mist 22 1018 88 9000 4.63 320 01:27 27.09.2022
1646 Clouds 22 1017 85 9000 2.57 140 23:25 26.09.2022
1647 Clouds 22 1016 87 9000 4.12 120 22:24 26.09.2022
1648 Mist 23 1016 78 9000 6.69 170 20:40 26.09.2022
1649 Clouds 23 1016 80 10000 7.72 180 19:30 26.09.2022
1650 Clouds 26 1017 62 10000 6.69 170 18:31 26.09.2022
1651 Clouds 23 1018 71 10000 5.14 150 15:55 26.09.2022
1652 Clouds 23 1018 72 10000 4.63 240 14:24 26.09.2022
1653 Clouds 20 1016 85 10000 2.57 30 11:29 26.09.2022
1654 Clouds 20 1015 85 10000 3.6 40 10:38 26.09.2022
1655 Clouds 20 1015 85 10000 3.6 40 10:19 26.09.2022
1656 Clouds 20 1015 83 10000 3.09 40 09:53 26.09.2022
1657 Clouds 20 1015 85 10000 3.09 40 09:23 26.09.2022
1658 Clouds 20 1017 83 10000 3.09 150 07:30 26.09.2022
1659 Clouds 22 1018 70 10000 6.17 80 02:48 26.09.2022
1660 Clouds 22 1017 75 10000 4.63 140 23:46 25.09.2022
1661 Clouds 22 1017 71 10000 6.69 150 21:54 25.09.2022
1662 Clouds 22 1017 70 10000 6.69 150 21:34 25.09.2022
1663 Clouds 23 1017 67 10000 6.69 140 20:47 25.09.2022
1664 Clouds 23 1018 64 10000 7.2 150 19:43 25.09.2022
1665 Clouds 23 1018 67 10000 6.69 140 18:40 25.09.2022
1666 Clouds 25 1019 61 10000 6.69 140 18:20 25.09.2022
1667 Clouds 24 1021 61 10000 5.14 160 16:35 25.09.2022
1668 Clouds 22 1021 66 10000 4.63 60 15:44 25.09.2022
1669 Clouds 21 1021 71 10000 4.63 70 14:22 25.09.2022
1670 Clouds 20 1020 75 10000 1.54 60 12:51 25.09.2022
1671 Clouds 19 1019 77 10000 2.57 50 10:29 25.09.2022
1672 Clouds 20 1019 73 10000 3.09 50 08:24 25.09.2022
1673 Clouds 20 1020 71 10000 1.54 170 05:38 25.09.2022
1674 Clear 20 1020 67 10000 4.63 200 01:32 25.09.2022
1675 Clear 21 1019 59 10000 7.72 190 22:35 24.09.2022
1676 Clouds 22 1018 56 10000 6.17 180 20:55 24.09.2022
1677 Clouds 22 1019 57 10000 8.23 180 19:22 24.09.2022
1678 Clouds 22 1020 56 10000 3.6 0 17:19 24.09.2022
1679 Clouds 22 1021 54 10000 3.6 100 16:24 24.09.2022
1680 Clouds 21 1021 60 10000 2.57 30 15:20 24.09.2022
1681 Clouds 20 1020 64 10000 3.09 330 13:25 24.09.2022
1682 Clouds 19 1020 75 10000 3.09 310 12:49 24.09.2022
1683 Clouds 18 1018 75 10000 2.57 310 10:54 24.09.2022
1684 Clouds 19 1018 68 10000 2.06 10 09:40 24.09.2022
1685 Clouds 19 1018 68 10000 2.57 330 08:43 24.09.2022
1686 Clouds 19 1018 68 10000 2.57 250 07:24 24.09.2022
1687 Clouds 20 1019 66 10000 4.12 330 04:40 24.09.2022
1688 Clouds 20 1018 65 10000 4.12 250 02:19 24.09.2022
1689 Clouds 19 1015 70 10000 7.2 230 22:29 23.09.2022
1690 Clouds 20 1014 68 10000 7.2 220 21:28 23.09.2022
1691 Clouds 20 1013 66 10000 8.75 230 20:56 23.09.2022
1692 Clouds 20 1013 66 10000 8.75 230 20:20 23.09.2022
1693 Clouds 22 1014 64 10000 7.2 220 18:27 23.09.2022
1694 Clouds 23 1012 79 10000 5.14 320 13:45 23.09.2022
1695 Clouds 22 1008 88 10000 2.57 330 10:45 23.09.2022
1696 Clouds 22 1008 88 10000 3.09 320 09:29 23.09.2022
1697 Clouds 22 1008 88 10000 2.06 30 05:20 23.09.2022
1698 Clouds 22 1009 86 7000 2.57 100 00:31 23.09.2022
1699 Rain 22 1009 87 6000 3.6 260 23:21 22.09.2022
1700 Clouds 22 1008 87 9000 5.66 190 22:26 22.09.2022
1701 Clouds 23 1007 80 8000 9.26 180 20:46 22.09.2022
1702 Clouds 23 1007 81 7000 9.26 180 19:37 22.09.2022
1703 Rain 25 1009 74 7000 5.14 160 16:57 22.09.2022
1704 Mist 21 1008 92 7000 1.54 250 12:20 22.09.2022
1705 Clouds 21 1008 94 6000 4.12 350 10:32 22.09.2022
1706 Clouds 21 1009 94 10000 2.06 70 08:52 22.09.2022
1707 Clouds 21 1010 86 10000 3.6 270 06:45 22.09.2022
1708 Clouds 21 1011 86 10000 4.12 100 02:52 22.09.2022
1709 Clouds 22 1011 82 10000 5.14 170 23:31 21.09.2022
1710 Clouds 22 1010 81 10000 6.17 150 21:50 21.09.2022
1711 Clouds 22 1009 79 10000 5.66 150 20:18 21.09.2022
1712 Rain 24 1013 70 10000 5.14 120 17:49 21.09.2022
1713 Clouds 24 1013 69 10000 4.12 130 16:51 21.09.2022
1714 Clouds 24 1013 71 10000 2.57 300 14:37 21.09.2022
1715 Rain 22 1013 82 10000 3.09 320 12:54 21.09.2022
1716 Clear 22 1012 81 10000 2.57 330 11:29 21.09.2022
1717 Clouds 22 1012 80 10000 3.09 300 10:29 21.09.2022
1718 Clouds 21 1012 83 10000 3.6 250 09:21 21.09.2022
1719 Clouds 22 1012 83 10000 3.09 280 07:57 21.09.2022
1720 Clear 22 1011 81 10000 5.66 270 02:49 21.09.2022
1721 Clear 22 1011 81 10000 5.66 270 02:28 21.09.2022
1722 Clear 23 1009 74 10000 5.66 170 00:44 21.09.2022
1723 Clear 24 1009 74 10000 4.63 180 23:18 20.09.2022
1724 Clear 25 1008 67 10000 4.12 150 21:21 20.09.2022
1725 Clear 24 1008 65 10000 2.57 10 19:43 20.09.2022
1726 Clouds 23 1012 66 10000 3.09 100 16:41 20.09.2022
1727 Clear 22 1014 70 10000 4.63 230 14:51 20.09.2022
1728 Clear 21 1014 76 10000 2.57 220 13:52 20.09.2022
1729 Clouds 18 1011 81 10000 2.06 50 10:41 20.09.2022
1730 Clear 19 1011 81 10000 3.09 110 08:29 20.09.2022
1731 Clear 19 1013 82 10000 3.09 360 06:22 20.09.2022
1732 Clear 20 1013 77 10000 5.14 100 04:29 20.09.2022
1733 Clear 22 1013 72 10000 5.14 150 23:49 19.09.2022
1734 Clear 22 1013 70 10000 6.17 160 22:28 19.09.2022
1735 Clear 23 1013 65 10000 6.17 150 20:59 19.09.2022
1736 Clear 23 1013 66 10000 6.17 150 20:39 19.09.2022
1737 Clear 23 1015 62 10000 6.69 160 18:41 19.09.2022
1738 Clouds 22 1017 65 10000 3.09 80 15:56 19.09.2022
1739 Clouds 19 1019 80 10000 2.06 330 13:44 19.09.2022
1740 Clouds 17 1018 88 10000 2.06 320 11:33 19.09.2022
1741 Clear 17 1017 84 10000 1.54 80 09:33 19.09.2022
1742 Clear 18 1018 82 10000 2.57 330 08:20 19.09.2022
1743 Clouds 20 1019 75 10000 4.12 130 02:46 19.09.2022
1744 Clear 20 1018 67 10000 5.14 160 23:26 18.09.2022
1745 Clear 21 1017 61 10000 6.17 160 21:53 18.09.2022
1746 Clouds 22 1018 57 10000 6.69 140 20:41 18.09.2022
1747 Clouds 23 1019 51 10000 4.63 160 19:26 18.09.2022
1748 Clouds 21 1020 63 10000 3.09 350 17:49 18.09.2022
1749 Clouds 20 1021 72 10000 3.6 350 16:43 18.09.2022
1750 Mist 18 1022 85 7000 2.57 320 14:39 18.09.2022
1751 Mist 16 1022 92 5000 2.06 320 12:58 18.09.2022
1752 Mist 17 1020 88 4500 1.54 300 11:53 18.09.2022
1753 Clouds 18 1021 82 10000 2.57 320 06:57 18.09.2022
1754 Clouds 19 1021 74 10000 3.09 200 01:41 18.09.2022
1755 Clouds 19 1021 74 10000 3.09 200 01:19 18.09.2022
1756 Clouds 21 1020 63 10000 5.14 160 22:55 17.09.2022
1757 Clouds 22 1020 53 10000 5.66 200 20:51 17.09.2022
1758 Clouds 22 1021 60 10000 4.63 190 19:36 17.09.2022
1759 Clouds 21 1022 71 10000 4.12 240 17:36 17.09.2022
1760 Clouds 19 1023 84 10000 4.63 330 14:22 17.09.2022
1761 Clouds 17 1021 92 10000 2.57 330 12:46 17.09.2022
1762 Mist 17 1021 94 5000 2.57 290 10:48 17.09.2022
1763 Clouds 17 1021 94 6000 2.57 330 06:35 17.09.2022
1764 Mist 17 1021 94 8000 3.09 320 05:49 17.09.2022
1765 Mist 18 1021 91 9000 3.09 160 23:39 16.09.2022
1766 Mist 18 1020 94 4500 4.63 130 21:57 16.09.2022
1767 Mist 18 1019 94 4000 6.69 150 20:44 16.09.2022
1768 Mist 18 1021 92 5000 5.66 160 18:43 16.09.2022
1769 Mist 17 1021 96 5000 5.14 190 16:22 16.09.2022
1770 Mist 18 1021 97 4000 4.12 150 14:51 16.09.2022
1771 Clouds 19 1019 91 7000 4.63 130 12:52 16.09.2022
1772 Mist 19 1017 94 4000 3.09 140 09:55 16.09.2022
1773 Clouds 19 1018 94 10000 2.57 210 07:23 16.09.2022
1774 Clouds 19 1018 94 10000 2.57 200 06:48 16.09.2022
1775 Mist 19 1019 92 8000 3.09 200 05:55 16.09.2022
1776 Clouds 20 1019 94 6000 3.6 200 01:45 16.09.2022
1777 Mist 20 1017 94 4000 4.12 140 21:44 15.09.2022
1778 Mist 20 1017 92 5000 4.63 160 20:37 15.09.2022
1779 Mist 20 1017 93 5000 5.66 160 19:24 15.09.2022
1780 Haze 22 1018 86 6000 3.09 160 17:40 15.09.2022
1781 Haze 22 1018 86 6000 3.09 160 17:22 15.09.2022
1782 Clouds 21 1018 91 6000 1.54 350 15:38 15.09.2022
1783 Clouds 21 1018 94 6000 2.57 290 12:50 15.09.2022
1784 Clouds 21 1017 90 6000 2.06 300 11:48 15.09.2022
1785 Clouds 21 1017 90 10000 3.09 180 09:44 15.09.2022
1786 Clouds 22 1017 80 10000 2.57 250 06:45 15.09.2022
1787 Clouds 21 1018 85 10000 5.66 190 03:46 15.09.2022
1788 Clouds 22 1015 89 10000 2.06 150 22:57 14.09.2022
1789 Clouds 23 1014 85 10000 3.6 10 20:31 14.09.2022
1790 Clouds 23 1015 83 10000 3.09 40 19:32 14.09.2022
1791 Clouds 23 1017 82 10000 6.17 240 17:37 14.09.2022
1792 Clouds 23 1017 79 10000 6.69 200 16:36 14.09.2022
1793 Clouds 23 1015 84 10000 5.14 250 14:51 14.09.2022
1794 Clear 23 1013 83 10000 4.12 250 12:40 14.09.2022
1795 Clear 22 1011 85 10000 3.6 110 09:52 14.09.2022
1796 Clear 22 1011 87 10000 2.06 250 08:28 14.09.2022
1797 Clouds 23 1011 85 10000 4.12 120 06:50 14.09.2022
1798 Clouds 23 1011 85 10000 4.12 120 06:29 14.09.2022
1799 Clouds 24 1011 80 10000 3.09 250 02:43 14.09.2022
1800 Clouds 24 1010 82 10000 3.09 170 01:36 14.09.2022
1801 Clouds 24 1009 80 10000 4.12 160 00:53 14.09.2022
1802 Clouds 24 1009 78 10000 3.09 120 23:55 13.09.2022
1803 Clouds 24 1009 78 10000 3.09 120 23:36 13.09.2022
1804 Clouds 24 1009 78 10000 3.09 120 23:18 13.09.2022
1805 Clouds 26 1008 70 10000 2.57 300 22:28 13.09.2022
1806 Clouds 26 1008 66 10000 4.12 300 21:38 13.09.2022
1807 Clear 23 1012 74 10000 4.63 110 18:56 13.09.2022
1808 Clouds 26 1015 64 10000 7.72 190 16:42 13.09.2022
1809 Clouds 22 1014 78 10000 3.6 240 15:31 13.09.2022
1810 Clouds 21 1013 87 10000 1.54 30 13:40 13.09.2022
1811 Clouds 19 1013 94 10000 1.54 300 10:30 13.09.2022
1812 Clouds 19 1013 94 9000 1.54 150 08:18 13.09.2022
1813 Rain 20 1018 83 6000 3.6 80 02:27 13.09.2022
1814 Clouds 21 1016 80 10000 5.14 150 23:22 12.09.2022
1815 Clouds 21 1014 80 10000 5.14 140 22:44 12.09.2022
1816 Clouds 22 1015 78 10000 5.14 130 21:35 12.09.2022
1817 Clouds 22 1015 76 10000 5.14 150 20:22 12.09.2022
1818 Clouds 21 1017 77 10000 4.63 130 18:40 12.09.2022
1819 Clouds 21 1019 74 10000 4.12 130 15:53 12.09.2022
1820 Clouds 20 1018 78 10000 2.06 60 12:35 12.09.2022
1821 Clouds 19 1018 84 10000 1.54 10 10:34 12.09.2022
1822 Clouds 19 1019 84 10000 1.54 350 08:58 12.09.2022
1823 Clouds 20 1020 81 10000 2.57 10 04:39 12.09.2022
1824 Clouds 20 1021 74 10000 1.54 190 02:25 12.09.2022
1825 Mist 19 1019 76 9000 4.63 180 22:51 11.09.2022
1826 Mist 19 1018 84 8000 5.14 170 21:40 11.09.2022
1827 Clouds 20 1018 76 7000 4.63 190 20:44 11.09.2022
1828 Clouds 21 1019 74 10000 5.66 200 19:45 11.09.2022
1829 Clouds 21 1019 74 10000 5.66 200 19:21 11.09.2022
1830 Clouds 21 1020 73 10000 4.12 180 17:57 11.09.2022
1831 Clouds 22 1021 64 10000 5.14 190 16:23 11.09.2022
1832 Clouds 21 1021 66 10000 5.14 260 14:18 11.09.2022
1833 Clouds 19 1020 80 8000 4.12 220 12:32 11.09.2022
1834 Clouds 19 1018 92 6000 5.14 200 08:27 11.09.2022
1835 Clouds 20 1018 89 6000 7.2 190 06:44 11.09.2022
1836 Clouds 23 1015 78 9000 10.8 230 00:49 11.09.2022
1837 Mist 25 1013 74 10000 10.29 220 22:54 10.09.2022
1838 Clear 31 1011 48 10000 9.26 210 20:55 10.09.2022
1839 Clear 33 1011 33 10000 11.83 230 19:46 10.09.2022
1840 Clear 33 1011 34 10000 11.83 230 19:28 10.09.2022
1841 Clear 34 1012 33 10000 7.2 290 18:22 10.09.2022
1842 Clear 29 1013 52 10000 4.63 10 15:49 10.09.2022
1843 Clear 26 1012 61 10000 4.63 10 14:40 10.09.2022
1844 Clear 23 1012 74 10000 3.6 360 12:52 10.09.2022
1845 Clear 23 1010 88 10000 4.63 30 10:46 10.09.2022
1846 Clear 23 1012 75 10000 3.6 330 09:28 10.09.2022
1847 Clear 23 1011 83 10000 3.09 340 08:28 10.09.2022
1848 Clear 27 1011 50 10000 2.06 290 06:41 10.09.2022
1849 Clear 28 1011 54 10000 1.54 200 00:19 10.09.2022
1850 Clear 26 1011 64 10000 1.54 160 23:32 09.09.2022
1851 Clear 30 1010 48 10000 3.6 80 21:50 09.09.2022
1852 Clear 30 1011 51 10000 4.12 130 20:41 09.09.2022
1853 Clear 33 1011 34 10000 4.12 120 19:24 09.09.2022
1854 Clear 32 1012 36 10000 4.12 50 18:46 09.09.2022
1855 Clear 31 1015 43 10000 3.6 360 16:23 09.09.2022
1856 Clear 23 1015 83 10000 3.6 340 13:49 09.09.2022
1857 Clear 22 1014 86 10000 3.6 330 12:30 09.09.2022
1858 Clear 21 1012 85 10000 3.6 340 09:53 09.09.2022
1859 Clear 24 1013 80 10000 3.6 320 04:57 09.09.2022
1860 Clear 24 1013 75 10000 1.03 230 03:20 09.09.2022
1861 Clear 28 1011 52 10000 3.6 170 21:52 08.09.2022
1862 Clear 29 1011 48 10000 2.57 60 20:51 08.09.2022
1863 Clear 29 1011 49 10000 2.57 60 20:31 08.09.2022
1864 Clear 29 1012 44 10000 3.09 30 19:56 08.09.2022
1865 Clear 30 1014 42 10000 2.57 20 18:22 08.09.2022
1866 Clear 27 1016 46 10000 3.6 360 16:19 08.09.2022
1867 Clear 23 1015 63 10000 3.6 360 14:40 08.09.2022
1868 Clear 21 1015 70 10000 3.6 350 13:27 08.09.2022
1869 Clear 19 1014 76 10000 2.57 340 11:57 08.09.2022
1870 Clear 19 1014 74 10000 2.57 320 10:52 08.09.2022
1871 Clear 19 1014 74 10000 3.6 340 08:21 08.09.2022
1872 Clear 20 1016 75 10000 1.54 130 06:42 08.09.2022
1873 Clear 21 1018 73 10000 3.09 60 02:37 08.09.2022
1874 Clear 21 1018 73 10000 3.09 60 02:18 08.09.2022
1875 Clear 22 1018 63 10000 5.66 100 00:56 08.09.2022
1876 Clear 23 1017 63 10000 5.66 110 22:54 07.09.2022
1877 Clouds 23 1018 61 10000 5.14 170 21:42 07.09.2022
1878 Clouds 24 1018 54 10000 5.14 160 20:49 07.09.2022
1879 Clouds 24 1019 50 10000 4.12 150 19:42 07.09.2022
1880 Clouds 24 1020 48 10000 5.14 150 18:27 07.09.2022
1881 Clear 19 1023 69 10000 3.09 360 14:45 07.09.2022
1882 Clouds 17 1022 77 10000 2.06 10 10:49 07.09.2022
1883 Clear 18 1022 75 10000 3.6 110 09:39 07.09.2022
1884 Clear 18 1022 79 10000 4.12 130 07:23 07.09.2022
1885 Rain 20 1024 73 10000 6.69 70 03:33 07.09.2022
1886 Clouds 22 1023 65 10000 6.69 100 23:48 06.09.2022
1887 Clouds 22 1023 63 10000 8.75 120 21:43 06.09.2022
1888 Clouds 22 1023 63 10000 8.75 120 21:21 06.09.2022
1889 Clouds 24 1025 49 10000 5.14 110 18:49 06.09.2022
1890 Clouds 24 1025 49 10000 5.14 110 18:22 06.09.2022
1891 Clouds 23 1027 64 10000 3.97 112 17:22 06.09.2022
1892 Clouds 22 1027 58 10000 4.12 70 16:37 06.09.2022
1893 Clouds 21 1027 63 10000 5.66 70 15:22 06.09.2022
1894 Clouds 20 1027 65 10000 4.63 130 13:45 06.09.2022
1895 Clouds 20 1027 65 10000 4.63 130 13:24 06.09.2022
1896 Clouds 20 1026 65 10000 5.14 100 11:59 06.09.2022
1897 Clouds 20 1025 68 10000 5.14 100 10:45 06.09.2022
1898 Clouds 20 1025 68 10000 2.57 80 08:50 06.09.2022
1899 Clouds 20 1025 68 10000 5.14 100 07:49 06.09.2022
1900 Clouds 20 1027 71 10000 5.14 120 03:31 06.09.2022
1901 Clouds 21 1024 70 10000 6.69 130 23:28 05.09.2022
1902 Clouds 21 1023 70 10000 5.66 120 22:29 05.09.2022
1903 Clouds 21 1023 64 10000 5.66 150 20:43 05.09.2022
1904 Clouds 22 1023 62 10000 4.63 130 19:50 05.09.2022
1905 Clouds 21 1024 73 10000 6.17 60 18:46 05.09.2022
1906 Clouds 21 1024 73 10000 6.17 60 18:22 05.09.2022
1907 Clouds 20 1026 78 8000 2.57 350 16:53 05.09.2022
1908 Clouds 19 1026 85 9000 3.09 340 15:50 05.09.2022
1909 Clouds 19 1026 82 10000 2.57 210 13:26 05.09.2022
1910 Clouds 18 1025 86 10000 3.6 190 12:28 05.09.2022
1911 Clouds 18 1024 84 10000 0.51 10 10:24 05.09.2022
1912 Clouds 18 1025 90 9000 2.57 300 06:46 05.09.2022
1913 Clouds 18 1025 86 6000 2.57 30 02:49 05.09.2022
1914 Clouds 18 1024 85 10000 3.09 330 23:28 04.09.2022
1915 Clouds 18 1024 88 10000 4.12 20 22:28 04.09.2022
1916 Mist 18 1023 81 8000 3.09 70 21:34 04.09.2022
1917 Clouds 18 1023 88 6000 2.06 350 19:39 04.09.2022
1918 Mist 17 1024 86 5000 4.63 190 18:20 04.09.2022
1919 Clouds 19 1024 76 7000 2.57 310 17:19 04.09.2022
1920 Clouds 18 1024 81 6000 3.09 280 14:56 04.09.2022
1921 Clouds 18 1024 82 6000 3.09 280 14:18 04.09.2022
1922 Clouds 17 1023 84 7000 5.66 230 12:21 04.09.2022
1923 Mist 18 1021 92 4000 6.17 210 10:51 04.09.2022
1924 Mist 19 1020 92 4000 7.2 190 08:21 04.09.2022
1925 Clouds 20 1020 92 6000 5.66 190 06:21 04.09.2022
1926 Clouds 22 1018 81 10000 4.12 200 01:31 04.09.2022
1927 Clouds 24 1016 62 10000 7.2 220 22:26 03.09.2022
1928 Clouds 24 1016 64 10000 8.23 220 21:24 03.09.2022
1929 Clouds 25 1016 57 10000 8.75 220 20:42 03.09.2022
1930 Clouds 28 1017 51 10000 7.2 190 17:36 03.09.2022
1931 Clear 27 1017 52 10000 5.14 260 16:34 03.09.2022
1932 Clear 23 1016 71 10000 2.57 260 14:47 03.09.2022
1933 Clear 23 1016 70 10000 2.57 260 14:26 03.09.2022
1934 Clear 21 1016 80 10000 2.57 360 13:39 03.09.2022
1935 Clear 19 1015 85 10000 2.57 330 11:24 03.09.2022
1936 Clear 19 1015 79 10000 3.09 340 08:55 03.09.2022
1937 Clear 19 1016 81 10000 2.57 340 06:59 03.09.2022
1938 Clear 21 1016 79 10000 3.09 330 04:43 03.09.2022
1939 Clear 24 1014 57 10000 5.14 200 00:48 03.09.2022
1940 Clear 24 1014 54 10000 5.66 190 23:28 02.09.2022
1941 Clear 27 1014 41 10000 4.12 80 21:46 02.09.2022
1942 Clear 28 1014 38 10000 3.6 100 20:40 02.09.2022
1943 Clear 29 1015 36 10000 3.09 60 19:47 02.09.2022
1944 Clear 28 1016 36 10000 5.14 40 18:43 02.09.2022
1945 Clear 29 1016 36 10000 5.14 40 18:24 02.09.2022
1946 Clear 26 1018 43 10000 5.14 50 16:56 02.09.2022
1947 Clear 26 1019 44 10000 5.14 50 16:22 02.09.2022
1948 Clear 18 1018 80 10000 3.6 10 12:58 02.09.2022
1949 Clear 17 1017 79 10000 1.03 320 10:37 02.09.2022
1950 Clear 17 1016 82 10000 2.57 50 09:42 02.09.2022
1951 Clear 18 1016 77 10000 3.09 40 08:43 02.09.2022
1952 Clear 19 1017 77 10000 3.09 90 06:44 02.09.2022
1953 Clear 19 1018 74 10000 3.6 100 05:32 02.09.2022
1954 Clear 22 1017 70 10000 4.12 120 23:19 01.09.2022
1955 Clear 23 1017 60 10000 6.69 150 21:47 01.09.2022
1956 Clear 24 1018 56 10000 6.69 150 21:27 01.09.2022
1957 Clear 23 1018 52 10000 5.66 150 20:52 01.09.2022
1958 Clear 25 1019 44 10000 5.66 160 19:25 01.09.2022
1959 Clear 23 1020 52 10000 3.09 130 18:18 01.09.2022
1960 Clear 22 1022 50 10000 3.6 60 16:51 01.09.2022
1961 Clear 19 1023 71 10000 3.09 360 14:52 01.09.2022
1962 Clear 17 1023 74 10000 2.57 350 13:23 01.09.2022
1963 Clear 17 1022 77 10000 2.06 10 12:50 01.09.2022
1964 Clear 15 1022 80 10000 2.57 330 11:51 01.09.2022
1965 Clear 16 1022 77 10000 2.57 330 11:19 01.09.2022
1966 Clear 16 1021 77 10000 2.57 360 09:31 01.09.2022
1967 Clear 17 1023 73 10000 2.57 40 06:34 01.09.2022
1968 Clouds 18 1023 71 10000 5.66 120 02:34 01.09.2022
1969 Clouds 19 1023 65 10000 6.69 100 01:30 01.09.2022
1970 Clouds 19 1023 65 10000 6.69 100 01:30 01.09.2022
1971 Clouds 19 1023 65 10000 6.69 100 01:30 01.09.2022
1972 Clouds 19 1023 65 10000 6.69 100 01:30 01.09.2022
1973 Clouds 20 1022 69 10000 7.2 140 22:43 31.08.2022
1974 Clouds 21 1023 60 10000 8.23 150 20:43 31.08.2022
1975 Clouds 21 1024 59 10000 6.17 160 18:45 31.08.2022
1976 Clouds 20 1026 62 10000 5.14 40 16:36 31.08.2022
1977 Clouds 19 1027 62 10000 4.63 60 15:21 31.08.2022
1978 Clouds 16 1026 75 10000 2.57 80 12:58 31.08.2022
1979 Clouds 16 1026 77 10000 2.06 50 11:54 31.08.2022
1980 Clouds 17 1025 75 10000 2.06 50 09:35 31.08.2022
1981 Clouds 17 1026 73 10000 4.63 60 07:39 31.08.2022
1982 Clouds 18 1027 74 10000 3.09 100 02:47 31.08.2022
1983 Clouds 19 1025 67 10000 5.66 140 22:21 30.08.2022
1984 Clouds 19 1025 60 10000 6.17 140 21:28 30.08.2022
1985 Clouds 20 1025 57 10000 5.66 160 20:26 30.08.2022
1986 Clouds 18 1028 80 10000 4.12 130 16:48 30.08.2022
1987 Mist 18 1027 82 10000 3.09 230 13:51 30.08.2022
1988 Clouds 16 1026 92 9000 3.6 310 11:58 30.08.2022
1989 Clouds 16 1026 92 9000 3.6 310 11:20 30.08.2022
1990 Clouds 16 1022 84 7000 2.57 200 09:33 30.08.2022
1991 Clouds 17 1027 77 10000 2.57 290 06:48 30.08.2022
1992 Clouds 16 1026 92 6000 5.66 200 00:33 30.08.2022
1993 Haze 18 1025 72 8000 5.14 210 22:38 29.08.2022
1994 Haze 19 1025 65 9000 6.69 200 21:53 29.08.2022
1995 Clouds 19 1025 67 8000 6.69 210 20:47 29.08.2022
1996 Clouds 19 1025 66 8000 8.75 190 18:59 29.08.2022
1997 Clouds 20 1025 69 8000 7.72 260 17:33 29.08.2022
1998 Mist 18 1025 90 4000 6.17 220 16:59 29.08.2022
1999 Mist 18 1025 90 4000 8.75 190 15:20 29.08.2022
2000 Mist 19 1023 87 4000 8.75 200 13:55 29.08.2022
2001 Drizzle 20 1022 87 6000 6.69 260 12:24 29.08.2022
2002 Drizzle 20 1021 88 6000 6.69 190 10:48 29.08.2022
2003 Drizzle 21 1020 83 10000 4.63 220 09:19 29.08.2022
2004 Clouds 22 1021 73 10000 7.72 200 07:20 29.08.2022
2005 Clouds 24 1020 69 10000 6.69 230 02:33 29.08.2022
2006 Clouds 25 1016 63 10000 10.8 200 23:36 28.08.2022
2007 Clouds 28 1014 52 10000 5.66 160 21:48 28.08.2022
2008 Clouds 29 1015 48 10000 5.66 160 21:29 28.08.2022
2009 Clouds 30 1014 47 10000 4.63 160 20:23 28.08.2022
2010 Clear 30 1014 53 10000 3.09 30 18:36 28.08.2022
2011 Clear 31 1015 47 10000 3.09 30 18:18 28.08.2022
2012 Clear 29 1016 54 10000 2.57 10 16:49 28.08.2022
2013 Clear 26 1016 63 10000 4.12 10 15:34 28.08.2022
2014 Clear 23 1015 82 10000 2.57 330 13:34 28.08.2022
2015 Clear 21 1015 88 10000 2.57 360 12:19 28.08.2022
2016 Clear 21 1014 88 10000 3.09 360 10:22 28.08.2022
2017 Clear 22 1014 88 10000 3.6 330 09:24 28.08.2022
2018 Clear 22 1014 88 10000 3.09 330 08:28 28.08.2022
2019 Clear 23 1015 83 10000 2.57 320 07:27 28.08.2022
2020 Clouds 25 1014 69 10000 3.09 110 00:45 28.08.2022
2021 Clouds 26 1014 63 10000 5.14 190 23:48 27.08.2022
2022 Clouds 26 1014 61 10000 5.14 190 22:27 27.08.2022
2023 Clouds 26 1014 61 10000 5.14 190 22:27 27.08.2022
2024 Clouds 26 1014 65 10000 6.69 160 20:36 27.08.2022
2025 Clouds 28 1015 56 10000 5.66 160 19:29 27.08.2022
2026 Clear 27 1017 53 10000 3.09 50 16:34 27.08.2022
2027 Clear 24 1018 73 10000 2.57 70 15:31 27.08.2022
2028 Clear 23 1018 82 10000 2.06 70 13:57 27.08.2022
2029 Clear 21 1017 88 10000 1.54 40 12:22 27.08.2022
2030 Clear 21 1016 100 10000 1.54 20 10:30 27.08.2022
2031 Clear 21 1016 94 10000 1.03 170 09:39 27.08.2022
2032 Clear 22 1017 88 10000 1.03 80 06:55 27.08.2022
2033 Clear 24 1017 73 10000 3.09 320 02:24 27.08.2022
2034 Clouds 24 1017 73 10000 2.57 130 23:49 26.08.2022
2035 Clouds 25 1017 64 10000 5.14 180 21:53 26.08.2022
2036 Clouds 26 1018 60 10000 5.66 130 20:23 26.08.2022
2037 Clouds 26 1019 62 10000 5.14 150 18:32 26.08.2022
2038 Clear 25 1020 66 10000 3.09 350 16:40 26.08.2022
2039 Clear 23 1021 79 10000 2.06 340 15:26 26.08.2022
2040 Clear 21 1020 86 10000 2.57 340 13:26 26.08.2022
2041 Clear 21 1020 88 10000 3.09 330 12:35 26.08.2022
2042 Clouds 21 1019 88 10000 2.57 340 11:22 26.08.2022
2043 Clouds 21 1019 88 10000 3.6 10 09:59 26.08.2022
2044 Clear 22 1021 85 10000 1.54 90 05:26 26.08.2022
2045 Clear 23 1021 76 10000 4.12 90 01:18 26.08.2022
2046 Clouds 24 1019 70 10000 5.66 190 22:57 25.08.2022
2047 Clouds 25 1019 67 10000 5.66 170 20:59 25.08.2022
2048 Clouds 24 1020 71 10000 5.66 160 19:54 25.08.2022
2049 Clouds 25 1022 66 10000 5.66 160 18:47 25.08.2022
2050 Clouds 25 1022 64 10000 5.66 160 17:32 25.08.2022
2051 Clouds 24 1023 69 10000 6.17 160 16:49 25.08.2022
2052 Clouds 22 1023 78 10000 2.57 50 15:37 25.08.2022
2053 Clouds 21 1022 82 10000 2.57 60 14:30 25.08.2022
2054 Clouds 19 1021 88 10000 1.54 120 11:49 25.08.2022
2055 Clear 19 1020 88 10000 1.54 350 10:46 25.08.2022
2056 Clouds 20 1020 83 10000 2.06 110 08:52 25.08.2022
2057 Clouds 20 1022 88 10000 4.12 80 04:59 25.08.2022
2058 Clouds 21 1022 85 10000 7.2 110 00:26 25.08.2022
2059 Clouds 22 1021 80 10000 5.66 100 23:25 24.08.2022
2060 Clouds 22 1021 78 10000 6.17 120 22:21 24.08.2022
2061 Clouds 23 1021 67 10000 6.17 100 21:33 24.08.2022
2062 Clouds 22 1021 76 10000 7.2 110 20:24 24.08.2022
2063 Clouds 23 1023 77 10000 4.12 120 18:39 24.08.2022
2064 Mist 21 1024 85 10000 3.09 20 16:28 24.08.2022
2065 Mist 20 1025 90 10000 3.6 80 15:51 24.08.2022
2066 Drizzle 20 1023 94 7000 1.54 120 12:55 24.08.2022
2067 Clouds 19 1022 94 7000 1.03 110 11:22 24.08.2022
2068 Mist 19 1022 94 10000 1.03 350 09:20 24.08.2022
2069 Clouds 20 1022 88 10000 2.06 40 07:47 24.08.2022
2070 Clouds 21 1023 78 10000 2.57 110 02:25 24.08.2022
2071 Clouds 21 1022 79 10000 6.17 120 22:59 23.08.2022
2072 Clouds 21 1022 79 10000 6.17 120 22:29 23.08.2022
2073 Clouds 22 1022 74 10000 5.66 130 21:28 23.08.2022
2074 Clouds 23 1022 70 10000 5.66 140 19:57 23.08.2022
2075 Clouds 23 1023 67 10000 5.14 140 18:33 23.08.2022
2076 Clouds 22 1024 65 10000 6.17 150 17:47 23.08.2022
2077 Clouds 21 1025 66 10000 4.12 60 16:50 23.08.2022
2078 Clouds 21 1026 73 10000 4.12 150 15:23 23.08.2022
2079 Clouds 20 1025 77 10000 3.09 30 13:26 23.08.2022
2080 Clear 18 1023 84 10000 3.09 80 11:24 23.08.2022
2081 Clear 18 1023 86 10000 3.09 110 10:36 23.08.2022
2082 Clear 19 1022 79 10000 2.57 60 09:52 23.08.2022
2083 Clear 19 1023 77 10000 2.57 10 08:51 23.08.2022
2084 Clear 19 1023 79 10000 2.57 10 08:20 23.08.2022
2085 Clouds 19 1023 79 10000 2.06 140 07:34 23.08.2022
2086 Clouds 19 1024 79 10000 2.57 100 06:27 23.08.2022
2087 Clouds 20 1024 73 10000 5.66 100 03:24 23.08.2022
2088 Clouds 20 1024 74 10000 4.12 120 00:28 23.08.2022
2089 Clouds 20 1023 74 10000 5.14 130 23:33 22.08.2022
2090 Clouds 21 1023 70 10000 6.17 120 22:44 22.08.2022
2091 Clouds 21 1023 69 10000 6.17 130 21:25 22.08.2022
2092 Clouds 21 1023 65 10000 6.17 140 19:48 22.08.2022
2093 Clouds 21 1023 65 10000 6.17 140 19:48 22.08.2022
2094 Clouds 22 1024 61 10000 5.14 170 18:49 22.08.2022
2095 Clouds 22 1025 68 10000 2.79 118 17:18 22.08.2022
2096 Clouds 20 1026 66 10000 3.09 30 15:39 22.08.2022
2097 Clouds 19 1025 72 10000 2.06 340 13:57 22.08.2022
2098 Clouds 18 1024 78 10000 2.06 10 10:43 22.08.2022
2099 Clouds 19 1025 68 10000 2.57 70 07:59 22.08.2022
2100 Clouds 19 1026 68 10000 3.09 100 04:22 22.08.2022
2101 Clouds 19 1026 65 10000 4.12 130 00:41 22.08.2022
2102 Clouds 19 1026 65 10000 4.12 130 00:22 22.08.2022
2103 Clouds 19 1025 64 10000 5.66 150 22:22 21.08.2022
2104 Clouds 20 1025 58 10000 5.66 150 21:25 21.08.2022
2105 Clouds 20 1025 61 10000 5.14 140 20:47 21.08.2022
2106 Clouds 20 1026 65 10000 6.17 140 19:25 21.08.2022
2107 Clouds 20 1027 60 10000 3.09 330 17:24 21.08.2022
2108 Clouds 18 1028 77 10000 3.6 20 15:53 21.08.2022
2109 Clouds 18 1028 77 10000 3.6 20 15:21 21.08.2022
2110 Clouds 17 1027 82 10000 3.09 70 13:52 21.08.2022
2111 Clouds 17 1027 82 10000 3.09 70 13:28 21.08.2022
2112 Clouds 17 1026 86 10000 2.57 340 11:39 21.08.2022
2113 Clouds 17 1026 88 10000 2.57 330 09:31 21.08.2022
2114 Clouds 17 1026 84 10000 2.06 330 08:56 21.08.2022
2115 Clouds 17 1026 84 10000 2.06 330 08:38 21.08.2022
2116 Clear 17 1027 84 10000 3.09 20 07:26 21.08.2022
2117 Clouds 17 1029 82 9000 2.06 280 03:41 21.08.2022
2118 Clouds 16 1028 92 6000 3.6 320 00:24 21.08.2022
2119 Clouds 19 1028 73 9000 3.6 340 22:40 20.08.2022
2120 Clouds 19 1027 73 9000 2.57 240 21:37 20.08.2022
2121 Clouds 18 1027 80 9000 2.06 110 20:41 20.08.2022
2122 Clouds 18 1028 76 10000 5.66 200 19:40 20.08.2022
2123 Clouds 18 1028 77 10000 4.12 210 18:30 20.08.2022
2124 Clouds 18 1029 80 10000 4.12 170 17:51 20.08.2022
2125 Mist 17 1029 85 9000 4.12 160 16:52 20.08.2022
2126 Clouds 18 1024 82 10000 3.6 360 15:33 20.08.2022
2127 Clouds 17 1029 84 10000 3.09 230 13:26 20.08.2022
2128 Clouds 16 1028 90 8000 3.09 240 11:51 20.08.2022
2129 Clouds 16 1027 88 8000 2.06 240 09:43 20.08.2022
2130 Clouds 16 1028 92 8000 2.57 280 08:34 20.08.2022
2131 Clouds 17 1029 86 7000 2.57 250 05:55 20.08.2022
2132 Mist 17 1028 88 5000 4.12 250 00:59 20.08.2022
2133 Clouds 17 1028 84 7000 4.12 220 00:35 20.08.2022
2134 Mist 17 1027 82 7000 3.6 250 23:19 19.08.2022
2135 Mist 17 1027 86 4500 4.63 220 22:33 19.08.2022
2136 Mist 17 1026 84 4000 6.69 230 20:20 19.08.2022
2137 Mist 18 1026 84 4000 7.2 230 18:28 19.08.2022
2138 Mist 19 1024 86 4000 9.26 220 15:19 19.08.2022
2139 Mist 21 1021 85 7000 7.2 330 13:21 19.08.2022
2140 Clouds 23 1018 76 10000 5.66 190 10:55 19.08.2022
2141 Clouds 23 1018 76 10000 5.66 190 10:24 19.08.2022
2142 Clear 24 1015 73 10000 4.63 240 06:37 19.08.2022
2143 Clear 28 1010 46 10000 2.57 20 00:58 19.08.2022
2144 Clear 28 1010 46 10000 2.57 20 00:30 19.08.2022
2145 Clear 29 1010 42 10000 3.6 20 23:44 18.08.2022
2146 Clear 31 1008 38 10000 4.63 90 22:50 18.08.2022
2147 Clear 31 1008 38 10000 4.12 40 21:57 18.08.2022
2148 Clear 31 1008 38 10000 4.12 40 21:35 18.08.2022
2149 Clear 32 1009 37 10000 5.66 360 20:25 18.08.2022
2150 Clear 32 1009 35 10000 7.2 360 19:30 18.08.2022
2151 Clear 31 1011 37 10000 6.69 10 17:50 18.08.2022
2152 Clear 29 1012 40 10000 7.72 360 16:59 18.08.2022
2153 Clear 26 1012 61 10000 5.14 70 14:57 18.08.2022
2154 Clear 26 1012 61 10000 5.14 70 14:19 18.08.2022
2155 Clear 23 1011 66 10000 4.12 10 13:29 18.08.2022
2156 Clouds 22 1010 78 10000 2.06 320 11:51 18.08.2022
2157 Clear 21 1011 92 7000 0.51 110 09:43 18.08.2022
2158 Clear 20 1011 94 8000 1.54 50 08:42 18.08.2022
2159 Clouds 21 1012 92 9000 1.54 40 07:19 18.08.2022
2160 Clear 22 1014 92 10000 2.57 60 04:38 18.08.2022
2161 Clear 23 1012 80 10000 5.14 170 23:37 17.08.2022
2162 Clear 25 1013 66 10000 6.17 180 21:53 17.08.2022
2163 Clear 26 1013 64 10000 6.17 170 20:20 17.08.2022
2164 Clear 26 1013 66 10000 7.72 170 19:31 17.08.2022
2165 Clear 27 1014 58 10000 3.09 150 17:39 17.08.2022
2166 Clear 27 1015 59 10000 3.6 160 16:47 17.08.2022
2167 Clear 24 1015 68 10000 2.57 130 15:30 17.08.2022
2168 Clear 22 1015 79 10000 2.57 260 13:52 17.08.2022
2169 Clear 22 1013 83 10000 3.6 270 11:42 17.08.2022
2170 Clear 23 1013 78 10000 3.09 270 10:22 17.08.2022
2171 Clear 24 1012 69 10000 3.09 270 08:24 17.08.2022
2172 Clear 25 1011 58 10000 2.57 310 03:52 17.08.2022
2173 Clear 28 1010 42 10000 1.54 330 00:38 17.08.2022
2174 Clear 30 1010 38 10000 2.57 350 22:50 16.08.2022
2175 Clear 30 1011 41 10000 5.14 20 20:59 16.08.2022
2176 Clear 31 1011 38 10000 4.63 30 19:54 16.08.2022
2177 Clear 31 1012 39 10000 2.57 340 19:19 16.08.2022
2178 Clear 30 1013 40 10000 4.63 10 17:54 16.08.2022
2179 Clear 30 1013 40 10000 4.63 10 17:54 16.08.2022
2180 Clear 28 1015 44 10000 5.66 20 16:18 16.08.2022
2181 Clear 27 1016 49 10000 6.17 30 15:39 16.08.2022
2182 Clear 25 1015 48 10000 5.66 340 14:43 16.08.2022
2183 Clear 25 1015 48 10000 5.66 340 14:25 16.08.2022
2184 Clear 24 1013 46 10000 4.63 290 11:39 16.08.2022
2185 Clear 24 1012 53 10000 4.63 300 09:58 16.08.2022
2186 Clear 21 1013 78 10000 4.12 360 08:49 16.08.2022
2187 Clear 21 1013 78 10000 4.12 360 08:19 16.08.2022
2188 Clear 21 1013 68 10000 2.06 310 05:28 16.08.2022
2189 Clear 24 1012 62 10000 3.09 120 23:18 15.08.2022
2190 Clear 26 1012 46 10000 4.12 50 22:20 15.08.2022
2191 Clear 27 1012 37 10000 3.6 60 21:43 15.08.2022
2192 Clear 29 1014 31 10000 4.63 80 20:31 15.08.2022
2193 Clear 28 1015 35 10000 4.63 100 18:57 15.08.2022
2194 Clear 27 1017 36 10000 5.14 110 17:59 15.08.2022
2195 Clear 25 1019 47 10000 5.14 20 16:24 15.08.2022
2196 Clear 23 1019 56 10000 3.6 360 15:26 15.08.2022
2197 Clear 19 1018 75 10000 4.12 10 13:27 15.08.2022
2198 Clear 19 1017 77 10000 1.54 30 10:37 15.08.2022
2199 Clear 19 1017 77 10000 1.54 100 08:55 15.08.2022
2200 Clear 20 1018 73 10000 2.06 130 06:51 15.08.2022
2201 Clear 20 1019 76 10000 1.03 350 04:32 15.08.2022
2202 Clear 24 1018 64 10000 3.6 120 23:49 14.08.2022
2203 Clear 25 1018 62 10000 4.63 200 22:28 14.08.2022
2204 Clear 26 1019 57 10000 4.63 140 21:35 14.08.2022
2205 Clear 25 1020 52 10000 5.14 150 19:46 14.08.2022
2206 Clear 25 1021 56 10000 3.09 180 18:42 14.08.2022
2207 Clear 25 1022 57 10000 2.57 170 17:48 14.08.2022
2208 Clear 23 1023 60 10000 2.06 330 16:32 14.08.2022
2209 Clear 22 1023 66 10000 2.57 330 15:48 14.08.2022
2210 Clear 19 1022 80 10000 3.09 340 14:19 14.08.2022
2211 Clear 19 1022 79 10000 2.57 360 13:49 14.08.2022
2212 Clear 19 1022 78 10000 2.57 360 13:18 14.08.2022
2213 Clear 17 1021 84 10000 1.54 280 11:50 14.08.2022
2214 Clear 17 1020 84 10000 2.06 310 10:27 14.08.2022
2215 Clear 18 1020 82 10000 2.06 340 08:45 14.08.2022
2216 Clear 19 1021 79 10000 2.57 350 06:21 14.08.2022
2217 Clear 21 1022 67 10000 3.6 80 02:46 14.08.2022
2218 Clear 22 1021 69 10000 4.63 100 23:49 13.08.2022
2219 Clear 23 1021 64 10000 5.14 130 22:52 13.08.2022
2220 Clouds 24 1021 58 10000 5.14 160 20:58 13.08.2022
2221 Clouds 25 1022 54 10000 5.14 160 20:28 13.08.2022
2222 Clouds 25 1023 50 10000 3.6 150 19:29 13.08.2022
2223 Clouds 24 1025 50 10000 3.09 130 17:40 13.08.2022
2224 Clouds 20 1026 68 10000 3.09 350 15:23 13.08.2022
2225 Clouds 19 1026 80 10000 2.57 350 14:26 13.08.2022
2226 Clouds 19 1025 83 10000 2.06 330 13:38 13.08.2022
2227 Clouds 18 1024 82 10000 1.54 60 11:52 13.08.2022
2228 Clouds 18 1024 82 10000 1.54 40 10:21 13.08.2022
2229 Clouds 18 1024 82 10000 1.03 0 08:23 13.08.2022
2230 Clouds 18 1024 82 10000 1.03 0 08:23 13.08.2022
2231 Clear 19 1024 82 10000 4.12 70 05:22 13.08.2022
2232 Clouds 20 1023 71 10000 6.17 130 23:52 12.08.2022
2233 Clouds 21 1023 66 10000 6.69 150 21:46 12.08.2022
2234 Clouds 23 1024 62 10000 6.17 150 20:53 12.08.2022
2235 Clouds 23 1024 61 10000 5.66 110 19:40 12.08.2022
2236 Clouds 23 1025 62 10000 4.63 150 18:46 12.08.2022
2237 Clouds 22 1025 63 10000 3.6 30 17:21 12.08.2022
2238 Clouds 20 1025 75 10000 2.57 30 15:52 12.08.2022
2239 Clouds 19 1025 85 10000 1.54 30 14:41 12.08.2022
2240 Clouds 18 1024 93 10000 2.57 300 12:55 12.08.2022
2241 Clouds 18 1022 92 10000 2.57 300 10:45 12.08.2022
2242 Clouds 20 1022 78 10000 4.63 170 07:50 12.08.2022
2243 Clouds 19 1022 84 10000 3.09 310 06:56 12.08.2022
2244 Clouds 18 1022 92 6000 4.12 210 03:20 12.08.2022
2245 Clouds 19 1020 88 8000 2.57 220 00:27 12.08.2022
2246 Clouds 18 1019 92 7000 6.17 260 23:35 11.08.2022
2247 Clouds 20 1018 79 6000 9.26 240 22:28 11.08.2022
2248 Clouds 20 1018 73 10000 10.29 250 21:43 11.08.2022
2249 Clouds 20 1018 73 10000 10.29 250 21:19 11.08.2022
2250 Clouds 21 1018 69 8000 8.75 250 20:27 11.08.2022
2251 Clouds 21 1018 74 8000 9.26 260 19:33 11.08.2022
2252 Clouds 20 1018 76 6000 9.26 260 18:36 11.08.2022
2253 Mist 19 1018 88 8000 5.66 250 16:38 11.08.2022
2254 Haze 20 1018 77 4500 7.72 250 15:25 11.08.2022
2255 Mist 19 1016 84 4500 9.77 240 13:51 11.08.2022
2256 Clouds 19 1013 73 8000 8.75 260 11:26 11.08.2022
2257 Clouds 21 1012 37 10000 7.2 300 07:49 11.08.2022
2258 Clear 21 1011 94 10000 9.26 310 04:44 11.08.2022
2259 Clouds 22 1011 64 10000 4.12 260 01:54 11.08.2022
2260 Clouds 22 1008 59 10000 7.2 240 22:38 10.08.2022
2261 Clouds 23 1007 73 10000 8.75 210 21:44 10.08.2022
2262 Clouds 23 1006 81 10000 8.23 250 20:56 10.08.2022
2263 Clouds 24 1006 78 10000 2.57 150 19:44 10.08.2022
2264 Clouds 22 1007 87 10000 3.09 170 18:45 10.08.2022
2265 Clouds 22 1009 88 8000 2.57 300 17:19 10.08.2022
2266 Clouds 21 1012 90 6000 2.57 350 13:36 10.08.2022
2267 Rain 21 1012 94 6000 2.06 40 12:48 10.08.2022
2268 Rain 21 1011 94 6000 2.06 230 10:21 10.08.2022
2269 Rain 21 1013 89 8000 1.54 80 08:36 10.08.2022
2270 Clouds 21 1014 88 8000 2.06 170 07:21 10.08.2022
2271 Rain 22 1016 85 9000 1.54 40 04:49 10.08.2022
2272 Rain 22 1017 81 10000 3.09 140 00:49 10.08.2022
2273 Rain 22 1017 83 10000 3.6 130 23:25 09.08.2022
2274 Clouds 23 1017 81 10000 4.63 160 21:37 09.08.2022
2275 Rain 23 1017 82 10000 5.66 160 20:56 09.08.2022
2276 Clouds 23 1018 78 10000 4.12 160 18:56 09.08.2022
2277 Rain 23 1019 79 10000 3.6 160 17:31 09.08.2022
2278 Rain 24 1019 77 10000 2.57 110 16:43 09.08.2022
2279 Clouds 24 1020 80 10000 2.57 350 15:59 09.08.2022
2280 Clouds 22 1019 88 10000 2.06 270 14:43 09.08.2022
2281 Drizzle 20 1018 96 8000 2.06 170 10:53 09.08.2022
2282 Clouds 21 1017 90 10000 4.12 160 08:52 09.08.2022
2283 Clouds 22 1017 85 10000 2.06 170 07:57 09.08.2022
2284 Clouds 23 1019 75 10000 1.54 300 04:49 09.08.2022
2285 Clouds 23 1017 81 10000 2.57 20 23:58 08.08.2022
2286 Clouds 23 1017 81 10000 2.57 20 23:24 08.08.2022
2287 Clouds 23 1016 78 10000 2.57 310 22:40 08.08.2022
2288 Clouds 24 1015 73 9000 1.54 150 21:44 08.08.2022
2289 Clouds 24 1015 72 9000 2.06 320 20:34 08.08.2022
2290 Rain 24 1015 76 7000 3.09 320 19:34 08.08.2022
2291 Clouds 23 1015 79 7000 4.12 330 18:18 08.08.2022
2292 Mist 22 1018 86 7000 3.6 320 15:48 08.08.2022
2293 Mist 22 1018 86 7000 3.6 320 15:28 08.08.2022
2294 Clouds 22 1016 86 7000 2.57 280 12:30 08.08.2022
2295 Rain 22 1014 88 6000 2.57 210 10:33 08.08.2022
2296 Rain 22 1014 88 7000 2.06 160 07:59 08.08.2022
2297 Clear 22 1015 86 10000 2.06 140 03:45 08.08.2022
2298 Clouds 23 1015 83 10000 5.14 340 00:33 08.08.2022
2299 Clouds 24 1014 68 10000 6.17 220 21:42 07.08.2022
2300 Clouds 24 1015 73 10000 6.17 220 21:19 07.08.2022
2301 Rain 24 1015 73 10000 7.72 220 20:23 07.08.2022
2302 Clouds 24 1015 73 10000 7.2 200 19:52 07.08.2022
2303 Clouds 24 1014 71 10000 7.2 200 19:22 07.08.2022
2304 Clouds 23 1014 78 10000 5.14 140 17:45 07.08.2022
2305 Clouds 23 1014 75 10000 4.12 150 16:52 07.08.2022
2306 Clouds 23 1020 73 10000 3.09 150 15:39 07.08.2022
2307 Clouds 23 1020 76 10000 3.6 110 14:27 07.08.2022
2308 Clouds 20 1020 90 10000 6.17 170 12:41 07.08.2022
2309 Clouds 20 1014 88 10000 3.09 40 10:53 07.08.2022
2310 Rain 20 1014 88 10000 3.09 40 10:21 07.08.2022
2311 Clouds 21 1020 85 10000 4.12 90 04:38 07.08.2022
2312 Clouds 21 1021 84 10000 5.14 90 02:35 07.08.2022
2313 Clouds 21 1023 82 10000 3.6 130 22:40 06.08.2022
2314 Clouds 21 1022 81 10000 3.6 130 22:18 06.08.2022
2315 Clouds 22 1023 76 10000 4.12 130 19:48 06.08.2022
2316 Clouds 22 1024 79 10000 3.6 140 18:50 06.08.2022
2317 Clouds 22 1025 79 10000 4.12 130 17:48 06.08.2022
2318 Clouds 21 1025 83 8000 1.54 100 16:30 06.08.2022
2319 Clouds 21 1019 82 10000 3.6 320 13:52 06.08.2022
2320 Clouds 22 1019 80 10000 3.6 240 12:46 06.08.2022
2321 Clouds 21 1018 78 10000 3.6 330 11:21 06.08.2022
2322 Clouds 21 1017 78 10000 3.09 330 09:49 06.08.2022
2323 Clouds 21 1017 78 10000 3.09 200 07:35 06.08.2022
2324 Clouds 22 1017 83 7000 6.17 220 02:22 06.08.2022
2325 Clouds 25 1013 61 10000 8.23 220 22:40 05.08.2022
2326 Clouds 26 1011 56 10000 9.77 200 21:36 05.08.2022
2327 Clear 31 1014 39 10000 5.66 290 19:22 05.08.2022
2328 Clear 33 1014 32 10000 7.2 280 18:44 05.08.2022
2329 Clear 33 1014 32 10000 7.2 280 18:44 05.08.2022
2330 Clear 30 1014 48 10000 5.14 320 17:26 05.08.2022
2331 Clear 29 1015 51 10000 6.69 310 16:43 05.08.2022
2332 Clear 28 1016 52 10000 4.63 350 15:21 05.08.2022
2333 Clear 23 1010 78 10000 5.14 30 13:43 05.08.2022
2334 Clear 23 1010 78 10000 5.14 30 13:22 05.08.2022
2335 Clear 22 1010 83 10000 4.12 30 12:24 05.08.2022
2336 Clear 23 1009 78 10000 2.57 320 10:35 05.08.2022
2337 Clear 23 1010 78 10000 2.57 320 07:58 05.08.2022
2338 Clear 24 1014 79 10000 2.57 310 05:32 05.08.2022
2339 Clear 26 1016 68 10000 1.03 330 00:30 05.08.2022
2340 Clear 28 1011 55 10000 2.06 330 22:26 04.08.2022
2341 Clear 28 1011 56 10000 3.09 70 21:26 04.08.2022
2342 Clear 27 1011 62 10000 4.12 70 20:42 04.08.2022
2343 Clear 27 1012 63 10000 4.12 10 19:37 04.08.2022
2344 Clear 27 1013 62 10000 4.12 20 18:36 04.08.2022
2345 Clear 26 1014 62 10000 4.12 20 17:37 04.08.2022
2346 Clear 22 1015 78 10000 2.57 340 14:18 04.08.2022
2347 Clear 20 1014 87 10000 1.54 130 12:44 04.08.2022
2348 Clouds 20 1014 83 10000 2.06 40 10:51 04.08.2022
2349 Clouds 21 1016 83 8000 2.06 80 07:53 04.08.2022
2350 Clouds 22 1017 78 10000 3.6 100 05:46 04.08.2022
2351 Clouds 22 1023 80 10000 2.57 130 02:29 04.08.2022
2352 Clouds 22 1023 81 10000 6.69 160 23:45 03.08.2022
2353 Clouds 22 1022 81 10000 6.69 130 22:30 03.08.2022
2354 Clouds 23 1022 80 10000 8.23 130 20:50 03.08.2022
2355 Clouds 23 1022 77 10000 6.69 240 19:44 03.08.2022
2356 Clouds 24 1023 76 10000 5.14 160 18:36 03.08.2022
2357 Clouds 24 1024 75 7000 2.57 350 16:25 03.08.2022
2358 Clouds 22 1019 79 6000 3.09 350 15:32 03.08.2022
2359 Clouds 20 1019 85 7000 1.54 320 12:41 03.08.2022
2360 Clear 21 1018 83 10000 0.51 0 08:54 03.08.2022
2361 Clear 21 1018 83 10000 1.03 180 04:51 03.08.2022
2362 Clouds 22 1019 78 10000 2.57 210 03:52 03.08.2022
2363 Clouds 22 1022 85 9000 4.63 190 01:45 03.08.2022
2364 Clouds 22 1023 84 9000 7.2 170 23:27 02.08.2022
2365 Clouds 24 1022 84 10000 6.17 170 21:59 02.08.2022
2366 Clouds 24 1021 83 10000 6.17 170 21:40 02.08.2022
2367 Clouds 25 1021 79 6000 5.14 160 19:38 02.08.2022
2368 Clouds 24 1023 75 8000 2.57 170 16:42 02.08.2022
2369 Clouds 21 1017 86 7000 2.06 20 13:21 02.08.2022
2370 Clear 21 1016 88 10000 2.57 330 10:34 02.08.2022
2371 Clear 22 1016 88 10000 3.09 310 08:27 02.08.2022
2372 Clear 22 1016 88 10000 3.09 290 07:50 02.08.2022
2373 Clear 22 1016 83 10000 5.14 270 04:56 02.08.2022
2374 Clear 23 1015 88 10000 5.66 190 01:58 02.08.2022
2375 Clear 23 1020 83 10000 6.17 190 23:23 01.08.2022
2376 Clear 25 1014 64 10000 4.12 170 21:37 01.08.2022
2377 Clear 25 1015 59 10000 3.09 30 19:45 01.08.2022
2378 Clear 24 1016 60 10000 4.63 20 18:53 01.08.2022
2379 Clouds 21 1018 70 10000 3.09 330 16:55 01.08.2022
2380 Clouds 21 1018 70 10000 3.09 330 16:55 01.08.2022
2381 Clouds 21 1018 70 10000 3.09 330 16:33 01.08.2022
2382 Clouds 21 1019 73 10000 3.09 360 15:34 01.08.2022
2383 Clouds 19 1019 83 10000 3.6 330 14:45 01.08.2022
2384 Clouds 19 1019 88 10000 2.57 350 13:29 01.08.2022
2385 Clouds 16 1018 94 10000 1.03 330 10:48 01.08.2022
2386 Clouds 16 1018 88 10000 1.03 90 08:53 01.08.2022
2387 Clouds 17 1019 82 10000 1.54 80 07:23 01.08.2022
2388 Clouds 21 1019 68 10000 4.12 70 04:32 01.08.2022
2389 Clouds 21 1022 73 10000 5.14 110 01:23 01.08.2022
2390 Clear 21 1024 67 10000 4.63 160 22:47 31.07.2022
2391 Clear 21 1023 67 10000 4.63 160 22:29 31.07.2022
2392 Clouds 23 1023 57 10000 3.6 160 20:39 31.07.2022
2393 Clouds 23 1025 60 10000 3.09 140 18:40 31.07.2022
2394 Clouds 21 1021 67 10000 3.09 350 16:55 31.07.2022
2395 Clouds 21 1027 74 10000 2.06 10 14:43 31.07.2022
2396 Clouds 19 1020 81 10000 2.06 300 12:59 31.07.2022
2397 Clouds 19 1020 77 10000 2.57 330 11:39 31.07.2022
2398 Clear 17 1020 88 10000 2.06 300 08:47 31.07.2022
2399 Clear 18 1020 82 10000 2.06 330 05:38 31.07.2022
2400 Clear 20 1019 64 10000 3.09 220 02:29 31.07.2022
2401 Clouds 21 1018 60 10000 4.63 200 22:49 30.07.2022
2402 Clouds 21 1017 60 10000 5.66 210 21:52 30.07.2022
2403 Clouds 21 1017 60 10000 5.66 210 21:33 30.07.2022
2404 Clouds 22 1018 54 10000 7.2 210 20:38 30.07.2022
2405 Clouds 22 1018 54 10000 7.2 210 20:38 30.07.2022
2406 Clouds 22 1018 54 10000 7.2 210 19:57 30.07.2022
2407 Clouds 21 1018 58 10000 5.66 220 18:20 30.07.2022
2408 Clouds 21 1018 58 10000 5.66 240 16:40 30.07.2022
2409 Clouds 22 1018 59 10000 2.06 220 15:33 30.07.2022
2410 Clouds 21 1018 60 10000 2.57 330 14:26 30.07.2022
2411 Clouds 20 1016 73 10000 1.54 270 12:33 30.07.2022
2412 Clouds 20 1015 68 10000 1.54 240 11:55 30.07.2022
2413 Clouds 18 1015 88 10000 1.54 300 10:20 30.07.2022
2414 Clouds 19 1015 82 10000 2.57 310 09:42 30.07.2022
2415 Clouds 19 1015 82 10000 2.06 300 07:44 30.07.2022
2416 Clouds 20 1014 88 7000 1.03 220 02:34 30.07.2022
2417 Clouds 20 1013 88 10000 2.57 320 01:21 30.07.2022
2418 Rain 22 1018 82 5000 9.26 200 21:39 29.07.2022
2419 Clouds 24 1016 63 10000 10.29 190 20:58 29.07.2022
2420 Clouds 25 1015 61 10000 9.26 190 19:48 29.07.2022
2421 Clouds 29 1010 42 10000 10.8 250 17:40 29.07.2022
2422 Clear 26 1009 54 10000 2.06 20 14:53 29.07.2022
2423 Clear 23 1009 66 10000 2.57 320 12:59 29.07.2022
2424 Clouds 18 1010 88 8000 1.03 310 09:49 29.07.2022
2425 Clear 19 1010 82 10000 1.54 360 08:48 29.07.2022
2426 Clear 19 1010 82 10000 1.03 40 07:39 29.07.2022
2427 Clear 27 1013 54 10000 2.57 320 01:46 29.07.2022
2428 Clear 27 1009 52 10000 3.09 70 22:41 28.07.2022
2429 Clear 29 1015 45 10000 3.09 60 20:59 28.07.2022
2430 Clear 29 1015 45 10000 3.09 60 20:27 28.07.2022
2431 Clear 27 1013 61 10000 3.6 20 19:42 28.07.2022
2432 Clear 28 1017 50 10000 3.6 20 18:48 28.07.2022
2433 Clear 27 1018 55 10000 3.6 350 17:43 28.07.2022
2434 Clear 26 1019 60 10000 4.63 10 16:42 28.07.2022
2435 Clear 25 1020 68 10000 5.66 30 15:24 28.07.2022
2436 Mist 19 1014 88 10000 4.12 360 12:58 28.07.2022
2437 Clear 17 1015 88 10000 0.51 20 10:36 28.07.2022
2438 Clear 22 1036 94 10000 3.6 130 06:25 28.07.2022
2439 Clear 22 1036 97 10000 2.06 110 05:27 28.07.2022
2440 Clear 23 1019 78 10000 3.09 120 00:45 28.07.2022
2441 Clear 24 1022 79 10000 4.63 160 22:40 27.07.2022
2442 Clouds 25 1022 75 10000 5.66 170 21:27 27.07.2022
2443 Clouds 25 1023 67 10000 5.14 160 19:37 27.07.2022
2444 Clouds 25 1024 64 9000 4.12 160 17:49 27.07.2022
2445 Clouds 23 1026 80 9000 3.6 10 15:52 27.07.2022
2446 Mist 23 1026 83 9000 2.57 340 14:57 27.07.2022
2447 Mist 22 1026 85 9000 2.57 340 14:34 27.07.2022
2448 Mist 21 1026 94 10000 2.06 50 12:49 27.07.2022
2449 Clouds 21 1021 88 9000 2.06 60 07:54 27.07.2022
2450 Clouds 21 1021 88 9000 2.57 70 06:21 27.07.2022
2451 Clouds 23 1023 84 10000 3.6 90 01:59 27.07.2022
2452 Clouds 23 1025 85 10000 5.66 190 22:29 26.07.2022
2453 Clouds 24 1024 83 10000 6.17 180 21:20 26.07.2022
2454 Clouds 24 1025 79 10000 5.66 170 20:31 26.07.2022
2455 Clouds 24 1025 76 10000 5.66 150 18:44 26.07.2022
2456 Haze 24 1026 78 10000 5.14 160 17:59 26.07.2022
2457 Mist 24 1027 77 5000 2.57 350 16:32 26.07.2022
2458 Mist 23 1027 81 5000 2.06 50 15:36 26.07.2022
2459 Mist 21 1026 92 5000 3.09 40 13:46 26.07.2022
2460 Mist 20 1019 94 5000 2.06 60 11:39 26.07.2022
2461 Clouds 17 1019 94 6000 1.03 330 09:32 26.07.2022
2462 Clouds 18 1020 94 8000 1.03 90 06:26 26.07.2022
2463 Clear 23 1021 89 10000 5.14 190 00:57 26.07.2022
2464 Clear 24 1023 81 10000 5.14 190 23:33 25.07.2022
2465 Clear 24 1023 73 10000 4.63 170 22:27 25.07.2022
2466 Clear 25 1023 70 10000 5.14 180 21:43 25.07.2022
2467 Clouds 25 1023 68 10000 6.17 170 20:42 25.07.2022
2468 Clear 25 1023 70 10000 6.17 160 19:50 25.07.2022
2469 Clear 25 1024 72 10000 2.57 140 18:21 25.07.2022
2470 Clouds 24 1025 75 9000 2.06 330 17:31 25.07.2022
2471 Mist 23 1026 83 8000 3.6 360 15:30 25.07.2022
2472 Mist 20 1020 88 10000 2.57 20 12:29 25.07.2022
2473 Clouds 20 1019 88 7000 1.03 20 10:38 25.07.2022
2474 Clear 18 1020 88 10000 0.51 100 06:51 25.07.2022
2475 Clear 24 1023 75 10000 4.63 200 23:56 24.07.2022
2476 Clear 24 1023 76 10000 4.63 200 23:19 24.07.2022
2477 Clear 25 1023 73 10000 4.63 170 22:35 24.07.2022
2478 Clouds 26 1023 60 10000 5.14 180 21:30 24.07.2022
2479 Clouds 26 1023 60 10000 5.66 160 20:56 24.07.2022
2480 Clouds 26 1022 62 10000 5.66 160 20:29 24.07.2022
2481 Clouds 26 1023 58 10000 2.57 20 18:57 24.07.2022
2482 Clear 24 1025 68 10000 3.09 340 16:51 24.07.2022
2483 Clear 23 1025 75 10000 3.09 320 15:53 24.07.2022
2484 Clear 22 1020 82 10000 2.06 330 14:40 24.07.2022
2485 Clear 21 1019 86 10000 2.57 330 13:25 24.07.2022
2486 Clear 19 1018 88 10000 2.57 330 12:19 24.07.2022
2487 Clear 20 1018 88 10000 2.57 20 11:28 24.07.2022
2488 Mist 19 1017 88 4000 1.54 330 09:33 24.07.2022
2489 Mist 18 1018 94 4500 1.03 50 07:53 24.07.2022
2490 Clouds 19 1018 88 6000 1.03 20 06:38 24.07.2022
2491 Clear 24 1020 75 10000 1.54 40 02:33 24.07.2022
2492 Clear 25 1021 72 10000 5.66 190 22:37 23.07.2022
2493 Clear 26 1020 65 10000 5.14 160 20:47 23.07.2022
2494 Haze 27 1022 61 10000 2.57 190 18:55 23.07.2022
2495 Haze 26 1022 61 10000 3.09 180 17:48 23.07.2022
2496 Haze 26 1022 63 10000 3.09 180 17:24 23.07.2022
2497 Haze 24 1023 75 10000 3.09 340 16:21 23.07.2022
2498 Mist 23 1024 81 10000 3.09 320 15:21 23.07.2022
2499 Mist 21 1018 90 8000 2.57 340 14:50 23.07.2022
2500 Mist 20 1017 92 7000 2.57 360 13:58 23.07.2022
2501 Mist 20 1016 94 8000 2.06 360 11:48 23.07.2022
2502 Mist 17 1017 94 5000 1.03 0 10:36 23.07.2022
2503 Clear 17 1016 94 6000 1.03 20 09:34 23.07.2022
2504 Clouds 19 1017 94 7000 1.03 30 06:46 23.07.2022
2505 Clear 23 1020 82 10000 1.54 300 03:37 23.07.2022
2506 Clear 23 1019 84 10000 4.63 190 00:34 23.07.2022
2507 Clear 24 1021 81 10000 6.69 160 21:33 22.07.2022
2508 Clear 25 1021 73 10000 7.2 160 20:31 22.07.2022
2509 Clear 26 1035 75 10000 3.54 141 18:42 22.07.2022
2510 Mist 23 1023 79 5000 2.57 10 17:40 22.07.2022
2511 Mist 22 1025 86 3500 3.09 360 15:48 22.07.2022
2512 Mist 20 1018 94 4000 1.54 20 12:47 22.07.2022
2513 Clouds 18 1017 94 7000 1.03 40 10:22 22.07.2022
2514 Clouds 18 1017 94 8000 1.03 50 09:21 22.07.2022
2515 Clear 19 1018 88 10000 1.03 60 07:58 22.07.2022
2516 Clear 22 1021 86 10000 3.09 80 04:23 22.07.2022
2517 Clouds 23 1023 85 10000 5.14 140 23:43 21.07.2022
2518 Clouds 23 1022 83 10000 8.75 140 21:51 21.07.2022
2519 Clouds 24 1022 79 10000 7.2 120 20:28 21.07.2022
2520 Clouds 26 1022 64 10000 5.14 50 18:43 21.07.2022
2521 Clouds 24 1024 73 10000 4.12 80 17:22 21.07.2022
2522 Clouds 23 1025 77 10000 4.12 50 16:31 21.07.2022
2523 Clouds 21 1021 88 8000 2.57 10 14:49 21.07.2022
2524 Clouds 20 1021 94 10000 2.06 350 13:58 21.07.2022
2525 Clouds 20 1021 94 10000 2.06 350 13:58 21.07.2022
2526 Mist 20 1020 94 10000 3.6 30 12:18 21.07.2022
2527 Clouds 20 1020 88 6000 2.57 10 10:21 21.07.2022
2528 Clouds 19 1020 88 10000 1.54 40 08:53 21.07.2022
2529 Clouds 19 1020 88 10000 1.54 40 08:35 21.07.2022
2530 Clouds 18 1021 94 10000 0 0 07:22 21.07.2022
2531 Clouds 21 1020 94 10000 2.06 140 03:25 21.07.2022
2532 Clouds 22 1020 86 10000 5.14 160 22:51 20.07.2022
2533 Clouds 22 1020 86 10000 5.14 160 22:20 20.07.2022
2534 Clouds 24 1020 76 10000 5.14 120 20:49 20.07.2022
2535 Clouds 23 1020 80 9000 5.66 100 19:47 20.07.2022
2536 Clouds 23 1020 80 9000 5.66 100 19:19 20.07.2022
2537 Clouds 24 1021 80 9000 4.63 140 18:33 20.07.2022
2538 Clouds 23 1021 80 9000 3.6 160 17:42 20.07.2022
2539 Clouds 23 1022 87 8000 2.57 140 15:43 20.07.2022
2540 Clouds 23 1022 86 8000 2.06 120 14:54 20.07.2022
2541 Clouds 23 1027 89 8000 2.06 210 13:44 20.07.2022
2542 Clouds 22 1020 88 10000 1.03 0 11:31 20.07.2022
2543 Clouds 22 1021 83 10000 1.03 330 07:39 20.07.2022
2544 Clouds 22 1024 90 7000 5.14 180 02:44 20.07.2022
2545 Clouds 22 1023 95 6000 7.2 170 00:44 20.07.2022
2546 Clouds 23 1024 87 10000 6.69 180 22:41 19.07.2022
2547 Clouds 23 1024 86 10000 6.69 180 22:21 19.07.2022
2548 Clear 27 1023 66 10000 5.14 160 20:54 19.07.2022
2549 Clear 28 1023 49 10000 5.14 170 20:18 19.07.2022
2550 Clear 27 1024 59 10000 4.12 80 18:43 19.07.2022
2551 Clouds 26 1026 65 9000 2.06 20 17:56 19.07.2022
2552 Clouds 24 1027 77 9000 3.09 30 16:25 19.07.2022
2553 Clouds 22 1024 74 10000 1.18 344 14:20 19.07.2022
2554 Mist 22 1022 88 5000 2.57 330 11:35 19.07.2022
2555 Clouds 21 1022 88 6000 1.54 330 10:31 19.07.2022
2556 Rain 22 1022 83 7000 2.06 310 08:48 19.07.2022
2557 Clouds 22 1022 83 7000 2.06 310 08:22 19.07.2022
2558 Clouds 22 1022 83 8000 2.06 290 07:18 19.07.2022
2559 Clouds 22 1023 78 10000 1.54 130 05:26 19.07.2022
2560 Clouds 21 1022 94 10000 3.6 180 04:46 19.07.2022
2561 Clouds 22 1025 90 10000 4.12 130 00:34 19.07.2022
2562 Clouds 22 1027 90 10000 4.12 160 23:22 18.07.2022
2563 Clouds 23 1027 89 10000 4.63 160 22:56 18.07.2022
2564 Clouds 23 1027 85 10000 3.6 150 21:58 18.07.2022
2565 Haze 23 1027 84 10000 4.63 150 20:50 18.07.2022
2566 Clouds 24 1027 82 10000 6.17 240 19:25 18.07.2022
2567 Haze 24 1028 83 9000 4.63 240 17:22 18.07.2022
2568 Mist 24 1029 87 7000 4.63 160 15:46 18.07.2022
2569 Mist 23 1029 93 5000 3.6 160 14:30 18.07.2022
2570 Drizzle 22 1028 90 5000 3.6 170 12:45 18.07.2022
2571 Clouds 22 1021 88 8000 4.12 180 11:29 18.07.2022
2572 Clouds 22 1022 83 10000 2.57 260 08:54 18.07.2022
2573 Clouds 22 1022 83 10000 3.09 270 07:28 18.07.2022
2574 Clear 26 1018 57 10000 6.17 270 00:42 18.07.2022
2575 Clear 27 1015 59 10000 7.72 190 22:42 17.07.2022
2576 Clear 28 1015 53 10000 3.6 200 21:57 17.07.2022
2577 Clear 28 1015 53 10000 3.6 200 21:21 17.07.2022
2578 Clear 31 1014 41 10000 2.57 50 20:44 17.07.2022
2579 Clear 29 1014 55 10000 3.09 80 19:32 17.07.2022
2580 Clear 29 1015 57 10000 3.6 40 18:54 17.07.2022
2581 Clear 28 1016 58 10000 3.6 20 17:38 17.07.2022
2582 Clear 26 1016 62 10000 4.12 40 16:51 17.07.2022
2583 Clear 26 1016 62 10000 4.12 40 16:27 17.07.2022
2584 Clear 23 1016 83 10000 4.12 350 14:58 17.07.2022
2585 Clear 22 926 78 10000 3.6 340 13:32 17.07.2022
2586 Clear 22 963 81 10000 3.09 320 11:50 17.07.2022
2587 Clear 22 702 46 10000 1.03 40 09:30 17.07.2022
2588 Clear 22 702 46 10000 1.03 30 05:54 17.07.2022
2589 Clear 23 962 81 10000 1.54 120 02:33 17.07.2022
2590 Clear 26 1011 64 10000 2.57 100 23:21 16.07.2022
2591 Clear 28 1011 51 10000 3.09 120 21:47 16.07.2022
2592 Clear 29 1011 50 10000 3.09 70 20:25 16.07.2022
2593 Clear 28 1012 54 10000 4.12 20 18:41 16.07.2022
2594 Clear 27 1013 59 10000 3.6 50 17:20 16.07.2022
2595 Clear 24 1014 67 10000 5.14 20 15:23 16.07.2022
2596 Clear 21 957 80 10000 3.09 320 11:54 16.07.2022
2597 Clear 22 702 46 10000 2.06 20 09:37 16.07.2022
2598 Clear 22 702 46 10000 1.03 120 08:58 16.07.2022
2599 Clear 22 702 46 10000 1.03 120 08:33 16.07.2022
2600 Clear 22 702 46 10000 1.03 120 05:59 16.07.2022
2601 Clear 24 958 68 10000 3.09 320 03:31 16.07.2022
2602 Clear 25 924 59 10000 2.57 200 23:51 15.07.2022
2603 Clear 26 1013 62 10000 3.09 190 22:43 15.07.2022
2604 Clear 26 1012 66 10000 4.63 100 21:31 15.07.2022
2605 Clear 26 1012 66 10000 4.63 100 21:31 15.07.2022
2606 Clear 26 1012 61 10000 4.63 160 20:32 15.07.2022
2607 Clear 26 1013 63 10000 3.6 140 18:46 15.07.2022
2608 Clear 26 1015 57 10000 4.12 120 17:49 15.07.2022
2609 Clear 23 1017 78 10000 2.57 330 15:41 15.07.2022
2610 Clear 21 927 75 10000 3.09 330 13:22 15.07.2022
2611 Clear 21 927 76 10000 2.57 330 12:22 15.07.2022
2612 Clouds 18 1016 88 10000 1.03 120 10:51 15.07.2022
2613 Clouds 22 702 46 10000 1.03 0 07:47 15.07.2022
2614 Clear 23 967 73 10000 2.57 70 02:39 15.07.2022
2615 Clear 23 966 77 10000 3.09 100 00:39 15.07.2022
2616 Clouds 24 927 71 10000 4.12 160 22:54 14.07.2022
2617 Clouds 24 927 70 10000 5.14 180 21:57 14.07.2022
2618 Clouds 24 1017 80 10000 5.14 180 21:33 14.07.2022
2619 Clouds 24 1017 79 10000 5.66 180 20:57 14.07.2022
2620 Clouds 24 1017 79 10000 5.66 180 20:37 14.07.2022
2621 Clouds 24 1017 79 10000 5.66 180 20:18 14.07.2022
2622 Clouds 24 1020 78 8000 3.6 140 17:25 14.07.2022
2623 Clouds 23 930 71 8000 3.09 330 16:18 14.07.2022
2624 Mist 22 930 79 7000 2.06 160 14:44 14.07.2022
2625 Mist 22 1027 96 5000 2.06 200 13:39 14.07.2022
2626 Mist 21 1026 96 6000 0.51 0 12:34 14.07.2022
2627 Clouds 20 1023 100 7000 1.03 320 11:26 14.07.2022
2628 Mist 20 1021 94 5000 1.54 10 10:51 14.07.2022
2629 Rain 21 1022 88 7000 1.54 330 08:45 14.07.2022
2630 Mist 21 1022 100 5000 2.06 50 04:44 14.07.2022
2631 Clouds 22 1025 90 8000 5.66 140 01:18 14.07.2022
2632 Clouds 22 1024 90 8000 5.66 140 00:50 14.07.2022
2633 Mist 22 1026 86 8000 5.66 150 22:30 13.07.2022
2634 Clouds 22 1026 86 8000 6.17 140 21:42 13.07.2022
2635 Clouds 23 1026 85 7000 6.69 160 20:38 13.07.2022
2636 Drizzle 23 1026 83 10000 4.63 160 18:36 13.07.2022
2637 Clouds 23 1027 80 10000 5.66 240 17:31 13.07.2022
2638 Clouds 23 1027 80 10000 5.66 240 17:31 13.07.2022
2639 Clouds 23 1027 80 10000 5.66 240 17:31 13.07.2022
2640 Clouds 23 1027 86 10000 4.63 160 16:19 13.07.2022
2641 Clouds 22 1022 81 8000 5.14 180 14:46 13.07.2022
2642 Clouds 22 1022 81 8000 5.14 180 14:46 13.07.2022
2643 Drizzle 22 1019 83 8000 4.63 200 11:54 13.07.2022
2644 Clouds 21 1019 83 10000 4.63 250 10:45 13.07.2022
2645 Clear 22 1018 78 10000 4.63 240 09:54 13.07.2022
2646 Clear 22 1018 78 10000 4.63 240 09:20 13.07.2022
2647 Clear 21 1016 83 10000 6.17 260 05:29 13.07.2022
2648 Clear 27 1014 44 10000 2.57 330 01:22 13.07.2022
2649 Clear 26 1013 54 10000 3.09 330 23:35 12.07.2022
2650 Clear 28 1018 47 10000 3.6 60 21:53 12.07.2022
2651 Clear 28 1018 47 10000 3.6 60 21:18 12.07.2022
2652 Clear 30 1018 36 10000 4.63 340 20:41 12.07.2022
2653 Clear 30 1019 33 10000 6.17 300 18:56 12.07.2022
2654 Clear 30 1020 34 10000 6.69 310 17:38 12.07.2022
2655 Clear 29 1021 35 10000 7.2 310 15:42 12.07.2022
2656 Clear 24 1014 64 10000 6.17 10 14:23 12.07.2022
2657 Clear 21 1013 76 10000 4.63 360 12:19 12.07.2022
2658 Clear 17 1012 94 10000 1.03 20 10:51 12.07.2022
2659 Clear 18 1012 88 10000 1.54 310 09:28 12.07.2022
2660 Clear 18 1012 88 10000 1.54 220 08:18 12.07.2022
2661 Clear 18 1013 88 10000 2.06 140 06:24 12.07.2022
2662 Clear 19 1013 88 10000 2.06 160 05:39 12.07.2022
2663 Clear 24 1016 64 10000 3.09 120 01:57 12.07.2022
2664 Clear 26 1017 53 10000 5.66 330 23:18 11.07.2022
2665 Clear 26 1017 58 10000 6.17 10 22:30 11.07.2022
2666 Clear 28 1016 46 10000 7.72 10 20:33 11.07.2022
2667 Clear 27 1017 48 10000 4.63 30 19:36 11.07.2022
2668 Clear 28 1018 38 10000 4.12 70 18:32 11.07.2022
2669 Clear 27 1020 47 10000 4.12 80 17:46 11.07.2022
2670 Clear 26 1019 53 10000 1.54 40 16:19 11.07.2022
2671 Clear 23 1017 73 10000 3.09 20 14:38 11.07.2022
2672 Clear 20 1016 88 10000 3.09 320 11:58 11.07.2022
2673 Clear 17 1017 94 10000 1.03 360 10:35 11.07.2022
2674 Clear 17 1017 94 10000 1.03 100 09:43 11.07.2022
2675 Clear 18 1017 88 10000 0 0 08:34 11.07.2022
2676 Clear 19 1018 82 10000 2.06 90 06:44 11.07.2022
2677 Clear 24 1020 70 10000 5.14 120 00:22 11.07.2022
2678 Clear 24 1022 74 10000 5.14 110 23:32 10.07.2022
2679 Clear 25 1022 72 10000 4.12 190 22:21 10.07.2022
2680 Clouds 26 1021 62 10000 4.63 160 20:54 10.07.2022
2681 Clouds 27 1022 59 10000 3.09 150 19:50 10.07.2022
2682 Clouds 26 1023 63 10000 2.57 90 18:53 10.07.2022
2683 Clear 26 1024 63 10000 3.6 30 17:41 10.07.2022
2684 Clear 24 1025 71 10000 2.57 330 16:58 10.07.2022
2685 Clear 24 1025 72 10000 2.57 330 16:20 10.07.2022
2686 Mist 23 1022 82 9000 2.06 360 14:35 10.07.2022
2687 Mist 20 1021 94 4500 2.06 20 12:38 10.07.2022
2688 Mist 20 1020 88 10000 2.57 20 11:34 10.07.2022
2689 Mist 18 1021 94 5000 0.51 0 09:30 10.07.2022
2690 Mist 19 1021 94 5000 1.03 0 08:42 10.07.2022
2691 Mist 19 1022 88 4000 0.51 0 06:32 10.07.2022
2692 Clouds 22 1026 88 10000 6.17 160 23:35 09.07.2022
2693 Clouds 22 1026 86 10000 6.17 170 22:26 09.07.2022
2694 Clouds 22 1026 83 10000 6.17 170 21:40 09.07.2022
2695 Clouds 24 1026 73 9000 4.63 170 19:37 09.07.2022
2696 Clouds 24 1027 71 8000 4.12 150 18:26 09.07.2022
2697 Clouds 24 1028 74 7000 2.57 180 17:21 09.07.2022
2698 Clouds 23 1029 78 6000 2.06 190 16:25 09.07.2022
2699 Clouds 22 1030 78 6000 2.06 10 15:38 09.07.2022
2700 Clouds 20 1025 85 7000 2.57 30 14:22 09.07.2022
2701 Mist 19 1024 90 7000 4.12 20 13:47 09.07.2022
2702 Clouds 20 1023 94 9000 4.12 50 11:45 09.07.2022
2703 Clouds 17 1022 94 6000 2.06 310 10:26 09.07.2022
2704 Clouds 17 1022 94 6000 1.54 270 09:38 09.07.2022
2705 Clouds 18 1023 88 7000 2.06 290 07:44 09.07.2022
2706 Clear 23 1023 60 10000 2.57 320 04:41 09.07.2022
2707 Clear 24 1026 65 10000 5.14 180 23:43 08.07.2022
2708 Clear 24 1026 67 10000 5.14 170 22:33 08.07.2022
2709 Clear 26 1025 61 10000 6.69 150 21:27 08.07.2022
2710 Clear 28 1025 49 10000 3.6 50 20:38 08.07.2022
2711 Clear 28 1025 52 10000 3.09 40 19:38 08.07.2022
2712 Clear 27 1026 55 10000 3.09 60 17:50 08.07.2022
2713 Clear 26 1027 58 10000 3.09 10 16:29 08.07.2022
2714 Clear 22 1022 77 10000 3.09 360 14:50 08.07.2022
2715 Clear 19 1021 88 10000 3.6 340 12:42 08.07.2022
2716 Clear 16 1020 88 10000 0 0 10:52 08.07.2022
2717 Clear 16 1020 88 10000 2.06 70 09:58 08.07.2022
2718 Clear 18 1020 88 10000 2.06 80 07:53 08.07.2022
2719 Clear 24 1039 82 10000 3.09 60 06:23 08.07.2022
2720 Clear 25 1019 57 10000 5.14 200 00:41 08.07.2022
2721 Clear 26 1023 49 10000 4.63 190 22:53 07.07.2022
2722 Clear 27 1022 45 10000 3.6 180 21:52 07.07.2022
2723 Clear 28 1023 43 10000 3.6 30 19:35 07.07.2022
2724 Clear 27 1024 42 10000 5.14 60 17:50 07.07.2022
2725 Clear 25 1025 55 10000 4.63 60 16:23 07.07.2022
2726 Clear 22 1020 76 10000 3.6 360 14:21 07.07.2022
2727 Clear 20 1018 76 10000 1.54 210 12:45 07.07.2022
2728 Clear 20 1018 76 10000 1.54 210 12:23 07.07.2022
2729 Clear 20 1017 77 10000 1.03 120 11:34 07.07.2022
2730 Clear 16 1016 88 8000 2.06 10 10:46 07.07.2022
2731 Clear 16 1016 88 8000 2.06 10 10:27 07.07.2022
2732 Clear 16 1016 94 10000 1.03 350 09:32 07.07.2022
2733 Clear 18 1017 88 10000 1.54 60 06:31 07.07.2022
2734 Clear 25 1035 63 10000 2.38 94 00:28 07.07.2022
2735 Clear 25 1035 66 10000 2.38 94 23:36 06.07.2022
2736 Clear 25 1035 66 10000 2.56 105 23:18 06.07.2022
2737 Clear 24 1021 60 10000 4.63 180 22:52 06.07.2022
2738 Clear 24 1021 61 10000 4.63 180 22:33 06.07.2022
2739 Clear 26 1021 51 10000 5.14 150 20:23 06.07.2022
2740 Clear 29 1021 35 10000 3.6 100 19:22 06.07.2022
2741 Clear 26 1023 56 10000 2.57 340 17:21 06.07.2022
2742 Clear 23 1025 70 10000 3.09 340 15:57 06.07.2022
2743 Clear 19 1018 90 10000 3.09 330 12:44 06.07.2022
2744 Clear 20 1018 88 10000 3.09 340 11:52 06.07.2022
2745 Clear 20 1017 88 9000 3.09 330 10:55 06.07.2022
2746 Clear 16 1017 88 10000 1.03 340 09:27 06.07.2022
2747 Clear 16 1017 88 10000 1.03 340 09:27 06.07.2022
2748 Clear 17 1018 88 10000 1.54 20 07:44 06.07.2022
2749 Clear 17 1018 88 10000 1.54 20 07:44 06.07.2022
2750 Clear 17 1019 88 10000 2.06 30 06:44 06.07.2022
2751 Clear 24 1020 58 10000 4.12 190 00:38 06.07.2022
2752 Clear 25 1022 58 10000 6.17 180 22:43 05.07.2022
2753 Clear 28 1021 40 10000 3.09 70 20:49 05.07.2022
2754 Clear 28 1021 40 10000 3.09 70 20:31 05.07.2022
2755 Clear 28 1021 40 10000 3.09 80 19:38 05.07.2022
2756 Clear 26 1023 54 10000 4.12 20 17:51 05.07.2022
2757 Clear 26 1024 55 10000 4.12 20 17:19 05.07.2022
2758 Clear 25 1024 63 10000 4.63 50 16:32 05.07.2022
2759 Clear 21 1019 83 10000 3.09 340 14:54 05.07.2022
2760 Clear 21 1019 88 10000 3.09 350 13:36 05.07.2022
2761 Clear 19 1019 91 10000 2.57 330 12:26 05.07.2022
2762 Clear 16 1018 94 7000 1.03 30 10:46 05.07.2022
2763 Clear 16 1018 94 8000 1.03 360 09:58 05.07.2022
2764 Clear 17 1018 88 10000 1.03 10 08:23 05.07.2022
2765 Clear 17 1019 88 10000 1.54 70 06:59 05.07.2022
2766 Clear 22 1019 78 10000 2.57 300 04:39 05.07.2022
2767 Clear 24 1019 69 10000 1.54 140 01:33 05.07.2022
2768 Clear 24 1024 66 10000 4.12 190 23:38 04.07.2022
2769 Clear 24 1024 67 10000 5.14 180 22:57 04.07.2022
2770 Clear 24 1024 67 10000 5.14 180 22:19 04.07.2022
2771 Clear 25 1023 68 10000 5.14 160 20:57 04.07.2022
2772 Clear 25 1023 69 10000 5.14 160 20:37 04.07.2022
2773 Clear 25 1024 70 10000 5.14 150 19:57 04.07.2022
2774 Clear 25 1024 70 10000 5.14 150 19:37 04.07.2022
2775 Clear 27 1025 55 10000 2.57 170 18:54 04.07.2022
2776 Clear 25 1026 61 10000 2.57 170 17:23 04.07.2022
2777 Clear 22 1027 75 10000 3.09 350 15:41 04.07.2022
2778 Clear 21 1022 85 10000 3.6 340 14:21 04.07.2022
2779 Fog 19 1021 90 10000 3.09 330 12:56 04.07.2022
2780 Clear 20 1020 88 10000 3.6 340 11:32 04.07.2022
2781 Clear 16 1020 94 6000 2.06 20 10:33 04.07.2022
2782 Clear 16 1020 94 6000 0 0 09:23 04.07.2022
2783 Clear 18 1021 88 10000 1.03 100 06:42 04.07.2022
2784 Clear 23 1021 78 10000 1.54 160 02:59 04.07.2022
2785 Clear 25 1020 66 10000 4.12 200 23:53 03.07.2022
2786 Clear 25 1025 61 10000 4.12 190 22:48 03.07.2022
2787 Clear 28 1025 52 10000 3.09 70 20:46 03.07.2022
2788 Clear 27 1025 57 10000 3.09 360 19:59 03.07.2022
2789 Clear 27 1025 58 10000 3.09 360 19:25 03.07.2022
2790 Clear 27 1026 60 10000 2.57 10 18:30 03.07.2022
2791 Clear 26 1027 62 9000 3.09 10 17:41 03.07.2022
2792 Clear 24 1028 68 7000 4.12 360 15:28 03.07.2022
2793 Clear 21 1022 79 7000 4.63 20 14:54 03.07.2022
2794 Mist 20 1021 88 7000 5.14 360 13:50 03.07.2022
2795 Mist 20 1026 93 8000 3.6 350 12:49 03.07.2022
2796 Mist 19 1020 94 8000 3.6 350 12:19 03.07.2022
2797 Mist 20 1020 94 8000 4.63 350 10:54 03.07.2022
2798 Mist 16 1020 94 5000 1.54 20 10:36 03.07.2022
2799 Clear 17 1020 88 10000 1.03 60 08:21 03.07.2022
2800 Clear 17 1020 88 10000 1.03 70 07:34 03.07.2022
2801 Clear 24 1022 66 10000 1.54 210 00:41 03.07.2022
2802 Clear 24 1024 70 10000 2.57 200 23:38 02.07.2022
2803 Clear 24 1024 67 10000 2.57 120 22:31 02.07.2022
2804 Clear 26 1024 59 10000 3.09 60 20:37 02.07.2022
2805 Clear 25 1024 62 10000 3.09 150 19:50 02.07.2022
2806 Clear 25 1024 59 10000 3.09 150 19:19 02.07.2022
2807 Clear 24 1025 65 9000 3.09 20 17:40 02.07.2022
2808 Clear 23 1026 74 9000 2.57 30 16:35 02.07.2022
2809 Clouds 19 1021 90 10000 2.06 320 13:51 02.07.2022
2810 Clouds 19 1019 88 10000 1.03 340 11:51 02.07.2022
2811 Clouds 17 1020 94 8000 1.03 80 10:52 02.07.2022
2812 Clouds 17 1020 94 8000 1.03 80 10:32 02.07.2022
2813 Clouds 19 1020 88 9000 2.57 120 08:39 02.07.2022
2814 Clouds 19 1020 88 9000 2.57 120 08:19 02.07.2022
2815 Clouds 20 1021 83 10000 3.09 90 05:59 02.07.2022
2816 Clouds 22 1023 86 10000 4.63 120 00:47 02.07.2022
2817 Clouds 21 1025 90 10000 4.63 130 23:31 01.07.2022
2818 Clouds 22 1024 86 10000 5.14 150 22:40 01.07.2022
2819 Clouds 22 1024 82 10000 4.63 150 21:40 01.07.2022
2820 Clouds 22 1024 79 10000 4.12 160 20:59 01.07.2022
2821 Clouds 22 1024 77 10000 4.12 160 20:37 01.07.2022
2822 Clouds 22 1019 68 9000 3.6 60 19:41 01.07.2022
2823 Clouds 22 1020 70 9000 3.09 10 17:52 01.07.2022
2824 Clouds 21 1021 78 10000 2.06 20 15:26 01.07.2022
2825 Clouds 19 1020 88 10000 1.54 310 13:54 01.07.2022
2826 Clouds 19 1018 88 9000 1.54 60 11:50 01.07.2022
2827 Clouds 17 1018 94 8000 0 0 10:20 01.07.2022
2828 Clouds 17 1019 94 10000 1.03 50 08:50 01.07.2022
2829 Clouds 20 1019 83 10000 2.57 40 03:42 01.07.2022
2830 Clouds 20 1019 77 10000 4.12 170 00:26 01.07.2022
2831 Clouds 21 1018 76 10000 5.14 160 22:58 30.06.2022
2832 Clouds 21 1018 76 10000 5.14 160 22:33 30.06.2022
2833 Clouds 21 1017 71 10000 5.14 150 21:59 30.06.2022
2834 Clouds 21 1017 71 10000 5.14 150 21:41 30.06.2022
2835 Clouds 22 1017 71 10000 5.14 160 20:29 30.06.2022
2836 Clouds 22 1017 71 10000 5.14 110 19:54 30.06.2022
2837 Clouds 22 1017 71 10000 5.14 110 19:24 30.06.2022
2838 Clouds 22 1018 71 10000 4.63 110 18:42 30.06.2022
2839 Clouds 22 1019 67 10000 4.63 180 17:43 30.06.2022
2840 Clouds 22 1019 70 10000 3.09 160 16:48 30.06.2022
2841 Clouds 22 1019 65 10000 2.57 160 15:39 30.06.2022
2842 Clouds 21 1018 76 10000 3.6 190 13:34 30.06.2022
2843 Clouds 21 1018 75 10000 3.6 200 12:35 30.06.2022
2844 Clouds 21 1017 78 10000 4.63 210 11:37 30.06.2022
2845 Clouds 21 1016 78 10000 5.66 310 09:55 30.06.2022
2846 Clouds 21 1016 78 10000 5.66 310 09:35 30.06.2022
2847 Clouds 21 1016 78 10000 5.14 290 08:18 30.06.2022
2848 Clouds 21 1016 78 10000 6.17 250 07:23 30.06.2022
2849 Clear 24 1015 75 10000 2.06 310 01:47 30.06.2022
2850 Clouds 26 1017 62 10000 2.06 220 23:34 29.06.2022
2851 Clear 26 1011 57 10000 2.06 90 22:40 29.06.2022
2852 Clear 27 1011 53 10000 2.06 350 21:39 29.06.2022
2853 Clear 27 1011 59 10000 2.57 350 20:34 29.06.2022
2854 Clear 27 1011 58 10000 3.09 30 19:48 29.06.2022
2855 Clear 25 1014 63 10000 4.12 10 17:54 29.06.2022
2856 Clear 23 1014 69 10000 4.12 10 16:48 29.06.2022
2857 Clear 22 1015 74 10000 4.63 360 15:32 29.06.2022
2858 Mist 20 1015 88 10000 5.14 340 13:20 29.06.2022
2859 Clear 19 1014 82 10000 3.6 10 11:57 29.06.2022
2860 Clear 15 1015 94 8000 1.03 320 09:43 29.06.2022
2861 Clear 15 1015 94 8000 1.03 320 09:21 29.06.2022
2862 Clear 16 1016 88 10000 1.03 140 06:27 29.06.2022
2863 Clear 21 1017 73 10000 3.09 10 02:21 29.06.2022
2864 Clear 21 1017 78 10000 1.03 100 00:52 29.06.2022
2865 Clear 21 1017 78 10000 1.03 100 00:33 29.06.2022
2866 Clear 22 1016 66 10000 2.06 150 22:49 28.06.2022
2867 Clear 23 1016 57 10000 2.57 110 21:57 28.06.2022
2868 Clear 23 1016 57 10000 2.57 110 21:38 28.06.2022
2869 Clear 23 1016 53 10000 3.09 100 20:57 28.06.2022
2870 Clear 23 1017 49 10000 2.57 50 19:50 28.06.2022
2871 Clear 23 1017 49 10000 2.57 50 19:24 28.06.2022
2872 Clear 22 1017 60 10000 2.57 340 18:37 28.06.2022
2873 Clear 20 1019 71 10000 2.57 20 16:47 28.06.2022
2874 Clear 19 1020 78 10000 3.6 30 15:54 28.06.2022
2875 Clear 18 1020 79 10000 2.06 360 14:48 28.06.2022
2876 Clear 18 1020 79 10000 2.06 360 14:18 28.06.2022
2877 Clouds 17 1019 88 10000 3.09 320 13:45 28.06.2022
2878 Clear 17 1019 77 10000 2.06 10 11:58 28.06.2022
2879 Clear 13 1018 94 10000 1.03 0 09:53 28.06.2022
2880 Clear 15 1019 88 10000 2.06 330 08:55 28.06.2022
2881 Clear 15 1019 88 10000 2.06 330 08:26 28.06.2022
2882 Clear 14 1019 88 10000 1.54 70 07:20 28.06.2022
2883 Clouds 19 1021 72 10000 4.12 70 03:38 28.06.2022
2884 Clouds 20 1021 72 10000 4.63 120 23:51 27.06.2022
2885 Clouds 20 1021 72 10000 4.63 120 23:25 27.06.2022
2886 Clouds 21 1020 66 10000 5.14 160 21:53 27.06.2022
2887 Clouds 21 1020 66 10000 5.14 160 21:22 27.06.2022
2888 Clouds 21 1020 62 10000 4.63 160 20:21 27.06.2022
2889 Clouds 21 1021 62 10000 3.6 90 18:50 27.06.2022
2890 Clouds 20 1022 70 10000 3.09 330 17:33 27.06.2022
2891 Clouds 20 1024 77 10000 2.06 340 15:44 27.06.2022
2892 Clouds 19 1023 81 10000 1.54 350 14:18 27.06.2022
2893 Mist 18 1022 84 10000 1.54 300 12:58 27.06.2022
2894 Clouds 18 1021 82 10000 1.54 10 11:40 27.06.2022
2895 Clouds 17 1022 88 8000 0 0 09:49 27.06.2022
2896 Clouds 17 1022 88 7000 1.54 320 08:43 27.06.2022
2897 Clouds 17 1022 94 8000 1.54 350 07:49 27.06.2022
2898 Clouds 18 1023 82 8000 1.03 50 06:28 27.06.2022
2899 Clouds 20 1022 77 10000 4.12 130 01:25 27.06.2022
2900 Clouds 20 1021 68 10000 2.06 130 23:22 26.06.2022
2901 Clouds 20 1020 71 10000 4.12 160 21:39 26.06.2022
2902 Clouds 21 1020 74 10000 4.12 170 20:33 26.06.2022
2903 Clouds 21 1021 77 8000 2.57 120 18:38 26.06.2022
2904 Clouds 21 1021 77 8000 2.57 120 18:20 26.06.2022
2905 Clouds 21 1022 79 8000 4.63 150 15:37 26.06.2022
2906 Clouds 21 1022 79 6000 4.12 180 14:33 26.06.2022
2907 Mist 20 1021 83 6000 5.66 170 13:27 26.06.2022
2908 Clouds 20 1020 80 6000 6.17 150 12:37 26.06.2022
2909 Clouds 21 1020 73 6000 6.17 170 10:53 26.06.2022
2910 Clouds 20 1020 77 8000 2.06 140 10:22 26.06.2022
2911 Clouds 20 1019 83 8000 0 0 08:45 26.06.2022
2912 Clouds 20 1019 94 8000 1.03 220 07:18 26.06.2022
2913 Clouds 23 1020 68 10000 4.63 240 00:45 26.06.2022
2914 Clouds 23 1020 68 10000 4.63 240 00:20 26.06.2022
2915 Clouds 22 1020 70 10000 4.12 230 23:33 25.06.2022
2916 Clouds 22 1019 68 10000 6.17 210 22:51 25.06.2022
2917 Clouds 22 1019 68 10000 6.17 210 22:25 25.06.2022
2918 Clouds 22 1018 72 10000 6.69 210 21:22 25.06.2022
2919 Clouds 23 1018 67 10000 8.75 210 20:54 25.06.2022
2920 Clouds 23 1018 67 10000 8.75 210 20:25 25.06.2022
2921 Haze 24 1018 72 10000 6.17 170 18:42 25.06.2022
2922 Haze 23 1018 76 7000 4.63 220 17:27 25.06.2022
2923 Haze 22 1019 79 6000 5.14 240 16:31 25.06.2022
2924 Mist 19 1018 92 2500 3.09 330 14:47 25.06.2022
2925 Mist 19 1018 94 2500 1.54 10 12:51 25.06.2022
2926 Mist 19 1018 94 2500 1.54 10 12:32 25.06.2022
2927 Clouds 19 1017 88 6000 2.57 320 09:40 25.06.2022
2928 Clouds 19 1017 94 6000 2.06 290 08:56 25.06.2022
2929 Clouds 19 1017 94 6000 2.06 290 08:28 25.06.2022
2930 Clouds 19 1018 94 6000 2.06 290 06:46 25.06.2022
2931 Clear 21 1018 88 10000 2.57 170 03:26 25.06.2022
2932 Clear 22 1017 88 10000 4.63 170 00:21 25.06.2022
2933 Clear 25 1015 65 10000 6.17 190 22:31 24.06.2022
2934 Clear 26 1015 56 10000 6.17 180 21:29 24.06.2022
2935 Clear 27 1015 54 10000 4.12 310 20:25 24.06.2022
2936 Clear 27 1015 58 10000 2.06 300 19:52 24.06.2022
2937 Clear 27 1015 58 10000 2.06 300 19:19 24.06.2022
2938 Clear 26 1016 57 10000 2.57 350 18:47 24.06.2022
2939 Clear 26 1016 57 10000 2.57 350 18:29 24.06.2022
2940 Clear 24 1018 70 10000 3.09 350 16:52 24.06.2022
2941 Clear 22 1018 74 10000 3.09 360 15:27 24.06.2022
2942 Clear 20 1018 86 10000 3.6 20 14:25 24.06.2022
2943 Mist 19 1017 92 10000 4.12 350 13:53 24.06.2022
2944 Clear 20 1016 88 10000 3.6 330 11:42 24.06.2022
2945 Mist 16 1016 94 5000 1.03 290 10:43 24.06.2022
2946 Mist 17 1016 94 5000 1.03 300 09:42 24.06.2022
2947 Clear 17 1016 94 6000 1.03 360 08:58 24.06.2022
2948 Clear 17 1016 94 6000 1.03 360 08:40 24.06.2022
2949 Clear 17 1017 94 7000 1.03 60 06:47 24.06.2022
2950 Clear 17 1017 94 7000 1.03 60 06:27 24.06.2022
2951 Clear 17 1017 94 7000 1.03 50 05:51 24.06.2022
2952 Clear 23 1015 73 10000 2.06 170 00:47 24.06.2022
2953 Clear 24 1015 73 10000 2.06 90 22:44 23.06.2022
2954 Clear 27 1015 60 10000 3.09 50 21:43 23.06.2022
2955 Clear 28 1015 53 10000 2.57 70 20:53 23.06.2022
2956 Clear 28 1015 53 10000 2.57 70 20:31 23.06.2022
2957 Clear 26 1016 59 10000 2.57 360 18:43 23.06.2022
2958 Clear 25 1017 62 10000 4.12 10 17:37 23.06.2022
2959 Clear 24 1018 71 10000 4.12 10 16:34 23.06.2022
2960 Clear 22 1018 76 8000 3.6 340 15:27 23.06.2022
2961 Clear 21 1018 86 8000 4.12 340 14:51 23.06.2022
2962 Clear 20 1016 94 10000 3.6 350 11:54 23.06.2022
2963 Clear 20 1016 94 10000 3.6 350 11:19 23.06.2022
2964 Clear 16 1015 88 9000 0 0 09:20 23.06.2022
2965 Clear 23 1034 87 10000 1.54 20 05:51 23.06.2022
2966 Clear 23 1018 68 10000 3.6 190 01:22 23.06.2022
2967 Clear 23 1018 73 10000 3.6 160 00:25 23.06.2022
2968 Clear 24 1021 69 10000 3.6 160 23:22 22.06.2022
2969 Clear 25 1019 68 10000 4.12 150 21:44 22.06.2022
2970 Clear 26 1019 62 10000 4.63 150 20:52 22.06.2022
2971 Clear 27 1019 58 10000 4.63 150 20:20 22.06.2022
2972 Clear 28 1019 50 10000 4.12 300 19:44 22.06.2022
2973 Clear 27 1020 57 10000 3.6 40 17:50 22.06.2022
2974 Clear 27 1020 57 10000 3.6 40 17:20 22.06.2022
2975 Clear 24 1016 69 10000 4.63 20 15:46 22.06.2022
2976 Clear 24 1016 69 10000 4.63 20 15:22 22.06.2022
2977 Clear 21 1015 87 10000 3.6 10 13:50 22.06.2022
2978 Clear 21 1015 87 10000 3.6 10 13:25 22.06.2022
2979 Clear 20 1015 84 10000 3.09 10 12:44 22.06.2022
2980 Clear 20 1014 88 10000 2.57 310 11:47 22.06.2022
2981 Clear 20 1014 94 10000 2.57 320 10:53 22.06.2022
2982 Clear 18 1015 94 10000 1.03 220 09:44 22.06.2022
2983 Clear 19 1015 94 10000 1.03 90 07:56 22.06.2022
2984 Clear 22 1016 88 10000 2.57 310 03:25 22.06.2022
2985 Clear 23 1019 85 10000 2.06 120 01:21 22.06.2022
2986 Clear 23 1021 86 10000 2.57 130 23:39 21.06.2022
2987 Clear 25 1021 77 10000 2.57 150 21:31 21.06.2022
2988 Clear 24 1022 79 10000 3.09 140 19:43 21.06.2022
2989 Mist 23 1023 88 5000 2.57 340 17:57 21.06.2022
2990 Mist 21 1024 97 5000 3.09 360 16:52 21.06.2022
2991 Mist 19 1019 98 10000 3.09 360 12:40 21.06.2022
2992 Clouds 18 1019 94 7000 1.03 310 10:55 21.06.2022
2993 Clouds 18 1019 88 8000 1.54 320 09:48 21.06.2022
2994 Clear 17 1019 94 10000 1.03 40 08:22 21.06.2022
2995 Clear 17 1019 94 10000 1.03 40 08:22 21.06.2022
2996 Clear 19 1020 94 10000 1.54 90 05:37 21.06.2022
2997 Clouds 22 1018 83 10000 2.06 160 00:43 21.06.2022
2998 Clouds 23 1018 78 10000 3.6 180 22:25 20.06.2022
2999 Clouds 23 1018 73 10000 3.6 180 21:50 20.06.2022
3000 Clear 24 1017 69 10000 4.12 180 20:32 20.06.2022
3001 Clear 23 1018 76 10000 2.57 150 19:38 20.06.2022
3002 Clear 22 1018 73 10000 2.06 20 18:44 20.06.2022
3003 Clear 21 1020 78 10000 2.06 330 17:52 20.06.2022
3004 Clear 21 1020 78 10000 2.06 330 17:29 20.06.2022
3005 Mist 19 1021 88 8000 3.09 360 15:55 20.06.2022
3006 Drizzle 18 1021 96 10000 2.57 50 12:44 20.06.2022
3007 Clouds 16 1020 100 8000 0.51 320 10:41 20.06.2022
3008 Clouds 16 1020 94 10000 1.03 310 09:41 20.06.2022
3009 Clouds 16 1020 94 10000 1.03 310 09:41 20.06.2022
3010 Clouds 16 1020 94 10000 1.03 160 08:44 20.06.2022
3011 Clouds 20 1041 100 10000 1.03 100 05:55 20.06.2022
3012 Clouds 20 1025 81 10000 1.54 120 02:29 20.06.2022
3013 Clouds 20 1025 81 10000 1.54 100 00:26 20.06.2022
3014 Mist 20 1021 81 10000 2.06 70 22:59 19.06.2022
3015 Mist 20 1027 86 10000 3.09 130 21:58 19.06.2022
3016 Mist 20 1027 86 10000 3.09 130 21:40 19.06.2022
3017 Clouds 20 1027 92 10000 4.12 130 20:39 19.06.2022
3018 Mist 19 1027 91 10000 2.57 190 19:48 19.06.2022
3019 Mist 19 1027 92 10000 2.57 190 19:19 19.06.2022
3020 Clouds 19 1028 93 6000 4.12 140 18:30 19.06.2022
3021 Mist 18 1029 96 7000 4.63 140 17:22 19.06.2022
3022 Mist 19 1029 96 4500 5.66 160 16:36 19.06.2022
3023 Mist 19 1029 94 4000 4.63 160 15:43 19.06.2022
3024 Mist 19 1029 94 4000 4.63 160 15:24 19.06.2022
3025 Clouds 20 1029 96 6000 2.57 230 14:20 19.06.2022
3026 Clouds 19 1028 96 6000 2.06 60 13:37 19.06.2022
3027 Clouds 19 1021 94 6000 3.09 100 11:40 19.06.2022
3028 Mist 18 1021 94 3000 1.54 340 10:49 19.06.2022
3029 Clouds 18 1020 94 6000 3.6 310 08:54 19.06.2022
3030 Clouds 18 1020 94 6000 3.6 310 08:30 19.06.2022
3031 Clouds 19 1021 88 7000 2.06 280 05:59 19.06.2022
3032 Mist 21 1020 88 7000 3.09 210 03:19 19.06.2022
3033 Clouds 21 1019 88 7000 5.14 230 00:26 19.06.2022
3034 Mist 21 1018 88 5000 6.17 200 23:37 18.06.2022
3035 Mist 21 1018 88 5000 6.17 200 23:19 18.06.2022
3036 Mist 23 1016 78 10000 5.66 210 21:54 18.06.2022
3037 Clouds 24 1015 72 10000 5.66 220 20:50 18.06.2022
3038 Clouds 26 1015 63 10000 7.2 280 19:50 18.06.2022
3039 Clouds 27 1014 58 10000 8.23 270 18:54 18.06.2022
3040 Clouds 27 1014 59 10000 8.23 270 18:30 18.06.2022
3041 Clouds 25 1014 66 10000 3.6 180 17:29 18.06.2022
3042 Clouds 21 1013 74 10000 3.6 340 15:46 18.06.2022
3043 Clear 21 1013 79 10000 3.6 360 14:50 18.06.2022
3044 Clear 20 1013 84 10000 5.14 10 13:58 18.06.2022
3045 Clear 19 1012 92 10000 3.09 330 12:28 18.06.2022
3046 Clear 16 1011 88 7000 2.06 270 10:59 18.06.2022
3047 Clear 16 1010 88 7000 1.03 220 09:39 18.06.2022
3048 Clear 16 1010 94 6000 1.03 0 08:40 18.06.2022
3049 Clear 17 1010 88 6000 1.03 360 07:34 18.06.2022
3050 Clear 16 1010 94 10000 1.03 0 05:20 18.06.2022
3051 Clear 24 1008 64 10000 2.57 310 01:50 18.06.2022
3052 Clear 24 1008 64 10000 2.57 310 01:21 18.06.2022
3053 Clear 22 1008 68 10000 1.54 130 00:23 18.06.2022
3054 Clear 22 1008 68 10000 1.54 130 00:23 18.06.2022
3055 Clear 22 1014 77 10000 1.54 140 23:37 17.06.2022
3056 Clear 24 1014 67 10000 2.06 140 22:29 17.06.2022
3057 Clear 25 1015 52 10000 2.57 140 20:29 17.06.2022
3058 Clear 25 1016 58 10000 4.12 60 19:24 17.06.2022
3059 Clear 22 1017 65 10000 3.6 310 17:58 17.06.2022
3060 Haze 21 1018 79 9000 3.09 330 16:50 17.06.2022
3061 Haze 21 1018 83 9000 3.09 330 16:25 17.06.2022
3062 Mist 19 1019 92 6000 2.57 340 15:40 17.06.2022
3063 Mist 17 1014 98 7000 3.09 340 14:23 17.06.2022
3064 Mist 17 1014 98 6000 3.6 340 13:59 17.06.2022
3065 Mist 17 1014 98 6000 3.6 340 13:38 17.06.2022
3066 Fog 18 1014 94 10000 2.06 320 12:29 17.06.2022
3067 Mist 17 1014 94 10000 2.06 350 11:55 17.06.2022
3068 Mist 17 1014 94 10000 2.06 350 11:34 17.06.2022
3069 Clear 15 1014 94 8000 1.03 20 09:46 17.06.2022
3070 Clear 16 1015 94 9000 1.03 30 08:26 17.06.2022
3071 Clear 17 1016 88 10000 1.03 80 06:51 17.06.2022
3072 Clear 19 1016 88 10000 2.57 10 04:19 17.06.2022
3073 Clear 20 1016 83 10000 2.57 180 01:56 17.06.2022
3074 Clear 20 1016 83 10000 3.09 180 00:24 17.06.2022
3075 Clear 21 1016 74 10000 5.66 170 22:42 16.06.2022
3076 Clear 22 1016 63 10000 5.14 170 21:23 16.06.2022
3077 Clear 23 1016 63 10000 4.63 150 20:56 16.06.2022
3078 Clear 23 1016 63 10000 4.63 150 20:36 16.06.2022
3079 Clear 23 1016 63 10000 4.63 150 20:36 16.06.2022
3080 Clear 23 1016 51 10000 2.57 90 19:45 16.06.2022
3081 Clear 23 1017 49 10000 3.6 40 18:26 16.06.2022
3082 Clear 22 1018 65 10000 3.09 10 17:43 16.06.2022
3083 Clear 21 1019 69 10000 3.09 20 16:39 16.06.2022
3084 Clear 19 1020 77 10000 2.57 30 15:22 16.06.2022
3085 Clouds 18 1020 84 7000 3.09 340 14:37 16.06.2022
3086 Clouds 18 1020 88 7000 3.09 330 13:32 16.06.2022
3087 Clear 16 1019 94 10000 2.57 320 12:36 16.06.2022
3088 Clear 17 1019 88 10000 2.06 320 11:52 16.06.2022
3089 Clear 17 1019 88 10000 2.06 320 10:56 16.06.2022
3090 Clouds 13 1019 94 10000 1.03 80 10:27 16.06.2022
3091 Clear 16 1020 88 10000 1.54 250 09:21 16.06.2022
3092 Clear 14 1020 94 10000 1.03 40 08:30 16.06.2022
3093 Clear 15 1020 94 10000 1.03 330 07:26 16.06.2022
3094 Clear 14 1021 94 10000 1.54 120 05:29 16.06.2022
3095 Clear 19 1020 77 10000 1.03 110 02:50 16.06.2022
3096 Clear 19 1020 77 10000 2.57 90 01:50 16.06.2022
3097 Clear 19 1020 77 10000 2.57 90 01:21 16.06.2022
3098 Clouds 20 1020 71 10000 4.12 100 23:47 15.06.2022
3099 Clouds 21 1024 65 10000 3.6 130 22:42 15.06.2022
3100 Clouds 22 1024 60 10000 4.12 120 21:23 15.06.2022
3101 Clouds 22 1024 61 10000 3.6 140 20:45 15.06.2022
3102 Clouds 22 1024 60 10000 3.6 140 20:27 15.06.2022
3103 Clouds 22 1025 55 10000 3.09 140 19:30 15.06.2022
3104 Clouds 21 1026 68 10000 2.57 310 17:58 15.06.2022
3105 Clouds 21 1027 69 10000 2.57 310 17:33 15.06.2022
3106 Mist 19 1023 85 9000 3.09 350 15:46 15.06.2022
3107 Mist 19 1023 90 7000 2.57 340 14:26 15.06.2022
3108 Mist 17 1022 93 10000 2.06 20 12:54 15.06.2022
3109 Mist 17 1022 93 10000 2.06 20 12:28 15.06.2022
3110 Mist 16 1022 94 2500 1.54 250 10:27 15.06.2022
3111 Mist 15 1022 94 2000 1.54 260 09:53 15.06.2022
3112 Mist 14 1022 94 3000 0 0 08:50 15.06.2022
3113 Clouds 16 1023 94 10000 0.51 60 06:42 15.06.2022
3114 Clouds 18 1022 91 10000 1.54 150 04:51 15.06.2022
3115 Clouds 18 1022 91 10000 1.03 100 02:28 15.06.2022
3116 Clouds 20 1022 83 10000 1.54 280 00:54 15.06.2022
3117 Clouds 19 1022 84 10000 2.57 280 23:55 14.06.2022
3118 Clouds 19 1022 84 10000 2.57 280 23:37 14.06.2022
3119 Clouds 19 1021 85 10000 2.06 170 22:33 14.06.2022
3120 Clouds 20 1021 81 10000 1.54 190 21:42 14.06.2022
3121 Mist 20 1021 84 10000 2.06 270 20:57 14.06.2022
3122 Mist 20 1021 84 10000 2.06 270 20:34 14.06.2022
3123 Mist 20 1022 85 10000 2.06 80 19:25 14.06.2022
3124 Mist 19 1022 88 10000 2.06 320 18:25 14.06.2022
3125 Mist 19 1023 93 7000 3.09 310 16:50 14.06.2022
3126 Mist 18 1023 92 4500 2.57 310 15:52 14.06.2022
3127 Mist 19 1023 92 4500 3.09 330 15:34 14.06.2022
3128 Mist 19 1023 92 4500 3.09 330 15:34 14.06.2022
3129 Clouds 18 1023 95 6000 3.09 300 14:53 14.06.2022
3130 Mist 18 1023 93 7000 3.09 330 13:53 14.06.2022
3131 Clouds 17 1022 94 6000 3.6 310 12:56 14.06.2022
3132 Mist 17 1021 95 4000 3.6 310 11:54 14.06.2022
3133 Clouds 17 1021 88 6000 3.09 350 10:51 14.06.2022
3134 Clouds 17 1021 88 6000 3.09 350 10:25 14.06.2022
3135 Clouds 17 1021 88 6000 3.09 350 10:25 14.06.2022
3136 Clouds 17 1022 88 7000 2.57 320 08:52 14.06.2022
3137 Clouds 17 1022 88 7000 2.57 320 08:23 14.06.2022
3138 Clouds 20 1023 85 10000 3.61 271 06:19 14.06.2022
3139 Clouds 20 1022 72 10000 3.09 260 03:39 14.06.2022
3140 Clouds 21 1021 66 10000 3.6 270 01:37 14.06.2022
3141 Clouds 21 1021 64 10000 4.12 240 00:21 14.06.2022
3142 Clouds 21 1021 61 10000 3.6 230 22:39 13.06.2022
3143 Clouds 21 1021 61 10000 3.6 230 22:19 13.06.2022
3144 Clouds 21 1020 56 10000 4.12 190 21:26 13.06.2022
3145 Clouds 23 1020 48 10000 4.63 330 19:59 13.06.2022
3146 Clouds 22 1020 51 10000 4.63 290 18:54 13.06.2022
3147 Clouds 22 1021 51 10000 5.14 310 17:55 13.06.2022
3148 Clouds 22 1021 51 10000 5.14 310 17:23 13.06.2022
3149 Clouds 21 1022 54 10000 4.63 280 16:30 13.06.2022
3150 Clouds 19 1022 64 10000 4.12 320 14:49 13.06.2022
3151 Clouds 19 1022 64 10000 4.12 320 14:31 13.06.2022
3152 Clouds 18 1021 68 10000 3.6 310 13:31 13.06.2022
3153 Clouds 16 1020 76 10000 4.12 320 12:22 13.06.2022
3154 Clear 15 1019 77 10000 3.6 300 10:37 13.06.2022
3155 Clear 16 1019 72 10000 3.09 260 09:54 13.06.2022
3156 Clouds 16 1019 72 10000 3.09 280 08:40 13.06.2022
3157 Clouds 18 1020 63 10000 3.09 280 06:37 13.06.2022
3158 Clouds 19 1020 59 10000 3.09 260 05:35 13.06.2022
3159 Clouds 19 1018 70 10000 5.66 220 01:55 13.06.2022
3160 Clouds 19 1018 70 10000 5.66 220 01:34 13.06.2022
3161 Clouds 19 1017 70 10000 7.72 220 23:48 12.06.2022
3162 Clouds 20 1016 71 10000 6.69 210 22:39 12.06.2022
3163 Clouds 20 1016 73 10000 6.69 200 21:53 12.06.2022
3164 Clouds 21 1015 71 10000 6.17 200 20:53 12.06.2022
3165 Clouds 21 1015 71 8000 6.17 200 19:59 12.06.2022
3166 Clouds 21 1015 71 8000 6.17 200 19:30 12.06.2022
3167 Clouds 21 1017 79 8000 3.09 170 17:40 12.06.2022
3168 Clouds 21 1018 86 8000 3.09 340 15:54 12.06.2022
3169 Clouds 19 1018 89 7000 3.6 300 14:51 12.06.2022
3170 Clouds 19 1018 89 7000 3.6 300 14:20 12.06.2022
3171 Clouds 19 1017 89 7000 3.09 290 13:49 12.06.2022
3172 Clouds 18 1017 94 7000 2.06 290 12:32 12.06.2022
3173 Clouds 19 1015 91 8000 1.54 290 11:22 12.06.2022
3174 Clouds 18 1015 94 8000 1.54 250 10:21 12.06.2022
3175 Clouds 18 1016 94 8000 2.06 290 08:54 12.06.2022
3176 Clouds 18 1016 94 8000 2.06 290 08:35 12.06.2022
3177 Clouds 18 1016 88 8000 2.06 310 07:31 12.06.2022
3178 Mist 19 1017 88 10000 3.09 200 04:35 12.06.2022
3179 Mist 18 1017 89 10000 4.63 200 02:33 12.06.2022
3180 Clouds 18 1017 91 10000 3.6 190 01:36 12.06.2022
3181 Clouds 19 1016 88 10000 4.12 190 00:58 12.06.2022
3182 Clouds 19 1016 88 10000 4.12 190 00:20 12.06.2022
3183 Mist 19 1016 90 10000 3.09 180 23:29 11.06.2022
3184 Mist 19 1016 90 7000 3.09 200 22:38 11.06.2022
3185 Mist 19 1016 90 6000 2.57 160 21:37 11.06.2022
3186 Mist 19 1016 92 4500 4.12 180 20:33 11.06.2022
3187 Mist 19 1016 91 4000 5.14 220 19:39 11.06.2022
3188 Clouds 20 1017 90 7000 3.09 290 18:56 11.06.2022
3189 Clouds 20 1017 90 7000 3.09 290 18:33 11.06.2022
3190 Mist 19 1018 90 4000 5.14 190 17:50 11.06.2022
3191 Mist 19 1018 90 4000 5.14 190 17:26 11.06.2022
3192 Mist 20 1018 90 4000 3.6 320 16:52 11.06.2022
3193 Mist 20 1018 90 4000 3.6 320 16:26 11.06.2022
3194 Clouds 20 1018 93 7000 3.09 320 15:28 11.06.2022
3195 Mist 19 1017 94 7000 2.57 330 13:53 11.06.2022
3196 Mist 19 1016 92 5000 3.09 270 12:36 11.06.2022
3197 Clouds 18 1015 94 7000 2.06 240 10:46 11.06.2022
3198 Clouds 18 1016 94 8000 2.06 290 09:48 11.06.2022
3199 Clouds 19 1016 88 8000 1.54 270 08:51 11.06.2022
3200 Clouds 20 1017 94 8000 2.57 290 06:47 11.06.2022
3201 Clouds 20 1017 94 8000 2.57 290 06:24 11.06.2022
3202 Clouds 20 1016 94 7000 2.57 300 04:23 11.06.2022
3203 Clouds 20 1015 88 10000 5.14 250 01:52 11.06.2022
3204 Clouds 20 1015 88 10000 5.14 250 01:27 11.06.2022
3205 Clouds 22 1014 83 9000 6.69 220 23:34 10.06.2022
3206 Clouds 23 1013 82 10000 8.75 220 22:31 10.06.2022
3207 Clouds 24 1012 76 10000 8.23 220 21:50 10.06.2022
3208 Clouds 26 1011 69 10000 8.23 250 20:40 10.06.2022
3209 Clouds 26 1011 67 10000 8.23 250 20:21 10.06.2022
3210 Clouds 26 1011 67 10000 8.23 250 20:21 10.06.2022
3211 Clouds 26 1010 66 10000 4.63 320 19:19 10.06.2022
3212 Mist 24 1010 79 6000 3.6 310 18:55 10.06.2022
3213 Clouds 23 1011 85 10000 5.14 40 17:55 10.06.2022
3214 Clouds 24 1016 86 10000 5.14 40 17:33 10.06.2022
3215 Clouds 24 1017 88 10000 4.63 330 16:50 10.06.2022
3216 Clouds 23 1018 93 10000 4.12 350 15:44 10.06.2022
3217 Clouds 22 1014 93 10000 3.6 20 14:51 10.06.2022
3218 Rain 21 1014 93 10000 3.09 10 13:26 10.06.2022
3219 Clouds 21 1013 94 10000 2.06 20 11:59 10.06.2022
3220 Clouds 21 1013 94 10000 2.06 20 11:30 10.06.2022
3221 Clouds 20 1013 94 10000 0.51 130 10:36 10.06.2022
3222 Clouds 21 1014 88 10000 1.03 120 09:26 10.06.2022
3223 Clouds 21 1016 83 10000 2.06 100 07:58 10.06.2022
3224 Rain 21 1016 83 10000 1.54 110 06:50 10.06.2022
3225 Rain 21 1016 83 10000 1.54 110 06:31 10.06.2022
3226 Clouds 21 1016 83 10000 1.03 70 05:34 10.06.2022
3227 Clouds 22 1016 84 10000 2.57 140 02:50 10.06.2022
3228 Clouds 22 1016 81 10000 2.57 170 01:37 10.06.2022
3229 Clouds 22 1016 87 10000 4.12 160 23:58 09.06.2022
3230 Clouds 22 1016 86 10000 4.12 170 22:47 09.06.2022
3231 Clouds 23 1016 82 10000 5.14 160 21:46 09.06.2022
3232 Clouds 23 1016 82 10000 5.14 160 21:28 09.06.2022
3233 Clouds 23 1016 79 10000 4.63 160 20:40 09.06.2022
3234 Clouds 23 1016 82 10000 4.63 150 19:51 09.06.2022
3235 Clouds 23 1016 80 10000 4.12 160 18:41 09.06.2022
3236 Clouds 23 1017 83 10000 3.6 160 17:56 09.06.2022
3237 Clouds 24 1017 80 10000 2.06 240 16:38 09.06.2022
3238 Clouds 22 1018 89 9000 1.54 30 15:42 09.06.2022
3239 Clouds 22 1017 93 7000 2.06 10 14:34 09.06.2022
3240 Clouds 22 1017 95 6000 2.57 20 13:46 09.06.2022
3241 Clouds 22 1017 95 6000 2.57 20 13:25 09.06.2022
3242 Clouds 22 1015 88 10000 1.03 0 11:53 09.06.2022
3243 Clouds 21 1014 88 7000 2.57 320 10:36 09.06.2022
3244 Clouds 21 1014 88 7000 2.57 300 09:40 09.06.2022
3245 Clouds 21 1014 88 7000 2.57 300 09:21 09.06.2022
3246 Clouds 21 1015 88 10000 2.06 270 07:29 09.06.2022
3247 Clouds 23 1015 83 10000 2.06 40 04:47 09.06.2022
3248 Clouds 23 1014 80 10000 4.12 260 01:43 09.06.2022
3249 Clouds 23 1014 82 10000 4.12 230 23:24 08.06.2022
3250 Clouds 23 1014 81 10000 6.17 220 22:50 08.06.2022
3251 Clouds 23 1014 81 10000 6.17 220 22:25 08.06.2022
3252 Rain 24 1013 76 10000 7.2 220 21:48 08.06.2022
3253 Clouds 24 1013 74 8000 6.69 210 20:33 08.06.2022
3254 Clouds 25 1012 74 8000 6.17 190 19:49 08.06.2022
3255 Clouds 25 1013 70 8000 6.17 180 18:56 08.06.2022
3256 Clouds 25 1013 71 8000 6.17 180 18:22 08.06.2022
3257 Clouds 24 1013 76 6000 2.57 250 16:34 08.06.2022
3258 Mist 22 1013 87 5000 3.09 290 14:54 08.06.2022
3259 Mist 21 1013 94 5000 4.12 30 13:36 08.06.2022
3260 Mist 20 1012 94 5000 3.09 50 11:50 08.06.2022
3261 Mist 20 1012 94 5000 3.09 50 11:24 08.06.2022
3262 Rain 18 1012 88 10000 1.03 320 09:47 08.06.2022
3263 Rain 18 1012 88 10000 1.03 320 09:20 08.06.2022
3264 Clouds 19 1013 88 10000 2.06 40 07:32 08.06.2022
3265 Clouds 20 1013 88 10000 1.03 80 05:22 08.06.2022
3266 Clear 22 1013 83 10000 2.06 260 02:38 08.06.2022
3267 Clouds 23 1013 81 10000 5.14 190 00:21 08.06.2022
3268 Clouds 23 1012 81 10000 7.2 190 23:25 07.06.2022
3269 Clouds 23 1011 82 10000 7.72 180 22:42 07.06.2022
3270 Clear 24 1011 73 10000 6.69 170 21:59 07.06.2022
3271 Clear 24 1011 73 10000 6.69 170 21:27 07.06.2022
3272 Clear 25 1010 67 10000 4.63 150 20:46 07.06.2022
3273 Clear 25 1010 67 10000 4.63 150 20:24 07.06.2022
3274 Clear 26 1010 58 10000 2.57 80 19:19 07.06.2022
3275 Clear 26 1012 55 10000 2.57 330 17:55 07.06.2022
3276 Clear 26 1012 55 10000 2.57 330 17:19 07.06.2022
3277 Clear 24 1012 60 10000 3.09 20 16:39 07.06.2022
3278 Clear 23 1013 66 10000 2.57 10 15:42 07.06.2022
3279 Clear 23 1013 66 10000 2.57 10 15:23 07.06.2022
3280 Clear 21 1013 71 10000 3.6 340 14:46 07.06.2022
3281 Clear 20 1012 79 10000 4.12 350 13:58 07.06.2022
3282 Clear 20 1012 79 10000 4.12 350 13:29 07.06.2022
3283 Clear 19 1012 83 10000 3.6 330 12:44 07.06.2022
3284 Clear 19 1011 88 10000 4.63 350 11:22 07.06.2022
3285 Clear 16 1011 94 10000 1.03 20 10:19 07.06.2022
3286 Clear 17 1012 88 10000 1.03 360 08:49 07.06.2022
3287 Clear 18 1013 88 10000 1.03 320 07:23 07.06.2022
3288 Clear 19 1014 88 10000 1.54 350 05:56 07.06.2022
3289 Clear 20 1014 88 10000 1.54 300 03:18 07.06.2022
3290 Clear 22 1014 74 10000 2.57 200 00:42 07.06.2022
3291 Clear 22 1014 77 10000 3.09 190 23:35 06.06.2022
3292 Clear 25 1013 56 10000 2.57 120 22:45 06.06.2022
3293 Clear 25 1013 51 10000 3.6 120 21:43 06.06.2022
3294 Clear 25 1013 55 10000 3.6 60 20:21 06.06.2022
3295 Clear 25 1013 52 10000 4.12 80 19:23 06.06.2022
3296 Clear 24 1014 54 10000 3.09 110 18:46 06.06.2022
3297 Clear 23 1015 57 10000 2.57 320 17:52 06.06.2022
3298 Clear 22 1021 67 10000 3.6 330 16:48 06.06.2022
3299 Clear 21 1022 71 10000 3.6 360 15:40 06.06.2022
3300 Clear 19 1018 77 10000 2.57 330 14:57 06.06.2022
3301 Clear 17 1018 87 10000 2.57 350 13:37 06.06.2022
3302 Clear 16 1017 91 10000 2.57 360 12:59 06.06.2022
3303 Clear 16 1017 91 10000 2.57 360 12:26 06.06.2022
3304 Clear 16 1017 87 10000 3.6 40 11:45 06.06.2022
3305 Clear 15 1018 88 8000 1.54 350 09:46 06.06.2022
3306 Clear 15 1018 88 10000 1.54 10 08:36 06.06.2022
3307 Clear 15 1019 88 10000 1.54 20 07:43 06.06.2022
3308 Clear 15 1019 88 10000 2.06 120 06:44 06.06.2022
3309 Clear 19 1019 72 10000 2.57 40 04:36 06.06.2022
3310 Clear 20 1026 70 10000 5.14 90 01:30 06.06.2022
3311 Clear 21 1026 69 10000 5.14 100 00:55 06.06.2022
3312 Clear 21 1019 68 10000 5.14 100 00:33 06.06.2022
3313 Clouds 22 1024 69 10000 5.66 110 22:58 05.06.2022
3314 Clouds 22 1025 68 10000 5.66 110 22:19 05.06.2022
3315 Clouds 23 1024 63 10000 4.63 130 20:23 05.06.2022
3316 Clouds 23 1025 64 10000 3.6 100 18:57 05.06.2022
3317 Clouds 23 1025 62 10000 3.6 100 18:18 05.06.2022
3318 Clouds 22 1026 66 10000 2.57 30 17:38 05.06.2022
3319 Clouds 22 1026 67 10000 2.57 30 17:20 05.06.2022
3320 Clouds 22 1027 70 10000 3.09 340 16:47 05.06.2022
3321 Clouds 21 1028 74 10000 3.09 50 15:25 05.06.2022
3322 Clouds 20 1023 81 10000 3.6 110 14:18 05.06.2022
3323 Clouds 19 1028 89 10000 3.09 40 11:58 05.06.2022
3324 Clouds 20 1032 94 10000 2.06 60 10:45 05.06.2022
3325 Clouds 20 1032 94 10000 2.06 60 10:24 05.06.2022
3326 Clouds 19 1032 94 10000 1.03 90 09:33 05.06.2022
3327 Clouds 19 1033 94 10000 1.54 90 08:23 05.06.2022
3328 Clouds 19 1033 93 10000 1.03 120 06:23 05.06.2022
3329 Clouds 19 1033 94 10000 1.03 190 05:19 05.06.2022
3330 Clouds 20 1029 87 10000 2.57 40 02:43 05.06.2022
3331 Clouds 20 1029 79 10000 2.57 100 01:23 05.06.2022
3332 Clouds 20 1029 79 10000 2.57 100 01:23 05.06.2022
3333 Clouds 20 1026 84 10000 4.63 120 22:51 04.06.2022
3334 Clouds 21 1026 79 10000 4.63 130 21:30 04.06.2022
3335 Clouds 21 1026 81 10000 4.63 120 19:27 04.06.2022
3336 Mist 20 1029 92 8000 4.12 140 17:21 04.06.2022
3337 Mist 19 1028 95 5000 4.12 170 16:20 04.06.2022
3338 Mist 19 1028 93 4500 4.12 150 15:45 04.06.2022
3339 Mist 19 1023 93 9000 2.06 10 14:18 04.06.2022
3340 Clouds 19 1027 96 6000 2.06 20 11:43 04.06.2022
3341 Clouds 19 1021 94 6000 1.03 0 10:55 04.06.2022
3342 Mist 19 1021 88 4500 2.06 360 09:59 04.06.2022
3343 Mist 19 1021 88 4500 2.06 360 09:38 04.06.2022
3344 Mist 20 1031 97 3000 2.06 130 08:39 04.06.2022
3345 Mist 20 1031 97 2500 1.03 250 07:18 04.06.2022
3346 Clouds 20 1027 96 10000 2.57 210 04:29 04.06.2022
3347 Mist 21 1025 92 5000 4.63 180 00:24 04.06.2022
3348 Mist 21 1023 94 3000 5.14 250 23:28 03.06.2022
3349 Clouds 22 1018 79 10000 4.12 240 22:20 03.06.2022
3350 Clouds 23 1018 78 10000 3.6 280 20:42 03.06.2022
3351 Clouds 23 1018 78 10000 3.6 280 20:42 03.06.2022
3352 Clouds 23 1018 77 10000 3.6 270 19:58 03.06.2022
3353 Clouds 22 1023 85 10000 2.57 240 17:00 03.06.2022
3354 Clouds 22 1023 84 10000 3.6 230 16:30 03.06.2022
3355 Mist 21 1019 92 4000 3.09 190 14:52 03.06.2022
3356 Clouds 21 1017 89 10000 2.57 200 12:28 03.06.2022
3357 Clouds 20 1016 88 10000 1.54 310 10:18 03.06.2022
3358 Clouds 20 1015 88 10000 2.06 280 09:30 03.06.2022
3359 Clouds 19 1015 94 10000 1.54 300 07:54 03.06.2022
3360 Clouds 19 1015 94 10000 1.54 300 07:20 03.06.2022
3361 Clouds 20 1015 88 10000 1.03 0 06:30 03.06.2022
3362 Clouds 22 1016 88 10000 4.12 330 04:40 03.06.2022
3363 Clouds 23 1016 75 10000 6.69 240 00:22 03.06.2022
3364 Mist 23 1015 82 9000 8.75 220 22:35 02.06.2022
3365 Clouds 24 1019 80 9000 8.75 230 21:34 02.06.2022
3366 Mist 24 1018 80 8000 9.77 230 20:22 02.06.2022
3367 Mist 25 1018 80 10000 11.83 230 19:42 02.06.2022
3368 Mist 25 1018 80 10000 11.83 230 19:19 02.06.2022
3369 Haze 25 1013 81 6000 4.63 140 16:47 02.06.2022
3370 Haze 25 1017 84 6000 4.63 140 16:27 02.06.2022
3371 Mist 23 1012 94 3000 1.54 10 13:56 02.06.2022
3372 Mist 23 1012 94 3000 1.54 10 13:29 02.06.2022
3373 Mist 22 1011 97 4000 1.54 40 11:22 02.06.2022
3374 Mist 21 1012 94 3000 1.54 10 10:20 02.06.2022
3375 Mist 21 1012 94 3000 1.54 10 10:20 02.06.2022
3376 Mist 21 1012 94 3000 1.03 340 09:27 02.06.2022
3377 Mist 22 1012 88 3000 1.03 290 08:26 02.06.2022
3378 Mist 22 1013 88 3500 2.06 350 07:21 02.06.2022
3379 Clouds 23 1013 94 9000 2.06 300 04:49 02.06.2022
3380 Clouds 23 1013 91 10000 2.57 160 02:37 02.06.2022
3381 Clouds 24 1017 92 10000 5.14 190 23:43 01.06.2022
3382 Clouds 24 1017 90 10000 5.66 170 22:31 01.06.2022
3383 Clouds 24 1017 85 10000 5.14 120 21:35 01.06.2022
3384 Clouds 25 1017 84 9000 5.66 160 20:58 01.06.2022
3385 Clouds 25 1017 84 9000 5.66 160 20:37 01.06.2022
3386 Clouds 25 1013 76 8000 5.14 160 19:25 01.06.2022
3387 Clouds 25 1019 81 8000 5.14 130 17:44 01.06.2022
3388 Clouds 26 1021 80 8000 4.12 120 16:34 01.06.2022
3389 Clouds 23 1017 85 9000 2.06 140 14:54 01.06.2022
3390 Rain 24 1021 89 8000 1.54 100 13:51 01.06.2022
3391 Rain 22 1016 94 9000 1.54 360 12:26 01.06.2022
3392 Rain 20 1014 94 10000 2.06 340 09:41 01.06.2022
3393 Rain 21 1014 88 10000 1.03 350 08:40 01.06.2022
3394 Rain 23 1025 92 10000 1.54 150 07:24 01.06.2022
3395 Clouds 23 1025 94 10000 1.03 120 05:52 01.06.2022
3396 Rain 23 1020 85 10000 3.6 170 00:40 01.06.2022
3397 Clouds 24 1019 82 10000 3.09 160 23:30 31.05.2022
3398 Rain 24 1019 81 10000 4.12 190 22:37 31.05.2022
3399 Clouds 24 1019 83 10000 4.63 180 21:46 31.05.2022
3400 Clouds 24 1018 86 10000 6.17 180 20:45 31.05.2022
3401 Clouds 24 1018 87 10000 6.17 180 20:20 31.05.2022
3402 Clouds 25 1019 83 9000 5.14 160 18:53 31.05.2022
3403 Clouds 25 1019 83 7000 4.12 160 17:50 31.05.2022
3404 Clouds 24 1020 85 7000 5.14 160 16:57 31.05.2022
3405 Clouds 25 1020 84 7000 4.12 150 15:41 31.05.2022
3406 Clouds 24 1015 84 8000 2.57 140 14:18 31.05.2022
3407 Rain 22 1014 92 6000 2.06 30 12:20 31.05.2022
3408 Rain 23 1012 83 10000 2.06 330 10:55 31.05.2022
3409 Clouds 23 1013 83 10000 1.54 260 09:31 31.05.2022
3410 Clouds 22 1013 88 10000 2.06 330 07:25 31.05.2022
3411 Clouds 23 1014 83 10000 3.09 270 05:20 31.05.2022
3412 Clouds 24 1016 85 10000 6.17 180 01:35 31.05.2022
3413 Clouds 24 1014 79 10000 4.63 170 23:27 30.05.2022
3414 Rain 25 1014 77 10000 2.57 150 22:56 30.05.2022
3415 Clouds 27 1014 68 10000 3.09 150 21:59 30.05.2022
3416 Clouds 26 1009 67 10000 3.09 150 21:33 30.05.2022
3417 Clouds 27 1013 65 10000 2.57 160 20:20 30.05.2022
3418 Rain 27 1014 62 10000 2.06 350 18:41 30.05.2022
3419 Clear 27 1015 63 10000 3.09 20 17:38 30.05.2022
3420 Clear 27 1016 62 10000 3.6 40 16:44 30.05.2022
3421 Clear 26 1013 68 10000 5.66 250 14:51 30.05.2022
3422 Clear 22 1011 88 10000 4.63 340 12:29 30.05.2022
3423 Clouds 18 1010 94 8000 1.03 330 10:47 30.05.2022
3424 Clouds 18 1009 94 8000 1.54 360 09:39 30.05.2022
3425 Clear 19 1010 88 10000 1.54 90 07:23 30.05.2022
3426 Clear 20 1010 83 10000 1.54 180 05:50 30.05.2022
3427 Clear 25 1010 65 10000 2.57 100 02:33 30.05.2022
3428 Clear 26 1009 54 10000 2.57 80 23:24 29.05.2022
3429 Clear 26 1009 56 10000 3.09 20 22:39 29.05.2022
3430 Clear 29 1015 45 10000 3.09 60 21:19 29.05.2022
3431 Clear 29 1015 43 10000 4.63 30 19:48 29.05.2022
3432 Clear 29 1015 43 10000 4.63 30 19:27 29.05.2022
3433 Clear 28 1012 42 10000 4.63 50 17:41 29.05.2022
3434 Clear 24 1018 61 10000 3.09 360 15:49 29.05.2022
3435 Clear 24 1019 62 10000 3.09 360 15:28 29.05.2022
3436 Clear 23 1014 73 10000 2.57 10 14:23 29.05.2022
3437 Clear 19 1013 88 10000 2.06 340 11:55 29.05.2022
3438 Clear 16 1013 94 10000 1.03 130 10:44 29.05.2022
3439 Clear 16 1014 88 10000 0.51 0 09:52 29.05.2022
3440 Clear 18 1015 88 10000 1.54 130 06:57 29.05.2022
3441 Clear 22 1015 77 10000 2.57 310 04:50 29.05.2022
3442 Clear 22 1015 77 10000 2.57 310 04:31 29.05.2022
3443 Clear 23 1015 74 10000 2.57 280 00:35 29.05.2022
3444 Clear 23 1014 75 10000 2.57 180 23:42 28.05.2022
3445 Clear 25 1018 65 10000 2.57 170 22:56 28.05.2022
3446 Clear 26 1018 57 10000 2.57 160 21:45 28.05.2022
3447 Clear 28 1018 50 10000 2.57 10 20:40 28.05.2022
3448 Clear 29 1020 42 10000 1.54 280 19:19 28.05.2022
3449 Clear 28 1021 49 10000 2.57 330 18:19 28.05.2022
3450 Clear 27 1020 57 9000 4.12 10 17:30 28.05.2022
3451 Clear 25 1023 68 8000 4.12 360 15:45 28.05.2022
3452 Clear 25 1023 66 8000 4.12 360 15:19 28.05.2022
3453 Clear 20 1017 87 10000 3.09 10 13:27 28.05.2022
3454 Clear 20 1017 87 10000 3.09 10 13:27 28.05.2022
3455 Clear 19 1016 85 10000 3.09 320 12:42 28.05.2022
3456 Clear 20 1016 88 10000 3.09 310 11:28 28.05.2022
3457 Clear 17 1016 94 10000 0.51 0 10:34 28.05.2022
3458 Clear 17 1016 94 10000 0.51 0 09:46 28.05.2022
3459 Clear 20 1026 95 10000 0.51 0 08:21 28.05.2022
3460 Clear 19 1018 88 10000 1.03 0 06:33 28.05.2022
3461 Clear 21 1018 88 10000 2.57 310 04:43 28.05.2022
3462 Clear 23 1023 81 10000 3.6 60 01:46 28.05.2022
3463 Clear 23 1017 81 10000 3.6 180 23:55 27.05.2022
3464 Clear 24 1021 71 10000 4.12 180 22:38 27.05.2022
3465 Clear 24 1021 70 10000 4.12 180 22:38 27.05.2022
3466 Clear 26 1021 65 10000 4.12 180 21:22 27.05.2022
3467 Clear 26 1021 61 10000 4.63 160 20:43 27.05.2022
3468 Clear 26 1021 59 10000 4.63 160 20:18 27.05.2022
3469 Clouds 26 1022 59 10000 4.12 160 19:37 27.05.2022
3470 Clouds 26 1022 58 10000 4.12 160 19:19 27.05.2022
3471 Clear 25 1025 68 10000 2.57 10 16:53 27.05.2022
3472 Clear 24 1026 73 10000 2.57 350 15:55 27.05.2022
3473 Clear 21 1021 84 10000 2.57 350 14:53 27.05.2022
3474 Clear 20 1021 89 10000 2.57 360 13:40 27.05.2022
3475 Clouds 19 1020 88 10000 1.54 340 11:55 27.05.2022
3476 Clouds 19 1020 88 10000 1.54 340 11:30 27.05.2022
3477 Clear 16 1020 94 8000 1.03 350 10:38 27.05.2022
3478 Clear 17 1020 88 10000 1.03 10 09:59 27.05.2022
3479 Clear 17 1020 88 10000 1.03 10 09:29 27.05.2022
3480 Clear 19 1021 88 10000 0 0 07:30 27.05.2022
3481 Clear 22 1021 80 10000 1.03 0 03:59 27.05.2022
3482 Clear 23 1026 80 10000 4.12 100 01:27 27.05.2022
3483 Clear 24 1025 78 10000 3.6 130 23:23 26.05.2022
3484 Clear 26 1024 64 10000 4.12 130 21:57 26.05.2022
3485 Clear 26 1024 63 10000 4.12 130 21:27 26.05.2022
3486 Clear 26 1025 57 10000 4.63 160 19:34 26.05.2022
3487 Clear 26 1025 55 10000 3.09 170 18:51 26.05.2022
3488 Clear 25 1027 58 10000 3.09 170 17:36 26.05.2022
3489 Clear 24 1027 64 10000 2.06 340 16:18 26.05.2022
3490 Clear 24 1028 66 10000 4.12 320 15:28 26.05.2022
3491 Clear 21 1024 77 10000 2.57 340 14:19 26.05.2022
3492 Clear 18 1022 90 10000 2.57 340 12:18 26.05.2022
3493 Clear 19 1022 91 10000 2.57 350 11:20 26.05.2022
3494 Clear 18 1022 88 10000 1.03 100 09:39 26.05.2022
3495 Clear 17 1022 94 10000 1.54 120 08:48 26.05.2022
3496 Clear 18 1023 94 10000 0.51 90 06:47 26.05.2022
3497 Clear 22 1023 75 10000 2.57 70 02:51 26.05.2022
3498 Clouds 23 1021 74 10000 2.57 130 23:57 25.05.2022
3499 Clouds 24 1021 67 10000 3.09 230 22:53 25.05.2022
3500 Clouds 26 1026 57 10000 3.6 180 21:42 25.05.2022
3501 Clouds 26 1026 57 10000 2.57 170 20:49 25.05.2022
3502 Clouds 26 1026 55 10000 3.6 170 19:45 25.05.2022
3503 Clouds 26 1027 59 10000 2.06 330 18:48 25.05.2022
3504 Clouds 26 1028 57 10000 2.06 360 17:26 25.05.2022
3505 Clear 25 1029 60 10000 2.57 320 16:34 25.05.2022
3506 Clear 24 1029 65 10000 3.09 330 15:36 25.05.2022
3507 Clear 22 1025 74 10000 2.57 350 14:50 25.05.2022
3508 Clear 22 1025 74 10000 2.57 350 14:32 25.05.2022
3509 Clear 20 1024 85 10000 2.57 10 13:27 25.05.2022
3510 Clear 19 1025 78 10000 1.46 6 11:51 25.05.2022
3511 Clear 17 1023 94 7000 2.06 330 10:42 25.05.2022
3512 Clear 17 1023 94 8000 2.06 360 09:46 25.05.2022
3513 Clear 19 1023 79 10000 1.98 13 08:22 25.05.2022
3514 Clear 21 1024 81 10000 1.94 20 06:37 25.05.2022
3515 Clear 22 1029 82 10000 4.63 110 02:55 25.05.2022
3516 Clouds 23 1021 73 10000 4.12 80 23:52 24.05.2022
3517 Clouds 24 1021 73 10000 4.12 80 23:23 24.05.2022
3518 Clouds 25 1025 65 10000 3.6 180 22:18 24.05.2022
3519 Clouds 25 1025 63 10000 4.12 170 21:38 24.05.2022
3520 Clouds 25 1025 63 10000 4.12 170 21:19 24.05.2022
3521 Clouds 26 1025 57 10000 4.63 150 19:37 24.05.2022
3522 Clouds 25 1026 57 10000 5.14 140 18:49 24.05.2022
3523 Clear 24 1027 59 10000 2.57 340 16:40 24.05.2022
3524 Clear 24 1027 60 10000 2.57 340 16:18 24.05.2022
3525 Clear 21 1022 74 10000 2.57 330 14:50 24.05.2022
3526 Clear 20 1022 81 10000 2.57 320 13:48 24.05.2022
3527 Clear 17 1021 92 10000 3.09 310 12:46 24.05.2022
3528 Clear 16 1020 88 8000 1.03 0 10:29 24.05.2022
3529 Clear 15 1020 94 10000 1.54 50 09:43 24.05.2022
3530 Clear 16 1020 94 10000 1.03 0 08:49 24.05.2022
3531 Clear 17 1021 88 10000 2.06 80 06:56 24.05.2022
3532 Clear 21 1027 84 10000 1.54 110 03:48 24.05.2022
3533 Clear 22 1026 78 10000 4.63 90 01:50 24.05.2022
3534 Clear 22 1027 79 10000 4.63 90 01:19 24.05.2022
3535 Clouds 24 1019 63 10000 4.12 130 22:51 23.05.2022
3536 Clouds 25 1023 61 10000 4.63 160 21:55 23.05.2022
3537 Clouds 25 1023 63 10000 4.63 160 21:26 23.05.2022
3538 Clouds 25 1023 59 10000 4.63 170 20:29 23.05.2022
3539 Clouds 25 1024 59 10000 4.63 160 19:31 23.05.2022
3540 Clouds 25 1025 58 10000 4.63 130 18:57 23.05.2022
3541 Clouds 25 1025 57 10000 4.63 130 18:29 23.05.2022
3542 Clouds 24 1026 61 10000 3.09 360 17:20 23.05.2022
3543 Clear 20 1022 78 10000 2.06 350 14:52 23.05.2022
3544 Clear 17 1021 91 10000 2.06 20 12:56 23.05.2022
3545 Clouds 18 1020 91 10000 3.09 50 11:31 23.05.2022
3546 Clear 16 1020 94 8000 1.03 10 09:51 23.05.2022
3547 Clear 16 1020 94 8000 1.03 10 09:30 23.05.2022
3548 Clear 16 1020 94 10000 1.54 40 08:31 23.05.2022
3549 Clear 17 1021 88 10000 1.03 100 06:46 23.05.2022
3550 Clear 17 1021 94 10000 1.03 80 05:31 23.05.2022
3551 Clear 21 1021 78 10000 5.14 60 02:32 23.05.2022
3552 Clear 22 1021 72 10000 5.66 90 01:39 23.05.2022
3553 Clear 22 1026 74 10000 3.6 130 00:23 23.05.2022
3554 Clear 23 1020 67 10000 5.66 140 22:40 22.05.2022
3555 Clouds 24 1020 58 10000 4.63 130 21:55 22.05.2022
3556 Clouds 24 1020 58 10000 4.63 130 21:32 22.05.2022
3557 Clouds 24 1024 59 10000 5.66 160 20:32 22.05.2022
3558 Clouds 24 1024 51 10000 4.12 160 19:57 22.05.2022
3559 Clouds 24 1025 60 10000 3.6 160 18:56 22.05.2022
3560 Clouds 24 1025 55 10000 3.6 160 18:25 22.05.2022
3561 Clouds 23 1026 55 10000 2.06 20 17:39 22.05.2022
3562 Clear 22 1027 65 10000 2.57 10 16:50 22.05.2022
3563 Mist 19 1024 82 5000 3.6 10 14:53 22.05.2022
3564 Clouds 18 1024 91 7000 3.6 330 13:56 22.05.2022
3565 Fog 17 1023 93 9000 3.09 320 12:52 22.05.2022
3566 Clouds 17 1022 91 9000 2.57 360 11:52 22.05.2022
3567 Clear 15 1022 88 7000 1.54 40 10:27 22.05.2022
3568 Clear 15 1021 88 10000 1.03 20 09:19 22.05.2022
3569 Clear 16 1022 88 10000 1.03 140 07:22 22.05.2022
3570 Clear 16 1023 88 10000 1.03 110 06:40 22.05.2022
3571 Clouds 19 1023 85 10000 1.54 30 03:20 22.05.2022
3572 Clouds 21 1028 80 10000 5.14 130 00:48 22.05.2022
3573 Clouds 21 1022 76 10000 5.66 140 23:56 21.05.2022
3574 Clouds 21 1027 78 10000 5.66 140 23:22 21.05.2022
3575 Clouds 22 1026 68 10000 5.14 160 21:59 21.05.2022
3576 Clouds 22 1026 68 10000 5.14 160 21:34 21.05.2022
3577 Clouds 23 1025 61 10000 5.14 240 20:34 21.05.2022
3578 Clouds 24 1027 57 10000 4.63 240 19:44 21.05.2022
3579 Clouds 24 1026 54 10000 3.09 170 18:54 21.05.2022
3580 Clouds 22 1028 66 10000 2.57 360 16:57 21.05.2022
3581 Clouds 19 1024 79 10000 3.6 360 14:49 21.05.2022
3582 Clouds 18 1023 90 10000 3.6 30 13:55 21.05.2022
3583 Clouds 18 1023 90 10000 3.6 30 13:25 21.05.2022
3584 Clear 17 1028 89 10000 2.57 320 12:39 21.05.2022
3585 Clouds 16 1022 91 10000 2.57 310 11:38 21.05.2022
3586 Clouds 15 1020 94 8000 2.57 340 10:21 21.05.2022
3587 Clear 15 1021 94 8000 1.54 350 08:59 21.05.2022
3588 Clear 15 1021 94 8000 1.54 350 08:38 21.05.2022
3589 Clouds 19 1022 77 10000 1.61 287 06:20 21.05.2022
3590 Clouds 19 1022 80 10000 2.06 300 01:42 21.05.2022
3591 Clouds 20 1020 72 10000 2.57 290 23:35 20.05.2022
3592 Clouds 20 1020 71 10000 4.12 240 22:40 20.05.2022
3593 Clouds 21 1020 70 10000 3.6 300 21:58 20.05.2022
3594 Clouds 21 1024 70 10000 3.6 300 21:19 20.05.2022
3595 Clouds 20 1024 76 10000 6.17 240 20:47 20.05.2022
3596 Clouds 21 1024 74 10000 6.69 200 19:47 20.05.2022
3597 Clouds 22 1024 63 10000 5.14 320 18:53 20.05.2022
3598 Clouds 22 1024 62 10000 5.14 320 18:18 20.05.2022
3599 Clouds 21 1024 61 10000 7.72 260 16:27 20.05.2022
3600 Clouds 20 1020 61 10000 5.66 260 15:54 20.05.2022
3601 Clouds 20 1020 61 10000 5.66 260 15:20 20.05.2022
3602 Clouds 20 1020 62 10000 4.63 300 14:27 20.05.2022
3603 Clouds 17 1019 76 10000 3.6 290 12:37 20.05.2022
3604 Clouds 17 1016 67 10000 3.09 280 10:48 20.05.2022
3605 Clouds 18 1016 63 10000 3.09 290 09:31 20.05.2022
3606 Clouds 18 1017 68 10000 3.6 300 08:27 20.05.2022
3607 Clouds 19 1017 59 10000 4.12 270 06:43 20.05.2022
3608 Clouds 19 1017 59 10000 6.69 270 05:40 20.05.2022
3609 Clouds 19 1016 67 10000 7.72 250 02:52 20.05.2022
3610 Clouds 20 1014 60 10000 8.75 280 23:47 19.05.2022
3611 Clouds 20 1013 59 10000 9.26 230 22:37 19.05.2022
3612 Clouds 20 1012 62 10000 6.69 280 21:51 19.05.2022
3613 Clouds 20 1012 62 10000 6.69 280 21:24 19.05.2022
3614 Clouds 20 1017 68 7000 6.69 230 20:53 19.05.2022
3615 Haze 21 1016 58 4500 9.26 250 19:57 19.05.2022
3616 Clouds 21 1016 54 10000 9.26 250 19:19 19.05.2022
3617 Clear 23 1011 43 10000 8.75 250 17:47 19.05.2022
3618 Clear 22 1011 45 10000 10.29 260 16:22 19.05.2022
3619 Clear 20 1011 47 10000 8.23 290 14:50 19.05.2022
3620 Clear 20 1011 48 10000 8.23 290 14:21 19.05.2022
3621 Clear 20 1011 48 10000 8.23 290 14:21 19.05.2022
3622 Clear 17 1010 49 10000 5.66 280 12:19 19.05.2022
3623 Clear 16 1009 51 10000 6.17 280 10:31 19.05.2022
3624 Clear 16 1009 48 10000 6.17 270 08:51 19.05.2022
3625 Clear 17 1009 45 10000 5.66 280 07:33 19.05.2022
3626 Clear 19 1009 45 10000 6.69 310 04:23 19.05.2022
3627 Clear 20 1008 54 10000 3.6 290 01:38 19.05.2022
3628 Clear 21 1008 47 10000 6.17 230 23:49 18.05.2022
3629 Clear 22 1007 36 10000 6.17 210 22:45 18.05.2022
3630 Clear 22 1006 32 10000 6.69 300 21:45 18.05.2022
3631 Clear 22 1006 33 10000 6.69 300 21:24 18.05.2022
3632 Clear 24 1011 26 10000 6.17 290 20:23 18.05.2022
3633 Clear 23 1006 26 10000 6.17 300 19:32 18.05.2022
3634 Clear 23 1007 25 10000 7.72 290 18:20 18.05.2022
3635 Clear 23 1012 29 10000 7.2 310 17:41 18.05.2022
3636 Clear 22 1008 29 10000 7.2 310 17:22 18.05.2022
3637 Clear 20 1010 33 10000 6.17 290 15:59 18.05.2022
3638 Clear 20 1010 33 10000 6.17 290 15:38 18.05.2022
3639 Clear 19 1010 35 10000 6.69 270 14:30 18.05.2022
3640 Clear 19 1010 35 10000 6.69 270 14:30 18.05.2022
3641 Clouds 17 1009 46 10000 7.72 240 12:59 18.05.2022
3642 Clouds 17 1009 46 10000 7.72 240 12:39 18.05.2022
3643 Clouds 18 1008 45 10000 7.72 210 11:34 18.05.2022
3644 Clouds 18 1010 82 10000 2.57 260 10:52 18.05.2022
3645 Clouds 18 1010 82 10000 2.57 230 08:29 18.05.2022
3646 Clouds 18 1010 88 10000 2.06 250 07:28 18.05.2022
3647 Clouds 19 1011 82 10000 2.57 270 05:21 18.05.2022
3648 Clouds 21 1011 72 10000 4.63 210 00:52 18.05.2022
3649 Clouds 21 1011 72 10000 4.63 210 00:52 18.05.2022
3650 Clouds 21 1011 72 10000 4.63 210 00:18 18.05.2022
3651 Clouds 22 1010 71 10000 6.17 200 21:36 17.05.2022
3652 Clouds 22 1010 71 10000 6.17 200 21:18 17.05.2022
3653 Clouds 24 1010 67 10000 8.23 200 19:49 17.05.2022
3654 Clouds 24 1010 67 10000 8.23 200 19:26 17.05.2022
3655 Clouds 25 1012 70 9000 5.66 200 17:49 17.05.2022
3656 Clouds 25 1012 71 9000 4.12 260 16:58 17.05.2022
3657 Clouds 25 1012 71 9000 4.12 260 16:29 17.05.2022
3658 Clouds 24 1013 73 10000 3.6 240 15:24 17.05.2022
3659 Clouds 22 1014 84 10000 3.09 350 14:30 17.05.2022
3660 Clouds 22 1014 84 10000 3.09 350 14:30 17.05.2022
3661 Clouds 22 1014 84 10000 3.09 350 14:30 17.05.2022
3662 Clouds 22 1013 84 10000 3.6 330 13:32 17.05.2022
3663 Clouds 21 1011 88 10000 2.57 280 11:21 17.05.2022
3664 Clouds 21 1012 88 10000 1.03 240 09:23 17.05.2022
3665 Clouds 21 1013 88 10000 1.54 310 08:23 17.05.2022
3666 Clouds 21 1013 83 10000 1.54 270 06:45 17.05.2022
3667 Clouds 22 1013 88 10000 2.57 290 02:55 17.05.2022
3668 Clouds 21 1013 88 8000 3.09 210 00:36 17.05.2022
3669 Mist 22 1012 89 10000 4.12 200 22:42 16.05.2022
3670 Mist 23 1017 86 1000 5.14 230 21:37 16.05.2022
3671 Mist 24 1016 83 1000 9.26 200 20:46 16.05.2022
3672 Clouds 25 1012 76 10000 5.14 180 19:22 16.05.2022
3673 Clouds 26 1018 71 10000 3.09 170 18:20 16.05.2022
3674 Clouds 24 1014 77 10000 3.09 360 15:49 16.05.2022
3675 Clear 23 1013 85 10000 3.09 360 13:49 16.05.2022
3676 Clear 23 1013 86 10000 3.09 360 13:23 16.05.2022
3677 Clear 22 1011 88 10000 1.03 40 11:20 16.05.2022
3678 Clear 21 1011 88 10000 1.54 320 09:30 16.05.2022
3679 Clouds 20 1009 94 10000 1.03 100 06:47 16.05.2022
3680 Clear 26 1010 61 10000 3.09 300 03:58 16.05.2022
3681 Clouds 24 1009 78 10000 2.57 340 23:30 15.05.2022
3682 Clouds 24 1009 76 10000 3.6 300 22:30 15.05.2022
3683 Clouds 24 1009 77 10000 3.6 320 21:46 15.05.2022
3684 Clouds 24 1009 76 10000 4.63 350 20:54 15.05.2022
3685 Clouds 23 1010 81 10000 4.12 340 19:33 15.05.2022
3686 Rain 23 1013 83 6000 2.57 340 17:51 15.05.2022
3687 Rain 23 1015 76 10000 3.09 260 16:29 15.05.2022
3688 Rain 21 1014 85 10000 3.6 20 13:58 15.05.2022
3689 Rain 20 1014 87 10000 3.09 40 12:50 15.05.2022
3690 Clouds 20 1013 88 10000 1.03 340 11:39 15.05.2022
3691 Clouds 19 1013 88 10000 2.06 80 10:27 15.05.2022
3692 Clouds 19 1014 88 10000 2.57 110 08:45 15.05.2022
3693 Clouds 20 1014 83 10000 2.06 130 06:58 15.05.2022
3694 Clouds 21 1015 83 10000 3.09 110 05:47 15.05.2022
3695 Clouds 24 1016 73 10000 4.12 120 00:49 15.05.2022
3696 Clouds 24 1015 72 10000 5.14 120 23:39 14.05.2022
3697 Clouds 24 1015 74 10000 6.17 120 22:59 14.05.2022
3698 Clouds 25 1015 69 10000 6.17 140 21:29 14.05.2022
3699 Clouds 25 1015 66 10000 6.69 150 20:53 14.05.2022
3700 Clouds 26 1015 66 10000 5.14 150 19:39 14.05.2022
3701 Clouds 26 1015 66 10000 5.14 150 19:19 14.05.2022
3702 Clouds 25 1016 68 10000 5.66 160 18:46 14.05.2022
3703 Clouds 25 1018 67 10000 3.09 100 16:56 14.05.2022
3704 Clouds 24 1020 76 10000 2.06 340 15:33 14.05.2022
3705 Clouds 24 1020 77 10000 1.54 340 14:34 14.05.2022
3706 Clouds 21 1019 88 10000 2.06 50 12:34 14.05.2022
3707 Clouds 22 1018 85 10000 2.06 50 11:36 14.05.2022
3708 Clouds 21 1018 94 10000 2.06 80 10:22 14.05.2022
3709 Clouds 22 1028 95 10000 1.03 70 09:54 14.05.2022
3710 Clouds 21 1018 88 10000 2.57 100 08:49 14.05.2022
3711 Clouds 22 1019 88 6000 1.54 0 06:47 14.05.2022
3712 Clouds 23 1019 81 10000 2.57 120 03:27 14.05.2022
3713 Clouds 24 1018 74 10000 4.63 160 23:45 13.05.2022
3714 Clouds 24 1023 76 10000 4.63 160 23:22 13.05.2022
3715 Clouds 24 1022 78 10000 4.12 170 22:51 13.05.2022
3716 Clouds 24 1023 79 10000 4.12 170 22:19 13.05.2022
3717 Clouds 25 1021 75 10000 5.66 150 20:49 13.05.2022
3718 Clouds 25 1021 75 10000 5.66 150 20:27 13.05.2022
3719 Clouds 25 1021 71 10000 6.17 130 19:40 13.05.2022
3720 Clouds 26 1022 70 10000 5.14 120 18:41 13.05.2022
3721 Clouds 25 1023 71 10000 4.12 130 17:29 13.05.2022
3722 Clouds 25 1024 72 10000 3.6 20 16:23 13.05.2022
3723 Clouds 25 1019 76 10000 2.57 50 15:43 13.05.2022
3724 Clouds 23 1018 86 10000 3.6 20 13:57 13.05.2022
3725 Clouds 22 1017 87 10000 1.54 320 12:46 13.05.2022
3726 Clouds 22 1016 85 10000 1.54 330 11:29 13.05.2022
3727 Clouds 21 1016 88 10000 2.06 310 09:43 13.05.2022
3728 Clouds 21 1016 88 10000 1.54 310 08:51 13.05.2022
3729 Clouds 21 1016 88 10000 1.54 290 07:49 13.05.2022
3730 Clouds 21 1016 88 10000 2.57 320 06:44 13.05.2022
3731 Clouds 23 1016 77 10000 3.09 320 04:48 13.05.2022
3732 Clouds 24 1015 75 10000 2.57 230 00:42 13.05.2022
3733 Clouds 24 1014 76 10000 4.63 230 22:47 12.05.2022
3734 Clouds 24 1014 76 10000 4.63 230 22:29 12.05.2022
3735 Clouds 24 1014 76 10000 5.66 200 20:41 12.05.2022
3736 Clouds 24 1014 75 10000 5.14 200 19:24 12.05.2022
3737 Clouds 24 1014 74 9000 6.17 220 18:19 12.05.2022
3738 Clouds 24 1020 85 6000 3.09 220 16:39 12.05.2022
3739 Clouds 23 1015 89 8000 3.09 250 14:52 12.05.2022
3740 Clouds 23 1020 93 8000 2.06 340 13:48 12.05.2022
3741 Mist 23 1012 85 10000 5.14 230 11:48 12.05.2022
3742 Clouds 22 1012 88 8000 3.09 220 10:32 12.05.2022
3743 Clear 24 1011 78 10000 3.09 210 08:52 12.05.2022
3744 Clear 24 1011 78 10000 3.09 210 08:52 12.05.2022
3745 Clear 24 1011 78 10000 3.09 210 08:52 12.05.2022
3746 Clear 24 1011 78 10000 3.09 210 08:52 12.05.2022
3747 Clear 24 1011 78 10000 3.09 210 08:52 12.05.2022
3748 Rain 25 1012 73 10000 4.12 240 07:58 12.05.2022
3749 Clear 25 1012 73 10000 4.12 250 06:58 12.05.2022
3750 Clear 24 1010 80 10000 2.57 340 03:50 12.05.2022
3751 Rain 25 1010 80 10000 1.03 60 01:29 12.05.2022
3752 Clear 27 1010 71 10000 2.57 60 22:59 11.05.2022
3753 Clear 27 1010 71 10000 2.57 60 22:18 11.05.2022
3754 Clear 28 1014 65 10000 3.09 350 21:24 11.05.2022
3755 Clear 28 1014 62 10000 3.09 10 20:20 11.05.2022
3756 Clear 26 1017 69 10000 3.09 340 17:33 11.05.2022
3757 Clear 25 1018 74 10000 3.09 10 16:19 11.05.2022
3758 Clouds 22 1014 84 10000 3.09 340 14:48 11.05.2022
3759 Clouds 22 1014 84 10000 3.09 340 14:25 11.05.2022
3760 Clouds 21 1014 92 10000 2.57 10 12:54 11.05.2022
3761 Clouds 20 1013 94 10000 2.57 10 11:48 11.05.2022
3762 Clouds 19 1014 94 10000 0.51 0 09:29 11.05.2022
3763 Clouds 20 1016 88 10000 1.03 120 06:36 11.05.2022
3764 Clouds 23 1016 78 10000 4.12 80 02:18 11.05.2022
3765 Clouds 24 1015 75 10000 5.66 110 22:58 10.05.2022
3766 Clouds 24 1015 75 10000 5.66 110 22:58 10.05.2022
3767 Clouds 24 1020 76 10000 5.66 110 22:30 10.05.2022
3768 Clouds 25 1015 71 10000 4.12 130 21:40 10.05.2022
3769 Clouds 25 1020 71 10000 4.63 160 20:34 10.05.2022
3770 Clouds 26 1021 63 10000 3.09 60 18:57 10.05.2022
3771 Clouds 25 1022 63 10000 3.09 350 17:38 10.05.2022
3772 Clouds 24 1023 70 10000 2.06 340 16:35 10.05.2022
3773 Clouds 20 1019 86 10000 3.09 320 13:37 10.05.2022
3774 Clouds 19 1018 88 10000 2.06 340 11:54 10.05.2022
3775 Clouds 19 1018 88 10000 2.06 340 11:34 10.05.2022
3776 Clouds 19 1018 88 10000 2.57 330 10:56 10.05.2022
3777 Clear 18 1019 82 8000 1.54 330 09:47 10.05.2022
3778 Clear 18 1019 88 10000 1.54 340 08:22 10.05.2022
3779 Clear 18 1020 88 10000 1.03 300 06:20 10.05.2022
3780 Clouds 22 1020 70 10000 3.09 120 02:23 10.05.2022
3781 Clouds 23 1019 70 10000 4.63 150 23:53 09.05.2022
3782 Clouds 24 1019 63 10000 4.63 150 22:41 09.05.2022
3783 Clouds 24 1024 63 10000 4.63 140 21:42 09.05.2022
3784 Clouds 25 1024 61 10000 4.63 160 20:21 09.05.2022
3785 Clouds 26 1025 55 10000 3.6 160 18:29 09.05.2022
3786 Clouds 26 1025 58 10000 2.57 30 17:27 09.05.2022
3787 Clouds 25 1026 71 10000 2.57 340 16:21 09.05.2022
3788 Clouds 24 1027 77 10000 2.06 340 15:47 09.05.2022
3789 Clouds 22 1021 81 10000 2.57 340 14:41 09.05.2022
3790 Clouds 21 1021 87 10000 2.57 310 13:59 09.05.2022
3791 Clouds 21 1021 87 10000 2.57 310 13:32 09.05.2022
3792 Clouds 20 1019 88 10000 2.57 10 11:53 09.05.2022
3793 Clouds 19 1020 88 10000 1.03 0 10:50 09.05.2022
3794 Clouds 19 1020 88 10000 1.03 0 10:26 09.05.2022
3795 Clouds 20 1020 88 10000 2.06 340 07:57 09.05.2022
3796 Clouds 20 1021 88 10000 2.06 30 06:42 09.05.2022
3797 Clouds 22 1021 80 10000 2.57 120 02:37 09.05.2022
3798 Clouds 22 1021 80 10000 2.57 120 02:37 09.05.2022
3799 Clouds 22 1021 80 10000 2.57 120 02:37 09.05.2022
3800 Clouds 22 1021 80 10000 2.57 120 02:37 09.05.2022
3801 Clouds 23 1020 75 10000 4.63 140 23:29 08.05.2022
3802 Clouds 23 1019 76 10000 5.14 140 22:42 08.05.2022
3803 Clouds 23 1024 81 10000 6.17 140 21:37 08.05.2022
3804 Clouds 24 1024 75 10000 6.17 140 20:31 08.05.2022
3805 Clouds 24 1024 76 10000 6.69 140 19:37 08.05.2022
3806 Clouds 24 1025 79 10000 4.12 150 18:49 08.05.2022
3807 Clouds 25 1025 73 10000 2.57 360 17:45 08.05.2022
3808 Clouds 24 1026 73 10000 3.09 350 16:30 08.05.2022
3809 Clouds 23 1022 81 10000 3.6 340 15:25 08.05.2022
3810 Clouds 21 1022 89 8000 2.57 330 14:23 08.05.2022
3811 Clouds 21 1020 86 8000 1.03 310 11:53 08.05.2022
3812 Clouds 20 1019 83 10000 1.03 300 10:27 08.05.2022
3813 Clouds 20 1019 83 10000 1.03 320 09:54 08.05.2022
3814 Clouds 20 1020 88 10000 1.03 0 08:37 08.05.2022
3815 Clouds 21 1020 78 10000 1.54 280 06:31 08.05.2022
3816 Clouds 23 1021 73 10000 1.54 260 03:23 08.05.2022
3817 Clouds 23 1021 71 10000 2.57 210 01:25 08.05.2022
3818 Clouds 24 1020 71 10000 2.57 270 00:20 08.05.2022
3819 Clouds 23 1021 73 10000 2.57 240 23:41 07.05.2022
3820 Clouds 23 1020 71 10000 4.12 210 22:46 07.05.2022
3821 Clouds 24 1020 73 10000 5.14 200 21:57 07.05.2022
3822 Clouds 24 1020 73 10000 5.14 200 21:32 07.05.2022
3823 Clouds 24 1020 69 10000 3.6 200 20:27 07.05.2022
3824 Clouds 25 1025 69 10000 4.12 180 18:59 07.05.2022
3825 Clouds 24 1026 78 10000 3.6 180 17:31 07.05.2022
3826 Clouds 24 1023 73 10000 2.57 320 15:18 07.05.2022
3827 Clouds 20 1021 85 10000 2.57 310 12:23 07.05.2022
3828 Clouds 19 1020 82 10000 2.57 350 10:23 07.05.2022
3829 Clear 19 1021 82 10000 2.06 320 08:37 07.05.2022
3830 Clear 20 1021 77 10000 2.57 300 07:37 07.05.2022
3831 Clear 20 1021 83 10000 3.09 310 06:42 07.05.2022
3832 Clear 22 1021 75 10000 2.57 270 04:21 07.05.2022
3833 Clouds 23 1020 66 10000 3.09 220 00:50 07.05.2022
3834 Clouds 24 1020 62 10000 5.14 210 22:55 06.05.2022
3835 Clouds 24 1020 62 10000 5.14 210 22:21 06.05.2022
3836 Clouds 25 1020 59 10000 5.66 190 21:36 06.05.2022
3837 Clouds 26 1024 54 10000 5.14 190 20:18 06.05.2022
3838 Clouds 26 1024 57 10000 5.66 220 19:28 06.05.2022
3839 Clouds 26 1024 58 10000 6.69 210 18:49 06.05.2022
3840 Clouds 25 1020 60 10000 5.66 220 17:38 06.05.2022
3841 Clouds 25 1021 57 10000 4.63 220 15:56 06.05.2022
3842 Clouds 25 1021 57 10000 4.63 220 15:33 06.05.2022
3843 Clouds 23 1021 70 10000 5.14 270 14:22 06.05.2022
3844 Clouds 22 1019 76 10000 4.12 250 12:52 06.05.2022
3845 Clouds 22 1019 76 10000 4.12 250 12:20 06.05.2022
3846 Clouds 23 1018 78 10000 3.09 250 11:33 06.05.2022
3847 Clouds 21 1018 83 10000 2.06 270 09:48 06.05.2022
3848 Clouds 21 1018 83 10000 2.06 270 09:19 06.05.2022
3849 Clouds 22 1018 78 10000 3.09 250 07:56 06.05.2022
3850 Clouds 22 1018 78 10000 3.09 250 06:28 06.05.2022
3851 Clouds 24 1018 71 10000 3.09 230 04:32 06.05.2022
3852 Clouds 24 1017 73 10000 2.57 240 02:40 06.05.2022
3853 Clouds 25 1015 67 10000 6.69 210 23:25 05.05.2022
3854 Clouds 27 1014 51 10000 7.72 210 21:51 05.05.2022
3855 Clouds 28 1013 48 10000 6.17 200 20:48 05.05.2022
3856 Clouds 29 1017 47 10000 6.17 230 19:42 05.05.2022
3857 Clouds 28 1017 62 10000 5.14 240 16:51 05.05.2022
3858 Clouds 27 1018 67 10000 5.14 270 15:52 05.05.2022
3859 Clouds 25 1013 81 9000 5.14 260 14:37 05.05.2022
3860 Mist 25 1012 86 8000 2.06 260 13:18 05.05.2022
3861 Mist 24 1011 94 9000 2.06 320 11:48 05.05.2022
3862 Clouds 23 1010 94 7000 1.54 150 10:28 05.05.2022
3863 Clouds 23 1010 94 7000 1.54 120 09:32 05.05.2022
3864 Clouds 24 1020 97 8000 3.09 160 07:19 05.05.2022
3865 Clouds 24 1017 98 10000 3.6 210 02:33 05.05.2022
3866 Mist 24 1016 97 5000 4.12 200 01:47 05.05.2022
3867 Mist 25 1016 89 2000 3.09 20 01:20 05.05.2022
3868 Clouds 25 1014 94 10000 4.12 180 23:28 04.05.2022
3869 Clouds 26 1013 92 10000 3.09 210 22:25 04.05.2022
3870 Mist 26 1013 89 4000 4.63 180 21:48 04.05.2022
3871 Mist 26 1009 86 4000 4.63 180 21:26 04.05.2022
3872 Clouds 28 1012 73 10000 9.26 170 20:22 04.05.2022
3873 Clouds 30 1011 68 10000 8.75 190 19:51 04.05.2022
3874 Clouds 33 1011 52 10000 4.12 350 18:49 04.05.2022
3875 Clouds 33 1011 52 10000 4.12 350 18:20 04.05.2022
3876 Clear 32 1013 47 10000 3.09 360 17:28 04.05.2022
3877 Clear 31 1013 53 10000 2.57 20 15:38 04.05.2022
3878 Clear 29 1009 59 10000 2.57 20 14:59 04.05.2022
3879 Clear 28 1009 59 10000 2.06 50 14:20 04.05.2022
3880 Clear 26 1009 76 10000 3.09 50 13:18 04.05.2022
3881 Clear 24 1009 89 10000 2.06 130 12:29 04.05.2022
3882 Clear 23 1008 83 10000 0 0 10:40 04.05.2022
3883 Clear 24 1008 78 10000 1.54 170 09:38 04.05.2022
3884 Clear 23 1009 88 10000 1.54 210 08:33 04.05.2022
3885 Clear 24 1010 83 10000 1.54 100 05:53 04.05.2022
3886 Clear 27 1010 72 10000 3.09 120 02:49 04.05.2022
3887 Clear 27 1010 75 10000 4.63 180 23:41 03.05.2022
3888 Clear 30 1009 60 10000 3.09 160 22:20 03.05.2022
3889 Clear 31 1009 55 10000 2.06 30 21:36 03.05.2022
3890 Clear 32 1013 44 10000 2.57 110 20:53 03.05.2022
3891 Clear 32 1013 45 10000 3.09 90 19:45 03.05.2022
3892 Clouds 32 1014 50 10000 3.6 150 18:50 03.05.2022
3893 Clouds 32 1014 50 10000 3.6 150 18:50 03.05.2022
3894 Clouds 30 1015 58 10000 2.57 30 17:45 03.05.2022
3895 Clouds 29 1017 62 10000 3.09 20 16:37 03.05.2022
3896 Clouds 27 1013 73 10000 2.06 330 15:32 03.05.2022
3897 Clouds 24 1013 89 10000 2.57 360 12:47 03.05.2022
3898 Clouds 24 1013 89 10000 2.57 360 12:27 03.05.2022
3899 Clouds 24 1013 88 10000 1.54 330 10:57 03.05.2022
3900 Clouds 24 1023 93 10000 1.03 30 09:21 03.05.2022
3901 Clouds 24 1014 78 10000 1.54 120 06:46 03.05.2022
3902 Clouds 25 1024 87 10000 2.06 110 05:58 03.05.2022
3903 Clouds 25 1020 90 10000 4.63 170 00:32 03.05.2022
3904 Clouds 26 1018 90 10000 5.14 160 22:36 02.05.2022
3905 Clouds 26 1017 88 10000 5.14 150 21:52 02.05.2022
3906 Clouds 27 1017 86 10000 6.69 130 20:51 02.05.2022
3907 Clouds 28 1017 78 10000 5.66 160 18:40 02.05.2022
3908 Clouds 28 1017 78 10000 5.66 160 18:21 02.05.2022
3909 Clouds 28 1018 72 10000 5.66 160 17:37 02.05.2022
3910 Clouds 29 1019 68 10000 3.6 160 16:22 02.05.2022
3911 Clouds 27 1015 74 10000 2.06 30 15:30 02.05.2022
3912 Clear 25 1014 81 10000 2.57 360 13:51 02.05.2022
3913 Clear 23 1014 92 10000 2.57 340 12:19 02.05.2022
3914 Clear 21 1013 94 10000 2.06 350 10:47 02.05.2022
3915 Clear 22 1013 88 10000 1.03 320 09:29 02.05.2022
3916 Clear 23 1013 88 10000 0 0 07:51 02.05.2022
3917 Clouds 25 1013 91 10000 2.06 10 03:53 02.05.2022
3918 Clear 26 1017 79 10000 2.57 300 00:24 02.05.2022
3919 Clear 27 1011 66 10000 2.57 90 23:52 01.05.2022
3920 Clear 28 1010 67 10000 3.09 60 22:33 01.05.2022
3921 Clear 29 1015 61 10000 2.57 40 21:22 01.05.2022
3922 Clear 28 1015 67 10000 2.57 20 19:53 01.05.2022
3923 Clear 28 1016 68 10000 2.57 100 18:58 01.05.2022
3924 Clear 28 1016 67 10000 2.57 100 18:39 01.05.2022
3925 Clear 26 1017 75 9000 3.09 30 17:38 01.05.2022
3926 Clouds 25 1019 80 8000 3.6 330 16:23 01.05.2022
3927 Clouds 24 1020 86 6000 3.09 10 15:36 01.05.2022
3928 Mist 22 1015 92 6000 2.06 40 13:47 01.05.2022
3929 Mist 22 1014 94 4000 3.09 20 11:28 01.05.2022
3930 Clouds 21 1015 94 8000 1.03 10 09:32 01.05.2022
3931 Clouds 21 1015 94 8000 1.03 110 08:42 01.05.2022
3932 Clouds 22 1017 94 10000 1.54 350 03:44 01.05.2022
3933 Clouds 22 1018 92 10000 2.57 330 00:29 01.05.2022
3934 Clouds 22 1017 94 6000 5.14 310 21:51 30.04.2022
3935 Clouds 22 1016 94 6000 5.14 310 21:18 30.04.2022
3936 Mist 24 1017 87 8000 6.17 140 19:42 30.04.2022
3937 Mist 24 1017 90 10000 4.12 110 18:28 30.04.2022
3938 Mist 23 1019 89 10000 4.12 120 16:50 30.04.2022
3939 Mist 24 1024 92 10000 4.63 110 15:48 30.04.2022
3940 Mist 23 1024 96 9000 4.12 90 14:53 30.04.2022
3941 Mist 23 1023 92 9000 5.14 140 13:20 30.04.2022
3942 Rain 23 1023 93 10000 2.57 200 11:34 30.04.2022
3943 Mist 21 1016 94 5000 2.57 250 10:49 30.04.2022
3944 Mist 21 1016 100 4000 2.57 290 09:48 30.04.2022
3945 Rain 23 1017 94 5000 2.57 250 07:31 30.04.2022
3946 Mist 25 1018 88 10000 3.6 200 03:34 30.04.2022
3947 Clouds 27 1017 79 10000 6.17 190 23:53 29.04.2022
3948 Clouds 28 1021 74 10000 5.66 220 22:34 29.04.2022
3949 Clouds 29 1020 67 10000 5.66 210 21:54 29.04.2022
3950 Clouds 30 1020 61 10000 6.69 230 20:51 29.04.2022
3951 Clouds 30 1020 60 10000 7.2 210 19:48 29.04.2022
3952 Clouds 31 1020 58 10000 6.69 210 18:47 29.04.2022
3953 Clouds 30 1020 64 10000 6.69 290 17:26 29.04.2022
3954 Clear 29 1021 65 10000 5.66 320 15:52 29.04.2022
3955 Clear 27 1015 71 10000 3.6 360 14:34 29.04.2022
3956 Clear 25 1015 79 10000 3.6 340 13:27 29.04.2022
3957 Clear 23 1014 91 10000 3.6 350 11:51 29.04.2022
3958 Clear 22 1014 88 10000 1.54 10 09:23 29.04.2022
3959 Clear 23 1014 88 10000 1.54 40 07:42 29.04.2022
3960 Clear 23 1014 88 10000 1.54 40 07:23 29.04.2022
3961 Clear 24 1015 83 10000 1.54 350 05:55 29.04.2022
3962 Clear 28 1014 66 10000 3.6 190 00:47 29.04.2022
3963 Clear 28 1014 67 10000 3.6 190 23:49 28.04.2022
3964 Clear 30 1013 55 10000 4.12 190 22:45 28.04.2022
3965 Clear 32 1017 51 10000 3.6 160 21:55 28.04.2022
3966 Clear 32 1017 49 10000 3.6 160 21:29 28.04.2022
3967 Clear 31 1017 51 10000 4.63 160 20:41 28.04.2022
3968 Clear 31 1017 52 10000 3.6 140 19:49 28.04.2022
3969 Clear 31 1017 52 10000 3.6 140 19:23 28.04.2022
3970 Clear 31 1017 51 10000 3.6 30 18:38 28.04.2022
3971 Clear 32 1018 49 10000 4.12 340 17:32 28.04.2022
3972 Clear 31 1019 55 10000 4.12 30 16:49 28.04.2022
3973 Clear 31 1019 56 10000 4.12 30 16:19 28.04.2022
3974 Clear 30 1020 59 10000 3.6 30 15:41 28.04.2022
3975 Clear 27 1015 69 10000 2.57 40 14:47 28.04.2022
3976 Clear 25 1015 78 10000 2.57 320 13:23 28.04.2022
3977 Clear 24 1014 83 10000 3.09 10 12:28 28.04.2022
3978 Clear 21 1014 94 10000 1.03 0 10:51 28.04.2022
3979 Clear 21 1014 94 10000 1.03 0 10:26 28.04.2022
3980 Clear 22 1014 88 10000 1.03 80 09:43 28.04.2022
3981 Clear 23 1015 88 10000 1.03 30 07:40 28.04.2022
3982 Clear 23 1015 88 10000 1.03 50 06:38 28.04.2022
3983 Clear 23 1015 88 10000 1.03 60 05:40 28.04.2022
3984 Clear 26 1015 83 10000 2.06 330 04:42 28.04.2022
3985 Clear 26 1020 84 10000 4.63 180 00:51 28.04.2022
3986 Clear 27 1019 76 10000 4.63 170 23:18 27.04.2022
3987 Clouds 29 1018 61 10000 5.66 170 21:58 27.04.2022
3988 Clouds 29 1018 60 10000 5.66 170 21:32 27.04.2022
3989 Clouds 29 1017 63 10000 5.14 170 20:44 27.04.2022
3990 Clouds 28 1018 72 10000 6.17 160 19:41 27.04.2022
3991 Clouds 28 1018 72 10000 6.17 160 19:22 27.04.2022
3992 Clouds 28 1018 72 10000 6.17 160 19:22 27.04.2022
3993 Clouds 28 1018 73 10000 6.17 160 18:38 27.04.2022
3994 Clear 28 1019 73 10000 5.66 150 17:41 27.04.2022
3995 Haze 28 1020 72 10000 2.57 360 15:56 27.04.2022
3996 Mist 23 1014 95 7000 3.6 350 12:50 27.04.2022
3997 Clouds 23 1013 97 7000 3.6 360 11:23 27.04.2022
3998 Clouds 23 1014 94 8000 1.03 110 10:27 27.04.2022
3999 Clear 23 1014 88 10000 2.06 50 07:53 27.04.2022
4000 Clear 23 1015 88 10000 0 0 06:41 27.04.2022
4001 Clear 26 1020 86 10000 2.06 120 02:26 27.04.2022
4002 Clear 26 1020 84 10000 2.57 100 01:21 27.04.2022
4003 Clear 26 1014 82 10000 3.6 190 00:27 27.04.2022
4004 Clear 26 1018 84 10000 4.63 180 23:24 26.04.2022
4005 Clear 27 1018 77 10000 4.63 170 22:44 26.04.2022
4006 Clear 28 1018 70 10000 4.63 130 21:59 26.04.2022
4007 Clear 29 1018 70 10000 4.63 130 21:18 26.04.2022
4008 Clear 29 1018 69 10000 5.14 170 20:36 26.04.2022
4009 Clear 29 1018 66 10000 5.14 160 19:45 26.04.2022
4010 Clear 29 1018 66 10000 5.14 160 19:26 26.04.2022
4011 Clear 28 1019 66 10000 5.14 150 18:31 26.04.2022
4012 Clear 28 1020 62 10000 3.09 120 17:39 26.04.2022
4013 Clear 25 1017 73 10000 2.57 10 15:32 26.04.2022
4014 Clear 23 1017 83 10000 2.57 10 13:40 26.04.2022
4015 Clear 22 1016 87 10000 2.57 330 12:47 26.04.2022
4016 Clear 22 1016 88 10000 2.57 10 11:23 26.04.2022
4017 Clouds 21 1015 88 10000 1.54 10 10:30 26.04.2022
4018 Clear 22 1016 83 10000 2.06 90 08:33 26.04.2022
4019 Clear 23 1017 80 10000 2.57 50 04:53 26.04.2022
4020 Clear 23 1017 80 10000 2.57 50 04:22 26.04.2022
4021 Clouds 25 1016 69 10000 4.63 110 00:46 26.04.2022
4022 Clouds 26 1016 70 10000 4.63 110 23:50 25.04.2022
4023 Clouds 27 1016 66 10000 5.14 160 21:53 25.04.2022
4024 Clouds 27 1016 66 10000 5.14 160 21:25 25.04.2022
4025 Clouds 27 1016 68 10000 6.17 130 19:53 25.04.2022
4026 Clouds 27 1017 64 10000 5.66 160 18:34 25.04.2022
4027 Clouds 27 1018 63 10000 4.63 160 17:40 25.04.2022
4028 Clouds 27 1019 62 10000 4.12 150 16:42 25.04.2022
4029 Clouds 26 1020 63 10000 4.12 110 15:22 25.04.2022
4030 Clouds 26 1020 63 10000 3.6 90 14:32 25.04.2022
4031 Clouds 24 1019 77 10000 1.54 80 12:47 25.04.2022
4032 Clouds 23 1019 78 10000 1.03 110 10:44 25.04.2022
4033 Clouds 22 1019 83 10000 1.54 100 09:41 25.04.2022
4034 Clouds 23 1019 83 10000 1.54 80 07:49 25.04.2022
4035 Clouds 24 1020 73 10000 2.57 100 05:54 25.04.2022
4036 Clouds 25 1019 73 10000 4.12 130 01:28 25.04.2022
4037 Clouds 25 1018 78 10000 6.17 160 23:54 24.04.2022
4038 Clouds 25 1018 78 10000 6.17 160 23:25 24.04.2022
4039 Clouds 25 1018 73 10000 6.17 120 22:39 24.04.2022
4040 Clouds 26 1017 69 10000 6.17 240 21:56 24.04.2022
4041 Clouds 26 1017 70 10000 6.17 240 21:22 24.04.2022
4042 Clouds 27 1017 62 10000 7.2 240 20:46 24.04.2022
4043 Clouds 27 1017 62 10000 7.2 240 20:21 24.04.2022
4044 Clouds 28 1017 64 10000 5.66 160 18:44 24.04.2022
4045 Clouds 28 1018 62 10000 4.63 140 17:49 24.04.2022
4046 Clouds 28 1018 62 10000 4.63 140 17:21 24.04.2022
4047 Clouds 28 1018 62 10000 4.63 140 17:21 24.04.2022
4048 Clouds 28 1018 66 10000 4.12 140 16:55 24.04.2022
4049 Clouds 28 1018 66 10000 4.12 140 16:29 24.04.2022
4050 Clouds 27 1019 69 10000 3.09 130 15:43 24.04.2022
4051 Clouds 26 1018 71 10000 2.06 360 14:36 24.04.2022
4052 Clouds 25 1017 78 10000 2.06 340 13:27 24.04.2022
4053 Clear 24 1016 85 10000 2.57 320 12:56 24.04.2022
4054 Clear 24 1015 80 10000 3.09 320 11:50 24.04.2022
4055 Clear 22 1015 88 10000 2.06 290 10:48 24.04.2022
4056 Clear 23 1015 83 10000 1.54 270 09:47 24.04.2022
4057 Clear 24 1014 78 10000 2.06 270 08:18 24.04.2022
4058 Clear 26 1014 65 10000 4.12 240 05:45 24.04.2022
4059 Clouds 29 1010 54 10000 5.66 210 02:48 24.04.2022
4060 Clear 29 1008 53 10000 4.12 250 00:47 24.04.2022
4061 Clear 29 1007 56 10000 2.57 230 23:55 23.04.2022
4062 Clear 29 1007 56 10000 2.57 230 23:25 23.04.2022
4063 Clear 33 1006 38 10000 3.6 300 22:39 23.04.2022
4064 Clear 32 1004 41 10000 5.14 330 21:47 23.04.2022
4065 Clear 32 1004 41 10000 5.14 330 21:29 23.04.2022
4066 Clear 35 1005 36 10000 7.72 330 19:56 23.04.2022
4067 Clear 35 1005 36 10000 7.72 330 19:20 23.04.2022
4068 Clear 34 1005 36 10000 8.75 330 18:54 23.04.2022
4069 Clear 34 1005 34 10000 8.75 330 18:32 23.04.2022
4070 Clear 34 1007 33 10000 8.75 320 17:47 23.04.2022
4071 Clear 34 1007 32 10000 8.23 320 16:46 23.04.2022
4072 Clear 30 1008 49 10000 5.14 10 15:51 23.04.2022
4073 Clear 26 1008 66 10000 4.12 10 13:31 23.04.2022
4074 Clear 23 1007 85 10000 3.6 330 11:29 23.04.2022
4075 Clear 21 1007 83 10000 1.54 120 10:32 23.04.2022
4076 Clear 22 1008 83 10000 1.03 130 08:18 23.04.2022
4077 Clear 25 1009 81 10000 3.6 180 03:57 23.04.2022
4078 Clear 25 1009 83 10000 3.6 190 02:36 23.04.2022
4079 Clear 25 1008 79 10000 4.63 170 23:37 22.04.2022
4080 Clear 25 1008 79 10000 4.63 170 23:18 22.04.2022
4081 Clear 27 1008 64 10000 4.63 150 21:58 22.04.2022
4082 Clear 27 1008 64 10000 4.63 150 21:39 22.04.2022
4083 Clouds 28 1008 61 10000 3.6 150 20:34 22.04.2022
4084 Clouds 28 1009 64 10000 4.63 140 19:26 22.04.2022
4085 Clear 28 1009 67 10000 6.17 120 18:56 22.04.2022
4086 Clear 28 1009 67 10000 6.17 120 18:24 22.04.2022
4087 Clear 27 1011 67 10000 3.09 20 16:54 22.04.2022
4088 Clear 26 1011 73 10000 3.6 20 15:58 22.04.2022
4089 Clear 26 1011 73 10000 3.6 20 15:24 22.04.2022
4090 Clear 24 1011 78 10000 3.09 350 14:38 22.04.2022
4091 Clear 24 1011 80 10000 1.03 0 13:41 22.04.2022
4092 Clear 22 1011 87 10000 1.03 0 12:47 22.04.2022
4093 Clear 22 1010 88 10000 1.03 50 11:23 22.04.2022
4094 Clear 21 1010 88 10000 2.06 350 10:56 22.04.2022
4095 Clouds 20 1010 88 10000 2.06 350 10:34 22.04.2022
4096 Clouds 21 1010 83 10000 1.54 10 09:57 22.04.2022
4097 Clouds 21 1010 83 10000 1.54 10 09:21 22.04.2022
4098 Clear 21 1011 83 10000 2.57 120 08:42 22.04.2022
4099 Clear 22 1011 83 10000 1.54 90 06:42 22.04.2022
4100 Clouds 24 1012 72 10000 3.6 170 01:24 22.04.2022
4101 Clouds 24 1012 72 10000 5.14 170 23:33 21.04.2022
4102 Clouds 25 1012 69 10000 6.17 180 22:43 21.04.2022
4103 Clouds 25 1012 69 10000 5.66 170 21:42 21.04.2022
4104 Rain 25 1012 67 10000 6.17 160 20:31 21.04.2022
4105 Clouds 26 1013 64 10000 5.66 160 18:49 21.04.2022
4106 Clouds 26 1013 64 10000 5.66 160 18:28 21.04.2022
4107 Clouds 26 1014 61 10000 4.63 160 17:19 21.04.2022
4108 Clear 26 1015 62 10000 2.06 160 16:19 21.04.2022
4109 Clear 25 1016 70 10000 3.6 40 15:19 21.04.2022
4110 Clouds 24 1016 76 10000 3.09 340 14:28 21.04.2022
4111 Clouds 23 1016 81 10000 3.09 320 13:21 21.04.2022
4112 Clouds 21 1016 88 10000 2.06 330 12:25 21.04.2022
4113 Clouds 22 1016 78 10000 1.03 350 09:36 21.04.2022
4114 Clear 22 1016 78 10000 2.06 290 08:47 21.04.2022
4115 Clear 22 1017 83 10000 1.03 290 06:44 21.04.2022
4116 Clouds 24 1017 64 10000 2.06 190 03:42 21.04.2022
4117 Clouds 24 1017 64 10000 2.06 190 03:22 21.04.2022
4118 Clouds 24 1017 73 10000 3.6 190 02:44 21.04.2022
4119 Clouds 24 1017 73 10000 3.6 190 02:44 21.04.2022
4120 Clouds 24 1016 72 10000 5.66 200 00:35 21.04.2022
4121 Clouds 24 1016 73 10000 6.69 190 23:40 20.04.2022
4122 Clouds 24 1016 73 10000 6.69 190 23:18 20.04.2022
4123 Clouds 24 1016 73 10000 7.2 180 22:36 20.04.2022
4124 Clouds 25 1015 70 10000 7.72 180 21:47 20.04.2022
4125 Clouds 25 1015 75 10000 6.69 170 20:50 20.04.2022
4126 Clouds 25 1015 75 10000 6.69 170 20:21 20.04.2022
4127 Clouds 26 1015 69 10000 6.17 240 19:47 20.04.2022
4128 Clouds 26 1016 69 10000 5.14 160 18:52 20.04.2022
4129 Clouds 26 1017 72 10000 4.63 150 17:52 20.04.2022
4130 Clouds 26 1017 70 10000 2.57 10 16:39 20.04.2022
4131 Clouds 25 1018 75 10000 2.06 20 15:33 20.04.2022
4132 Clouds 21 1017 90 8000 2.57 330 12:47 20.04.2022
4133 Clouds 21 1016 94 9000 2.57 340 11:42 20.04.2022
4134 Clouds 20 1017 94 10000 2.06 270 10:51 20.04.2022
4135 Clouds 20 1016 94 10000 2.06 280 09:45 20.04.2022
4136 Clouds 21 1017 88 10000 2.06 290 08:54 20.04.2022
4137 Clouds 21 1017 88 10000 2.06 290 08:20 20.04.2022
4138 Clear 21 1017 88 10000 1.54 300 06:26 20.04.2022
4139 Clouds 23 1017 83 10000 2.06 170 03:33 20.04.2022
4140 Clouds 24 1016 75 10000 3.6 140 00:22 20.04.2022
4141 Clouds 24 1015 75 10000 5.14 140 23:31 19.04.2022
4142 Clouds 24 1015 71 10000 6.17 160 22:24 19.04.2022
4143 Clear 26 1015 64 10000 5.66 160 21:55 19.04.2022
4144 Clear 26 1015 64 10000 5.66 160 21:18 19.04.2022
4145 Clouds 26 1015 62 10000 5.66 160 20:37 19.04.2022
4146 Clouds 26 1016 58 10000 5.14 160 19:43 19.04.2022
4147 Clouds 27 1016 52 10000 4.12 160 18:46 19.04.2022
4148 Clouds 27 1016 52 10000 4.12 160 18:46 19.04.2022
4149 Clouds 27 1017 52 10000 2.57 330 17:28 19.04.2022
4150 Clear 25 1018 61 10000 2.57 340 16:43 19.04.2022
4151 Clear 25 1023 63 10000 2.57 340 16:21 19.04.2022
4152 Clear 22 1018 78 7000 2.57 10 14:48 19.04.2022
4153 Clouds 21 1018 90 8000 2.57 10 13:35 19.04.2022
4154 Clouds 20 1018 92 9000 3.09 360 12:50 19.04.2022
4155 Clouds 19 1017 94 10000 2.57 360 11:55 19.04.2022
4156 Clear 18 1017 88 10000 1.54 10 10:23 19.04.2022
4157 Clear 19 1017 88 10000 1.03 0 08:54 19.04.2022
4158 Clouds 22 1018 82 10000 2.57 110 04:42 19.04.2022
4159 Clouds 22 1019 83 10000 3.09 90 03:25 19.04.2022
4160 Clear 22 1018 74 10000 2.57 160 00:54 19.04.2022
4161 Clouds 23 1022 74 10000 4.12 170 23:29 18.04.2022
4162 Clouds 25 1022 60 10000 4.63 180 21:30 18.04.2022
4163 Clouds 25 1022 60 10000 4.63 180 21:30 18.04.2022
4164 Clouds 25 1022 59 10000 5.66 150 20:54 18.04.2022
4165 Clouds 25 1022 59 10000 5.66 150 20:30 18.04.2022
4166 Clouds 26 1022 58 10000 4.12 140 19:49 18.04.2022
4167 Clouds 26 1022 60 10000 3.09 40 18:56 18.04.2022
4168 Clouds 25 1023 61 10000 3.09 140 17:57 18.04.2022
4169 Clouds 26 1023 62 10000 3.09 350 17:33 18.04.2022
4170 Clouds 25 1023 69 10000 3.6 350 16:50 18.04.2022
4171 Clouds 24 1019 70 10000 3.6 350 16:31 18.04.2022
4172 Clouds 23 1019 75 10000 3.09 10 14:45 18.04.2022
4173 Clouds 20 1019 86 10000 2.57 310 13:35 18.04.2022
4174 Clouds 20 1018 91 10000 3.09 340 12:29 18.04.2022
4175 Clouds 21 1017 88 10000 3.09 350 11:34 18.04.2022
4176 Clouds 18 1017 88 10000 1.54 40 10:31 18.04.2022
4177 Clouds 19 1017 82 10000 1.54 330 09:31 18.04.2022
4178 Clouds 19 1018 82 10000 1.03 340 07:42 18.04.2022
4179 Clouds 20 1019 83 10000 1.03 310 05:37 18.04.2022
4180 Clouds 23 1018 68 10000 3.09 200 00:47 18.04.2022
4181 Clouds 23 1017 68 10000 4.12 190 22:41 17.04.2022
4182 Clouds 24 1021 72 10000 5.14 250 21:46 17.04.2022
4183 Clouds 24 1022 74 10000 4.12 150 21:24 17.04.2022
4184 Clouds 24 1021 70 10000 5.66 160 20:36 17.04.2022
4185 Clouds 24 1021 70 10000 5.66 160 20:36 17.04.2022
4186 Clouds 24 1022 68 10000 6.17 150 19:38 17.04.2022
4187 Clouds 25 1023 65 10000 3.6 50 17:48 17.04.2022
4188 Clouds 23 1019 71 10000 3.6 330 15:40 17.04.2022
4189 Clouds 21 1019 80 10000 4.12 350 14:55 17.04.2022
4190 Clouds 21 1019 80 10000 4.12 350 14:19 17.04.2022
4191 Clouds 20 1018 89 7000 3.09 330 12:59 17.04.2022
4192 Clouds 20 1018 89 7000 3.09 330 12:27 17.04.2022
4193 Clouds 19 1017 82 8000 1.54 280 10:46 17.04.2022
4194 Clouds 19 1017 82 8000 1.54 280 10:28 17.04.2022
4195 Clouds 18 1019 82 10000 3.09 350 09:34 17.04.2022
4196 Clouds 19 1018 77 10000 3.09 300 08:51 17.04.2022
4197 Clear 19 1018 77 10000 2.06 350 07:37 17.04.2022
4198 Clouds 21 1018 78 10000 2.57 300 04:30 17.04.2022
4199 Clouds 23 1018 68 10000 2.06 260 01:26 17.04.2022
4200 Clouds 23 1016 71 10000 4.12 230 23:52 16.04.2022
4201 Clouds 24 1016 61 10000 6.69 210 22:39 16.04.2022
4202 Clouds 25 1016 58 10000 5.66 200 21:39 16.04.2022
4203 Clouds 25 1020 59 10000 5.66 190 20:32 16.04.2022
4204 Clouds 25 1021 63 10000 3.09 50 18:59 16.04.2022
4205 Clouds 25 1021 62 10000 3.09 50 18:28 16.04.2022
4206 Clouds 24 1022 67 10000 4.12 350 16:40 16.04.2022
4207 Clouds 22 1017 76 9000 3.09 360 15:46 16.04.2022
4208 Clouds 20 1017 85 10000 3.6 330 14:57 16.04.2022
4209 Clouds 19 1017 92 7000 3.6 320 13:58 16.04.2022
4210 Clouds 19 1017 92 7000 3.6 320 13:37 16.04.2022
4211 Clouds 19 1017 92 7000 3.6 320 13:37 16.04.2022
4212 Mist 19 1017 92 3500 5.14 310 12:27 16.04.2022
4213 Clouds 20 1015 75 10000 3.09 300 11:18 16.04.2022
4214 Clouds 19 1015 82 10000 1.03 340 09:56 16.04.2022
4215 Clear 19 1015 82 10000 2.57 20 08:59 16.04.2022
4216 Clear 19 1015 82 10000 2.57 20 08:18 16.04.2022
4217 Clear 20 1015 77 10000 2.57 330 06:59 16.04.2022
4218 Clouds 22 1015 68 10000 4.12 330 03:36 16.04.2022
4219 Clouds 23 1014 63 10000 3.09 240 00:31 16.04.2022
4220 Clouds 22 1014 64 10000 3.6 250 23:23 15.04.2022
4221 Clouds 23 1014 59 10000 5.66 230 22:36 15.04.2022
4222 Clouds 24 1014 53 10000 5.14 250 21:58 15.04.2022
4223 Clouds 24 1014 53 10000 5.14 250 21:18 15.04.2022
4224 Clouds 24 1013 50 10000 5.14 240 20:27 15.04.2022
4225 Clouds 25 1013 49 10000 4.63 240 19:40 15.04.2022
4226 Clouds 24 1014 51 10000 6.17 240 18:54 15.04.2022
4227 Clouds 24 1014 51 10000 6.17 240 18:25 15.04.2022
4228 Clouds 24 1014 52 10000 5.66 230 17:48 15.04.2022
4229 Clouds 24 1014 52 10000 5.66 230 17:21 15.04.2022
4230 Clouds 23 1015 61 10000 6.69 250 16:23 15.04.2022
4231 Clouds 23 1015 63 10000 3.6 230 15:24 15.04.2022
4232 Clouds 23 1014 69 10000 3.6 250 13:55 15.04.2022
4233 Clouds 22 1013 75 10000 5.14 330 12:46 15.04.2022
4234 Clouds 22 1012 74 10000 4.63 290 11:59 15.04.2022
4235 Clouds 22 1012 74 10000 4.63 290 11:40 15.04.2022
4236 Mist 20 1012 94 5000 3.6 270 10:45 15.04.2022
4237 Mist 21 1012 88 5000 3.6 310 09:57 15.04.2022
4238 Mist 21 1012 88 5000 3.6 310 09:21 15.04.2022
4239 Clouds 21 1012 88 6000 4.12 280 08:24 15.04.2022
4240 Mist 21 1012 88 4500 4.12 290 06:47 15.04.2022
4241 Rain 23 1019 92 7000 5.66 280 04:28 15.04.2022
4242 Clouds 26 1008 77 10000 3.6 210 23:42 14.04.2022
4243 Clouds 26 1008 77 10000 3.6 210 23:19 14.04.2022
4244 Clouds 25 920 68 10000 4.12 200 22:42 14.04.2022
4245 Clouds 26 1007 77 10000 4.12 200 22:24 14.04.2022
4246 Clouds 25 920 69 10000 3.09 170 21:39 14.04.2022
4247 Clouds 26 1007 77 10000 2.57 360 19:24 14.04.2022
4248 Clouds 26 1008 84 10000 2.57 310 18:38 14.04.2022
4249 Clouds 26 1009 85 10000 2.57 320 17:45 14.04.2022
4250 Clouds 25 1010 86 9000 3.6 310 16:49 14.04.2022
4251 Clouds 24 1011 91 8000 3.6 320 15:50 14.04.2022
4252 Rain 24 1011 93 5000 2.06 310 13:52 14.04.2022
4253 Rain 23 939 82 8000 2.06 310 13:19 14.04.2022
4254 Rain 23 927 80 6000 3.09 270 12:32 14.04.2022
4255 Mist 23 914 79 4500 4.12 240 11:36 14.04.2022
4256 Rain 22 850 69 4000 4.12 260 10:58 14.04.2022
4257 Clouds 23 850 66 6000 4.12 250 10:31 14.04.2022
4258 Clouds 23 850 64 10000 3.09 240 09:28 14.04.2022
4259 Clouds 23 850 64 10000 2.57 280 07:54 14.04.2022
4260 Clouds 24 850 64 10000 2.57 330 05:35 14.04.2022
4261 Clouds 28 1008 65 10000 5.66 230 00:29 14.04.2022
4262 Clouds 28 1007 76 10000 5.66 130 22:37 13.04.2022
4263 Clouds 28 1006 79 10000 6.69 140 21:42 13.04.2022
4264 Clouds 29 1006 72 10000 5.66 150 20:39 13.04.2022
4265 Clouds 30 1006 70 10000 5.66 140 19:48 13.04.2022
4266 Clouds 30 1007 68 10000 5.14 40 18:37 13.04.2022
4267 Clear 30 1008 65 10000 2.57 350 17:25 13.04.2022
4268 Clear 30 1009 68 10000 2.57 20 16:53 13.04.2022
4269 Clear 28 1009 71 10000 3.09 330 15:47 13.04.2022
4270 Clear 28 1009 71 10000 3.09 330 15:27 13.04.2022
4271 Clear 27 1010 78 10000 2.57 340 14:40 13.04.2022
4272 Clear 26 1009 84 10000 2.57 330 13:43 13.04.2022
4273 Clear 25 1009 89 10000 2.57 330 12:52 13.04.2022
4274 Clear 24 913 75 10000 2.06 80 11:47 13.04.2022
4275 Clear 23 850 66 10000 1.54 110 10:34 13.04.2022
4276 Clear 23 850 66 10000 3.09 70 08:49 13.04.2022
4277 Clear 23 850 66 10000 3.09 70 08:23 13.04.2022
4278 Clear 23 851 66 10000 2.57 70 06:49 13.04.2022
4279 Clear 23 851 66 10000 2.57 70 06:24 13.04.2022
4280 Rain 26 914 70 10000 2.57 100 02:24 13.04.2022
4281 Clear 27 1009 81 10000 3.09 170 00:20 13.04.2022
4282 Clear 27 1007 76 10000 3.6 180 22:36 12.04.2022
4283 Clouds 30 1007 66 10000 3.6 210 21:56 12.04.2022
4284 Clouds 30 1008 62 10000 3.6 130 20:48 12.04.2022
4285 Clouds 30 1008 62 10000 3.6 130 20:22 12.04.2022
4286 Clouds 30 1008 60 10000 3.6 140 19:40 12.04.2022
4287 Clouds 30 1008 60 10000 3.6 140 19:18 12.04.2022
4288 Clear 30 1010 61 10000 2.57 0 17:39 12.04.2022
4289 Clear 29 1011 63 10000 3.09 30 16:48 12.04.2022
4290 Clear 27 1012 73 10000 3.09 40 15:38 12.04.2022
4291 Clear 27 1012 73 10000 3.09 40 15:20 12.04.2022
4292 Clear 25 1011 79 10000 2.57 70 13:53 12.04.2022
4293 Clear 25 1011 79 10000 2.57 70 13:27 12.04.2022
4294 Clear 25 1011 79 10000 2.57 70 13:27 12.04.2022
4295 Clear 23 928 77 10000 3.09 20 12:26 12.04.2022
4296 Clear 22 914 77 10000 2.57 30 11:39 12.04.2022
4297 Clear 22 852 66 10000 1.03 20 09:59 12.04.2022
4298 Clear 22 852 66 10000 2.57 120 08:53 12.04.2022
4299 Clear 22 702 46 10000 2.06 110 07:47 12.04.2022
4300 Clear 22 702 46 10000 1.54 90 05:47 12.04.2022
4301 Clear 26 962 69 10000 3.09 70 03:28 12.04.2022
4302 Clouds 25 923 65 10000 5.14 140 23:36 11.04.2022
4303 Clouds 26 921 64 10000 5.14 140 22:44 11.04.2022
4304 Clouds 28 1010 67 10000 6.17 140 21:36 11.04.2022
4305 Clouds 28 1010 69 10000 5.66 140 20:54 11.04.2022
4306 Clouds 28 1010 69 10000 5.66 140 20:28 11.04.2022
4307 Clouds 28 1011 72 10000 6.17 160 19:36 11.04.2022
4308 Clouds 28 1011 68 10000 6.17 160 19:18 11.04.2022
4309 Clouds 28 1012 63 10000 5.14 160 18:37 11.04.2022
4310 Clouds 28 1012 67 10000 5.14 160 17:44 11.04.2022
4311 Clouds 27 1013 71 10000 3.6 30 16:38 11.04.2022
4312 Clouds 27 1014 71 10000 4.12 340 15:24 11.04.2022
4313 Clouds 24 941 74 10000 3.6 140 13:51 11.04.2022
4314 Clear 23 930 78 10000 1.54 160 12:43 11.04.2022
4315 Clear 24 923 76 10000 1.54 160 12:22 11.04.2022
4316 Clouds 24 961 81 10000 2.06 40 10:56 11.04.2022
4317 Clouds 22 702 46 10000 1.03 10 09:58 11.04.2022
4318 Clear 22 702 46 10000 1.03 40 08:24 11.04.2022
4319 Clear 22 702 46 10000 4.12 120 05:26 11.04.2022
4320 Clouds 25 923 71 10000 4.12 140 00:49 11.04.2022
4321 Clouds 25 923 70 10000 5.66 160 22:33 10.04.2022
4322 Clouds 25 923 70 10000 6.69 160 21:54 10.04.2022
4323 Clouds 27 1011 77 10000 6.69 160 21:26 10.04.2022
4324 Clouds 27 1011 77 10000 7.2 160 20:25 10.04.2022
4325 Clouds 27 1011 69 10000 7.72 240 19:37 10.04.2022
4326 Clouds 28 1011 72 10000 6.69 230 18:50 10.04.2022
4327 Clouds 28 1011 71 10000 6.69 230 18:30 10.04.2022
4328 Clouds 28 1012 71 10000 4.12 250 17:49 10.04.2022
4329 Clouds 28 1012 69 10000 2.57 20 16:59 10.04.2022
4330 Clouds 28 1013 73 10000 3.09 140 15:53 10.04.2022
4331 Clouds 26 1013 80 10000 2.57 130 14:49 10.04.2022
4332 Clouds 26 1013 84 10000 3.09 160 13:45 10.04.2022
4333 Clouds 24 929 77 10000 2.06 170 12:33 10.04.2022
4334 Clouds 24 915 75 10000 2.06 260 11:44 10.04.2022
4335 Clouds 24 915 75 10000 2.06 260 11:24 10.04.2022
4336 Clouds 23 851 66 10000 3.09 290 10:38 10.04.2022
4337 Clouds 23 851 66 10000 2.57 330 09:46 10.04.2022
4338 Clouds 22 702 46 10000 2.57 280 08:40 10.04.2022
4339 Clouds 22 702 46 10000 2.57 280 08:18 10.04.2022
4340 Clouds 22 702 46 10000 2.06 290 06:59 10.04.2022
4341 Clouds 26 961 77 10000 4.12 250 04:36 10.04.2022
4342 Clouds 26 961 77 10000 4.12 180 02:19 10.04.2022
4343 Clouds 25 922 74 10000 6.69 180 23:54 09.04.2022
4344 Clouds 25 922 74 10000 6.69 180 23:54 09.04.2022
4345 Clouds 25 922 74 10000 6.69 180 23:25 09.04.2022
4346 Clouds 25 920 70 10000 6.69 180 22:39 09.04.2022
4347 Clouds 27 1009 75 10000 6.69 170 21:28 09.04.2022
4348 Clouds 28 1009 70 10000 6.69 170 20:31 09.04.2022
4349 Clouds 29 1009 68 10000 7.2 160 19:59 09.04.2022
4350 Clouds 29 1009 68 10000 7.2 160 19:41 09.04.2022
4351 Clear 29 1010 68 10000 4.63 160 18:24 09.04.2022
4352 Clear 29 1010 65 10000 2.06 10 17:52 09.04.2022
4353 Clear 28 1012 70 10000 2.57 10 16:59 09.04.2022
4354 Clear 28 1012 70 10000 2.57 10 16:40 09.04.2022
4355 Clouds 27 1013 77 10000 3.6 10 15:52 09.04.2022
4356 Clouds 27 1013 77 10000 3.6 10 15:26 09.04.2022
4357 Clouds 25 1013 81 10000 3.09 340 14:26 09.04.2022
4358 Clouds 25 1013 80 10000 2.06 20 13:34 09.04.2022
4359 Clouds 23 922 73 10000 1.54 300 12:57 09.04.2022
4360 Clouds 23 915 75 9000 2.06 150 11:51 09.04.2022
4361 Clouds 22 702 46 7000 2.06 170 10:53 09.04.2022
4362 Clouds 22 702 46 7000 2.06 170 10:19 09.04.2022
4363 Clouds 22 702 46 6000 5.14 50 09:24 09.04.2022
4364 Mist 22 702 46 5000 1.03 0 08:35 09.04.2022
4365 Rain 22 702 46 10000 1.54 60 05:21 09.04.2022
4366 Clouds 25 920 71 10000 4.12 180 00:36 09.04.2022
4367 Clouds 25 922 71 10000 4.12 180 00:36 09.04.2022
4368 Clouds 26 1011 78 10000 6.69 180 23:24 08.04.2022
4369 Clear 28 1011 72 10000 6.17 170 21:54 08.04.2022
4370 Clouds 28 1011 69 10000 6.17 150 20:45 08.04.2022
4371 Clouds 28 1012 66 10000 5.66 150 19:57 08.04.2022
4372 Clouds 28 1012 67 10000 5.66 160 18:59 08.04.2022
4373 Clouds 28 1012 67 10000 5.66 160 18:25 08.04.2022
4374 Clouds 28 1013 64 10000 4.12 150 17:38 08.04.2022
4375 Clouds 28 1013 64 10000 4.12 150 17:19 08.04.2022
4376 Clouds 27 1014 66 10000 3.6 150 16:35 08.04.2022
4377 Clear 27 1015 69 10000 3.6 10 15:39 08.04.2022
4378 Clouds 25 1015 77 10000 3.09 330 14:52 08.04.2022
4379 Clouds 25 1015 77 10000 3.09 330 14:26 08.04.2022
4380 Clouds 24 941 74 10000 2.57 50 13:41 08.04.2022
4381 Clouds 24 941 74 10000 2.57 50 13:22 08.04.2022
4382 Clouds 22 917 75 10000 1.54 360 11:53 08.04.2022
4383 Clouds 22 853 66 10000 1.03 0 10:32 08.04.2022
4384 Clouds 22 853 66 10000 0 0 09:26 08.04.2022
4385 Clouds 22 853 66 10000 1.03 0 08:30 08.04.2022
4386 Clouds 22 702 46 10000 1.54 30 06:47 08.04.2022
4387 Clouds 22 702 46 10000 1.54 30 06:47 08.04.2022
4388 Clouds 25 960 76 10000 2.06 120 04:34 08.04.2022
4389 Clouds 24 964 73 10000 4.63 170 01:26 08.04.2022
4390 Clouds 24 931 64 10000 5.66 190 00:22 08.04.2022
4391 Clouds 25 1014 71 10000 4.63 160 22:59 07.04.2022
4392 Clouds 25 1014 71 10000 4.63 160 22:39 07.04.2022
4393 Clouds 25 1014 71 10000 4.63 160 22:20 07.04.2022
4394 Clouds 25 1013 71 10000 5.66 180 21:49 07.04.2022
4395 Clouds 25 1013 74 10000 5.66 160 20:58 07.04.2022
4396 Clouds 25 1013 74 10000 5.66 160 20:31 07.04.2022
4397 Clouds 26 1014 74 10000 5.66 170 18:34 07.04.2022
4398 Clouds 27 1015 73 10000 5.66 170 17:26 07.04.2022
4399 Clouds 25 1016 75 10000 4.63 250 16:44 07.04.2022
4400 Clouds 25 1016 75 10000 4.63 250 16:21 07.04.2022
4401 Clouds 26 1016 80 8000 3.09 20 14:50 07.04.2022
4402 Clouds 24 943 77 8000 3.09 360 13:43 07.04.2022
4403 Clouds 23 931 76 8000 2.06 190 12:50 07.04.2022
4404 Clouds 23 917 75 9000 2.06 180 11:34 07.04.2022
4405 Clouds 22 853 66 8000 2.57 40 09:37 07.04.2022
4406 Clouds 22 853 69 10000 3.09 350 08:38 07.04.2022
4407 Clouds 22 853 66 10000 2.06 310 06:43 07.04.2022
4408 Clouds 24 918 71 10000 3.6 200 02:54 07.04.2022
4409 Clouds 24 918 71 10000 3.6 200 02:27 07.04.2022
4410 Clouds 24 930 71 10000 3.09 200 00:28 07.04.2022
4411 Clouds 25 1014 83 10000 4.63 190 22:52 06.04.2022
4412 Clouds 25 1014 83 10000 4.63 190 22:27 06.04.2022
4413 Clouds 26 1014 75 10000 4.63 190 21:45 06.04.2022
4414 Clouds 26 1014 71 10000 4.63 230 20:40 06.04.2022
4415 Clouds 26 1014 80 10000 2.57 40 19:57 06.04.2022
4416 Clouds 25 1015 85 7000 3.09 10 18:52 06.04.2022
4417 Clouds 25 1015 85 7000 3.09 10 18:33 06.04.2022
4418 Mist 25 1015 84 5000 3.6 330 17:35 06.04.2022
4419 Mist 25 1016 86 8000 4.12 330 16:39 06.04.2022
4420 Mist 25 1016 86 8000 3.6 310 15:49 06.04.2022
4421 Mist 24 943 76 8000 3.09 350 15:21 06.04.2022
4422 Mist 24 942 83 10000 3.09 340 13:28 06.04.2022
4423 Mist 23 930 82 10000 2.57 320 12:28 06.04.2022
4424 Clouds 23 917 79 10000 2.57 320 10:54 06.04.2022
4425 Clouds 22 853 69 6000 2.57 300 10:31 06.04.2022
4426 Mist 22 853 69 4000 4.12 270 09:42 06.04.2022
4427 Mist 22 853 69 4000 2.06 230 08:36 06.04.2022
4428 Mist 23 853 66 3500 3.09 250 07:56 06.04.2022
4429 Clouds 25 917 71 10000 2.57 250 04:42 06.04.2022
4430 Clouds 27 1014 74 10000 5.66 190 23:57 05.04.2022
4431 Clouds 27 1014 74 10000 5.66 190 23:22 05.04.2022
4432 Clouds 27 1012 75 10000 7.72 200 21:31 05.04.2022
4433 Clouds 28 1012 74 10000 7.72 190 20:54 05.04.2022
4434 Clouds 28 1012 74 10000 7.72 190 20:23 05.04.2022
4435 Clouds 30 1013 65 10000 6.69 190 18:26 05.04.2022
4436 Clouds 30 1014 65 10000 6.17 190 17:20 05.04.2022
4437 Clouds 30 1014 66 10000 4.12 200 16:42 05.04.2022
4438 Clouds 28 1015 74 10000 5.14 220 15:50 05.04.2022
4439 Clouds 28 1015 74 10000 5.14 220 15:30 05.04.2022
4440 Clouds 27 1014 83 9000 2.57 230 13:45 05.04.2022
4441 Clouds 25 930 79 9000 1.54 360 12:29 05.04.2022
4442 Clear 24 915 77 10000 2.57 320 11:43 05.04.2022
4443 Clear 24 915 77 10000 2.57 320 11:24 05.04.2022
4444 Clouds 23 851 66 8000 1.54 30 09:31 05.04.2022
4445 Clear 23 851 66 10000 1.03 40 08:27 05.04.2022
4446 Clear 25 916 72 10000 1.54 140 03:50 05.04.2022
4447 Clear 28 1011 75 10000 5.14 190 23:42 04.04.2022
4448 Clear 29 1011 72 10000 5.14 190 22:37 04.04.2022
4449 Clear 30 1010 63 10000 4.12 180 21:51 04.04.2022
4450 Clear 30 1010 63 10000 4.12 180 21:20 04.04.2022
4451 Clouds 31 1011 62 10000 5.14 130 20:47 04.04.2022
4452 Clouds 31 1011 59 10000 4.63 50 19:30 04.04.2022
4453 Clouds 31 1012 58 10000 4.12 30 18:44 04.04.2022
4454 Clouds 29 1013 61 10000 3.6 50 17:21 04.04.2022
4455 Clouds 28 1014 65 10000 3.09 360 16:34 04.04.2022
4456 Clouds 28 1015 69 10000 3.09 20 15:34 04.04.2022
4457 Clouds 26 1015 80 10000 3.09 20 14:46 04.04.2022
4458 Clouds 26 1015 80 10000 3.09 20 14:28 04.04.2022
4459 Clouds 24 942 76 10000 2.57 10 13:18 04.04.2022
4460 Clouds 23 917 77 10000 1.54 350 11:29 04.04.2022
4461 Clouds 22 853 69 10000 1.54 40 10:29 04.04.2022
4462 Clouds 23 854 64 10000 2.57 100 06:58 04.04.2022
4463 Clouds 24 919 73 10000 3.6 110 03:18 04.04.2022
4464 Clouds 25 1015 85 10000 5.66 170 23:48 03.04.2022
4465 Clouds 26 1015 80 10000 7.2 130 22:31 03.04.2022
4466 Clouds 27 1015 74 10000 6.17 170 21:32 03.04.2022
4467 Clouds 27 1015 71 10000 6.69 170 20:40 03.04.2022
4468 Clouds 28 1015 70 10000 6.17 170 19:45 03.04.2022
4469 Clouds 28 1016 73 10000 6.17 150 18:29 03.04.2022
4470 Clouds 27 1017 76 10000 6.17 130 17:44 03.04.2022
4471 Clouds 27 1017 76 10000 6.17 130 17:44 03.04.2022
4472 Clouds 26 1018 79 10000 5.14 140 16:50 03.04.2022
4473 Clouds 26 1018 79 10000 5.14 140 16:31 03.04.2022
4474 Clouds 26 1019 81 10000 4.63 130 14:32 03.04.2022
4475 Clouds 25 1018 86 10000 4.12 130 13:45 03.04.2022
4476 Clouds 24 933 78 10000 4.12 170 12:21 03.04.2022
4477 Clouds 23 854 64 9000 3.09 140 10:54 03.04.2022
4478 Clouds 23 854 66 9000 4.12 130 09:36 03.04.2022
4479 Clouds 23 854 64 10000 3.6 120 07:37 03.04.2022
4480 Clouds 24 920 73 10000 8.23 130 04:37 03.04.2022
4481 Clouds 24 933 76 8000 7.2 120 00:41 03.04.2022
4482 Mist 25 1016 88 8000 5.66 140 22:57 02.04.2022
4483 Mist 25 1016 84 9000 5.66 150 21:58 02.04.2022
4484 Mist 25 1016 84 9000 5.66 150 21:36 02.04.2022
4485 Clouds 25 1016 85 9000 6.17 140 20:52 02.04.2022
4486 Clouds 26 1016 84 7000 5.66 170 19:32 02.04.2022
4487 Clouds 26 1016 84 7000 5.66 170 19:32 02.04.2022
4488 Clouds 26 1016 87 7000 5.66 160 18:21 02.04.2022
4489 Clouds 27 1017 83 7000 5.14 170 17:52 02.04.2022
4490 Clouds 26 1018 83 9000 4.63 170 16:25 02.04.2022
4491 Clouds 26 1018 85 8000 3.6 160 15:21 02.04.2022
4492 Clouds 25 1018 90 8000 4.63 100 14:49 02.04.2022
4493 Clouds 25 1018 90 8000 4.63 100 14:49 02.04.2022
4494 Rain 24 1017 92 8000 4.63 110 13:35 02.04.2022
4495 Rain 23 932 80 8000 4.12 100 12:38 02.04.2022
4496 Rain 23 918 77 7000 5.14 110 11:31 02.04.2022
4497 Clouds 22 853 69 6000 2.06 120 09:30 02.04.2022
4498 Mist 23 854 66 5000 4.12 110 06:51 02.04.2022
4499 Rain 23 918 77 6000 7.2 120 03:52 02.04.2022
4500 Rain 24 1016 87 4500 8.75 110 23:58 01.04.2022
4501 Rain 24 1016 89 4000 4.12 120 23:30 01.04.2022
4502 Clouds 24 942 79 10000 5.66 110 21:43 01.04.2022
4503 Clouds 24 1016 88 8000 5.66 160 20:52 01.04.2022
4504 Clouds 24 1016 87 8000 5.66 160 20:30 01.04.2022
4505 Clouds 24 927 76 10000 6.17 160 19:37 01.04.2022
4506 Clouds 24 943 74 10000 6.17 160 18:50 01.04.2022
4507 Clouds 24 944 76 9000 7.2 180 17:54 01.04.2022
4508 Clouds 24 944 76 9000 7.2 180 17:34 01.04.2022
4509 Clouds 24 928 72 9000 4.63 260 15:42 01.04.2022
4510 Clouds 23 919 77 6000 4.12 270 14:26 01.04.2022
4511 Mist 23 944 81 6000 3.6 320 13:34 01.04.2022
4512 Mist 23 932 80 6000 3.09 300 12:33 01.04.2022
4513 Clouds 23 918 80 6000 2.06 250 11:44 01.04.2022
4514 Clouds 22 853 66 6000 3.6 260 10:19 01.04.2022
4515 Clouds 22 853 66 7000 3.09 270 09:19 01.04.2022
4516 Rain 22 854 66 9000 2.57 240 06:55 01.04.2022
4517 Mist 23 1015 95 2000 3.6 300 04:53 01.04.2022
4518 Thunderstorm 23 1015 95 2000 3.6 300 04:34 01.04.2022
4519 Clouds 24 917 73 10000 3.6 10 01:58 01.04.2022
4520 Clouds 25 931 71 10000 3.09 50 00:44 01.04.2022
4521 Clouds 26 1012 76 10000 8.75 190 21:55 31.03.2022
4522 Clouds 26 1012 76 10000 8.75 190 21:33 31.03.2022
4523 Clouds 27 1012 75 10000 9.77 190 20:30 31.03.2022
4524 Clouds 28 1012 65 10000 9.77 190 19:50 31.03.2022
4525 Clouds 30 1012 61 10000 9.26 190 18:52 31.03.2022
4526 Clouds 29 1012 59 10000 9.26 190 17:54 31.03.2022
4527 Clouds 29 1012 65 10000 7.72 170 16:40 31.03.2022
4528 Clear 28 1012 66 10000 4.12 130 15:50 31.03.2022
4529 Clear 28 1012 66 10000 4.12 130 15:21 31.03.2022
4530 Clear 27 1013 72 10000 2.06 240 14:44 31.03.2022
4531 Clouds 24 1012 87 10000 3.6 300 12:48 31.03.2022
4532 Clouds 24 1011 86 10000 4.63 330 11:29 31.03.2022
4533 Rain 23 1012 83 10000 5.14 300 10:19 31.03.2022
4534 Rain 26 1011 69 10000 8.23 220 08:52 31.03.2022
4535 Clouds 24 850 67 10000 2.06 70 07:24 31.03.2022
4536 Clear 29 1008 69 10000 3.6 190 00:46 31.03.2022
4537 Clear 29 1007 68 10000 4.63 190 23:23 30.03.2022
4538 Clouds 31 1007 58 10000 6.17 160 21:50 30.03.2022
4539 Clouds 31 1007 58 10000 6.17 160 21:27 30.03.2022
4540 Clouds 32 1008 55 10000 4.12 160 20:22 30.03.2022
4541 Clouds 32 1008 58 10000 4.12 40 19:38 30.03.2022
4542 Clouds 31 1009 59 10000 2.57 20 18:40 30.03.2022
4543 Clear 30 1010 64 10000 3.09 140 17:49 30.03.2022
4544 Clear 30 1011 63 10000 3.6 340 16:58 30.03.2022
4545 Clear 30 1011 63 10000 3.6 340 16:38 30.03.2022
4546 Clear 28 1011 72 10000 3.09 10 15:38 30.03.2022
4547 Clouds 27 1011 80 10000 3.6 330 14:18 30.03.2022
4548 Clouds 25 939 78 10000 2.57 350 13:19 30.03.2022
4549 Clouds 23 914 77 10000 1.54 40 11:41 30.03.2022
4550 Clouds 23 851 66 10000 1.03 80 10:38 30.03.2022
4551 Clouds 23 851 64 10000 2.57 330 09:28 30.03.2022
4552 Clouds 23 851 66 10000 1.54 70 07:59 30.03.2022
4553 Clouds 23 852 64 10000 1.54 130 05:41 30.03.2022
4554 Clouds 23 852 64 10000 1.54 130 05:23 30.03.2022
4555 Clouds 25 930 74 10000 5.14 160 00:43 30.03.2022
4556 Clouds 27 1012 76 10000 4.12 150 22:35 29.03.2022
4557 Clouds 28 1012 72 10000 6.17 130 21:46 29.03.2022
4558 Clouds 28 1012 73 10000 6.17 120 20:55 29.03.2022
4559 Clouds 28 1012 73 10000 6.17 120 20:25 29.03.2022
4560 Clouds 28 1013 74 10000 8.23 130 19:20 29.03.2022
4561 Clouds 28 1013 73 10000 6.17 160 18:48 29.03.2022
4562 Clouds 27 1014 82 10000 4.63 100 17:40 29.03.2022
4563 Clouds 27 1015 79 9000 7.72 110 16:59 29.03.2022
4564 Clouds 27 1015 79 8000 7.72 110 16:20 29.03.2022
4565 Clouds 26 1015 69 10000 2.57 350 14:58 29.03.2022
4566 Clouds 26 1015 69 10000 2.57 350 14:39 29.03.2022
4567 Clouds 26 1015 88 10000 3.09 20 13:30 29.03.2022
4568 Clouds 24 917 76 10000 3.09 20 11:46 29.03.2022
4569 Rain 24 917 73 10000 2.57 350 10:59 29.03.2022
4570 Clouds 23 853 64 10000 2.06 310 09:50 29.03.2022
4571 Clouds 23 853 64 10000 2.57 260 08:32 29.03.2022
4572 Rain 23 854 66 10000 1.54 110 05:44 29.03.2022
4573 Clouds 25 918 69 10000 6.17 170 01:31 29.03.2022
4574 Clouds 26 1014 80 10000 5.66 170 23:26 28.03.2022
4575 Clouds 27 1013 73 10000 6.17 170 22:55 28.03.2022
4576 Clouds 27 1013 73 10000 6.17 170 22:30 28.03.2022
4577 Clouds 27 1013 76 10000 6.17 160 21:18 28.03.2022
4578 Rain 27 1013 72 10000 5.66 160 20:32 28.03.2022
4579 Clouds 28 1014 69 10000 5.14 140 19:46 28.03.2022
4580 Clouds 28 1014 69 10000 5.14 140 19:28 28.03.2022
4581 Clouds 28 1014 69 10000 5.66 150 18:40 28.03.2022
4582 Clouds 28 1016 69 10000 5.14 140 17:40 28.03.2022
4583 Clouds 28 1017 70 10000 4.63 150 16:38 28.03.2022
4584 Clouds 27 1016 76 10000 4.12 130 14:50 28.03.2022
4585 Clouds 27 1016 76 10000 4.12 130 14:22 28.03.2022
4586 Clouds 25 1015 87 10000 3.09 140 12:51 28.03.2022
4587 Clouds 23 917 77 10000 3.6 170 11:42 28.03.2022
4588 Clouds 22 853 66 10000 2.06 10 09:47 28.03.2022
4589 Clouds 22 853 66 10000 2.06 10 09:20 28.03.2022
4590 Clouds 23 853 66 10000 2.06 120 08:23 28.03.2022
4591 Clouds 23 853 66 10000 2.57 40 07:56 28.03.2022
4592 Clouds 23 853 66 10000 2.06 60 05:55 28.03.2022
4593 Rain 26 1014 78 10000 4.12 170 23:53 27.03.2022
4594 Clouds 26 1013 75 10000 6.69 170 22:25 27.03.2022
4595 Clouds 26 1013 75 10000 6.69 170 22:25 27.03.2022
4596 Clouds 26 1013 75 10000 6.69 170 22:25 27.03.2022
4597 Clouds 26 1013 76 10000 6.69 170 21:42 27.03.2022
4598 Clouds 27 1012 77 10000 8.23 130 20:58 27.03.2022
4599 Clouds 27 1012 78 10000 8.23 130 20:18 27.03.2022
4600 Clouds 27 1012 76 10000 9.26 140 19:34 27.03.2022
4601 Clouds 29 1013 76 10000 8.75 220 18:29 27.03.2022
4602 Clouds 29 1013 71 10000 7.2 120 17:42 27.03.2022
4603 Clouds 29 1013 71 10000 7.2 120 17:24 27.03.2022
4604 Clouds 29 1013 73 10000 5.14 150 15:39 27.03.2022
4605 Clouds 27 1012 77 9000 2.06 130 13:57 27.03.2022
4606 Clouds 26 1011 88 9000 1.54 330 12:50 27.03.2022
4607 Clouds 26 1011 86 9000 2.06 140 11:30 27.03.2022
4608 Clouds 26 1010 89 10000 2.06 230 09:32 27.03.2022
4609 Clouds 27 1010 78 10000 1.54 330 06:54 27.03.2022
4610 Clouds 29 1010 61 10000 4.12 240 01:55 27.03.2022
4611 Rain 26 1011 82 10000 0.36 306 00:25 27.03.2022
4612 Clouds 28 1007 67 10000 6.17 150 22:45 26.03.2022
4613 Clouds 29 1007 67 10000 7.2 170 21:50 26.03.2022
4614 Clouds 30 1007 65 10000 7.2 170 21:28 26.03.2022
4615 Clouds 30 1006 63 10000 8.23 160 19:31 26.03.2022
4616 Clouds 32 1007 54 10000 6.69 150 18:25 26.03.2022
4617 Clouds 35 1007 48 10000 5.66 170 17:34 26.03.2022
4618 Clear 34 1008 52 10000 4.12 10 16:30 26.03.2022
4619 Clear 33 1008 56 10000 3.6 40 15:37 26.03.2022
4620 Clear 30 1009 66 10000 3.09 30 13:55 26.03.2022
4621 Clear 29 1009 74 10000 2.57 360 13:19 26.03.2022
4622 Clear 26 1008 87 10000 2.57 360 11:42 26.03.2022
4623 Clear 26 1008 89 10000 3.09 320 10:44 26.03.2022
4624 Clear 25 1008 88 10000 2.06 350 08:46 26.03.2022
4625 Clear 26 1008 83 10000 1.54 40 06:37 26.03.2022
4626 Clear 26 1009 83 10000 2.57 50 05:29 26.03.2022
4627 Clear 28 1008 69 10000 3.09 190 00:54 26.03.2022
4628 Clear 32 1007 49 10000 7.2 190 21:58 25.03.2022
4629 Clouds 34 1007 43 10000 5.66 170 20:47 25.03.2022
4630 Clouds 34 1007 43 10000 5.66 170 20:24 25.03.2022
4631 Clouds 35 1007 45 10000 4.12 20 19:18 25.03.2022
4632 Clouds 35 1007 44 10000 4.63 350 18:22 25.03.2022
4633 Clear 34 1008 45 10000 4.63 30 17:28 25.03.2022
4634 Clear 32 1009 56 10000 4.63 10 16:27 25.03.2022
4635 Clear 33 1009 49 10000 3.09 50 15:26 25.03.2022
4636 Clear 28 1010 69 10000 3.09 350 13:28 25.03.2022
4637 Clear 24 1009 83 10000 4.12 350 10:50 25.03.2022
4638 Clear 23 1009 83 10000 1.54 60 09:28 25.03.2022
4639 Clear 23 1009 83 10000 1.54 90 08:43 25.03.2022
4640 Clear 24 1009 83 10000 1.03 80 07:35 25.03.2022
4641 Clear 24 1010 83 10000 1.03 70 06:29 25.03.2022
4642 Clear 27 1011 76 10000 3.6 100 02:28 25.03.2022
4643 Clear 30 1009 61 10000 4.63 200 22:56 24.03.2022
4644 Clear 30 1009 58 10000 5.14 190 21:56 24.03.2022
4645 Clear 31 1014 54 10000 4.63 160 20:51 24.03.2022
4646 Clear 32 1014 49 10000 4.12 150 19:49 24.03.2022
4647 Clouds 33 1028 46 10000 2.15 104 18:34 24.03.2022
4648 Clear 32 1017 47 10000 4.12 70 17:33 24.03.2022
4649 Clear 30 1017 49 10000 5.14 340 16:24 24.03.2022
4650 Clear 29 1019 54 10000 3.6 140 14:51 24.03.2022
4651 Clear 28 1015 56 10000 3.6 140 14:21 24.03.2022
4652 Clear 26 1015 66 10000 3.09 30 13:33 24.03.2022
4653 Clear 24 1014 74 10000 1.54 350 12:24 24.03.2022
4654 Clear 22 1013 85 10000 2.06 10 10:48 24.03.2022
4655 Clouds 21 1013 88 10000 1.03 0 09:24 24.03.2022
4656 Clouds 22 1013 83 10000 1.54 100 08:32 24.03.2022
4657 Clear 23 1015 73 10000 1.54 110 04:52 24.03.2022
4658 Clear 26 1014 66 10000 7.2 70 23:41 23.03.2022
4659 Clouds 27 1014 59 10000 5.66 80 22:18 23.03.2022
4660 Clouds 29 1014 53 10000 4.12 60 21:21 23.03.2022
4661 Clouds 28 1015 54 10000 4.63 50 19:56 23.03.2022
4662 Clouds 28 1015 54 10000 4.63 50 19:25 23.03.2022
4663 Clouds 29 1016 50 10000 4.12 40 17:48 23.03.2022
4664 Clouds 29 1020 50 10000 4.12 40 17:18 23.03.2022
4665 Clouds 27 1018 56 10000 4.12 40 15:25 23.03.2022
4666 Clouds 26 1018 59 10000 4.63 20 14:47 23.03.2022
4667 Clouds 25 1018 64 10000 3.6 70 13:30 23.03.2022
4668 Clear 23 1018 78 10000 2.57 60 11:24 23.03.2022
4669 Clouds 22 1018 78 10000 1.03 10 08:29 23.03.2022
4670 Clouds 24 1029 82 10000 1.54 100 05:50 23.03.2022
4671 Clouds 24 1026 75 10000 5.14 100 02:28 23.03.2022
4672 Clouds 24 1025 72 10000 3.09 100 00:26 23.03.2022
4673 Clouds 25 1023 66 10000 6.69 120 21:40 22.03.2022
4674 Clouds 25 1018 65 10000 6.69 120 20:59 22.03.2022
4675 Clouds 25 1018 65 10000 6.69 120 20:18 22.03.2022
4676 Clouds 26 1023 68 10000 7.2 130 19:26 22.03.2022
4677 Mist 24 1024 74 8000 4.63 140 18:46 22.03.2022
4678 Clouds 25 1024 73 8000 7.2 60 17:43 22.03.2022
4679 Clouds 26 1024 66 10000 3.6 160 16:39 22.03.2022
4680 Clouds 26 1025 65 10000 3.6 340 15:41 22.03.2022
4681 Clouds 25 1020 64 10000 3.6 340 15:19 22.03.2022
4682 Clouds 24 1021 73 10000 2.57 340 14:42 22.03.2022
4683 Clouds 23 1021 79 10000 2.57 350 13:42 22.03.2022
4684 Clouds 22 1020 86 10000 3.09 20 12:18 22.03.2022
4685 Mist 21 1019 92 8000 4.12 40 11:20 22.03.2022
4686 Clouds 22 1020 78 10000 3.6 140 09:28 22.03.2022
4687 Clouds 22 1020 78 10000 2.57 120 07:35 22.03.2022
4688 Clouds 23 1020 76 10000 3.6 40 03:58 22.03.2022
4689 Clouds 24 1021 69 10000 5.14 140 01:27 22.03.2022
4690 Clouds 24 1020 65 10000 4.12 140 22:57 21.03.2022
4691 Clouds 25 1019 62 10000 5.14 150 21:37 21.03.2022
4692 Clouds 25 1019 59 10000 5.14 140 20:44 21.03.2022
4693 Clouds 25 1019 60 10000 5.14 140 20:23 21.03.2022
4694 Clouds 25 1019 59 10000 6.17 140 19:47 21.03.2022
4695 Clouds 26 1019 59 10000 6.69 150 18:59 21.03.2022
4696 Clouds 26 1020 61 10000 5.66 160 17:36 21.03.2022
4697 Clouds 25 1020 71 10000 6.69 160 16:59 21.03.2022
4698 Clouds 25 1020 71 10000 6.69 160 16:35 21.03.2022
4699 Clouds 25 1020 74 10000 6.69 160 15:44 21.03.2022
4700 Rain 25 1020 69 10000 6.69 160 14:45 21.03.2022
4701 Rain 25 1020 66 10000 7.2 160 13:27 21.03.2022
4702 Clouds 23 1019 74 7000 7.72 170 12:22 21.03.2022
4703 Mist 23 1018 80 9000 7.72 170 11:34 21.03.2022
4704 Mist 24 1037 100 4500 4.63 320 09:53 21.03.2022
4705 Clouds 23 1027 94 7000 4.63 340 07:54 21.03.2022
4706 Rain 23 1027 92 6000 1.54 110 06:31 21.03.2022
4707 Rain 24 1017 91 8000 10.29 160 02:24 21.03.2022
4708 Thunderstorm 25 1015 90 10000 10.8 160 23:26 20.03.2022
4709 Rain 25 1014 89 10000 9.77 170 22:42 20.03.2022
4710 Rain 26 1013 87 10000 9.26 180 21:44 20.03.2022
4711 Rain 27 1013 80 10000 7.72 160 20:59 20.03.2022
4712 Rain 27 1013 80 10000 7.72 160 20:39 20.03.2022
4713 Rain 29 1013 72 10000 7.72 180 19:56 20.03.2022
4714 Clouds 29 1013 73 10000 7.72 180 19:26 20.03.2022
4715 Rain 30 1013 68 10000 7.72 190 17:51 20.03.2022
4716 Rain 30 1013 68 10000 7.72 190 17:29 20.03.2022
4717 Clouds 31 1013 64 10000 5.66 180 16:46 20.03.2022
4718 Clouds 29 1014 69 10000 3.6 130 14:54 20.03.2022
4719 Clouds 29 1013 74 10000 3.09 130 13:49 20.03.2022
4720 Clouds 27 1014 83 10000 4.12 250 12:22 20.03.2022
4721 Clouds 25 1011 89 10000 3.09 280 10:42 20.03.2022
4722 Clouds 27 1011 78 10000 3.6 290 08:37 20.03.2022
4723 Clear 27 1012 78 10000 4.12 280 06:55 20.03.2022
4724 Clear 27 1012 83 10000 3.6 310 04:23 20.03.2022
4725 Clear 27 1012 83 10000 4.63 270 01:29 20.03.2022
4726 Clear 29 1011 70 10000 5.14 260 00:36 20.03.2022
4727 Clear 29 1010 63 10000 4.63 160 22:56 19.03.2022
4728 Clear 31 1010 57 10000 6.69 240 21:27 19.03.2022
4729 Clear 32 1009 49 10000 6.17 180 20:28 19.03.2022
4730 Clear 34 1009 42 10000 3.6 40 18:44 19.03.2022
4731 Clear 34 1009 42 10000 3.6 40 18:23 19.03.2022
4732 Clear 34 1009 44 10000 4.12 30 17:35 19.03.2022
4733 Clear 33 1011 50 10000 4.12 20 15:43 19.03.2022
4734 Clear 30 1011 58 10000 4.12 50 14:30 19.03.2022
4735 Clear 28 1012 70 10000 2.57 330 12:58 19.03.2022
4736 Clear 28 1012 70 10000 2.57 330 12:38 19.03.2022
4737 Clear 26 1011 81 10000 3.09 340 11:51 19.03.2022
4738 Clear 25 1011 83 10000 2.06 350 10:45 19.03.2022
4739 Clear 25 1011 78 10000 2.57 70 06:29 19.03.2022
4740 Clear 27 1011 78 10000 2.06 70 03:24 19.03.2022
4741 Clear 29 1011 63 10000 2.06 80 01:41 19.03.2022
4742 Clear 30 1010 57 10000 4.12 140 23:36 18.03.2022
4743 Clear 29 1010 56 10000 5.14 140 22:27 18.03.2022
4744 Clouds 32 1010 48 10000 6.17 140 21:37 18.03.2022
4745 Clouds 34 1010 45 10000 6.17 160 19:51 18.03.2022
4746 Clouds 34 1010 45 10000 6.17 160 19:21 18.03.2022
4747 Clouds 33 1012 46 10000 4.12 30 17:50 18.03.2022
4748 Clouds 34 1013 46 10000 3.09 60 16:48 18.03.2022
4749 Clear 30 1014 65 10000 3.09 70 14:51 18.03.2022
4750 Clear 31 1014 58 10000 3.09 70 14:21 18.03.2022
4751 Clear 28 1013 70 10000 3.09 350 12:27 18.03.2022
4752 Clear 25 1012 86 10000 2.06 330 10:52 18.03.2022
4753 Clear 25 1012 83 10000 2.57 40 09:29 18.03.2022
4754 Clear 25 1011 83 10000 2.06 10 08:30 18.03.2022
4755 Clear 26 1012 78 10000 2.06 80 06:34 18.03.2022
4756 Clear 27 1012 73 10000 1.54 70 02:51 18.03.2022
4757 Clear 29 1011 69 10000 3.09 70 00:22 18.03.2022
4758 Clear 30 1011 63 10000 4.12 180 23:24 17.03.2022
4759 Clear 31 1010 54 10000 4.63 180 22:24 17.03.2022
4760 Clouds 31 1010 59 10000 5.14 130 21:48 17.03.2022
4761 Clouds 32 1010 54 10000 5.14 130 21:21 17.03.2022
4762 Clouds 32 1010 51 10000 6.17 130 20:44 17.03.2022
4763 Clouds 32 1010 52 10000 6.17 160 19:48 17.03.2022
4764 Clouds 33 1011 47 10000 5.66 160 18:59 17.03.2022
4765 Clouds 33 1011 47 10000 5.66 160 18:39 17.03.2022
4766 Clouds 32 1012 56 10000 4.63 160 16:58 17.03.2022
4767 Clouds 32 1013 55 10000 3.09 60 15:44 17.03.2022
4768 Clouds 32 1013 55 10000 3.09 60 15:25 17.03.2022
4769 Clear 31 1014 59 10000 3.09 40 14:29 17.03.2022
4770 Clear 28 1013 71 10000 2.06 10 12:55 17.03.2022
4771 Clear 28 1013 71 10000 2.06 10 12:25 17.03.2022
4772 Clear 26 1013 83 10000 2.06 100 11:29 17.03.2022
4773 Clear 25 1012 83 10000 1.03 110 10:30 17.03.2022
4774 Clear 25 1011 78 10000 2.06 20 08:37 17.03.2022
4775 Clear 25 1012 78 10000 2.57 40 07:36 17.03.2022
4776 Clear 26 1012 73 10000 1.03 110 05:47 17.03.2022
4777 Clear 28 1011 70 10000 4.12 100 01:37 17.03.2022
4778 Clouds 30 1010 61 10000 4.12 120 23:56 16.03.2022
4779 Clouds 30 1009 65 10000 5.66 190 22:50 16.03.2022
4780 Clouds 30 1009 65 10000 5.66 190 22:32 16.03.2022
4781 Clouds 31 1009 61 10000 5.14 170 21:42 16.03.2022
4782 Clouds 31 1009 61 10000 6.17 170 20:26 16.03.2022
4783 Clouds 31 1010 61 10000 6.69 170 19:21 16.03.2022
4784 Clouds 31 1010 65 10000 7.2 160 18:38 16.03.2022
4785 Clouds 31 1011 60 10000 6.69 160 17:43 16.03.2022
4786 Clouds 31 1011 60 10000 6.69 160 17:20 16.03.2022
4787 Clouds 29 1012 69 10000 4.12 140 15:55 16.03.2022
4788 Clouds 29 1013 70 10000 3.6 10 14:28 16.03.2022
4789 Clouds 28 1013 76 9000 3.09 340 13:32 16.03.2022
4790 Mist 26 1012 90 9000 3.6 80 11:57 16.03.2022
4791 Clouds 26 1012 89 8000 3.6 80 11:21 16.03.2022
4792 Clouds 25 1011 91 8000 3.09 70 10:27 16.03.2022
4793 Clouds 25 1011 88 10000 3.09 60 09:42 16.03.2022
4794 Clouds 26 1011 89 10000 1.54 30 06:27 16.03.2022
4795 Clouds 26 1012 86 10000 3.09 140 01:56 16.03.2022
4796 Thunderstorm 26 1010 85 10000 5.66 150 22:51 15.03.2022
4797 Rain 26 1010 85 10000 5.66 130 22:32 15.03.2022
4798 Clouds 29 1009 75 10000 8.23 170 20:36 15.03.2022
4799 Clouds 30 1009 68 10000 7.72 240 18:58 15.03.2022
4800 Clouds 31 1010 66 10000 7.2 160 17:24 15.03.2022
4801 Clouds 30 1010 65 8000 6.17 150 16:34 15.03.2022
4802 Clouds 31 1011 63 8000 4.12 150 15:21 15.03.2022
4803 Clouds 29 1011 70 7000 3.09 130 14:46 15.03.2022
4804 Clouds 28 1011 74 7000 2.06 130 13:55 15.03.2022
4805 Clouds 27 1011 77 7000 2.06 20 12:29 15.03.2022
4806 Clouds 26 1010 83 8000 1.54 330 11:32 15.03.2022
4807 Clouds 24 1009 88 10000 1.54 210 09:54 15.03.2022
4808 Clouds 25 1010 83 10000 1.54 230 08:49 15.03.2022
4809 Clouds 25 1010 83 10000 2.57 250 07:52 15.03.2022
4810 Clouds 25 1010 83 10000 2.57 250 07:34 15.03.2022
4811 Clouds 26 1011 78 10000 2.57 270 04:20 15.03.2022
4812 Clouds 28 1009 71 10000 7.2 190 23:58 14.03.2022
4813 Clouds 28 1009 71 10000 7.2 190 23:25 14.03.2022
4814 Clouds 27 1008 74 10000 6.69 170 22:30 14.03.2022
4815 Clouds 28 1007 73 10000 7.72 230 21:35 14.03.2022
4816 Clouds 29 1007 69 10000 7.2 170 20:54 14.03.2022
4817 Clouds 29 1007 70 10000 7.2 170 20:23 14.03.2022
4818 Clouds 29 1008 68 10000 7.72 160 19:21 14.03.2022
4819 Clouds 30 1009 67 8000 6.17 160 17:55 14.03.2022
4820 Clouds 30 1009 67 8000 6.17 160 17:24 14.03.2022
4821 Clouds 30 1010 65 8000 5.14 150 16:18 14.03.2022
4822 Clouds 29 1012 72 7000 3.09 30 14:41 14.03.2022
4823 Clouds 26 1012 84 9000 2.06 40 12:51 14.03.2022
4824 Clouds 24 1010 91 8000 2.57 140 10:54 14.03.2022
4825 Clouds 26 1010 83 8000 2.06 270 09:55 14.03.2022
4826 Clouds 26 1010 83 8000 2.06 270 09:22 14.03.2022
4827 Clouds 26 1010 83 8000 2.06 320 08:57 14.03.2022
4828 Clouds 25 1010 88 8000 1.54 320 07:43 14.03.2022
4829 Clouds 26 1011 83 10000 1.54 320 05:46 14.03.2022
4830 Clouds 26 1012 82 10000 3.09 240 01:58 14.03.2022
4831 Clouds 26 1012 82 10000 3.09 240 01:29 14.03.2022
4832 Thunderstorm 27 1011 79 10000 5.14 180 22:56 13.03.2022
4833 Clouds 28 1010 73 10000 7.2 180 21:31 13.03.2022
4834 Clouds 29 1010 70 10000 7.72 230 20:59 13.03.2022
4835 Clouds 29 1010 70 10000 7.72 230 20:37 13.03.2022
4836 Clouds 29 1010 72 10000 7.2 160 20:19 13.03.2022
4837 Clouds 29 1010 64 10000 8.23 240 19:39 13.03.2022
4838 Clouds 29 1010 64 10000 8.23 240 19:18 13.03.2022
4839 Clouds 29 1011 68 10000 7.72 160 18:39 13.03.2022
4840 Clouds 30 1012 60 10000 6.69 150 17:47 13.03.2022
4841 Clouds 30 1012 60 10000 6.69 150 17:21 13.03.2022
4842 Clouds 30 1012 61 10000 5.66 150 16:33 13.03.2022
4843 Clouds 29 1013 64 10000 4.63 10 15:49 13.03.2022
4844 Clouds 29 1014 67 7000 3.09 360 14:58 13.03.2022
4845 Clear 28 1014 72 7000 2.06 40 13:49 13.03.2022
4846 Clear 28 1014 72 7000 2.06 40 13:19 13.03.2022
4847 Clouds 26 1014 79 7000 1.54 50 12:19 13.03.2022
4848 Clouds 24 1013 92 7000 2.06 150 11:36 13.03.2022
4849 Clouds 23 1012 97 8000 2.57 160 10:48 13.03.2022
4850 Clouds 23 1012 97 8000 2.57 160 10:48 13.03.2022
4851 Clouds 23 1012 97 8000 2.57 160 10:24 13.03.2022
4852 Clouds 25 1013 88 10000 2.57 260 09:41 13.03.2022
4853 Clouds 25 1013 88 10000 2.57 260 09:41 13.03.2022
4854 Clouds 25 1013 88 10000 2.57 270 08:47 13.03.2022
4855 Clouds 25 1013 88 10000 3.09 240 07:47 13.03.2022
4856 Clouds 26 1013 83 10000 1.03 240 05:48 13.03.2022
4857 Clouds 26 1013 74 10000 1.54 170 02:50 13.03.2022
4858 Clouds 26 1012 73 10000 3.09 160 00:20 13.03.2022
4859 Clouds 27 1011 69 10000 4.63 120 22:37 12.03.2022
4860 Clouds 27 1011 69 10000 6.17 120 20:58 12.03.2022
4861 Clouds 27 1010 71 10000 6.69 120 19:56 12.03.2022
4862 Clouds 27 1010 71 10000 6.69 120 19:38 12.03.2022
4863 Clouds 28 1010 71 10000 6.69 150 18:27 12.03.2022
4864 Clouds 29 1011 70 10000 7.72 120 17:39 12.03.2022
4865 Clouds 31 1011 62 10000 7.72 170 16:24 12.03.2022
4866 Clouds 31 1012 61 10000 7.72 200 15:24 12.03.2022
4867 Clouds 31 1012 61 10000 7.72 200 15:24 12.03.2022
4868 Clouds 31 1012 61 10000 7.72 200 15:24 12.03.2022
4869 Clouds 29 1012 66 10000 8.23 200 14:51 12.03.2022
4870 Clouds 29 1011 68 10000 7.72 250 13:47 12.03.2022
4871 Clouds 29 1011 66 10000 4.63 320 12:18 12.03.2022
4872 Clouds 26 1010 84 10000 2.57 10 11:45 12.03.2022
4873 Clouds 26 1010 84 10000 2.57 10 11:19 12.03.2022
4874 Clouds 26 1009 86 10000 2.57 350 09:58 12.03.2022
4875 Clouds 25 1009 83 10000 1.54 290 09:38 12.03.2022
4876 Clouds 26 1009 78 10000 2.06 210 07:50 12.03.2022
4877 Clouds 28 1010 61 10000 3.09 240 04:50 12.03.2022
4878 Clouds 30 1008 63 10000 2.06 190 00:21 12.03.2022
4879 Clouds 30 1007 59 10000 4.12 180 23:28 11.03.2022
4880 Clouds 31 1007 56 10000 6.17 180 21:47 11.03.2022
4881 Clouds 30 1007 59 10000 7.2 170 20:57 11.03.2022
4882 Clouds 30 1007 59 10000 7.2 170 20:37 11.03.2022
4883 Clouds 30 1007 59 10000 7.2 170 20:37 11.03.2022
4884 Clouds 30 1008 62 10000 7.2 150 19:53 11.03.2022
4885 Clouds 30 1008 62 10000 7.2 150 19:26 11.03.2022
4886 Clouds 30 1009 64 10000 7.2 120 17:34 11.03.2022
4887 Clouds 31 1010 59 10000 6.17 150 16:42 11.03.2022
4888 Clear 31 1011 54 10000 5.14 150 15:57 11.03.2022
4889 Clear 32 1011 54 10000 3.6 110 14:22 11.03.2022
4890 Clear 28 1011 67 10000 3.09 360 12:53 11.03.2022
4891 Clear 28 1011 73 10000 3.09 360 12:21 11.03.2022
4892 Clear 27 1011 76 10000 2.57 340 11:56 11.03.2022
4893 Clear 25 1010 85 10000 2.06 350 10:18 11.03.2022
4894 Clear 25 1010 83 10000 1.54 120 08:57 11.03.2022
4895 Clear 25 1010 83 10000 1.54 120 08:24 11.03.2022
4896 Clear 25 1010 83 10000 1.03 110 07:46 11.03.2022
4897 Clear 26 1010 78 10000 2.57 100 05:49 11.03.2022
4898 Clear 26 1010 78 10000 0.51 90 04:22 11.03.2022
4899 Clear 29 1009 65 10000 4.12 130 23:49 10.03.2022
4900 Clouds 31 1008 57 10000 4.12 180 22:31 10.03.2022
4901 Clouds 32 1008 52 10000 5.66 180 21:50 10.03.2022
4902 Clouds 31 1008 56 10000 5.66 180 21:23 10.03.2022
4903 Clouds 31 1009 50 10000 6.69 160 19:51 10.03.2022
4904 Clouds 32 1010 50 10000 6.17 150 18:56 10.03.2022
4905 Clouds 33 1011 47 10000 4.12 150 17:36 10.03.2022
4906 Clouds 31 1012 55 10000 3.09 90 16:37 10.03.2022
4907 Clear 32 1012 50 10000 3.09 50 15:27 10.03.2022
4908 Clear 28 1013 69 10000 2.06 350 13:30 10.03.2022
4909 Clear 27 1013 79 10000 3.09 40 12:34 10.03.2022
4910 Clear 26 1012 85 10000 2.06 350 11:23 10.03.2022
4911 Clear 24 1012 94 10000 2.57 90 09:28 10.03.2022
4912 Clear 25 1012 88 10000 2.57 90 07:46 10.03.2022
4913 Clear 26 1013 83 10000 2.06 80 04:59 10.03.2022
4914 Clouds 27 1013 72 10000 5.14 100 01:53 10.03.2022
4915 Clouds 28 1012 66 10000 5.66 170 23:30 09.03.2022
4916 Clouds 29 1011 61 10000 7.72 120 21:56 09.03.2022
4917 Clouds 29 1011 61 10000 7.72 120 21:36 09.03.2022
4918 Clouds 30 1011 56 10000 7.72 240 19:56 09.03.2022
4919 Clouds 31 1011 51 10000 6.69 160 18:35 09.03.2022
4920 Clouds 31 1012 54 10000 7.72 240 17:27 09.03.2022
4921 Clouds 32 1013 47 10000 4.63 150 16:35 09.03.2022
4922 Clear 31 1014 52 10000 4.12 120 15:31 09.03.2022
4923 Clouds 29 1014 66 10000 2.57 340 13:54 09.03.2022
4924 Clouds 27 1014 73 10000 3.09 360 12:59 09.03.2022
4925 Clouds 27 1014 73 10000 3.09 360 12:19 09.03.2022
4926 Clouds 26 1013 84 10000 1.03 30 11:36 09.03.2022
4927 Clouds 25 1012 80 10000 1.54 90 10:39 09.03.2022
4928 Clear 24 1011 88 10000 1.03 60 08:59 09.03.2022
4929 Clear 24 1011 88 10000 1.03 60 08:25 09.03.2022
4930 Clear 26 1011 78 10000 2.06 50 04:47 09.03.2022
4931 Clear 28 1010 67 10000 3.6 190 00:52 09.03.2022
4932 Clear 29 1010 63 10000 5.14 180 23:18 08.03.2022
4933 Clear 30 1009 55 10000 6.69 180 22:44 08.03.2022
4934 Clouds 32 1009 47 10000 7.2 190 21:26 08.03.2022
4935 Clouds 32 1008 43 10000 6.69 140 20:54 08.03.2022
4936 Clouds 33 1009 43 10000 7.2 240 19:55 08.03.2022
4937 Clear 34 1009 37 10000 4.63 150 18:45 08.03.2022
4938 Clear 34 1010 41 10000 3.6 60 17:50 08.03.2022
4939 Clear 34 1011 43 10000 4.12 40 16:33 08.03.2022
4940 Clear 31 1012 54 10000 2.57 10 14:21 08.03.2022
4941 Clear 28 1013 70 10000 3.6 330 12:44 08.03.2022
4942 Clear 26 1012 79 10000 2.57 330 11:45 08.03.2022
4943 Clear 24 1012 85 10000 2.06 340 10:55 08.03.2022
4944 Clear 24 1012 85 10000 2.06 340 10:22 08.03.2022
4945 Clear 24 1010 83 10000 1.54 50 07:34 08.03.2022
4946 Clear 25 1011 83 10000 1.54 100 05:44 08.03.2022
4947 Clear 28 1009 68 10000 2.57 150 00:43 08.03.2022
4948 Clear 30 1008 59 10000 5.66 190 22:23 07.03.2022
4949 Clouds 32 1008 49 10000 6.17 180 21:35 07.03.2022
4950 Clouds 33 1008 48 10000 6.17 160 20:53 07.03.2022
4951 Clouds 33 1008 48 10000 6.17 160 20:20 07.03.2022
4952 Clouds 34 1008 43 10000 5.66 150 19:38 07.03.2022
4953 Clear 34 1009 43 10000 4.63 160 18:47 07.03.2022
4954 Clear 34 1010 43 10000 3.09 150 17:54 07.03.2022
4955 Clear 33 1011 46 10000 2.57 360 16:56 07.03.2022
4956 Clear 33 1011 46 10000 2.57 360 16:20 07.03.2022
4957 Clear 32 1012 52 10000 2.57 350 14:31 07.03.2022
4958 Clear 28 1012 70 10000 3.09 350 12:33 07.03.2022
4959 Clear 25 1011 83 10000 3.09 310 10:39 07.03.2022
4960 Clear 24 1010 88 10000 2.06 100 09:47 07.03.2022
4961 Clear 26 1020 79 10000 1.03 140 06:35 07.03.2022
4962 Clear 28 1015 69 10000 2.57 100 00:23 07.03.2022
4963 Clear 29 1013 66 10000 4.12 190 23:41 06.03.2022
4964 Clouds 31 1012 56 10000 6.17 190 22:58 06.03.2022
4965 Clear 32 1014 53 10000 5.14 110 22:24 06.03.2022
4966 Clear 32 1014 53 10000 5.14 110 22:24 06.03.2022
4967 Clouds 33 1009 48 10000 6.17 130 20:56 06.03.2022
4968 Clouds 33 1009 48 10000 6.17 130 20:28 06.03.2022
4969 Clouds 33 1013 47 10000 6.17 120 19:29 06.03.2022
4970 Clouds 33 1010 45 10000 5.66 160 18:25 06.03.2022
4971 Clouds 34 1014 45 10000 3.6 150 17:22 06.03.2022
4972 Clear 33 1011 46 10000 3.09 90 16:44 06.03.2022
4973 Clear 33 1011 46 10000 3.09 90 16:44 06.03.2022
4974 Clear 33 1017 52 10000 2.06 50 16:20 06.03.2022
4975 Clear 32 1016 53 10000 4.63 20 14:57 06.03.2022
4976 Clear 31 1012 55 10000 4.63 20 14:38 06.03.2022
4977 Clear 29 1013 63 10000 3.6 360 13:47 06.03.2022
4978 Clear 27 1012 71 10000 1.54 90 12:36 06.03.2022
4979 Clear 26 1012 78 10000 2.06 340 11:27 06.03.2022
4980 Clear 24 1012 85 10000 2.57 330 10:29 06.03.2022
4981 Clear 25 1021 82 10000 2.06 60 08:51 06.03.2022
4982 Clear 25 1021 82 10000 2.06 60 08:27 06.03.2022
4983 Clear 25 1012 78 10000 2.57 90 06:33 06.03.2022
4984 Clear 26 1011 75 10000 2.06 120 01:32 06.03.2022
4985 Clear 28 1010 70 10000 3.09 130 00:33 06.03.2022
4986 Clear 29 1014 65 10000 5.14 190 23:41 05.03.2022
4987 Clear 29 1014 65 10000 5.14 190 23:18 05.03.2022
4988 Clouds 29 1013 60 10000 5.14 180 22:31 05.03.2022
4989 Clouds 31 1013 56 10000 5.66 170 21:24 05.03.2022
4990 Clouds 32 1013 54 10000 6.69 170 19:56 05.03.2022
4991 Clouds 31 1014 57 10000 6.17 120 18:56 05.03.2022
4992 Clouds 31 1014 57 10000 6.17 120 18:34 05.03.2022
4993 Clear 31 1016 59 10000 4.63 150 16:57 05.03.2022
4994 Clear 31 1013 60 10000 3.6 140 15:49 05.03.2022
4995 Clear 29 1013 63 10000 3.09 360 14:53 05.03.2022
4996 Clear 29 1013 63 10000 3.09 360 14:34 05.03.2022
4997 Clear 28 1013 75 10000 4.12 340 13:35 05.03.2022
4998 Clouds 26 1018 90 10000 2.06 100 11:55 05.03.2022
4999 Clouds 25 1018 92 10000 2.06 100 11:20 05.03.2022
5000 Clouds 24 1018 95 10000 1.54 30 10:48 05.03.2022
5001 Clouds 24 1012 94 10000 1.54 40 09:28 05.03.2022
5002 Clear 26 1021 91 10000 1.54 50 07:59 05.03.2022
5003 Clear 25 1022 92 10000 1.03 120 06:29 05.03.2022
5004 Clear 26 1023 88 10000 1.54 70 04:54 05.03.2022
5005 Clouds 26 1013 78 10000 3.09 100 23:59 04.03.2022
5006 Clouds 26 1012 79 10000 3.09 50 22:45 04.03.2022
5007 Clouds 26 1012 79 10000 3.09 50 22:23 04.03.2022
5008 Clouds 27 1012 75 10000 4.63 20 21:39 04.03.2022
5009 Clouds 26 1012 82 6000 6.17 140 20:36 04.03.2022
5010 Clouds 27 1012 82 6000 8.23 150 19:36 04.03.2022
5011 Clouds 28 1012 76 6000 8.23 160 18:47 04.03.2022
5012 Mist 28 1012 78 4500 9.77 150 18:27 04.03.2022
5013 Fog 28 1012 78 6000 8.75 140 17:29 04.03.2022
5014 Clouds 30 1017 69 10000 6.17 130 15:48 04.03.2022
5015 Clear 30 1017 68 9000 3.6 150 14:45 04.03.2022
5016 Clear 29 1013 73 9000 2.06 180 13:34 04.03.2022
5017 Clear 26 1012 87 10000 1.54 340 11:59 04.03.2022
5018 Clear 25 1012 90 10000 1.54 340 11:28 04.03.2022
5019 Clear 24 1011 94 10000 2.06 30 10:23 04.03.2022
5020 Clear 25 1011 83 10000 1.54 260 09:27 04.03.2022
5021 Clear 26 1011 78 10000 2.06 280 07:47 04.03.2022
5022 Clear 26 1012 83 10000 2.06 330 05:44 04.03.2022
5023 Clear 27 1012 66 10000 3.6 170 01:23 04.03.2022
5024 Clear 29 1010 59 10000 5.14 180 23:31 03.03.2022
5025 Clouds 30 1014 58 10000 6.69 180 22:18 03.03.2022
5026 Clouds 30 1014 56 10000 6.69 180 21:36 03.03.2022
5027 Clouds 31 1010 53 10000 6.69 130 20:32 03.03.2022
5028 Clouds 32 1010 53 10000 6.17 130 19:22 03.03.2022
5029 Clouds 33 1010 47 10000 6.69 160 18:25 03.03.2022
5030 Clouds 33 1011 45 10000 6.17 160 17:31 03.03.2022
5031 Clear 33 1012 52 10000 3.6 160 16:41 03.03.2022
5032 Clear 32 1012 57 10000 3.6 30 15:44 03.03.2022
5033 Clear 32 1012 54 10000 3.6 50 14:44 03.03.2022
5034 Clear 32 1012 54 10000 3.6 50 14:25 03.03.2022
5035 Clear 28 1012 75 10000 3.09 350 12:33 03.03.2022
5036 Clear 26 1012 85 10000 2.06 360 11:23 03.03.2022
5037 Clear 25 1011 91 10000 2.57 360 10:38 03.03.2022
5038 Clear 25 1011 83 10000 3.09 350 08:42 03.03.2022
5039 Clear 26 1011 78 10000 2.57 220 06:57 03.03.2022
5040 Clear 27 1012 74 10000 2.06 290 05:44 03.03.2022
5041 Clear 30 1010 63 10000 4.63 80 00:30 03.03.2022
5042 Clear 30 1014 61 10000 4.12 180 23:18 02.03.2022
5043 Clouds 31 1013 56 10000 5.66 190 22:42 02.03.2022
5044 Clouds 33 1013 43 10000 3.6 180 21:22 02.03.2022
5045 Clouds 34 1013 39 10000 3.09 160 20:30 02.03.2022
5046 Clouds 35 1013 38 10000 3.6 40 19:43 02.03.2022
5047 Clouds 36 1009 40 10000 3.6 40 19:24 02.03.2022
5048 Clouds 36 1010 35 10000 4.12 60 18:39 02.03.2022
5049 Clouds 36 1010 35 10000 4.12 60 18:39 02.03.2022
5050 Clear 35 1011 37 10000 4.12 40 17:45 02.03.2022
5051 Clear 34 1012 43 10000 4.12 50 16:54 02.03.2022
5052 Clear 34 1012 43 10000 4.12 50 16:25 02.03.2022
5053 Clear 31 1013 60 10000 4.12 20 14:42 02.03.2022
5054 Clear 29 1013 64 10000 3.09 10 13:23 02.03.2022
5055 Clear 28 1013 71 10000 3.09 40 12:40 02.03.2022
5056 Clear 26 1012 85 10000 2.57 10 11:38 02.03.2022
5057 Clear 26 1012 85 10000 2.57 10 11:18 02.03.2022
5058 Clear 25 1010 88 10000 1.03 210 09:40 02.03.2022
5059 Clear 26 1010 83 10000 1.03 270 08:51 02.03.2022
5060 Clear 26 1011 83 10000 1.03 260 07:25 02.03.2022
5061 Clear 28 1020 57 10000 1.03 290 05:44 02.03.2022
5062 Clear 29 1009 67 10000 3.09 160 00:57 02.03.2022
5063 Clear 30 1008 58 10000 4.12 190 23:46 01.03.2022
5064 Clear 31 1008 53 10000 5.14 180 22:45 01.03.2022
5065 Clear 33 1007 47 10000 6.17 180 21:56 01.03.2022
5066 Clear 33 1007 47 10000 6.17 180 21:21 01.03.2022
5067 Clear 34 1008 42 10000 5.14 50 20:24 01.03.2022
5068 Clear 34 1008 39 10000 5.14 170 19:24 01.03.2022
5069 Clear 34 1009 38 10000 5.66 80 18:37 01.03.2022
5070 Clear 34 1009 38 10000 5.66 80 18:18 01.03.2022
5071 Clear 34 1010 46 10000 4.12 50 16:54 01.03.2022
5072 Clear 34 1010 46 10000 4.12 50 16:30 01.03.2022
5073 Clear 33 1010 48 10000 3.6 10 15:32 01.03.2022
5074 Clear 32 1011 56 10000 3.6 20 14:34 01.03.2022
5075 Clear 30 1011 65 10000 2.57 350 13:45 01.03.2022
5076 Clear 30 1011 65 10000 2.57 350 13:22 01.03.2022
5077 Clear 28 1011 70 10000 2.57 340 12:27 01.03.2022
5078 Clear 25 1010 85 10000 4.12 350 10:33 01.03.2022
5079 Clear 25 1010 88 10000 3.09 30 08:41 01.03.2022
5080 Clear 25 1011 88 10000 3.09 40 07:44 01.03.2022
5081 Clear 26 1011 83 10000 5.14 60 05:49 01.03.2022
5082 Clear 28 1010 74 10000 2.57 110 01:48 01.03.2022
5083 Clear 28 1010 72 10000 3.09 60 00:34 01.03.2022
5084 Clear 30 1009 61 10000 4.63 180 23:29 28.02.2022
5085 Clear 32 1008 54 10000 4.12 100 21:59 28.02.2022
5086 Clear 32 1008 54 10000 4.12 100 21:25 28.02.2022
5087 Clear 33 1009 49 10000 4.63 160 19:55 28.02.2022
5088 Clear 33 1009 49 10000 4.63 160 19:33 28.02.2022
5089 Clear 32 1010 54 10000 4.12 160 18:40 28.02.2022
5090 Clear 32 1011 53 10000 3.6 100 17:30 28.02.2022
5091 Clear 31 1011 56 10000 2.57 120 16:33 28.02.2022
5092 Clear 30 1012 69 10000 2.06 90 15:24 28.02.2022
5093 Clear 29 1012 72 10000 2.06 30 14:32 28.02.2022
5094 Clear 28 1013 73 10000 1.54 30 13:47 28.02.2022
5095 Clear 27 1012 82 10000 1.54 10 12:47 28.02.2022
5096 Clouds 25 1012 88 10000 2.57 100 11:58 28.02.2022
5097 Clouds 24 1011 91 10000 2.57 90 10:49 28.02.2022
5098 Clouds 24 1011 91 10000 2.06 80 10:21 28.02.2022
5099 Clouds 24 1011 94 10000 1.54 90 09:33 28.02.2022
5100 Clouds 24 1011 94 10000 2.06 80 08:44 28.02.2022
5101 Clouds 24 1011 94 10000 2.06 100 07:43 28.02.2022
5102 Clear 25 1012 94 10000 2.57 110 05:25 28.02.2022
5103 Clear 25 1013 83 10000 3.09 100 04:27 28.02.2022
5104 Clouds 27 1012 77 10000 5.14 190 23:45 27.02.2022
5105 Clouds 28 1011 68 10000 6.17 130 22:36 27.02.2022
5106 Clouds 29 1011 67 10000 7.2 180 21:52 27.02.2022
5107 Clouds 29 1011 67 10000 7.2 180 21:27 27.02.2022
5108 Clouds 30 1011 64 10000 6.69 170 20:37 27.02.2022
5109 Clouds 30 1011 64 10000 7.2 160 19:59 27.02.2022
5110 Clouds 30 1011 64 10000 7.2 160 19:27 27.02.2022
5111 Clouds 30 1012 67 10000 7.2 160 18:56 27.02.2022
5112 Clouds 31 1013 62 10000 6.69 250 17:57 27.02.2022
5113 Clouds 31 1013 62 10000 6.69 250 17:26 27.02.2022
5114 Clouds 29 1014 69 10000 5.66 160 16:22 27.02.2022
5115 Clouds 28 1015 76 10000 2.57 90 13:49 27.02.2022
5116 Clouds 27 1015 82 10000 2.57 90 12:35 27.02.2022
5117 Clouds 26 1015 89 10000 2.57 60 11:36 27.02.2022
5118 Clouds 25 1014 91 10000 2.06 90 10:36 27.02.2022
5119 Clouds 25 1014 88 10000 1.54 70 09:52 27.02.2022
5120 Clouds 25 1014 88 10000 1.54 70 09:21 27.02.2022
5121 Clouds 25 1014 88 10000 2.06 70 08:38 27.02.2022
5122 Clouds 25 1014 88 10000 3.09 90 05:43 27.02.2022
5123 Clouds 26 1015 89 10000 3.09 170 03:26 27.02.2022
5124 Clouds 27 1014 81 10000 7.2 150 23:51 26.02.2022
5125 Clouds 27 1014 82 10000 7.72 160 22:42 26.02.2022
5126 Clouds 28 1013 79 10000 7.72 160 21:26 26.02.2022
5127 Clouds 29 1013 73 10000 7.72 120 20:41 26.02.2022
5128 Clouds 29 1014 69 10000 8.23 120 19:55 26.02.2022
5129 Clouds 29 1014 69 10000 8.23 120 19:33 26.02.2022
5130 Clouds 31 1014 61 10000 8.23 110 18:33 26.02.2022
5131 Clouds 30 1014 69 10000 7.2 160 17:34 26.02.2022
5132 Clouds 30 1015 67 10000 5.14 160 16:39 26.02.2022
5133 Clouds 29 1016 71 10000 4.12 140 15:38 26.02.2022
5134 Clouds 29 1016 71 10000 4.12 140 15:19 26.02.2022
5135 Clouds 28 1016 75 10000 3.09 20 14:42 26.02.2022
5136 Clouds 28 1016 78 10000 2.06 360 13:53 26.02.2022
5137 Clouds 27 1016 79 10000 2.06 0 12:53 26.02.2022
5138 Clouds 25 1016 90 10000 2.06 30 11:52 26.02.2022
5139 Clouds 25 1016 90 10000 2.06 30 11:25 26.02.2022
5140 Clear 24 1015 89 10000 1.54 30 10:19 26.02.2022
5141 Clouds 24 1015 88 10000 2.57 10 08:35 26.02.2022
5142 Clear 25 1016 83 10000 2.06 40 06:40 26.02.2022
5143 Clouds 27 1021 86 10000 5.66 140 00:25 26.02.2022
5144 Clouds 27 1019 77 10000 7.72 140 22:44 25.02.2022
5145 Clouds 28 1020 74 10000 7.72 140 21:33 25.02.2022
5146 Clouds 29 1019 69 10000 8.23 140 20:57 25.02.2022
5147 Clouds 29 1019 70 10000 8.23 140 20:28 25.02.2022
5148 Clouds 30 1019 66 10000 7.2 160 18:18 25.02.2022
5149 Clouds 30 1015 64 10000 5.66 170 17:20 25.02.2022
5150 Clouds 30 1020 64 10000 5.14 160 16:19 25.02.2022
5151 Clouds 29 1017 69 10000 4.12 150 15:42 25.02.2022
5152 Clouds 29 1017 69 10000 4.12 150 15:18 25.02.2022
5153 Clouds 28 1017 74 10000 3.09 140 14:39 25.02.2022
5154 Clouds 27 1017 82 10000 2.57 10 13:36 25.02.2022
5155 Clouds 26 1017 85 10000 1.54 30 12:45 25.02.2022
5156 Clouds 25 1017 92 10000 1.54 30 11:28 25.02.2022
5157 Clouds 25 1015 94 10000 2.06 10 10:29 25.02.2022
5158 Clouds 24 1016 94 10000 2.06 140 09:53 25.02.2022
5159 Clouds 24 1016 94 10000 2.57 140 08:46 25.02.2022
5160 Clouds 25 1017 88 10000 1.03 120 07:41 25.02.2022
5161 Clouds 25 1017 88 10000 1.54 100 05:48 25.02.2022
5162 Clouds 26 1017 89 10000 1.54 140 03:34 25.02.2022
5163 Clouds 27 1019 84 10000 5.14 180 23:47 24.02.2022
5164 Clouds 28 1018 74 10000 5.14 110 21:56 24.02.2022
5165 Clouds 28 1017 73 10000 5.14 110 21:38 24.02.2022
5166 Clouds 28 1017 74 10000 5.14 110 21:19 24.02.2022
5167 Clouds 29 1017 72 10000 7.2 240 19:38 24.02.2022
5168 Clouds 29 1017 71 10000 6.17 170 18:43 24.02.2022
5169 Clouds 29 1017 69 10000 6.17 170 18:19 24.02.2022
5170 Clouds 29 1018 71 10000 5.66 170 17:33 24.02.2022
5171 Clouds 29 1018 74 10000 5.14 240 16:49 24.02.2022
5172 Clouds 29 1018 74 10000 5.14 240 16:23 24.02.2022
5173 Clouds 29 1020 72 10000 3.09 130 14:56 24.02.2022
5174 Clouds 29 1020 72 10000 3.09 130 14:36 24.02.2022
5175 Clouds 28 1014 80 10000 2.06 50 13:39 24.02.2022
5176 Clouds 27 1014 79 10000 2.06 290 12:54 24.02.2022
5177 Clouds 25 1012 91 9000 2.06 270 10:41 24.02.2022
5178 Clouds 25 1012 91 9000 2.06 270 10:41 24.02.2022
5179 Clouds 25 1011 88 10000 2.06 300 09:24 24.02.2022
5180 Clouds 25 1011 88 10000 2.57 290 08:41 24.02.2022
5181 Clouds 26 1012 83 10000 3.09 250 05:58 24.02.2022
5182 Clouds 27 1018 83 10000 4.12 190 01:58 24.02.2022
5183 Clouds 27 1016 85 10000 5.14 170 23:40 23.02.2022
5184 Clouds 28 1015 86 10000 7.2 240 21:53 23.02.2022
5185 Clouds 28 1013 84 10000 8.23 110 20:32 23.02.2022
5186 Clouds 29 1013 82 10000 8.75 120 19:49 23.02.2022
5187 Clouds 29 1014 78 10000 8.23 160 18:42 23.02.2022
5188 Clouds 30 1014 73 10000 7.2 160 17:45 23.02.2022
5189 Clouds 30 1012 69 10000 3.6 160 15:26 23.02.2022
5190 Clear 27 1012 79 10000 2.57 340 13:34 23.02.2022
5191 Clear 27 1012 82 10000 1.54 10 12:26 23.02.2022
5192 Clouds 25 1011 91 8000 2.57 360 10:45 23.02.2022
5193 Clouds 24 1011 94 10000 1.54 100 09:24 23.02.2022
5194 Clouds 25 1021 97 10000 3.09 60 08:27 23.02.2022
5195 Clouds 25 1021 97 10000 2.06 60 07:19 23.02.2022
5196 Clouds 25 1021 97 10000 2.06 60 07:19 23.02.2022
5197 Clouds 27 1019 85 10000 2.06 340 01:22 23.02.2022
5198 Clouds 27 1016 79 10000 3.6 140 23:46 22.02.2022
5199 Clouds 27 1016 79 10000 3.6 140 23:28 22.02.2022
5200 Clouds 28 1016 75 10000 6.17 240 21:59 22.02.2022
5201 Clouds 28 1016 74 10000 6.17 240 21:40 22.02.2022
5202 Clouds 28 1016 74 10000 6.17 240 21:19 22.02.2022
5203 Clouds 30 1015 69 10000 7.72 180 20:31 22.02.2022
5204 Clouds 31 1015 64 10000 6.69 170 19:54 22.02.2022
5205 Clouds 31 1015 63 10000 6.69 170 19:33 22.02.2022
5206 Clouds 31 1016 64 10000 6.17 170 18:35 22.02.2022
5207 Clouds 31 1016 65 10000 6.17 160 17:27 22.02.2022
5208 Clouds 31 1017 62 10000 4.63 100 16:55 22.02.2022
5209 Clouds 31 1017 62 10000 4.63 100 16:19 22.02.2022
5210 Clouds 31 1018 67 10000 4.12 60 15:18 22.02.2022
5211 Clear 28 1014 78 10000 3.09 340 13:37 22.02.2022
5212 Clear 25 1013 92 10000 1.54 340 11:18 22.02.2022
5213 Clouds 24 1012 94 10000 1.03 80 09:22 22.02.2022
5214 Clouds 25 1023 97 10000 1.54 60 07:29 22.02.2022
5215 Clouds 25 1023 100 10000 1.03 110 06:54 22.02.2022
5216 Rain 25 1020 94 10000 4.63 20 02:49 22.02.2022
5217 Thunderstorm 25 1018 93 6000 7.2 100 23:18 21.02.2022
5218 Rain 26 1017 86 6000 12.35 60 22:36 21.02.2022
5219 Thunderstorm 30 1015 67 10000 6.17 190 20:52 21.02.2022
5220 Clouds 32 1016 58 10000 4.12 80 18:47 21.02.2022
5221 Clouds 32 1016 65 10000 4.12 80 18:19 21.02.2022
5222 Clouds 32 1017 60 10000 2.57 110 16:23 21.02.2022
5223 Clouds 29 1014 73 10000 3.09 50 14:23 21.02.2022
5224 Clouds 28 1014 79 10000 2.57 40 13:31 21.02.2022
5225 Clouds 28 1014 79 10000 2.57 40 13:31 21.02.2022
5226 Clouds 26 1018 91 7000 2.06 10 12:46 21.02.2022
5227 Clouds 26 1018 92 7000 2.06 10 12:21 21.02.2022
5228 Clouds 24 1013 94 8000 2.57 40 10:29 21.02.2022
5229 Clear 24 1012 94 10000 1.03 20 07:48 21.02.2022
5230 Clouds 26 1019 88 10000 5.14 190 00:35 21.02.2022
5231 Rain 27 1016 80 10000 6.17 180 22:32 20.02.2022
5232 Clouds 28 1017 73 10000 4.12 150 21:44 20.02.2022
5233 Clouds 28 1017 71 10000 4.12 150 21:24 20.02.2022
5234 Clouds 29 1016 68 10000 5.14 120 20:43 20.02.2022
5235 Clouds 30 1015 68 10000 6.17 150 19:49 20.02.2022
5236 Clouds 31 1017 61 10000 3.6 100 18:56 20.02.2022
5237 Clouds 30 1012 65 10000 3.6 140 18:36 20.02.2022
5238 Clear 30 1012 59 10000 3.09 120 17:55 20.02.2022
5239 Clear 29 1012 71 10000 3.09 110 16:59 20.02.2022
5240 Clear 28 1013 75 10000 4.12 120 15:27 20.02.2022
5241 Clouds 26 1017 86 10000 3.6 10 13:58 20.02.2022
5242 Clouds 25 1013 89 10000 3.6 20 12:45 20.02.2022
5243 Clouds 24 1012 95 8000 3.6 10 11:50 20.02.2022
5244 Clouds 24 1012 97 8000 4.12 10 10:21 20.02.2022
5245 Rain 24 1012 94 6000 1.54 160 09:24 20.02.2022
5246 Rain 23 1012 94 8000 2.57 120 06:28 20.02.2022
5247 Clouds 25 1017 94 10000 3.6 100 00:32 20.02.2022
5248 Clouds 25 1016 92 10000 4.12 130 23:33 19.02.2022
5249 Clouds 25 1014 89 10000 4.63 170 22:24 19.02.2022
5250 Rain 25 1014 84 10000 5.14 130 21:45 19.02.2022
5251 Rain 26 1014 79 10000 6.17 130 20:26 19.02.2022
5252 Rain 27 1014 78 10000 7.2 120 19:34 19.02.2022
5253 Clouds 27 1014 75 10000 7.2 120 18:40 19.02.2022
5254 Clouds 27 1014 75 10000 7.2 120 18:40 19.02.2022
5255 Clouds 28 1014 74 10000 5.66 170 17:57 19.02.2022
5256 Clouds 28 1015 75 10000 4.12 160 16:47 19.02.2022
5257 Clouds 27 1015 71 10000 2.57 140 15:59 19.02.2022
5258 Clouds 26 1011 79 10000 1.03 0 14:54 19.02.2022
5259 Clouds 25 1015 87 10000 2.06 10 13:57 19.02.2022
5260 Clouds 24 1010 93 10000 2.06 60 11:47 19.02.2022
5261 Clouds 23 1009 94 10000 1.54 330 10:54 19.02.2022
5262 Rain 23 1009 94 8000 3.09 280 08:57 19.02.2022
5263 Clouds 23 1010 88 8000 2.06 350 06:48 19.02.2022
5264 Rain 25 1009 89 5000 3.6 170 00:38 19.02.2022
5265 Mist 25 1007 83 9000 6.17 240 22:24 18.02.2022
5266 Rain 26 1007 80 10000 6.17 180 21:22 18.02.2022
5267 Clouds 27 1007 76 9000 5.14 190 20:18 18.02.2022
5268 Rain 26 1007 79 9000 5.66 180 19:25 18.02.2022
5269 Mist 27 1008 79 8000 5.14 120 18:29 18.02.2022
5270 Haze 26 1008 81 7000 2.57 220 17:56 18.02.2022
5271 Clouds 27 1012 85 7000 3.09 360 16:19 18.02.2022
5272 Mist 25 1013 93 5000 1.03 20 14:19 18.02.2022
5273 Rain 24 1013 95 5000 2.57 330 13:45 18.02.2022
5274 Rain 24 1008 94 6000 3.09 350 12:48 18.02.2022
5275 Rain 24 1008 96 8000 2.06 290 11:56 18.02.2022
5276 Rain 24 1007 94 8000 2.06 290 10:42 18.02.2022
5277 Clouds 23 1008 94 10000 1.54 250 07:21 18.02.2022
5278 Clouds 23 1010 94 10000 1.54 280 05:52 18.02.2022
5279 Clouds 23 1010 94 10000 1.54 280 05:34 18.02.2022
5280 Thunderstorm 26 1009 79 4500 7.72 130 21:59 17.02.2022
5281 Thunderstorm 27 1008 75 8000 7.72 180 21:33 17.02.2022
5282 Clouds 28 1008 68 10000 8.23 160 20:42 17.02.2022
5283 Clouds 29 1012 70 10000 7.72 170 19:55 17.02.2022
5284 Clouds 29 1013 67 10000 7.72 170 19:22 17.02.2022
5285 Clouds 31 1009 56 10000 6.17 250 18:29 17.02.2022
5286 Clouds 31 1010 56 10000 4.63 150 17:30 17.02.2022
5287 Clouds 29 1012 64 10000 5.66 170 15:57 17.02.2022
5288 Clouds 28 1012 64 10000 4.63 150 14:29 17.02.2022
5289 Clear 27 1012 71 10000 3.09 170 13:31 17.02.2022
5290 Clear 24 1013 87 10000 1.54 20 11:48 17.02.2022
5291 Clouds 23 1012 91 10000 2.06 40 10:20 17.02.2022
5292 Clouds 23 1012 88 10000 1.03 360 07:45 17.02.2022
5293 Clouds 25 1013 77 10000 5.66 120 23:23 16.02.2022
5294 Clouds 26 1017 75 10000 6.17 130 22:28 16.02.2022
5295 Clouds 27 1017 70 10000 7.72 120 20:22 16.02.2022
5296 Clouds 28 1018 70 10000 6.69 160 18:56 16.02.2022
5297 Clouds 28 1018 70 10000 6.69 160 18:27 16.02.2022
5298 Clouds 28 1019 78 10000 5.66 130 17:22 16.02.2022
5299 Clouds 28 1015 67 9000 4.63 160 15:22 16.02.2022
5300 Clouds 27 1015 77 9000 3.6 140 13:40 16.02.2022
5301 Clouds 26 1014 83 9000 2.57 120 12:26 16.02.2022
5302 Clouds 24 1014 93 10000 1.54 140 11:46 16.02.2022
5303 Clouds 25 1013 91 10000 2.06 330 10:34 16.02.2022
5304 Clouds 24 1013 94 8000 2.57 350 09:38 16.02.2022
5305 Clouds 25 1014 88 10000 2.06 90 06:43 16.02.2022
5306 Clouds 26 1014 81 10000 3.6 180 00:37 16.02.2022
5307 Clouds 26 1012 81 10000 5.66 170 22:34 15.02.2022
5308 Clouds 27 1016 80 10000 7.2 180 21:50 15.02.2022
5309 Clouds 28 1016 80 10000 7.2 180 21:29 15.02.2022
5310 Clouds 27 1011 81 10000 7.72 180 20:58 15.02.2022
5311 Clouds 27 1011 81 10000 6.17 160 20:22 15.02.2022
5312 Clouds 28 1012 80 10000 7.72 180 19:45 15.02.2022
5313 Clouds 30 1012 69 10000 6.17 200 18:26 15.02.2022
5314 Clouds 30 1012 69 10000 6.69 210 17:53 15.02.2022
5315 Clouds 30 1012 69 10000 6.69 210 17:32 15.02.2022
5316 Clouds 29 1012 68 10000 4.63 260 15:43 15.02.2022
5317 Clouds 29 1012 69 10000 3.09 230 14:31 15.02.2022
5318 Clouds 28 1012 73 9000 3.09 20 13:25 15.02.2022
5319 Clouds 26 1012 88 9000 2.57 40 11:41 15.02.2022
5320 Clouds 25 1010 91 10000 1.54 90 10:27 15.02.2022
5321 Clouds 25 1009 88 10000 3.09 310 08:42 15.02.2022
5322 Clouds 25 1010 94 10000 2.06 270 06:46 15.02.2022
5323 Thunderstorm 27 1009 77 10000 4.12 30 23:35 14.02.2022
5324 Clouds 29 1007 68 10000 9.26 240 21:57 14.02.2022
5325 Clouds 30 1006 63 10000 8.23 230 20:53 14.02.2022
5326 Clouds 30 1007 69 10000 7.72 120 19:49 14.02.2022
5327 Clouds 30 1007 69 10000 7.72 120 19:29 14.02.2022
5328 Clouds 31 1007 65 10000 7.72 160 18:24 14.02.2022
5329 Clouds 32 1008 59 10000 6.17 160 17:30 14.02.2022
5330 Clouds 31 1008 64 10000 3.09 260 16:37 14.02.2022
5331 Clouds 31 1009 64 10000 3.09 30 15:42 14.02.2022
5332 Clouds 28 1009 76 10000 4.12 160 13:36 14.02.2022
5333 Clouds 27 1009 81 10000 2.06 160 12:59 14.02.2022
5334 Clouds 27 1009 81 10000 2.06 160 12:32 14.02.2022
5335 Clouds 26 1009 92 10000 3.09 160 11:39 14.02.2022
5336 Clouds 24 1008 97 10000 2.57 170 10:22 14.02.2022
5337 Clouds 25 1008 88 10000 2.57 320 08:26 14.02.2022
5338 Clouds 25 1008 88 10000 2.57 300 07:26 14.02.2022
5339 Clouds 27 1009 79 10000 5.14 190 23:19 13.02.2022
5340 Clouds 27 1008 79 10000 5.66 180 22:41 13.02.2022
5341 Clouds 27 1008 81 10000 5.66 180 22:22 13.02.2022
5342 Clouds 28 1008 75 10000 6.69 190 21:24 13.02.2022
5343 Clouds 28 1009 72 10000 7.2 170 20:30 13.02.2022
5344 Clouds 28 1009 71 10000 7.2 170 19:23 13.02.2022
5345 Clouds 30 1010 68 10000 4.63 140 18:41 13.02.2022
5346 Clouds 29 1011 64 10000 4.12 120 17:52 13.02.2022
5347 Clouds 28 1012 65 10000 4.63 150 15:53 13.02.2022
5348 Clouds 27 1012 71 10000 3.09 170 14:57 13.02.2022
5349 Clouds 26 1012 78 10000 2.57 10 13:59 13.02.2022
5350 Clouds 25 1012 83 10000 2.06 30 12:49 13.02.2022
5351 Clouds 23 1012 92 10000 3.09 30 11:24 13.02.2022
5352 Clouds 23 1011 91 10000 2.06 30 10:28 13.02.2022
5353 Clouds 22 1011 94 10000 1.54 20 09:36 13.02.2022
5354 Clouds 23 1011 94 10000 2.57 300 07:19 13.02.2022
5355 Clouds 24 1013 85 9000 6.17 50 00:35 13.02.2022
5356 Clouds 25 1013 82 10000 8.23 60 23:39 12.02.2022
5357 Clouds 25 1012 81 10000 5.14 140 22:33 12.02.2022
5358 Clouds 26 1011 73 10000 8.23 120 21:19 12.02.2022
5359 Clouds 27 1011 71 10000 5.66 160 20:32 12.02.2022
5360 Clouds 27 1011 72 10000 5.14 160 19:21 12.02.2022
5361 Clouds 27 1011 70 10000 6.69 120 18:52 12.02.2022
5362 Clouds 27 1011 70 10000 5.66 160 18:34 12.02.2022
5363 Clouds 27 1013 74 10000 4.63 160 16:56 12.02.2022
5364 Clouds 27 1013 76 10000 4.63 160 16:25 12.02.2022
5365 Clouds 27 1013 76 10000 4.63 160 16:25 12.02.2022
5366 Clouds 26 1013 77 10000 3.6 150 15:50 12.02.2022
5367 Clouds 26 1014 75 10000 2.57 100 14:31 12.02.2022
5368 Clouds 24 1014 89 10000 1.03 60 12:58 12.02.2022
5369 Clouds 24 1018 94 10000 2.06 340 10:41 12.02.2022
5370 Clouds 23 1012 94 10000 1.03 340 09:39 12.02.2022
5371 Clouds 23 1012 94 10000 1.03 340 09:20 12.02.2022
5372 Clouds 23 1012 94 10000 1.03 0 08:18 12.02.2022
5373 Clouds 23 1012 94 10000 1.03 0 08:18 12.02.2022
5374 Rain 23 1013 94 10000 1.54 60 05:33 12.02.2022
5375 Clouds 23 1013 88 10000 2.06 30 04:27 12.02.2022
5376 Clouds 24 1014 83 10000 2.57 60 02:18 12.02.2022
5377 Clouds 24 1012 87 8000 7.2 130 22:37 11.02.2022
5378 Mist 24 1012 89 4500 6.69 150 22:18 11.02.2022
5379 Clouds 26 1012 81 10000 6.69 160 20:41 11.02.2022
5380 Clouds 27 1016 74 10000 5.14 160 19:47 11.02.2022
5381 Clouds 27 1017 73 10000 5.14 120 19:27 11.02.2022
5382 Clouds 27 1013 68 9000 4.12 160 17:59 11.02.2022
5383 Clouds 27 1013 69 9000 4.12 160 17:26 11.02.2022
5384 Clouds 27 1013 68 10000 2.57 230 16:26 11.02.2022
5385 Clouds 25 1014 77 9000 2.57 360 14:44 11.02.2022
5386 Clouds 25 1014 77 9000 2.57 360 14:23 11.02.2022
5387 Clouds 24 1013 81 10000 1.54 20 13:59 11.02.2022
5388 Clouds 24 1013 81 10000 1.54 20 13:39 11.02.2022
5389 Clouds 24 1017 85 10000 2.57 350 12:19 11.02.2022
5390 Rain 23 1012 94 10000 2.06 10 10:24 11.02.2022
5391 Clouds 22 1011 94 10000 1.54 290 08:49 11.02.2022
5392 Rain 22 1011 94 10000 1.54 290 08:27 11.02.2022
5393 Clouds 22 1012 88 10000 1.54 310 07:22 11.02.2022
5394 Clouds 24 1014 80 10000 3.09 360 02:40 11.02.2022
5395 Clouds 24 1014 80 10000 3.09 360 02:40 11.02.2022
5396 Rain 24 1014 80 10000 3.09 360 02:19 11.02.2022
5397 Clouds 24 1013 75 10000 3.09 140 23:20 10.02.2022
5398 Clouds 25 1011 77 10000 5.14 160 21:53 10.02.2022
5399 Clouds 25 1011 77 10000 5.14 160 21:24 10.02.2022
5400 Clouds 25 1011 77 10000 4.12 150 20:48 10.02.2022
5401 Clouds 26 1012 73 10000 4.12 140 19:26 10.02.2022
5402 Clouds 26 1012 73 10000 2.06 110 18:47 10.02.2022
5403 Clouds 26 1012 72 10000 2.57 20 17:27 10.02.2022
5404 Clouds 26 1013 73 10000 2.57 350 16:57 10.02.2022
5405 Clouds 25 1013 76 10000 2.57 350 16:20 10.02.2022
5406 Clouds 25 1013 76 8000 2.06 340 15:33 10.02.2022
5407 Clouds 24 1013 81 8000 3.09 10 14:49 10.02.2022
5408 Clouds 24 1013 81 8000 3.09 10 14:29 10.02.2022
5409 Clouds 22 1013 87 7000 2.57 350 13:33 10.02.2022
5410 Clouds 22 1013 94 6000 2.57 10 12:51 10.02.2022
5411 Mist 21 1013 96 5000 2.06 350 11:44 10.02.2022
5412 Mist 21 1013 96 5000 2.06 350 11:25 10.02.2022
5413 Mist 21 1012 94 5000 1.03 360 10:19 10.02.2022
5414 Clouds 22 1012 94 7000 1.03 40 09:25 10.02.2022
5415 Rain 22 1012 94 8000 1.54 30 07:40 10.02.2022
5416 Mist 21 1013 94 5000 1.54 350 05:52 10.02.2022
5417 Mist 22 1013 94 7000 2.57 30 01:58 10.02.2022
5418 Mist 22 1012 91 6000 2.06 20 00:51 10.02.2022
5419 Mist 22 1012 91 6000 2.06 20 00:29 10.02.2022
5420 Mist 22 1012 92 4000 2.06 70 23:28 09.02.2022
5421 Mist 22 1012 93 7000 3.09 250 22:38 09.02.2022
5422 Mist 23 1011 87 5000 2.57 120 21:56 09.02.2022
5423 Mist 23 1011 87 5000 2.57 120 21:38 09.02.2022
5424 Mist 23 1011 86 5000 2.57 120 21:18 09.02.2022
5425 Drizzle 24 1011 83 7000 2.57 360 20:41 09.02.2022
5426 Drizzle 23 1011 83 7000 2.57 360 20:20 09.02.2022
5427 Clouds 24 1011 79 6000 2.57 20 19:38 09.02.2022
5428 Clouds 26 1012 67 10000 3.09 340 17:43 09.02.2022
5429 Clouds 25 1016 72 10000 2.57 360 16:53 09.02.2022
5430 Clouds 25 1013 72 10000 2.57 360 15:55 09.02.2022
5431 Clouds 25 1013 72 10000 2.57 360 15:19 09.02.2022
5432 Clouds 22 1013 83 10000 2.57 20 12:42 09.02.2022
5433 Clouds 22 1013 83 10000 2.57 20 12:42 09.02.2022
5434 Clouds 22 1012 85 10000 2.57 310 11:20 09.02.2022
5435 Clouds 22 1012 83 10000 2.57 340 10:32 09.02.2022
5436 Clouds 21 1012 88 10000 1.03 160 09:42 09.02.2022
5437 Clouds 21 1012 88 10000 1.03 160 09:20 09.02.2022
5438 Clouds 20 1012 88 8000 2.57 270 08:26 09.02.2022
5439 Clouds 20 1013 94 8000 3.09 320 05:30 09.02.2022
5440 Rain 21 1014 94 10000 4.12 40 03:51 09.02.2022
5441 Rain 21 1014 97 5000 5.66 30 01:28 09.02.2022
5442 Rain 22 1013 90 10000 5.14 350 23:39 08.02.2022
5443 Clouds 23 1012 86 10000 4.63 360 22:51 08.02.2022
5444 Clouds 23 1012 87 10000 4.63 360 22:22 08.02.2022
5445 Clouds 24 1012 83 10000 3.6 20 21:52 08.02.2022
5446 Clouds 24 1012 83 10000 3.6 20 21:21 08.02.2022
5447 Clouds 24 1012 82 10000 3.09 20 20:55 08.02.2022
5448 Clouds 24 1012 82 10000 3.09 20 20:23 08.02.2022
5449 Clouds 25 1012 75 10000 5.66 190 18:53 08.02.2022
5450 Clouds 25 1012 77 10000 6.69 200 17:50 08.02.2022
5451 Clouds 24 1012 78 10000 6.17 240 16:42 08.02.2022
5452 Clouds 24 1013 83 7000 8.23 220 15:39 08.02.2022
5453 Rain 25 1012 81 10000 8.23 250 14:57 08.02.2022
5454 Mist 24 1012 90 10000 10.29 260 13:30 08.02.2022
5455 Mist 25 1011 89 10000 5.14 320 12:20 08.02.2022
5456 Clouds 25 1009 88 10000 4.12 290 10:45 08.02.2022
5457 Clouds 24 1009 94 10000 2.06 310 09:46 08.02.2022
5458 Clouds 24 1009 94 10000 2.57 340 08:27 08.02.2022
5459 Clouds 24 1010 94 10000 2.06 270 05:46 08.02.2022
5460 Clouds 24 1010 94 10000 2.06 300 04:40 08.02.2022
5461 Clouds 24 1010 94 10000 2.06 300 04:21 08.02.2022
5462 Rain 25 1010 91 5000 3.09 310 03:36 08.02.2022
5463 Rain 25 1010 91 5000 3.09 310 03:18 08.02.2022
5464 Rain 25 1010 91 5000 3.09 310 03:18 08.02.2022
5465 Rain 24 1010 94 5000 3.09 320 02:59 08.02.2022
5466 Rain 24 1010 94 5000 3.09 320 02:36 08.02.2022
5467 Rain 24 1010 94 5000 3.09 320 02:18 08.02.2022
5468 Rain 24 1010 94 5000 3.09 320 02:18 08.02.2022
5469 Rain 25 1010 94 5000 2.57 310 01:44 08.02.2022
5470 Rain 25 1010 94 4500 3.6 300 01:24 08.02.2022
5471 Rain 25 1010 100 5000 4.12 270 00:55 08.02.2022
5472 Rain 25 1010 100 5000 4.12 270 00:19 08.02.2022
5473 Rain 25 1010 96 5000 3.6 300 23:42 07.02.2022
5474 Rain 25 1010 96 5000 3.6 300 23:18 07.02.2022
5475 Rain 25 1010 96 5000 4.12 300 22:59 07.02.2022
5476 Rain 25 1010 96 5000 4.12 300 22:18 07.02.2022
5477 Rain 25 1010 94 7000 4.12 270 21:49 07.02.2022
5478 Rain 25 1010 94 7000 4.12 270 21:27 07.02.2022
5479 Thunderstorm 26 1009 91 8000 5.66 140 20:41 07.02.2022
5480 Thunderstorm 26 1009 91 8000 5.66 140 20:18 07.02.2022
5481 Rain 27 1008 81 10000 8.23 140 19:46 07.02.2022
5482 Clouds 29 1008 74 10000 8.23 120 18:34 07.02.2022
5483 Rain 29 1009 72 10000 5.66 150 16:53 07.02.2022
5484 Rain 29 1009 72 10000 5.66 150 16:24 07.02.2022
5485 Rain 30 1010 68 10000 4.12 150 15:48 07.02.2022
5486 Clouds 29 1010 72 10000 3.09 250 13:51 07.02.2022
5487 Clouds 29 1010 72 10000 3.09 250 13:26 07.02.2022
5488 Clouds 27 1009 87 10000 3.09 160 11:58 07.02.2022
5489 Clouds 27 1009 87 10000 3.09 160 11:38 07.02.2022
5490 Clouds 25 1008 91 10000 2.57 170 10:59 07.02.2022
5491 Clouds 25 1008 91 10000 2.57 170 10:41 07.02.2022
5492 Clouds 25 1008 91 10000 2.57 170 10:22 07.02.2022
5493 Clouds 25 1008 88 10000 1.03 130 09:47 07.02.2022
5494 Clouds 25 1008 88 10000 1.03 130 09:18 07.02.2022
5495 Clouds 25 1008 88 10000 1.03 300 07:34 07.02.2022
5496 Clouds 25 1008 94 10000 1.03 280 06:34 07.02.2022
5497 Clouds 26 1010 94 10000 1.03 0 04:31 07.02.2022
5498 Thunderstorm 28 1009 76 10000 4.12 310 01:37 07.02.2022
5499 Clouds 27 1008 83 10000 2.57 120 23:51 06.02.2022
5500 Clouds 27 1008 83 10000 2.57 120 23:20 06.02.2022
5501 Clouds 29 1008 73 10000 3.09 310 22:41 06.02.2022
5502 Clouds 29 1007 72 10000 3.09 140 21:38 06.02.2022
5503 Clouds 29 1007 72 10000 3.09 140 21:20 06.02.2022
5504 Clouds 30 1007 68 10000 4.12 240 20:48 06.02.2022
5505 Clouds 30 1007 68 10000 4.12 240 20:21 06.02.2022
5506 Clouds 30 1007 68 10000 5.66 180 19:18 06.02.2022
5507 Clouds 32 1007 56 10000 6.17 170 18:28 06.02.2022
5508 Clouds 32 1008 56 10000 5.14 150 17:31 06.02.2022
5509 Clouds 34 1008 50 10000 3.09 40 16:51 06.02.2022
5510 Clouds 32 1008 56 10000 3.6 150 16:20 06.02.2022
5511 Clear 31 1009 61 10000 3.6 140 15:47 06.02.2022
5512 Clear 31 1009 61 10000 3.6 140 15:24 06.02.2022
5513 Clear 31 1012 64 10000 3.6 140 14:19 06.02.2022
5514 Clear 31 1008 62 10000 1.54 30 13:21 06.02.2022
5515 Clouds 29 1008 69 10000 2.57 20 12:27 06.02.2022
5516 Clouds 26 1007 92 10000 2.06 340 10:37 06.02.2022
5517 Clouds 26 1008 83 10000 1.03 290 09:48 06.02.2022
5518 Clear 27 1007 74 10000 2.06 220 08:41 06.02.2022
5519 Clear 27 1007 74 10000 1.03 250 07:31 06.02.2022
5520 Clear 27 1008 83 10000 0 0 05:28 06.02.2022
5521 Clear 28 1008 80 10000 3.09 320 02:25 06.02.2022
5522 Clear 27 1007 83 10000 3.6 360 00:49 06.02.2022
5523 Clear 27 1007 83 10000 3.6 360 00:22 06.02.2022
5524 Clouds 32 1006 63 10000 4.12 360 21:48 05.02.2022
5525 Clouds 32 1006 64 10000 5.66 180 20:48 05.02.2022
5526 Clouds 32 1006 64 10000 5.66 180 20:23 05.02.2022
5527 Clouds 32 1006 62 10000 5.66 190 19:44 05.02.2022
5528 Clouds 33 1006 57 10000 6.17 170 18:45 05.02.2022
5529 Clouds 33 1007 56 10000 4.12 150 17:36 05.02.2022
5530 Clouds 33 1008 60 10000 3.09 50 16:24 05.02.2022
5531 Clouds 31 1013 67 10000 3.09 330 15:31 05.02.2022
5532 Clouds 29 1009 76 10000 3.09 330 13:55 05.02.2022
5533 Clouds 28 1009 82 9000 3.09 340 12:46 05.02.2022
5534 Clouds 27 1008 86 10000 3.6 20 11:47 05.02.2022
5535 Clouds 26 1008 92 10000 2.06 340 10:44 05.02.2022
5536 Clouds 25 1008 94 10000 1.54 30 09:51 05.02.2022
5537 Clouds 26 1008 89 10000 2.06 340 08:51 05.02.2022
5538 Clouds 26 1008 89 10000 2.06 340 07:27 05.02.2022
5539 Clouds 26 1008 83 10000 1.54 290 06:55 05.02.2022
5540 Clouds 28 1009 83 10000 1.03 170 02:43 05.02.2022
5541 Clouds 27 1009 89 10000 1.54 150 01:18 05.02.2022
5542 Clouds 27 1008 83 10000 6.17 160 00:36 05.02.2022
5543 Rain 28 1008 75 10000 4.63 180 23:33 04.02.2022
5544 Clouds 28 1008 76 10000 5.14 190 22:50 04.02.2022
5545 Clouds 28 1008 72 10000 6.17 180 21:36 04.02.2022
5546 Clouds 28 1008 74 10000 6.17 180 21:18 04.02.2022
5547 Clouds 29 1008 71 10000 6.69 170 20:37 04.02.2022
5548 Rain 29 1009 72 10000 7.2 180 19:19 04.02.2022
5549 Rain 30 1011 70 10000 4.63 150 16:50 04.02.2022
5550 Clouds 29 1011 72 10000 4.12 160 15:33 04.02.2022
5551 Clouds 29 1012 74 10000 1.54 50 14:47 04.02.2022
5552 Clouds 27 1012 77 10000 2.57 110 12:43 04.02.2022
5553 Clouds 25 1017 91 10000 0.51 120 11:46 04.02.2022
5554 Clouds 25 1018 96 10000 1.03 190 10:59 04.02.2022
5555 Clouds 24 1011 94 10000 1.03 190 10:22 04.02.2022
5556 Clouds 24 1011 94 10000 2.57 80 08:31 04.02.2022
5557 Clouds 25 1013 88 10000 3.6 120 04:45 04.02.2022
5558 Clouds 25 1019 92 10000 4.12 160 02:38 04.02.2022
5559 Clouds 25 1012 86 10000 2.57 160 00:18 04.02.2022
5560 Clouds 27 1012 75 10000 5.66 180 22:52 03.02.2022
5561 Clouds 27 1012 74 10000 5.66 170 21:58 03.02.2022
5562 Clouds 27 1012 74 10000 5.66 170 21:37 03.02.2022
5563 Clouds 28 1012 74 10000 7.2 170 20:22 03.02.2022
5564 Clouds 28 1012 73 10000 6.17 160 19:49 03.02.2022
5565 Clouds 28 1012 75 10000 6.17 160 19:20 03.02.2022
5566 Clouds 28 1013 77 10000 7.2 160 17:59 03.02.2022
5567 Clouds 28 1013 77 10000 7.2 160 17:26 03.02.2022
5568 Clouds 28 1014 76 10000 5.66 160 15:38 03.02.2022
5569 Clouds 27 1014 77 10000 3.09 150 14:18 03.02.2022
5570 Clouds 26 1019 88 10000 1.54 120 12:32 03.02.2022
5571 Clouds 24 1013 100 8000 2.06 90 08:59 03.02.2022
5572 Clouds 24 1013 100 8000 2.06 90 08:18 03.02.2022
5573 Rain 25 1014 94 8000 3.09 310 00:59 03.02.2022
5574 Clouds 25 1014 94 8000 3.09 310 00:22 03.02.2022
5575 Rain 25 1013 91 9000 3.09 190 22:41 02.02.2022
5576 Rain 25 1013 91 9000 5.14 180 21:52 02.02.2022
5577 Rain 25 1013 91 9000 5.14 180 21:29 02.02.2022
5578 Rain 26 1013 83 10000 5.66 170 20:27 02.02.2022
5579 Thunderstorm 27 1012 80 10000 6.17 170 19:48 02.02.2022
5580 Rain 28 1014 81 10000 1.81 178 19:00 02.02.2022
5581 Rain 27 1012 75 10000 6.17 160 18:25 02.02.2022
5582 Clouds 29 1013 69 10000 6.17 170 17:23 02.02.2022
5583 Clouds 29 1014 71 10000 4.12 150 16:59 02.02.2022
5584 Clouds 29 1018 76 8000 2.57 140 15:49 02.02.2022
5585 Clouds 26 1014 86 6000 2.06 350 12:50 02.02.2022
5586 Clouds 25 1013 96 8000 1.03 30 11:51 02.02.2022
5587 Clouds 25 1013 96 8000 1.03 30 11:30 02.02.2022
5588 Clouds 24 1013 100 9000 1.54 300 09:22 02.02.2022
5589 Rain 24 1013 94 8000 2.06 280 05:29 02.02.2022
5590 Clouds 28 1011 72 10000 4.12 170 22:36 01.02.2022
5591 Clouds 29 1010 64 10000 5.14 200 21:30 01.02.2022
5592 Clouds 31 1009 58 10000 9.26 190 19:56 01.02.2022
5593 Clouds 32 1010 54 10000 6.69 190 17:38 01.02.2022
5594 Clouds 31 1010 58 10000 3.6 140 16:31 01.02.2022
5595 Clouds 30 1010 59 10000 3.09 300 13:28 01.02.2022
5596 Clouds 27 1013 80 10000 1.54 340 12:28 01.02.2022
5597 Clouds 27 1013 80 10000 1.54 340 12:28 01.02.2022
5598 Clouds 25 1008 94 10000 2.57 330 10:44 01.02.2022
5599 Clouds 25 1009 88 10000 3.09 180 02:30 01.02.2022
5600 Clouds 26 1008 83 10000 4.63 190 23:40 31.01.2022
5601 Clouds 26 1008 83 10000 5.14 170 22:43 31.01.2022
5602 Clouds 26 1006 83 10000 6.69 160 21:38 31.01.2022
5603 Rain 27 1007 79 10000 5.66 150 20:45 31.01.2022
5604 Rain 27 1007 79 10000 5.66 150 20:26 31.01.2022
5605 Clouds 28 1009 74 10000 5.66 160 18:54 31.01.2022
5606 Rain 28 1009 74 10000 5.66 160 18:20 31.01.2022
5607 Rain 27 1010 81 10000 4.63 130 17:25 31.01.2022
5608 Rain 28 1014 81 10000 4.12 130 16:25 31.01.2022
5609 Clouds 27 1010 76 10000 3.09 340 14:54 31.01.2022
5610 Rain 27 1010 80 10000 3.6 10 13:51 31.01.2022
5611 Rain 25 1009 88 10000 1.54 70 12:38 31.01.2022
5612 Clouds 25 1009 90 10000 2.06 320 11:42 31.01.2022
5613 Rain 24 1008 94 10000 2.57 360 10:50 31.01.2022
5614 Clouds 25 1008 94 10000 2.57 350 09:59 31.01.2022
5615 Clouds 24 1018 100 7000 1.54 110 08:59 31.01.2022
5616 Clouds 24 1018 100 7000 1.54 110 08:39 31.01.2022
5617 Clouds 24 1018 100 7000 1.54 110 08:20 31.01.2022
5618 Clouds 24 1019 100 7000 1.54 140 06:18 31.01.2022
5619 Rain 24 1011 94 4000 3.6 100 00:44 31.01.2022
5620 Clouds 26 1009 79 10000 4.63 160 22:40 30.01.2022
5621 Clouds 26 1009 79 10000 4.63 160 22:22 30.01.2022
5622 Clouds 26 1008 76 10000 6.69 160 21:38 30.01.2022
5623 Clouds 26 1008 77 10000 6.69 160 21:18 30.01.2022
5624 Clouds 26 1008 82 10000 6.69 160 20:45 30.01.2022
5625 Clouds 26 1008 82 10000 6.69 160 20:27 30.01.2022
5626 Clouds 27 1009 80 10000 5.14 160 19:45 30.01.2022
5627 Rain 28 1009 77 10000 5.66 160 18:43 30.01.2022
5628 Clouds 27 1009 82 10000 5.66 160 18:18 30.01.2022
5629 Rain 28 1010 73 10000 2.06 10 17:22 30.01.2022
5630 Clouds 28 1010 74 10000 3.6 30 16:40 30.01.2022
5631 Clouds 28 1010 74 10000 3.6 30 16:21 30.01.2022
5632 Clouds 27 1010 82 9000 2.06 20 15:50 30.01.2022
5633 Clouds 27 1010 82 9000 2.06 20 15:31 30.01.2022
5634 Clouds 26 1010 84 7000 1.54 240 14:46 30.01.2022
5635 Mist 25 1010 90 10000 2.06 330 12:47 30.01.2022
5636 Clouds 24 930 82 10000 2.57 320 11:58 30.01.2022
5637 Clouds 23 909 78 7000 2.06 330 10:36 30.01.2022
5638 Clouds 23 853 70 7000 1.54 160 09:51 30.01.2022
5639 Clouds 23 853 70 7000 1.54 110 08:55 30.01.2022
5640 Rain 23 853 70 7000 1.03 170 07:29 30.01.2022
5641 Rain 24 910 74 10000 1.54 70 01:56 30.01.2022
5642 Clouds 24 910 76 10000 4.12 40 00:34 30.01.2022
5643 Clouds 25 1008 88 10000 0 0 23:20 29.01.2022
5644 Clouds 25 1007 88 7000 1.54 140 21:58 29.01.2022
5645 Clouds 25 1007 88 7000 1.54 140 21:25 29.01.2022
5646 Thunderstorm 24 1007 92 7000 1.54 150 20:35 29.01.2022
5647 Rain 24 943 78 4000 2.57 130 19:35 29.01.2022
5648 Mist 26 1007 85 10000 8.23 160 18:58 29.01.2022
5649 Clouds 27 1007 83 10000 8.23 160 18:26 29.01.2022
5650 Clouds 27 1007 79 10000 7.72 150 17:35 29.01.2022
5651 Rain 28 1007 75 10000 6.17 160 16:38 29.01.2022
5652 Rain 28 1008 75 10000 3.09 360 14:24 29.01.2022
5653 Clouds 27 1008 81 10000 1.03 140 13:45 29.01.2022
5654 Clouds 27 1008 81 10000 1.03 140 13:24 29.01.2022
5655 Clouds 26 1008 89 10000 1.54 110 12:35 29.01.2022
5656 Rain 25 1008 90 10000 2.06 40 11:38 29.01.2022
5657 Rain 23 852 70 10000 2.57 260 09:49 29.01.2022
5658 Clouds 23 853 70 6000 1.54 0 06:55 29.01.2022
5659 Thunderstorm 24 909 73 10000 1.03 0 00:50 29.01.2022
5660 Thunderstorm 25 1008 85 10000 1.03 0 00:31 29.01.2022
5661 Clouds 26 1007 85 10000 3.09 180 22:52 28.01.2022
5662 Clouds 26 1007 85 10000 3.09 180 22:27 28.01.2022
5663 Clouds 26 1007 84 9000 3.6 120 21:52 28.01.2022
5664 Clouds 27 1007 82 9000 5.14 180 20:31 28.01.2022
5665 Thunderstorm 28 1006 78 10000 7.2 170 19:44 28.01.2022
5666 Clouds 30 1006 68 10000 7.72 160 18:48 28.01.2022
5667 Clouds 30 1007 69 10000 8.23 160 17:43 28.01.2022
5668 Clouds 30 1008 68 10000 6.17 170 15:45 28.01.2022
5669 Clouds 30 1008 67 10000 2.57 120 14:18 28.01.2022
5670 Clouds 28 1008 74 10000 3.09 140 12:33 28.01.2022
5671 Clouds 27 1008 78 10000 5.14 150 11:38 28.01.2022
5672 Clouds 26 1007 79 10000 5.14 150 10:22 28.01.2022
5673 Clear 28 1016 65 10000 3.6 240 09:45 28.01.2022
5674 Clear 27 1007 83 10000 2.06 270 07:40 28.01.2022
5675 Clear 28 1016 63 10000 1.54 320 05:24 28.01.2022
5676 Clear 28 1013 65 10000 1.03 0 03:47 28.01.2022
5677 Clear 28 1013 58 10000 2.57 160 02:23 28.01.2022
5678 Clear 29 1012 56 10000 1.54 160 01:34 28.01.2022
5679 Clear 31 1010 54 10000 5.14 170 23:46 27.01.2022
5680 Clouds 33 1008 48 10000 6.17 160 21:54 27.01.2022
5681 Clouds 33 1008 48 10000 6.17 160 21:32 27.01.2022
5682 Clouds 34 1009 44 10000 6.17 170 20:53 27.01.2022
5683 Clouds 35 1009 40 10000 6.69 160 19:35 27.01.2022
5684 Clear 37 1010 36 10000 5.66 310 17:56 27.01.2022
5685 Clear 35 1007 39 10000 7.2 330 15:31 27.01.2022
5686 Clear 33 1008 45 10000 6.17 330 13:39 27.01.2022
5687 Clear 32 1008 51 10000 5.66 310 12:46 27.01.2022
5688 Clear 29 1007 61 10000 6.17 320 10:57 27.01.2022
5689 Clear 28 1006 61 10000 6.17 20 09:20 27.01.2022
5690 Clear 29 1007 58 10000 7.2 350 08:38 27.01.2022
5691 Clear 29 1007 58 10000 3.09 20 07:22 27.01.2022
5692 Clear 29 1008 66 10000 2.06 340 02:59 27.01.2022
5693 Clouds 30 1006 62 10000 4.12 180 23:45 26.01.2022
5694 Clouds 32 1010 58 10000 4.63 190 22:26 26.01.2022
5695 Clouds 33 1010 51 10000 5.14 190 21:37 26.01.2022
5696 Clouds 33 1010 52 10000 5.14 180 20:41 26.01.2022
5697 Clouds 33 1010 52 10000 5.14 180 20:23 26.01.2022
5698 Clouds 34 1011 49 10000 4.12 160 19:27 26.01.2022
5699 Clouds 33 1011 51 10000 5.14 160 18:46 26.01.2022
5700 Clouds 33 1012 48 10000 5.14 160 17:51 26.01.2022
5701 Clouds 33 1012 49 10000 5.14 160 17:24 26.01.2022
5702 Clear 34 1014 40 10000 2.57 90 16:40 26.01.2022
5703 Clear 33 1014 48 10000 2.57 300 15:50 26.01.2022
5704 Clear 30 1011 58 10000 3.09 340 14:23 26.01.2022
5705 Clear 25 1011 81 10000 2.06 240 11:56 26.01.2022
5706 Clear 25 1011 85 10000 0 0 10:45 26.01.2022
5707 Clear 24 1011 88 10000 2.06 130 09:49 26.01.2022
5708 Clear 24 1011 88 10000 2.57 130 08:32 26.01.2022
5709 Clear 25 1011 83 10000 3.09 110 06:20 26.01.2022
5710 Clear 25 1011 83 10000 3.09 110 06:20 26.01.2022
5711 Clouds 28 1010 67 10000 5.14 100 00:18 26.01.2022
5712 Clouds 29 1010 62 10000 4.12 130 23:28 25.01.2022
5713 Clouds 30 1009 59 10000 2.57 160 22:48 25.01.2022
5714 Clouds 30 1009 59 10000 2.57 160 22:18 25.01.2022
5715 Clouds 32 1009 56 10000 4.12 140 21:22 25.01.2022
5716 Clouds 32 1009 52 10000 6.17 130 20:44 25.01.2022
5717 Clouds 33 1013 50 10000 4.63 150 19:53 25.01.2022
5718 Clouds 32 1013 52 10000 6.17 150 18:46 25.01.2022
5719 Clouds 32 1014 51 10000 5.14 160 17:45 25.01.2022
5720 Clouds 32 1014 51 10000 5.14 160 17:18 25.01.2022
5721 Clouds 32 1015 51 10000 4.63 160 16:34 25.01.2022
5722 Clouds 32 1015 51 10000 3.6 160 15:39 25.01.2022
5723 Clear 30 1012 58 10000 3.6 150 14:58 25.01.2022
5724 Clear 30 1012 58 10000 3.6 150 14:38 25.01.2022
5725 Clear 26 1011 76 10000 2.57 10 11:30 25.01.2022
5726 Clear 24 1010 88 10000 2.06 60 09:21 25.01.2022
5727 Clear 24 1010 88 10000 2.57 110 07:46 25.01.2022
5728 Clear 25 1011 83 10000 2.57 70 06:54 25.01.2022
5729 Clear 25 1011 83 10000 3.09 80 05:23 25.01.2022
5730 Clouds 28 1009 70 10000 0.51 0 00:28 25.01.2022
5731 Clouds 29 1009 61 10000 3.09 170 23:36 24.01.2022
5732 Clouds 29 1009 61 10000 3.09 170 23:18 24.01.2022
5733 Clouds 29 1009 61 10000 3.09 170 23:18 24.01.2022
5734 Clouds 30 1009 59 10000 5.14 190 22:42 24.01.2022
5735 Clouds 31 1013 58 10000 5.14 180 21:57 24.01.2022
5736 Clouds 31 1013 58 10000 5.14 180 21:32 24.01.2022
5737 Clouds 32 1013 54 10000 3.6 160 20:38 24.01.2022
5738 Clouds 32 1013 55 10000 3.6 160 20:20 24.01.2022
5739 Clouds 32 1014 56 10000 6.69 170 19:38 24.01.2022
5740 Clouds 32 1014 50 10000 5.66 150 18:47 24.01.2022
5741 Clouds 32 1014 53 10000 5.66 160 17:24 24.01.2022
5742 Clouds 32 1015 55 10000 6.17 160 16:58 24.01.2022
5743 Clouds 32 1015 55 10000 6.17 160 16:58 24.01.2022
5744 Clouds 32 1015 55 10000 6.17 160 16:58 24.01.2022
5745 Clouds 31 1015 54 10000 6.17 160 16:30 24.01.2022
5746 Clear 29 1011 62 10000 3.09 150 14:56 24.01.2022
5747 Clear 29 1011 66 10000 1.54 360 13:39 24.01.2022
5748 Clear 27 1011 70 10000 2.57 330 12:33 24.01.2022
5749 Clear 26 1012 77 10000 1.54 340 11:21 24.01.2022
5750 Clear 24 1011 85 10000 2.57 360 10:18 24.01.2022
5751 Clear 23 1011 88 10000 1.54 120 09:44 24.01.2022
5752 Clear 24 1011 83 10000 1.54 110 07:45 24.01.2022
5753 Clear 26 1011 79 10000 2.57 130 01:38 24.01.2022
5754 Clear 27 1010 70 10000 3.6 180 00:50 24.01.2022
5755 Clear 27 1010 70 10000 3.6 180 00:29 24.01.2022
5756 Clear 30 1009 59 10000 4.12 170 22:58 23.01.2022
5757 Clear 31 1013 57 10000 4.63 170 21:53 23.01.2022
5758 Clear 31 1013 57 10000 4.63 170 21:29 23.01.2022
5759 Clouds 32 1014 55 10000 5.66 150 20:57 23.01.2022
5760 Clouds 32 1014 55 10000 5.66 150 20:21 23.01.2022
5761 Clouds 31 1015 58 10000 6.69 160 18:53 23.01.2022
5762 Clouds 31 1015 57 10000 6.69 160 18:22 23.01.2022
5763 Clouds 31 1016 56 10000 4.63 150 16:56 23.01.2022
5764 Clear 30 1016 59 10000 2.57 150 15:56 23.01.2022
5765 Clear 29 1012 64 10000 2.06 350 14:50 23.01.2022
5766 Clear 29 1012 64 10000 2.06 350 14:18 23.01.2022
5767 Clear 27 1013 72 10000 1.54 360 12:45 23.01.2022
5768 Clear 27 1013 72 10000 1.54 360 12:19 23.01.2022
5769 Clouds 26 1012 80 10000 2.57 360 11:26 23.01.2022
5770 Clouds 24 1012 83 10000 1.54 20 10:57 23.01.2022
5771 Clouds 24 1012 83 10000 1.54 20 10:25 23.01.2022
5772 Clouds 24 1012 88 10000 1.54 100 09:31 23.01.2022
5773 Clouds 24 1011 88 10000 1.54 120 08:49 23.01.2022
5774 Clear 25 1013 86 10000 2.57 120 03:49 23.01.2022
5775 Clear 26 1012 82 10000 2.06 150 01:38 23.01.2022
5776 Clear 27 1011 74 10000 3.09 180 00:47 23.01.2022
5777 Clear 28 1011 68 10000 4.63 190 23:59 22.01.2022
5778 Clear 29 1011 62 10000 5.66 200 22:55 22.01.2022
5779 Clear 29 1011 62 10000 5.66 200 22:33 22.01.2022
5780 Clouds 30 1015 62 10000 7.72 180 20:46 22.01.2022
5781 Clouds 30 1015 60 10000 7.72 180 19:46 22.01.2022
5782 Clouds 31 1017 58 10000 6.69 150 18:41 22.01.2022
5783 Clouds 30 1017 65 10000 6.17 160 17:49 22.01.2022
5784 Clouds 30 1017 65 10000 6.17 160 17:31 22.01.2022
5785 Clouds 30 1017 63 10000 5.66 160 16:54 22.01.2022
5786 Clouds 31 1018 58 10000 3.6 20 15:45 22.01.2022
5787 Clouds 30 1018 65 10000 3.09 320 14:57 22.01.2022
5788 Clouds 28 1014 71 10000 2.57 340 13:36 22.01.2022
5789 Clouds 27 1014 75 10000 1.54 340 12:40 22.01.2022
5790 Clouds 27 1014 75 10000 1.54 340 12:22 22.01.2022
5791 Clouds 24 1013 88 10000 0 0 10:55 22.01.2022
5792 Clouds 24 1013 88 10000 0 0 10:27 22.01.2022
5793 Clear 24 1012 88 10000 3.09 100 09:46 22.01.2022
5794 Clear 24 1012 88 10000 2.57 140 08:51 22.01.2022
5795 Clear 25 1022 91 10000 4.12 100 07:28 22.01.2022
5796 Clear 25 1013 78 10000 6.17 110 04:50 22.01.2022
5797 Clouds 26 1013 76 10000 3.6 190 01:32 22.01.2022
5798 Clouds 27 1012 70 10000 6.69 200 23:30 21.01.2022
5799 Clouds 28 1015 69 10000 5.66 190 22:19 21.01.2022
5800 Clouds 28 1015 69 10000 5.66 190 22:19 21.01.2022
5801 Clouds 30 1017 66 10000 7.2 130 19:56 21.01.2022
5802 Clouds 29 1016 71 10000 6.69 160 18:23 21.01.2022
5803 Clouds 30 1018 71 10000 6.17 130 17:18 21.01.2022
5804 Clouds 30 1019 69 8000 5.66 130 15:27 21.01.2022
5805 Clouds 28 1014 75 10000 1.54 30 13:18 21.01.2022
5806 Clouds 28 1014 79 10000 3.6 10 12:28 21.01.2022
5807 Mist 26 1013 87 10000 0 0 11:27 21.01.2022
5808 Clouds 25 1013 88 6000 2.57 100 09:46 21.01.2022
5809 Clouds 25 1012 88 6000 3.09 60 08:23 21.01.2022
5810 Clear 26 1014 83 10000 3.09 60 04:49 21.01.2022
5811 Clouds 28 1017 75 10000 4.12 170 23:31 20.01.2022
5812 Clouds 28 1016 76 10000 5.14 160 22:21 20.01.2022
5813 Clouds 29 1016 71 10000 5.66 170 21:42 20.01.2022
5814 Clouds 30 1016 71 10000 6.69 170 20:40 20.01.2022
5815 Clouds 30 1016 66 10000 6.69 170 19:19 20.01.2022
5816 Clouds 30 1016 66 10000 6.69 170 19:19 20.01.2022
5817 Clouds 31 1017 65 10000 6.17 170 18:23 20.01.2022
5818 Clouds 31 1018 67 10000 5.66 160 16:58 20.01.2022
5819 Clouds 31 1019 63 10000 2.57 80 15:41 20.01.2022
5820 Clouds 30 1014 69 10000 5.14 160 15:19 20.01.2022
5821 Clear 29 1015 71 10000 1.54 40 13:41 20.01.2022
5822 Clear 27 1015 77 10000 2.06 350 12:34 20.01.2022
5823 Clouds 26 1015 83 10000 3.6 20 11:50 20.01.2022
5824 Clouds 26 1015 83 10000 3.6 20 11:50 20.01.2022
5825 Clear 24 1015 91 10000 0.51 30 10:40 20.01.2022
5826 Clouds 24 1015 88 10000 2.06 70 09:37 20.01.2022
5827 Clear 24 1014 88 10000 2.57 80 07:51 20.01.2022
5828 Clouds 25 1015 83 10000 1.54 90 05:32 20.01.2022
5829 Clouds 28 1019 70 10000 2.57 340 23:28 19.01.2022
5830 Clouds 29 1018 65 10000 3.09 320 22:24 19.01.2022
5831 Clouds 29 1018 69 10000 2.06 50 21:23 19.01.2022
5832 Clouds 29 1017 69 10000 5.14 170 20:49 19.01.2022
5833 Thunderstorm 30 1017 68 10000 7.2 180 19:54 19.01.2022
5834 Thunderstorm 31 1017 67 10000 6.69 170 18:40 19.01.2022
5835 Clouds 32 1018 66 10000 7.2 170 17:45 19.01.2022
5836 Clouds 32 1018 67 10000 6.17 160 16:48 19.01.2022
5837 Clouds 31 1015 69 10000 3.09 130 14:42 19.01.2022
5838 Clear 28 1015 80 10000 2.06 360 12:43 19.01.2022
5839 Clouds 27 1015 86 10000 1.54 20 11:42 19.01.2022
5840 Clouds 26 1015 92 10000 2.06 20 10:35 19.01.2022
5841 Clouds 26 1014 89 10000 3.09 100 09:34 19.01.2022
5842 Clouds 26 1014 89 10000 3.09 30 07:18 19.01.2022
5843 Clear 27 1013 89 10000 2.06 30 05:18 19.01.2022
5844 Clouds 30 1011 66 10000 7.72 190 23:20 18.01.2022
5845 Clouds 31 1010 61 10000 6.17 190 22:44 18.01.2022
5846 Clouds 32 1010 59 10000 6.17 190 21:20 18.01.2022
5847 Clouds 35 1014 52 10000 5.14 150 19:55 18.01.2022
5848 Clouds 35 1014 52 10000 5.14 150 19:55 18.01.2022
5849 Clouds 35 1015 52 10000 5.14 150 19:37 18.01.2022
5850 Clouds 35 1015 51 10000 5.14 160 18:57 18.01.2022
5851 Clouds 34 1015 52 10000 4.12 160 17:58 18.01.2022
5852 Clear 33 1016 55 10000 3.09 150 16:59 18.01.2022
5853 Clear 33 1017 60 10000 2.06 40 15:48 18.01.2022
5854 Clear 32 1013 63 10000 2.06 40 15:22 18.01.2022
5855 Clear 30 1014 66 10000 3.09 310 13:26 18.01.2022
5856 Clouds 26 1013 81 10000 1.54 50 10:48 18.01.2022
5857 Clear 26 1013 89 10000 1.03 90 09:39 18.01.2022
5858 Clear 25 1012 88 10000 1.03 50 07:58 18.01.2022
5859 Clear 25 1012 88 10000 1.03 50 07:21 18.01.2022
5860 Clear 30 1010 72 10000 3.09 120 00:21 18.01.2022
5861 Clouds 32 1009 63 10000 5.14 180 22:30 17.01.2022
5862 Clouds 32 1009 63 10000 5.14 160 21:36 17.01.2022
5863 Clouds 33 1013 61 10000 5.14 170 20:29 17.01.2022
5864 Clouds 33 1014 58 10000 4.63 160 18:31 17.01.2022
5865 Clouds 33 1016 55 10000 4.12 100 17:55 17.01.2022
5866 Clouds 32 1015 64 10000 3.6 150 16:53 17.01.2022
5867 Clear 30 1012 69 10000 2.06 100 15:24 17.01.2022
5868 Clear 29 1013 71 10000 1.54 0 14:57 17.01.2022
5869 Clear 28 1013 75 10000 2.57 330 13:42 17.01.2022
5870 Clear 27 1012 80 10000 3.09 340 12:57 17.01.2022
5871 Clouds 25 1012 85 10000 2.57 50 11:51 17.01.2022
5872 Clouds 24 1012 91 10000 3.09 30 10:43 17.01.2022
5873 Clouds 23 1013 94 10000 1.03 300 09:35 17.01.2022
5874 Clouds 23 1012 94 10000 1.03 260 08:18 17.01.2022
5875 Clouds 23 1012 94 10000 0 0 07:19 17.01.2022
5876 Thunderstorm 24 1013 87 7000 2.57 220 00:57 17.01.2022
5877 Thunderstorm 28 1011 72 10000 4.12 200 22:53 16.01.2022
5878 Clouds 31 1014 69 10000 5.14 170 20:41 16.01.2022
5879 Clouds 30 1015 70 10000 5.66 170 19:44 16.01.2022
5880 Clouds 31 1017 68 10000 3.6 130 18:42 16.01.2022
5881 Clouds 30 1016 72 10000 5.14 150 17:46 16.01.2022
5882 Clouds 29 1017 72 10000 4.12 150 16:50 16.01.2022
5883 Clouds 29 1014 69 10000 1.03 0 15:39 16.01.2022
5884 Clear 28 1014 75 10000 1.54 110 14:29 16.01.2022
5885 Clouds 28 1018 79 10000 1.54 40 12:57 16.01.2022
5886 Clouds 26 1014 87 10000 1.03 50 11:49 16.01.2022
5887 Clouds 25 1014 88 10000 0.51 0 11:27 16.01.2022
5888 Clouds 25 1014 88 10000 1.03 0 10:27 16.01.2022
5889 Clouds 25 1014 91 10000 0.51 0 09:57 16.01.2022
5890 Clouds 24 1014 94 10000 1.54 100 09:23 16.01.2022
5891 Clouds 24 1014 88 10000 1.54 110 08:52 16.01.2022
5892 Clouds 25 1015 83 10000 2.57 110 05:51 16.01.2022
5893 Clouds 26 1020 85 10000 3.6 190 00:18 16.01.2022
5894 Clouds 28 1014 75 10000 5.14 160 22:38 15.01.2022
5895 Clouds 29 1018 74 10000 4.63 180 21:21 15.01.2022
5896 Clouds 28 1019 78 10000 5.14 180 20:43 15.01.2022
5897 Rain 28 1019 82 10000 6.17 160 19:58 15.01.2022
5898 Rain 28 1019 83 10000 6.17 160 19:23 15.01.2022
5899 Rain 28 1020 77 10000 5.14 160 17:52 15.01.2022
5900 Rain 29 1022 77 10000 5.14 130 16:42 15.01.2022
5901 Rain 29 1018 73 10000 1.03 120 14:32 15.01.2022
5902 Rain 27 1017 82 10000 3.09 350 12:33 15.01.2022
5903 Clouds 26 1017 87 10000 3.09 30 11:19 15.01.2022
5904 Clouds 24 1017 94 10000 1.54 350 09:21 15.01.2022
5905 Clouds 27 1018 83 10000 5.66 170 01:25 15.01.2022
5906 Clouds 29 1021 78 10000 6.17 160 21:57 14.01.2022
5907 Clouds 30 1021 74 10000 6.69 160 20:51 14.01.2022
5908 Clouds 30 1021 74 10000 6.69 160 20:23 14.01.2022
5909 Clouds 31 1021 67 10000 6.17 170 19:48 14.01.2022
5910 Clouds 31 1023 67 10000 5.14 160 18:33 14.01.2022
5911 Clouds 30 1023 71 10000 4.63 150 16:51 14.01.2022
5912 Clouds 30 1023 71 10000 4.63 150 16:33 14.01.2022
5913 Clouds 29 1019 74 10000 5.14 160 14:49 14.01.2022
5914 Clouds 29 1019 75 10000 3.6 160 13:48 14.01.2022
5915 Clouds 28 1019 78 10000 3.09 170 12:34 14.01.2022
5916 Clouds 26 1018 88 10000 1.54 50 11:34 14.01.2022
5917 Clear 25 1017 94 10000 1.03 0 10:22 14.01.2022
5918 Clouds 25 1017 88 10000 3.09 160 08:52 14.01.2022
5919 Clouds 25 1017 88 10000 2.06 110 07:27 14.01.2022
5920 Clouds 26 1017 92 10000 3.6 160 01:43 14.01.2022
5921 Clouds 27 1022 85 10000 6.17 170 23:39 13.01.2022
5922 Clouds 27 1020 88 10000 6.69 160 21:45 13.01.2022
5923 Clouds 27 1020 88 10000 6.69 160 21:27 13.01.2022
5924 Clouds 28 1020 81 10000 6.17 160 19:44 13.01.2022
5925 Clouds 28 1020 81 10000 6.17 160 19:22 13.01.2022
5926 Clouds 29 1019 78 10000 6.17 160 18:33 13.01.2022
5927 Clouds 29 1020 74 10000 4.12 150 16:43 13.01.2022
5928 Clouds 29 1020 74 10000 3.6 140 15:38 13.01.2022
5929 Clouds 29 1020 76 10000 4.12 140 14:50 13.01.2022
5930 Clouds 27 1016 78 10000 3.09 130 13:22 13.01.2022
5931 Clouds 25 1014 94 6000 1.54 130 10:29 13.01.2022
5932 Clouds 24 1013 94 10000 2.06 250 09:22 13.01.2022
5933 Clouds 24 1013 94 10000 1.03 200 08:28 13.01.2022
5934 Rain 25 1014 88 10000 2.06 150 07:58 13.01.2022
5935 Rain 25 1014 88 10000 2.06 150 07:18 13.01.2022
5936 Clouds 25 1014 88 10000 1.03 140 05:20 13.01.2022
5937 Clouds 25 1020 91 10000 2.06 150 03:33 13.01.2022
5938 Clouds 26 1018 86 10000 4.12 170 00:57 13.01.2022
5939 Clouds 25 1017 87 10000 4.12 170 23:53 12.01.2022
5940 Clouds 25 1017 87 10000 4.12 170 23:33 12.01.2022
5941 Clouds 26 1016 84 10000 5.66 170 21:58 12.01.2022
5942 Clouds 26 1016 84 10000 5.66 170 21:39 12.01.2022
5943 Clouds 26 1016 86 10000 5.66 170 21:18 12.01.2022
5944 Clouds 27 1015 82 10000 6.69 160 20:41 12.01.2022
5945 Clouds 28 1015 79 10000 7.72 170 18:48 12.01.2022
5946 Clouds 28 1016 81 7000 7.72 170 17:53 12.01.2022
5947 Clouds 27 1016 85 7000 6.17 170 16:43 12.01.2022
5948 Clouds 27 1015 83 6000 6.69 180 14:49 12.01.2022
5949 Clouds 27 1011 82 6000 5.14 140 13:40 12.01.2022
5950 Clouds 26 1011 84 6000 2.06 130 12:57 12.01.2022
5951 Mist 24 1019 97 5000 2.06 310 09:26 12.01.2022
5952 Clouds 24 1019 97 8000 2.06 350 07:57 12.01.2022
5953 Clouds 25 1020 97 8000 2.06 350 07:33 12.01.2022
5954 Clouds 24 1017 98 8000 2.06 170 02:20 12.01.2022
5955 Rain 24 1014 96 4500 4.12 160 23:26 11.01.2022
5956 Thunderstorm 24 1013 98 4500 4.12 170 22:25 11.01.2022
5957 Rain 24 1013 96 4500 4.12 170 21:58 11.01.2022
5958 Mist 25 1013 90 3000 2.06 0 20:39 11.01.2022
5959 Rain 26 1012 85 10000 7.2 170 19:31 11.01.2022
5960 Clouds 27 1013 86 10000 6.17 160 17:54 11.01.2022
5961 Clouds 27 1016 87 8000 3.09 100 16:40 11.01.2022
5962 Clouds 27 1016 85 8000 3.09 100 16:18 11.01.2022
5963 Clouds 27 1016 85 8000 3.09 100 16:18 11.01.2022
5964 Clouds 25 1009 87 10000 3.09 170 14:53 11.01.2022
5965 Rain 25 1009 87 10000 3.09 170 14:34 11.01.2022
5966 Rain 25 1009 85 10000 2.57 140 13:52 11.01.2022
5967 Clouds 26 1013 88 10000 2.57 140 13:28 11.01.2022
5968 Mist 24 1009 91 10000 3.09 140 12:34 11.01.2022
5969 Mist 23 1014 96 10000 0.51 140 10:32 11.01.2022
5970 Mist 22 1007 100 5000 1.03 130 08:26 11.01.2022
5971 Rain 23 1010 94 4000 2.06 50 04:28 11.01.2022
5972 Rain 24 1015 94 9000 4.63 180 00:27 11.01.2022
5973 Drizzle 24 1014 93 8000 4.63 170 23:39 10.01.2022
5974 Clouds 24 1013 91 8000 5.14 180 22:42 10.01.2022
5975 Rain 24 1014 92 8000 5.14 180 22:18 10.01.2022
5976 Rain 24 1013 90 9000 5.14 170 21:42 10.01.2022
5977 Clouds 25 1014 90 9000 5.14 170 21:18 10.01.2022
5978 Clouds 25 1012 87 9000 5.66 180 20:55 10.01.2022
5979 Clouds 25 1012 87 9000 5.66 180 20:23 10.01.2022
5980 Clouds 25 1012 85 9000 5.14 180 19:39 10.01.2022
5981 Clouds 25 1013 87 9000 5.14 180 19:19 10.01.2022
5982 Rain 26 1012 80 10000 3.6 150 18:47 10.01.2022
5983 Clouds 25 1009 79 9000 2.06 110 16:51 10.01.2022
5984 Clouds 25 1009 79 9000 2.06 110 16:33 10.01.2022
5985 Clouds 24 1010 84 7000 2.06 360 14:58 10.01.2022
5986 Clouds 23 1014 91 7000 1.03 100 13:35 10.01.2022
5987 Rain 21 1010 97 7000 2.06 170 11:57 10.01.2022
5988 Mist 21 1010 97 7000 2.06 170 11:24 10.01.2022
5989 Mist 22 1020 97 4000 2.57 270 09:41 10.01.2022
5990 Rain 21 1011 94 7000 2.06 260 05:52 10.01.2022
5991 Rain 21 1011 94 7000 2.06 260 05:23 10.01.2022
5992 Rain 21 1019 93 9000 3.09 160 01:24 10.01.2022
5993 Rain 21 1012 90 9000 4.12 180 00:23 10.01.2022
5994 Rain 22 1017 93 8000 3.6 150 23:28 09.01.2022
5995 Rain 22 1016 94 10000 3.09 150 22:22 09.01.2022
5996 Rain 22 1012 88 7000 2.57 160 21:42 09.01.2022
5997 Rain 22 1012 88 7000 2.57 160 21:42 09.01.2022
5998 Rain 22 1011 88 7000 2.57 160 21:23 09.01.2022
5999 Rain 22 1011 88 7000 2.57 160 21:23 09.01.2022
6000 Rain 22 1012 92 6000 3.09 60 20:50 09.01.2022
6001 Rain 22 1012 92 6000 3.09 60 20:29 09.01.2022
6002 Rain 23 1012 87 6000 4.12 40 19:44 09.01.2022
6003 Rain 23 1012 87 6000 4.12 40 19:23 09.01.2022
6004 Clouds 24 1012 81 6000 3.09 100 18:49 09.01.2022
6005 Drizzle 25 1012 78 10000 4.12 140 18:30 09.01.2022
6006 Clouds 24 1013 82 10000 3.09 140 17:30 09.01.2022
6007 Drizzle 25 1013 83 10000 3.09 150 16:51 09.01.2022
6008 Clouds 24 1014 83 10000 1.54 360 15:56 09.01.2022
6009 Clouds 24 1014 83 10000 1.54 360 15:34 09.01.2022
6010 Clouds 24 1014 84 10000 1.03 0 14:40 09.01.2022
6011 Rain 24 1014 89 10000 0.51 0 13:50 09.01.2022
6012 Rain 23 1014 89 10000 1.03 0 12:48 09.01.2022
6013 Rain 23 1013 93 10000 2.06 170 11:48 09.01.2022
6014 Clouds 23 1019 96 10000 0 0 10:49 09.01.2022
6015 Rain 23 1022 97 7000 1.54 120 09:42 09.01.2022
6016 Clouds 23 1022 97 8000 2.57 120 08:31 09.01.2022
6017 Clouds 23 1020 96 7000 2.06 200 03:55 09.01.2022
6018 Mist 23 1019 96 4500 4.63 140 01:23 09.01.2022
6019 Clouds 23 1017 94 7000 5.66 140 23:39 08.01.2022
6020 Rain 23 1016 97 6000 5.66 150 22:59 08.01.2022
6021 Mist 23 1017 97 4500 5.14 150 22:19 08.01.2022
6022 Rain 23 1016 95 6000 6.17 140 21:25 08.01.2022
6023 Rain 23 1015 94 5000 6.69 160 20:41 08.01.2022
6024 Rain 23 1017 94 5000 6.69 160 20:19 08.01.2022
6025 Rain 24 1015 93 5000 4.63 150 18:34 08.01.2022
6026 Rain 24 1011 89 7000 4.63 160 17:22 08.01.2022
6027 Clouds 24 1011 89 6000 3.6 160 15:52 08.01.2022
6028 Rain 24 1011 90 6000 4.63 150 14:44 08.01.2022
6029 Rain 24 1015 96 6000 4.12 150 13:28 08.01.2022
6030 Rain 23 1011 96 6000 3.6 160 11:28 08.01.2022
6031 Rain 24 1010 94 5000 4.63 170 10:28 08.01.2022
6032 Rain 23 1010 94 5000 1.54 110 09:48 08.01.2022
6033 Rain 23 1009 88 9000 2.06 200 08:22 08.01.2022
6034 Clouds 24 1016 96 6000 3.09 160 03:31 08.01.2022
6035 Rain 24 1010 92 7000 5.14 180 00:42 08.01.2022
6036 Rain 24 1009 94 6000 5.14 190 22:49 07.01.2022
6037 Mist 24 1009 92 6000 7.2 200 21:21 07.01.2022
6038 Mist 25 1009 87 5000 5.14 190 20:20 07.01.2022
6039 Mist 25 1008 88 6000 5.14 200 19:25 07.01.2022
6040 Mist 25 1009 89 5000 5.66 210 18:45 07.01.2022
6041 Rain 25 1009 88 6000 5.66 310 17:28 07.01.2022
6042 Clouds 25 1009 92 6000 6.17 210 16:41 07.01.2022
6043 Mist 25 1009 93 4000 5.66 210 14:37 07.01.2022
6044 Mist 25 1009 94 1500 4.12 200 13:41 07.01.2022
6045 Mist 24 1008 95 4000 4.12 190 12:50 07.01.2022
6046 Mist 24 1007 94 5000 2.57 280 09:48 07.01.2022
6047 Rain 25 1007 94 9000 1.54 130 02:58 07.01.2022
6048 Clouds 25 1007 94 9000 1.54 130 02:19 07.01.2022
6049 Rain 25 1007 94 9000 1.54 120 01:41 07.01.2022
6050 Rain 25 1007 94 9000 1.54 120 01:20 07.01.2022
6051 Rain 25 1007 92 9000 2.57 70 00:28 07.01.2022
6052 Rain 27 1005 84 10000 7.2 210 21:40 06.01.2022
6053 Rain 28 1004 80 10000 7.2 170 20:36 06.01.2022
6054 Rain 30 1004 68 10000 4.63 150 19:54 06.01.2022
6055 Rain 30 1004 68 10000 4.63 150 19:28 06.01.2022
6056 Clouds 31 1004 64 10000 3.09 10 17:51 06.01.2022
6057 Clouds 31 1004 66 10000 3.09 10 17:19 06.01.2022
6058 Rain 30 1005 69 10000 4.12 350 16:22 06.01.2022
6059 Clouds 29 1005 74 10000 4.12 360 15:41 06.01.2022
6060 Clouds 29 1005 74 10000 4.12 360 15:20 06.01.2022
6061 Clouds 28 1005 79 9000 4.12 320 14:19 06.01.2022
6062 Rain 26 1005 91 8000 4.12 340 12:59 06.01.2022
6063 Rain 26 1005 93 8000 3.6 330 11:58 06.01.2022
6064 Rain 26 1005 93 8000 3.6 330 11:29 06.01.2022
6065 Rain 25 1004 94 9000 1.03 20 09:50 06.01.2022
6066 Clouds 25 1005 94 10000 1.54 120 05:55 06.01.2022
6067 Rain 27 1004 85 6000 4.12 260 23:56 05.01.2022
6068 Rain 27 1004 85 6000 4.12 260 23:22 05.01.2022
6069 Rain 28 1005 78 8000 7.2 310 22:42 05.01.2022
6070 Rain 28 1005 78 8000 7.2 310 22:18 05.01.2022
6071 Clouds 31 1003 55 10000 2.06 10 21:23 05.01.2022
6072 Clouds 32 1003 54 10000 2.57 40 20:30 05.01.2022
6073 Clouds 33 1003 51 10000 3.09 350 19:29 05.01.2022
6074 Clouds 33 1003 49 10000 3.09 310 18:21 05.01.2022
6075 Rain 31 1005 54 10000 7.2 330 16:56 05.01.2022
6076 Rain 31 1005 54 10000 7.2 330 16:18 05.01.2022
6077 Clouds 30 1005 55 10000 6.17 340 15:19 05.01.2022
6078 Rain 30 1005 57 10000 10.8 350 13:34 05.01.2022
6079 Rain 30 1005 56 10000 9.77 350 12:20 05.01.2022
6080 Rain 29 1004 54 8000 4.63 360 08:46 05.01.2022
6081 Clouds 28 1005 61 10000 4.63 340 06:46 05.01.2022
6082 Clouds 28 1006 76 10000 1.54 120 01:49 05.01.2022
6083 Clouds 30 1005 66 10000 2.57 140 23:44 04.01.2022
6084 Clouds 30 1005 66 10000 2.57 140 23:25 04.01.2022
6085 Clouds 32 1004 55 10000 4.12 20 21:50 04.01.2022
6086 Clouds 33 1004 50 10000 1.03 0 20:45 04.01.2022
6087 Clouds 32 1006 54 10000 1.54 100 18:41 04.01.2022
6088 Clouds 32 1007 56 10000 2.06 130 17:34 04.01.2022
6089 Clouds 31 1007 57 10000 2.06 150 16:39 04.01.2022
6090 Clouds 31 1007 57 10000 2.06 150 16:20 04.01.2022
6091 Clouds 30 1008 60 10000 2.57 90 14:42 04.01.2022
6092 Clouds 29 1008 65 10000 3.09 100 13:57 04.01.2022
6093 Clouds 29 1008 67 10000 0.51 140 12:36 04.01.2022
6094 Clouds 26 1007 83 10000 0.51 50 10:28 04.01.2022
6095 Clouds 26 1008 73 10000 3.6 90 08:59 04.01.2022
6096 Clouds 26 1008 73 10000 1.54 230 06:46 04.01.2022
6097 Rain 30 1008 63 10000 2.57 340 00:50 04.01.2022
6098 Rain 30 1008 63 10000 2.57 340 00:31 04.01.2022
6099 Clouds 30 1006 66 10000 3.09 360 22:30 03.01.2022
6100 Clouds 32 1006 55 10000 2.06 40 21:41 03.01.2022
6101 Clouds 33 1006 49 10000 3.09 360 20:42 03.01.2022
6102 Clouds 33 1006 49 10000 5.14 330 19:44 03.01.2022
6103 Clouds 34 1011 49 10000 4.12 330 18:32 03.01.2022
6104 Clouds 33 1008 53 10000 1.54 50 17:40 03.01.2022
6105 Clouds 31 1009 56 10000 2.06 20 16:56 03.01.2022
6106 Clouds 29 1010 73 10000 2.57 350 14:54 03.01.2022
6107 Clouds 28 1010 83 10000 2.06 340 13:25 03.01.2022
6108 Rain 28 1010 82 10000 1.54 350 12:33 03.01.2022
6109 Rain 26 1010 89 10000 1.03 0 11:31 03.01.2022
6110 Clouds 24 1009 94 9000 1.54 210 09:42 03.01.2022
6111 Clouds 25 1009 88 10000 1.54 230 08:28 03.01.2022
6112 Rain 25 1010 94 10000 2.57 250 06:31 03.01.2022
6113 Rain 28 1008 69 10000 2.57 190 23:45 02.01.2022
6114 Rain 28 1008 69 10000 2.57 190 23:18 02.01.2022
6115 Rain 28 1009 74 10000 4.12 190 22:42 02.01.2022
6116 Rain 28 1008 68 10000 3.6 180 21:32 02.01.2022
6117 Clouds 28 1008 72 10000 5.66 160 20:31 02.01.2022
6118 Rain 28 1008 72 10000 5.66 160 20:30 02.01.2022
6119 Rain 28 1008 72 10000 5.66 160 20:30 02.01.2022
6120 Clouds 28 1008 72 10000 5.66 160 20:30 02.01.2022
6121 Clouds 29 1008 70 10000 4.63 190 19:31 02.01.2022
6122 Clouds 29 1009 64 10000 2.06 150 18:56 02.01.2022
6123 Rain 31 1009 57 10000 2.06 310 17:58 02.01.2022
6124 Clouds 31 1009 57 10000 2.06 310 17:39 02.01.2022
6125 Rain 31 1009 57 10000 2.06 310 17:21 02.01.2022
6126 Clouds 30 1010 61 10000 1.54 20 16:28 02.01.2022
6127 Clouds 29 1011 67 10000 2.06 10 15:18 02.01.2022
6128 Rain 28 1011 72 10000 2.57 320 13:38 02.01.2022
6129 Rain 27 1011 73 10000 5.14 310 12:32 02.01.2022
6130 Rain 27 1010 75 10000 3.6 310 11:49 02.01.2022
6131 Rain 27 1009 76 10000 3.6 280 10:54 02.01.2022
6132 Rain 26 1009 83 10000 3.6 280 09:58 02.01.2022
6133 Rain 25 1008 88 10000 2.06 200 07:35 02.01.2022
6134 Clouds 26 1010 85 10000 1.54 170 02:56 02.01.2022
6135 Clouds 26 1008 85 10000 2.06 340 23:45 01.01.2022
6136 Clouds 26 1008 85 10000 2.06 340 23:24 01.01.2022
6137 Clouds 27 1007 75 10000 6.17 20 22:25 01.01.2022
6138 Clouds 29 1007 69 10000 5.14 60 21:54 01.01.2022
6139 Clouds 29 1007 69 10000 5.14 60 21:36 01.01.2022
6140 Clouds 29 1007 69 10000 3.09 60 20:27 01.01.2022
6141 Clouds 29 1007 71 10000 2.57 150 19:36 01.01.2022
6142 Clouds 28 1008 71 10000 4.63 150 18:51 01.01.2022
6143 Rain 29 1008 69 10000 1.54 140 17:41 01.01.2022
6144 Clouds 28 1009 78 10000 1.54 120 16:35 01.01.2022
6145 Clouds 28 1009 78 10000 1.54 310 15:42 01.01.2022
6146 Rain 27 1009 81 10000 1.03 0 14:39 01.01.2022
6147 Rain 26 1009 85 10000 0.51 70 13:42 01.01.2022
6148 Clouds 25 1009 89 10000 1.03 0 12:25 01.01.2022
6149 Rain 24 1008 91 10000 1.03 0 11:26 01.01.2022
6150 Rain 23 1007 94 10000 2.06 170 10:58 01.01.2022
6151 Rain 23 1007 94 8000 1.03 180 09:48 01.01.2022
6152 Rain 23 1007 94 8000 1.03 310 08:45 01.01.2022
6153 Rain 24 1017 97 8000 1.03 310 08:18 01.01.2022
6154 Rain 24 1017 97 9000 1.54 150 07:39 01.01.2022
6155 Rain 23 1007 94 10000 1.54 180 06:44 01.01.2022
6156 Rain 24 1007 88 10000 1.54 160 05:24 01.01.2022
6157 Rain 24 1007 88 9000 2.57 150 04:35 01.01.2022
6158 Rain 25 1007 88 10000 1.54 20 00:25 01.01.2022
6159 Rain 25 1007 90 10000 3.6 60 22:34 31.12.2021
6160 Rain 25 1006 88 10000 3.09 70 21:49 31.12.2021
6161 Rain 25 1012 84 10000 2.57 90 19:56 31.12.2021
6162 Rain 25 1007 81 10000 2.57 90 19:28 31.12.2021
6163 Rain 26 1007 82 10000 1.03 0 18:24 31.12.2021
6164 Clouds 25 1008 88 10000 2.06 170 17:37 31.12.2021
6165 Rain 25 1008 90 10000 2.06 170 17:18 31.12.2021
6166 Rain 25 1008 87 9000 2.57 170 16:19 31.12.2021
6167 Rain 25 1009 87 10000 1.03 0 15:51 31.12.2021
6168 Rain 25 1009 86 10000 1.03 0 15:28 31.12.2021
6169 Rain 25 1009 90 10000 1.54 220 14:41 31.12.2021
6170 Rain 24 1009 93 9000 0 0 13:58 31.12.2021
6171 Rain 24 1009 93 9000 0 0 13:35 31.12.2021
6172 Rain 24 1009 94 10000 1.03 10 12:44 31.12.2021
6173 Rain 24 1008 93 10000 2.06 30 11:43 31.12.2021
6174 Rain 24 1008 95 10000 2.06 30 11:20 31.12.2021
6175 Rain 24 1008 94 10000 2.57 30 10:30 31.12.2021
6176 Rain 23 1008 94 8000 1.03 80 09:35 31.12.2021
6177 Rain 23 1008 94 7000 1.03 80 08:56 31.12.2021
6178 Clouds 24 1018 97 7000 1.03 80 08:25 31.12.2021
6179 Rain 24 1018 97 7000 2.57 130 07:30 31.12.2021
6180 Mist 23 1016 96 5000 2.57 250 23:23 30.12.2021
6181 Rain 24 1014 97 8000 2.57 180 22:33 30.12.2021
6182 Rain 24 1009 94 7000 4.12 120 21:51 30.12.2021
6183 Rain 24 1014 95 7000 4.12 120 21:33 30.12.2021
6184 Rain 25 1014 93 4500 3.6 130 20:45 30.12.2021
6185 Mist 25 1014 93 4500 3.6 130 20:24 30.12.2021
6186 Rain 26 1009 87 10000 5.14 170 19:44 30.12.2021
6187 Rain 27 1014 84 10000 5.66 170 18:29 30.12.2021
6188 Rain 27 1016 78 9000 5.66 110 17:52 30.12.2021
6189 Rain 27 1011 73 10000 5.14 140 16:19 30.12.2021
6190 Rain 28 1012 69 10000 1.54 100 15:42 30.12.2021
6191 Clouds 27 1012 74 10000 1.03 340 14:38 30.12.2021
6192 Clouds 26 1013 80 10000 2.06 360 13:49 30.12.2021
6193 Rain 25 1013 87 10000 2.57 30 12:40 30.12.2021
6194 Clouds 24 1011 91 10000 1.54 360 10:58 30.12.2021
6195 Clouds 24 1011 94 10000 1.54 10 09:58 30.12.2021
6196 Clouds 24 1011 88 10000 1.03 330 08:56 30.12.2021
6197 Clouds 24 1012 88 10000 1.03 0 06:52 30.12.2021
6198 Rain 24 1013 88 10000 3.09 200 03:42 30.12.2021
6199 Rain 24 1020 92 10000 4.12 170 02:47 30.12.2021
6200 Clouds 26 1012 86 10000 4.63 160 23:43 29.12.2021
6201 Clouds 26 1019 90 10000 4.63 160 23:23 29.12.2021
6202 Clouds 26 1012 82 10000 4.63 170 22:22 29.12.2021
6203 Clouds 27 1016 82 10000 6.17 170 21:43 29.12.2021
6204 Rain 28 1016 77 10000 7.2 180 20:39 29.12.2021
6205 Thunderstorm 27 1016 78 10000 7.2 170 19:50 29.12.2021
6206 Thunderstorm 28 1016 72 10000 6.69 170 18:57 29.12.2021
6207 Clouds 29 1017 68 10000 5.66 160 17:57 29.12.2021
6208 Clouds 29 1017 68 10000 5.66 160 17:28 29.12.2021
6209 Clouds 29 1018 65 10000 4.12 150 16:44 29.12.2021
6210 Clouds 29 1020 66 10000 4.12 150 16:19 29.12.2021
6211 Clouds 28 1015 68 10000 2.57 120 14:40 29.12.2021
6212 Clouds 26 1015 75 10000 1.54 40 12:48 29.12.2021
6213 Clouds 26 1015 75 10000 1.54 40 12:20 29.12.2021
6214 Clear 24 1013 86 10000 3.09 100 10:36 29.12.2021
6215 Clear 24 1013 73 10000 1.03 190 08:24 29.12.2021
6216 Clear 24 1013 78 10000 0.51 240 06:48 29.12.2021
6217 Clear 24 1013 78 10000 0.51 240 06:27 29.12.2021
6218 Clear 25 1013 73 10000 1.54 230 05:43 29.12.2021
6219 Clear 25 1013 81 10000 2.06 140 03:20 29.12.2021
6220 Clouds 25 1013 78 10000 2.57 70 00:25 29.12.2021
6221 Clouds 26 1013 67 10000 3.6 200 23:49 28.12.2021
6222 Clouds 26 1012 65 10000 6.69 180 22:50 28.12.2021
6223 Clouds 26 1012 65 10000 6.69 180 22:24 28.12.2021
6224 Rain 27 1011 66 10000 6.69 160 21:54 28.12.2021
6225 Rain 28 1015 61 10000 6.69 160 20:54 28.12.2021
6226 Clouds 29 1014 55 10000 6.17 160 19:50 28.12.2021
6227 Clear 30 1015 54 10000 6.17 120 18:50 28.12.2021
6228 Clear 30 1015 55 10000 6.17 120 18:23 28.12.2021
6229 Clear 30 1016 56 10000 6.17 120 17:25 28.12.2021
6230 Clear 29 1015 62 10000 2.57 10 15:53 28.12.2021
6231 Clear 27 1011 68 10000 2.57 10 15:29 28.12.2021
6232 Clear 27 1011 69 10000 2.06 130 14:54 28.12.2021
6233 Clear 27 1011 69 10000 2.06 130 14:22 28.12.2021
6234 Clear 26 1012 74 10000 3.09 140 13:54 28.12.2021
6235 Clear 26 1012 74 10000 3.09 140 13:33 28.12.2021
6236 Clear 26 1011 76 10000 2.57 120 12:55 28.12.2021
6237 Clear 26 1011 76 10000 2.57 120 12:19 28.12.2021
6238 Clear 21 1010 94 10000 2.06 50 09:32 28.12.2021
6239 Clear 22 1009 94 10000 1.54 350 07:33 28.12.2021
6240 Clouds 23 1010 91 10000 2.57 20 03:34 28.12.2021
6241 Mist 23 1017 92 10000 5.14 20 23:39 27.12.2021
6242 Clouds 22 1010 91 6000 7.2 50 22:20 27.12.2021
6243 Thunderstorm 23 1016 87 4000 7.72 300 21:30 27.12.2021
6244 Rain 25 1015 78 9000 5.14 0 20:39 27.12.2021
6245 Thunderstorm 26 1014 67 9000 8.23 220 19:48 27.12.2021
6246 Thunderstorm 27 1014 66 10000 10.8 200 19:27 27.12.2021
6247 Clouds 30 1013 60 10000 9.26 190 17:51 27.12.2021
6248 Clouds 30 1013 60 10000 9.26 190 17:28 27.12.2021
6249 Clouds 30 1014 63 10000 8.23 190 16:23 27.12.2021
6250 Clear 29 1015 72 10000 6.17 160 15:44 27.12.2021
6251 Clear 30 1010 60 10000 6.17 170 14:24 27.12.2021
6252 Clear 26 1009 74 10000 1.54 120 12:56 27.12.2021
6253 Clear 23 1008 85 10000 2.57 10 10:56 27.12.2021
6254 Clear 23 1008 85 10000 2.57 10 10:27 27.12.2021
6255 Clear 22 1007 94 10000 1.54 60 09:19 27.12.2021
6256 Clear 22 1008 88 10000 2.06 80 07:34 27.12.2021
6257 Clear 22 1008 83 10000 2.06 110 06:29 27.12.2021
6258 Clouds 25 1009 71 10000 3.09 70 01:57 27.12.2021
6259 Clouds 25 1008 74 10000 5.14 180 23:50 26.12.2021
6260 Clouds 25 1008 74 10000 5.14 180 23:20 26.12.2021
6261 Clouds 28 1007 60 10000 7.2 180 21:41 26.12.2021
6262 Clouds 30 1008 54 10000 8.23 170 19:57 26.12.2021
6263 Clouds 30 1009 54 10000 7.72 170 18:53 26.12.2021
6264 Clouds 31 1009 48 10000 4.12 130 18:22 26.12.2021
6265 Clear 28 1011 58 10000 3.09 140 15:54 26.12.2021
6266 Clear 25 1012 65 10000 2.57 340 13:51 26.12.2021
6267 Clear 25 1012 65 10000 2.57 340 13:32 26.12.2021
6268 Clear 24 1012 71 10000 1.54 330 12:37 26.12.2021
6269 Clear 23 1012 78 10000 1.03 0 11:57 26.12.2021
6270 Clear 21 1011 88 10000 2.57 10 09:44 26.12.2021
6271 Clear 20 1010 88 10000 2.57 50 08:59 26.12.2021
6272 Clear 20 1010 88 10000 2.57 50 08:38 26.12.2021
6273 Clear 21 1011 83 10000 2.06 70 06:47 26.12.2021
6274 Clouds 23 1012 76 10000 3.6 130 00:45 26.12.2021
6275 Clouds 23 1012 76 10000 5.14 140 23:50 25.12.2021
6276 Clouds 23 1012 76 10000 5.14 140 23:26 25.12.2021
6277 Clouds 24 1012 70 10000 6.17 160 22:22 25.12.2021
6278 Clouds 26 1011 63 10000 6.69 160 20:48 25.12.2021
6279 Clouds 26 1011 60 10000 7.2 160 19:21 25.12.2021
6280 Clouds 26 1011 60 10000 6.69 160 18:54 25.12.2021
6281 Clouds 26 1012 55 10000 4.63 150 16:58 25.12.2021
6282 Clouds 26 1012 55 10000 4.63 150 16:18 25.12.2021
6283 Clouds 25 1013 61 10000 1.54 70 14:38 25.12.2021
6284 Clouds 24 1013 74 10000 3.09 20 12:48 25.12.2021
6285 Clouds 22 1013 83 10000 2.06 320 11:37 25.12.2021
6286 Clouds 20 1012 88 10000 3.09 330 09:49 25.12.2021
6287 Clouds 20 1011 88 10000 1.03 330 07:54 25.12.2021
6288 Clouds 23 1012 80 10000 3.6 140 02:22 25.12.2021
6289 Clouds 23 1011 71 10000 4.63 170 00:33 25.12.2021
6290 Clouds 24 1011 71 10000 4.12 160 23:38 24.12.2021
6291 Clouds 26 1009 66 10000 6.17 160 19:39 24.12.2021
6292 Clouds 26 1009 66 10000 6.17 160 19:39 24.12.2021
6293 Rain 26 1009 66 10000 6.17 160 19:21 24.12.2021
6294 Clouds 26 1010 64 10000 7.2 170 16:50 24.12.2021
6295 Clouds 26 1010 64 10000 7.2 170 16:21 24.12.2021
6296 Clouds 26 1010 65 10000 5.66 170 15:46 24.12.2021
6297 Clouds 26 1010 68 10000 5.14 160 14:46 24.12.2021
6298 Clouds 26 1010 68 10000 5.14 160 14:23 24.12.2021
6299 Clouds 24 1010 76 10000 1.54 50 13:37 24.12.2021
6300 Clouds 23 1010 86 10000 2.06 10 12:48 24.12.2021
6301 Clouds 21 1010 94 10000 4.63 320 11:58 24.12.2021
6302 Clouds 21 1010 94 10000 4.63 320 11:27 24.12.2021
6303 Clouds 21 1009 94 9000 4.12 320 10:53 24.12.2021
6304 Clouds 21 1009 94 7000 4.63 310 10:22 24.12.2021
6305 Clouds 22 1008 88 10000 2.06 310 08:25 24.12.2021
6306 Clouds 22 1009 88 10000 2.06 290 07:50 24.12.2021
6307 Clouds 24 1010 73 10000 3.09 220 02:52 24.12.2021
6308 Clouds 25 1009 67 10000 3.6 230 00:19 24.12.2021
6309 Clouds 24 1008 77 10000 2.06 160 23:23 23.12.2021
6310 Clouds 25 1008 71 10000 2.57 240 22:39 23.12.2021
6311 Clouds 25 1008 71 10000 2.57 240 22:20 23.12.2021
6312 Clouds 25 1008 69 10000 3.09 190 21:34 23.12.2021
6313 Clouds 24 1008 81 10000 2.06 150 20:21 23.12.2021
6314 Clouds 25 1009 73 10000 2.57 190 18:53 23.12.2021
6315 Clouds 25 1009 70 8000 4.12 190 17:57 23.12.2021
6316 Clouds 25 1010 72 7000 3.09 240 16:58 23.12.2021
6317 Clouds 25 1010 72 7000 3.09 240 16:26 23.12.2021
6318 Clouds 25 1009 77 7000 3.09 200 15:32 23.12.2021
6319 Clouds 24 1009 85 7000 2.57 220 14:55 23.12.2021
6320 Rain 24 1009 85 7000 2.57 220 14:37 23.12.2021
6321 Rain 24 1009 88 7000 5.14 210 13:22 23.12.2021
6322 Rain 23 1007 97 7000 2.57 340 10:54 23.12.2021
6323 Rain 23 1007 94 8000 2.57 310 09:49 23.12.2021
6324 Rain 23 1007 94 8000 2.57 310 09:26 23.12.2021
6325 Rain 22 1007 94 6000 2.06 320 08:25 23.12.2021
6326 Rain 23 1007 94 8000 4.63 330 04:36 23.12.2021
6327 Thunderstorm 28 1004 60 10000 6.17 190 23:43 22.12.2021
6328 Clouds 29 1007 61 10000 8.23 180 22:49 22.12.2021
6329 Clouds 29 1007 60 10000 7.2 180 21:57 22.12.2021
6330 Clouds 30 1007 59 10000 7.2 180 21:29 22.12.2021
6331 Clouds 30 1007 58 10000 6.69 170 20:52 22.12.2021
6332 Clouds 30 1007 58 10000 6.69 170 20:33 22.12.2021
6333 Clouds 31 1008 56 10000 7.72 170 19:37 22.12.2021
6334 Clouds 32 1009 53 10000 6.69 160 18:19 22.12.2021
6335 Clouds 33 1009 50 10000 4.12 160 17:37 22.12.2021
6336 Clear 32 1006 57 10000 3.6 20 15:49 22.12.2021
6337 Clear 29 1007 60 10000 3.09 360 13:46 22.12.2021
6338 Clear 28 1007 67 10000 3.09 360 12:47 22.12.2021
6339 Clear 26 1007 74 10000 2.57 350 11:37 22.12.2021
6340 Clear 22 1006 94 10000 1.54 100 09:43 22.12.2021
6341 Clear 23 1007 88 10000 1.03 120 07:56 22.12.2021
6342 Clear 24 1007 83 10000 2.06 100 05:51 22.12.2021
6343 Clear 24 1007 83 10000 2.06 100 05:33 22.12.2021
6344 Clear 24 1008 83 10000 2.57 110 04:55 22.12.2021
6345 Clear 24 1008 83 10000 2.57 110 04:35 22.12.2021
6346 Clear 24 1008 80 10000 1.54 340 03:37 22.12.2021
6347 Clear 24 1008 80 10000 1.54 340 03:18 22.12.2021
6348 Clouds 26 1007 71 10000 5.14 190 23:47 21.12.2021
6349 Clouds 28 1007 66 10000 5.66 190 22:36 21.12.2021
6350 Clouds 29 1011 62 10000 5.14 180 21:55 21.12.2021
6351 Clouds 29 1007 59 10000 5.14 180 21:31 21.12.2021
6352 Clouds 30 1011 60 10000 4.63 150 20:24 21.12.2021
6353 Clouds 30 1011 60 10000 6.69 160 19:55 21.12.2021
6354 Clouds 30 1011 59 10000 6.69 160 19:33 21.12.2021
6355 Clouds 30 1012 58 10000 5.14 160 18:23 21.12.2021
6356 Clouds 30 1013 59 10000 7.72 160 17:53 21.12.2021
6357 Clouds 30 1013 59 10000 7.72 160 17:29 21.12.2021
6358 Clouds 29 1014 59 10000 5.14 160 15:34 21.12.2021
6359 Clouds 27 1011 66 10000 5.14 160 14:20 21.12.2021
6360 Clear 26 1011 67 10000 3.09 160 13:41 21.12.2021
6361 Clouds 26 1011 70 10000 1.03 0 12:25 21.12.2021
6362 Clear 23 1010 85 10000 1.54 30 10:38 21.12.2021
6363 Clouds 22 1010 83 8000 3.09 70 09:50 21.12.2021
6364 Clouds 22 1010 83 8000 3.09 120 08:55 21.12.2021
6365 Clouds 22 1010 83 10000 3.09 80 07:43 21.12.2021
6366 Clouds 22 1010 83 10000 3.09 80 07:20 21.12.2021
6367 Clouds 24 1012 75 10000 2.57 100 03:26 21.12.2021
6368 Clouds 24 1012 71 10000 5.14 110 01:25 21.12.2021
6369 Clouds 24 1011 78 10000 4.12 130 23:54 20.12.2021
6370 Clouds 25 1010 72 10000 6.69 130 22:35 20.12.2021
6371 Clouds 26 1014 68 10000 5.66 150 21:52 20.12.2021
6372 Clouds 26 1014 67 10000 5.66 150 21:24 20.12.2021
6373 Clouds 27 1015 67 10000 7.2 160 20:54 20.12.2021
6374 Clouds 27 1015 69 10000 7.2 160 20:23 20.12.2021
6375 Clouds 27 1015 64 10000 6.17 150 19:38 20.12.2021
6376 Clouds 27 1016 66 10000 6.17 150 19:19 20.12.2021
6377 Clouds 28 1016 62 10000 5.66 150 18:32 20.12.2021
6378 Clouds 27 1017 62 10000 6.69 160 17:50 20.12.2021
6379 Clouds 27 1018 62 10000 6.69 160 16:47 20.12.2021
6380 Clouds 27 1018 61 10000 6.69 160 16:18 20.12.2021
6381 Clouds 27 1018 62 10000 5.14 160 15:40 20.12.2021
6382 Clouds 25 1015 70 10000 2.06 330 13:49 20.12.2021
6383 Clouds 24 1015 76 10000 2.57 330 12:30 20.12.2021
6384 Clouds 21 1014 91 10000 2.57 20 10:50 20.12.2021
6385 Clouds 20 1014 88 10000 1.54 160 09:40 20.12.2021
6386 Clouds 20 1015 88 10000 1.54 130 08:50 20.12.2021
6387 Clouds 21 1015 88 10000 1.54 130 08:32 20.12.2021
6388 Clouds 20 1015 88 10000 2.06 140 07:35 20.12.2021
6389 Clouds 22 1015 78 10000 2.06 110 06:39 20.12.2021
6390 Clouds 24 1015 69 10000 5.14 110 00:26 20.12.2021
6391 Clouds 25 1014 67 10000 5.14 100 22:58 19.12.2021
6392 Clouds 25 1014 67 10000 5.14 100 22:40 19.12.2021
6393 Clouds 26 1018 61 10000 5.66 160 21:32 19.12.2021
6394 Clouds 26 1018 61 10000 5.66 160 20:42 19.12.2021
6395 Clouds 26 1018 61 10000 5.66 160 20:23 19.12.2021
6396 Clouds 27 1018 60 10000 6.17 160 19:41 19.12.2021
6397 Clouds 27 1019 57 10000 6.17 160 18:46 19.12.2021
6398 Clouds 27 1020 58 10000 8.75 140 17:54 19.12.2021
6399 Clouds 26 1015 60 10000 5.66 160 17:35 19.12.2021
6400 Clouds 26 1015 64 10000 6.69 150 16:41 19.12.2021
6401 Clouds 26 1020 63 10000 6.17 150 15:56 19.12.2021
6402 Clouds 26 1016 63 10000 6.17 150 15:25 19.12.2021
6403 Clouds 26 1016 67 10000 4.63 140 14:45 19.12.2021
6404 Clouds 25 1016 73 10000 3.6 160 13:35 19.12.2021
6405 Clouds 24 1015 79 10000 3.6 100 12:59 19.12.2021
6406 Clouds 24 1015 79 10000 3.6 100 12:31 19.12.2021
6407 Clouds 23 1015 84 10000 1.54 130 11:38 19.12.2021
6408 Clouds 23 1014 85 10000 1.03 0 10:50 19.12.2021
6409 Clouds 23 1014 85 10000 1.03 0 10:22 19.12.2021
6410 Clouds 22 1014 88 10000 2.57 150 08:51 19.12.2021
6411 Clouds 23 1015 83 10000 2.57 110 06:51 19.12.2021
6412 Clouds 23 1015 86 10000 4.12 170 02:30 19.12.2021
6413 Clouds 24 1021 86 10000 3.6 110 00:55 19.12.2021
6414 Clouds 24 1020 84 10000 7.72 150 23:21 18.12.2021
6415 Clouds 25 1014 77 10000 4.63 140 22:28 18.12.2021
6416 Clouds 25 1014 71 10000 5.14 140 21:44 18.12.2021
6417 Clouds 25 1014 71 10000 5.14 140 21:26 18.12.2021
6418 Clouds 25 1013 73 10000 5.66 150 20:43 18.12.2021
6419 Clouds 26 1013 72 10000 6.69 160 19:40 18.12.2021
6420 Clouds 26 1018 75 10000 7.2 160 18:26 18.12.2021
6421 Clouds 26 1018 74 10000 7.2 160 17:49 18.12.2021
6422 Clouds 26 1019 74 10000 7.72 160 16:50 18.12.2021
6423 Clouds 26 1020 76 10000 7.72 160 16:21 18.12.2021
6424 Clouds 27 1019 73 10000 7.2 160 15:24 18.12.2021
6425 Mist 26 1015 73 10000 5.14 160 13:58 18.12.2021
6426 Clouds 25 1014 86 8000 4.12 160 11:59 18.12.2021
6427 Clouds 24 1013 85 10000 4.63 180 09:59 18.12.2021
6428 Clouds 23 1013 94 10000 1.03 0 09:32 18.12.2021
6429 Clouds 24 1012 83 10000 2.06 200 08:36 18.12.2021
6430 Clouds 25 1022 91 10000 2.57 200 07:41 18.12.2021
6431 Drizzle 25 1012 97 9000 2.06 170 01:46 18.12.2021
6432 Clouds 24 1010 97 8000 2.57 90 23:56 17.12.2021
6433 Clouds 25 1014 96 6000 1.03 0 22:51 17.12.2021
6434 Rain 25 1014 95 6000 3.6 30 21:49 17.12.2021
6435 Rain 25 1014 95 4500 4.12 360 20:44 17.12.2021
6436 Clouds 26 1014 88 6000 2.57 320 19:58 17.12.2021
6437 Mist 27 1014 91 5000 5.14 190 18:40 17.12.2021
6438 Mist 26 1014 92 5000 5.14 190 18:18 17.12.2021
6439 Clouds 30 1010 72 10000 2.57 120 16:57 17.12.2021
6440 Clouds 30 1010 72 10000 2.57 120 16:28 17.12.2021
6441 Clouds 29 1011 77 10000 4.63 130 15:51 17.12.2021
6442 Clouds 29 1011 77 10000 2.57 120 14:43 17.12.2021
6443 Clouds 28 1011 80 10000 1.54 30 13:56 17.12.2021
6444 Clouds 27 1010 87 10000 3.09 20 12:38 17.12.2021
6445 Clouds 25 1009 94 10000 4.12 360 10:49 17.12.2021
6446 Clouds 25 1009 94 10000 1.03 310 09:51 17.12.2021
6447 Clouds 25 1008 94 8000 1.54 300 08:43 17.12.2021
6448 Clouds 24 1008 94 8000 1.54 300 08:18 17.12.2021
6449 Clouds 25 1010 94 10000 1.54 290 04:58 17.12.2021
6450 Clouds 24 1010 94 10000 2.57 340 00:58 17.12.2021
6451 Rain 24 1008 91 6000 2.06 150 22:44 16.12.2021
6452 Rain 25 1013 91 4000 8.75 250 22:22 16.12.2021
6453 Rain 26 1008 84 4000 7.72 310 21:43 16.12.2021
6454 Clouds 29 1006 68 10000 6.69 160 20:48 16.12.2021
6455 Clouds 29 1010 69 10000 6.69 160 20:21 16.12.2021
6456 Clouds 31 1006 63 10000 5.14 150 19:30 16.12.2021
6457 Clouds 32 1007 61 10000 4.12 10 18:33 16.12.2021
6458 Clouds 32 1007 60 10000 3.09 20 17:47 16.12.2021
6459 Clouds 31 1007 64 10000 2.57 20 16:26 16.12.2021
6460 Clear 31 1008 66 10000 2.06 20 15:50 16.12.2021
6461 Clear 29 1008 74 10000 2.06 10 13:46 16.12.2021
6462 Clear 29 1008 75 10000 1.03 30 12:30 16.12.2021
6463 Clouds 27 1008 86 10000 1.03 0 11:19 16.12.2021
6464 Rain 26 1007 91 10000 2.57 20 10:41 16.12.2021
6465 Rain 25 1007 94 7000 1.54 360 09:43 16.12.2021
6466 Clouds 25 1007 94 10000 1.54 30 06:51 16.12.2021
6467 Clouds 25 1007 94 10000 1.54 30 06:18 16.12.2021
6468 Rain 27 1008 81 10000 3.6 30 23:59 15.12.2021
6469 Clouds 27 1008 81 10000 3.6 30 23:18 15.12.2021
6470 Clouds 27 1007 84 10000 4.63 30 22:21 15.12.2021
6471 Clouds 28 1007 76 10000 5.66 20 21:44 15.12.2021
6472 Rain 28 1007 81 10000 2.06 100 21:24 15.12.2021
6473 Clouds 31 1006 62 10000 7.72 340 19:54 15.12.2021
6474 Clouds 34 1006 51 10000 2.57 330 19:18 15.12.2021
6475 Rain 32 1007 62 10000 3.09 20 18:20 15.12.2021
6476 Rain 33 1007 56 10000 4.12 30 17:45 15.12.2021
6477 Rain 33 1007 58 10000 4.12 30 17:21 15.12.2021
6478 Clouds 33 1008 54 10000 4.12 10 15:49 15.12.2021
6479 Clouds 33 1008 54 10000 4.12 10 15:31 15.12.2021
6480 Clouds 32 1009 60 10000 2.57 70 14:59 15.12.2021
6481 Clouds 30 1009 70 10000 2.57 20 13:45 15.12.2021
6482 Clouds 27 1008 88 10000 2.06 340 11:52 15.12.2021
6483 Clouds 26 1008 91 10000 1.03 0 10:22 15.12.2021
6484 Clouds 25 1008 88 10000 2.57 230 08:26 15.12.2021
6485 Clouds 25 1009 94 10000 2.06 320 05:54 15.12.2021
6486 Clouds 26 1009 90 10000 2.06 20 00:39 15.12.2021
6487 Clouds 27 1009 86 10000 2.06 330 23:31 14.12.2021
6488 Rain 27 1008 87 7000 1.54 240 22:44 14.12.2021
6489 Rain 28 1007 81 5000 1.54 100 21:43 14.12.2021
6490 Clouds 29 1007 77 10000 7.2 180 20:23 14.12.2021
6491 Clouds 30 1007 71 10000 7.2 170 19:37 14.12.2021
6492 Clouds 31 1011 69 10000 6.69 160 18:39 14.12.2021
6493 Clouds 31 1012 70 10000 5.66 160 17:56 14.12.2021
6494 Clouds 30 1009 69 10000 6.17 160 16:49 14.12.2021
6495 Clouds 30 1009 69 10000 6.17 160 16:30 14.12.2021
6496 Clouds 30 1010 71 10000 3.6 160 14:32 14.12.2021
6497 Clouds 29 1010 77 8000 3.09 160 13:22 14.12.2021
6498 Clouds 26 1010 88 6000 1.03 130 11:51 14.12.2021
6499 Clouds 26 1010 88 6000 1.03 130 11:22 14.12.2021
6500 Clouds 25 1016 94 6000 1.54 130 09:55 14.12.2021
6501 Clouds 25 1019 94 10000 1.03 310 09:22 14.12.2021
6502 Clouds 25 1019 93 10000 1.03 300 08:22 14.12.2021
6503 Clouds 25 1011 88 10000 1.54 230 07:42 14.12.2021
6504 Clouds 26 1016 88 10000 4.63 170 00:35 14.12.2021
6505 Clouds 26 1010 85 10000 4.63 120 22:49 13.12.2021
6506 Clouds 27 1009 76 10000 5.66 160 21:51 13.12.2021
6507 Clouds 29 1008 72 10000 8.23 180 20:58 13.12.2021
6508 Clouds 29 1008 72 10000 8.23 180 20:31 13.12.2021
6509 Clouds 29 1008 74 10000 7.2 170 19:52 13.12.2021
6510 Rain 28 1013 78 10000 7.72 160 17:56 13.12.2021
6511 Rain 28 1013 80 10000 7.72 160 17:23 13.12.2021
6512 Rain 28 1013 80 10000 7.72 160 17:23 13.12.2021
6513 Clouds 29 1013 71 10000 6.69 150 15:49 13.12.2021
6514 Clouds 29 1013 70 10000 6.69 150 15:19 13.12.2021
6515 Clear 29 1009 70 10000 2.06 140 13:38 13.12.2021
6516 Clear 28 1009 78 10000 3.09 140 12:42 13.12.2021
6517 Clear 26 1009 84 10000 2.57 170 11:54 13.12.2021
6518 Clear 26 1009 84 10000 2.57 170 11:35 13.12.2021
6519 Clear 24 1008 94 10000 1.54 40 10:43 13.12.2021
6520 Clouds 25 1018 95 10000 1.03 0 08:52 13.12.2021
6521 Clouds 23 1007 94 10000 1.03 0 07:38 13.12.2021
6522 Clouds 25 1017 93 10000 1.03 0 05:34 13.12.2021
6523 Rain 25 1014 88 10000 4.63 20 00:43 13.12.2021
6524 Clouds 24 1008 88 9000 7.72 300 22:22 12.12.2021
6525 Mist 25 1011 81 8000 5.14 230 21:35 12.12.2021
6526 Rain 32 1008 60 10000 5.14 190 19:40 12.12.2021
6527 Clouds 33 1008 51 10000 3.6 160 18:35 12.12.2021
6528 Clear 34 1010 49 10000 1.54 70 17:26 12.12.2021
6529 Clear 33 1010 51 10000 1.54 320 16:27 12.12.2021
6530 Clear 32 1011 61 10000 2.57 10 15:41 12.12.2021
6531 Clear 31 1011 61 10000 2.57 10 15:22 12.12.2021
6532 Clouds 29 1007 69 10000 2.57 20 14:34 12.12.2021
6533 Clouds 26 1008 86 10000 2.57 360 13:22 12.12.2021
6534 Rain 25 1007 89 10000 4.12 20 12:27 12.12.2021
6535 Rain 25 1012 93 10000 1.54 20 11:44 12.12.2021
6536 Rain 24 1007 93 10000 1.54 20 11:20 12.12.2021
6537 Clouds 24 1007 89 10000 1.54 140 10:22 12.12.2021
6538 Clouds 24 1005 83 10000 1.03 270 08:58 12.12.2021
6539 Clouds 24 1006 83 10000 1.54 280 07:32 12.12.2021
6540 Clouds 25 1007 83 10000 1.54 300 05:57 12.12.2021
6541 Clouds 25 1007 78 10000 1.03 310 04:56 12.12.2021
6542 Clouds 25 1007 83 10000 1.54 200 03:27 12.12.2021
6543 Clouds 26 1012 82 10000 5.14 180 23:44 11.12.2021
6544 Clouds 26 1011 81 10000 8.23 170 22:22 11.12.2021
6545 Clouds 27 1010 76 10000 7.72 170 21:51 11.12.2021
6546 Clouds 27 1010 74 10000 8.75 170 20:51 11.12.2021
6547 Clouds 27 1010 71 10000 8.23 170 19:23 11.12.2021
6548 Clouds 28 1011 70 10000 9.26 160 18:52 11.12.2021
6549 Clouds 28 1007 66 10000 9.26 160 18:21 11.12.2021
6550 Clouds 29 1012 65 10000 7.2 160 17:21 11.12.2021
6551 Clear 28 1013 65 10000 5.14 160 15:54 11.12.2021
6552 Clear 28 1013 63 10000 5.14 160 15:28 11.12.2021
6553 Clear 24 1010 76 10000 2.57 360 12:57 11.12.2021
6554 Clouds 23 1010 83 10000 2.06 20 11:26 11.12.2021
6555 Clouds 22 1009 88 10000 1.54 360 09:46 11.12.2021
6556 Clouds 23 1019 89 10000 2.06 10 08:28 11.12.2021
6557 Clouds 23 1018 74 10000 3.6 120 02:29 11.12.2021
6558 Clouds 23 1016 76 10000 4.63 170 00:36 11.12.2021
6559 Clouds 23 1016 75 10000 5.14 180 23:23 10.12.2021
6560 Clouds 24 1010 69 10000 7.72 180 21:57 10.12.2021
6561 Clouds 24 1014 69 10000 7.72 180 21:31 10.12.2021
6562 Clouds 26 1014 65 10000 7.2 170 19:22 10.12.2021
6563 Clouds 26 1015 62 10000 6.69 170 18:21 10.12.2021
6564 Clouds 26 1016 63 10000 5.14 160 16:57 10.12.2021
6565 Clouds 26 1016 63 10000 5.14 160 16:29 10.12.2021
6566 Clouds 26 1016 64 10000 5.14 160 15:41 10.12.2021
6567 Clouds 26 1016 64 10000 5.14 160 15:21 10.12.2021
6568 Clouds 25 1013 68 10000 3.09 20 13:52 10.12.2021
6569 Clouds 25 1013 68 10000 3.09 20 13:26 10.12.2021
6570 Clouds 24 1013 71 10000 3.6 30 12:47 10.12.2021
6571 Clouds 22 1013 82 10000 3.6 10 11:30 10.12.2021
6572 Clouds 22 1012 83 10000 3.09 40 10:38 10.12.2021
6573 Clouds 21 1013 83 10000 2.57 230 09:19 10.12.2021
6574 Clouds 22 1013 78 10000 2.57 290 06:59 10.12.2021
6575 Clouds 23 1014 73 10000 3.09 190 02:51 10.12.2021
6576 Clouds 23 1014 71 10000 4.63 190 00:57 10.12.2021
6577 Clouds 23 1013 67 10000 4.63 200 23:38 09.12.2021
6578 Clouds 24 1012 68 10000 4.63 210 22:40 09.12.2021
6579 Clouds 24 1012 68 10000 4.63 210 22:19 09.12.2021
6580 Clouds 25 1012 63 10000 7.72 190 21:20 09.12.2021
6581 Clouds 25 1012 63 10000 8.23 190 20:34 09.12.2021
6582 Clouds 26 1013 62 10000 8.23 200 19:22 09.12.2021
6583 Clouds 26 1013 63 10000 8.23 200 18:53 09.12.2021
6584 Clouds 25 1013 65 10000 7.72 200 17:58 09.12.2021
6585 Clouds 25 1013 65 10000 7.72 200 17:28 09.12.2021
6586 Clouds 26 1018 65 10000 2.06 100 16:57 09.12.2021
6587 Clouds 26 1014 65 10000 2.06 100 16:20 09.12.2021
6588 Clouds 25 1018 69 10000 2.06 130 14:58 09.12.2021
6589 Clouds 24 1015 71 10000 3.6 350 13:52 09.12.2021
6590 Clouds 23 1015 74 10000 2.06 280 12:47 09.12.2021
6591 Clouds 22 1014 82 10000 3.09 310 11:29 09.12.2021
6592 Clouds 21 1013 88 10000 1.54 270 10:20 09.12.2021
6593 Clouds 20 1014 94 8000 1.54 230 06:53 09.12.2021
6594 Rain 22 1014 85 10000 3.09 280 03:50 09.12.2021
6595 Clouds 21 1014 88 10000 2.57 130 00:25 09.12.2021
6596 Clouds 21 1014 81 10000 1.54 150 23:36 08.12.2021
6597 Clouds 22 1014 82 10000 2.57 160 22:57 08.12.2021
6598 Rain 22 1017 83 10000 3.6 170 21:50 08.12.2021
6599 Clouds 22 1017 83 10000 3.6 170 21:32 08.12.2021
6600 Clouds 23 1017 83 10000 2.57 140 20:31 08.12.2021
6601 Clouds 22 1017 85 10000 4.12 160 19:55 08.12.2021
6602 Rain 22 1018 83 10000 5.66 180 18:57 08.12.2021
6603 Rain 22 1018 85 10000 5.66 180 18:22 08.12.2021
6604 Mist 22 1018 87 10000 7.2 180 16:49 08.12.2021
6605 Clouds 23 1014 83 10000 5.14 210 15:41 08.12.2021
6606 Clouds 23 1014 83 10000 5.14 210 15:22 08.12.2021
6607 Clouds 22 1013 90 8000 2.57 330 13:21 08.12.2021
6608 Rain 20 1013 97 9000 2.06 90 10:44 08.12.2021
6609 Rain 20 1013 94 6000 2.06 250 09:32 08.12.2021
6610 Rain 21 1012 94 10000 3.09 300 08:32 08.12.2021
6611 Rain 21 1012 94 8000 2.06 280 06:22 08.12.2021
6612 Rain 21 1020 96 5000 3.09 190 00:41 08.12.2021
6613 Rain 21 1019 96 6000 5.66 170 23:22 07.12.2021
6614 Rain 22 1013 91 9000 3.09 160 21:25 07.12.2021
6615 Rain 23 1017 89 8000 4.12 170 20:25 07.12.2021
6616 Rain 23 1018 91 9000 5.14 170 19:21 07.12.2021
6617 Rain 23 1016 90 4500 6.17 130 18:23 07.12.2021
6618 Clouds 26 1013 71 10000 4.63 160 17:27 07.12.2021
6619 Clouds 25 1013 77 10000 5.14 160 16:53 07.12.2021
6620 Rain 25 1017 78 10000 5.14 160 16:25 07.12.2021
6621 Rain 25 1018 81 10000 5.66 150 14:38 07.12.2021
6622 Clouds 24 1013 83 10000 1.54 140 13:41 07.12.2021
6623 Clouds 25 1019 83 10000 1.03 0 12:22 07.12.2021
6624 Clouds 24 1013 88 10000 3.6 180 11:19 07.12.2021
6625 Clouds 22 1012 88 9000 2.06 190 09:36 07.12.2021
6626 Rain 22 1012 88 10000 1.54 120 07:50 07.12.2021
6627 Rain 23 1012 88 10000 2.06 250 05:52 07.12.2021
6628 Rain 23 1012 88 10000 2.06 250 05:26 07.12.2021
6629 Clouds 25 1012 73 10000 4.63 210 23:36 06.12.2021
6630 Clouds 25 1012 74 10000 4.63 190 22:41 06.12.2021
6631 Clouds 26 1011 68 10000 3.09 190 21:59 06.12.2021
6632 Clouds 26 1011 68 10000 3.09 190 21:36 06.12.2021
6633 Clouds 26 1011 76 10000 5.66 220 20:33 06.12.2021
6634 Clouds 27 1015 72 10000 5.14 210 19:25 06.12.2021
6635 Clouds 27 1015 69 10000 7.2 200